<?xml version="1.0" encoding="UTF-8" standalone="no" ?>
<gpx xmlns="http://www.topografix.com/GPX/1/1" xmlns:xsi="http://www.w3.org/2001/XMLSchema-instance" xsi:schemaLocation="http://www.topografix.com/GPX/1/1 http://www.topografix.com/GPX/1/1/gpx.xsd" version="1.1" creator="VisuGPX - https://www.visugpx.com">
  <metadata>
    <name>Balade hivernale</name>
    <desc><![CDATA[Balade effectuée du 9 décembre 2022 au 7 janvier 2023.]]></desc>
  </metadata>
  <trk>
    <name><![CDATA[St-Agnant - St-Vivien du Médoc]]></name>
    <extensions>
      <line xmlns="http://www.topografix.com/GPX/gpx_style/0/2">
        <color>0000FF</color>
        <width>4</width>
      </line>
    </extensions>
    <trkseg>
      <trkpt lat="45.87187" lon="-0.94224">
        <ele>62.621389</ele>
        <time>2022-12-22T09:40:56.211Z</time>
      </trkpt>
      <trkpt lat="45.87194" lon="-0.94215">
        <ele>62.621389</ele>
        <time>2022-12-22T09:42:58.652Z</time>
      </trkpt>
      <trkpt lat="45.87202" lon="-0.94209">
        <ele>62.621389</ele>
        <time>2022-12-22T09:43:08.541Z</time>
      </trkpt>
      <trkpt lat="45.8721" lon="-0.94203">
        <ele>62.621389</ele>
        <time>2022-12-22T09:43:18.555Z</time>
      </trkpt>
      <trkpt lat="45.87208" lon="-0.94185">
        <ele>62.621389</ele>
        <time>2022-12-22T09:44:08.546Z</time>
      </trkpt>
      <trkpt lat="45.87202" lon="-0.94175">
        <ele>62.621389</ele>
        <time>2022-12-22T09:44:13.561Z</time>
      </trkpt>
      <trkpt lat="45.87195" lon="-0.94166">
        <ele>62.621389</ele>
        <time>2022-12-22T09:44:17.546Z</time>
      </trkpt>
      <trkpt lat="45.87188" lon="-0.94156">
        <ele>62.621389</ele>
        <time>2022-12-22T09:44:21.556Z</time>
      </trkpt>
      <trkpt lat="45.87182" lon="-0.94147">
        <ele>62.621389</ele>
        <time>2022-12-22T09:44:25.573Z</time>
      </trkpt>
      <trkpt lat="45.87174" lon="-0.94137">
        <ele>62.621389</ele>
        <time>2022-12-22T09:44:30.558Z</time>
      </trkpt>
      <trkpt lat="45.87167" lon="-0.94125">
        <ele>62.449106</ele>
        <time>2022-12-22T09:44:36.569Z</time>
      </trkpt>
      <trkpt lat="45.87161" lon="-0.94115">
        <ele>62.265654</ele>
        <time>2022-12-22T09:44:41.566Z</time>
      </trkpt>
      <trkpt lat="45.87153" lon="-0.94106">
        <ele>62.068803</ele>
        <time>2022-12-22T09:44:46.564Z</time>
      </trkpt>
      <trkpt lat="45.87146" lon="-0.94098">
        <ele>61.892961</ele>
        <time>2022-12-22T09:44:54.553Z</time>
      </trkpt>
      <trkpt lat="45.87139" lon="-0.94111">
        <ele>61.676481</ele>
        <time>2022-12-22T09:45:00.561Z</time>
      </trkpt>
      <trkpt lat="45.87138" lon="-0.94126">
        <ele>61.481103</ele>
        <time>2022-12-22T09:45:03.564Z</time>
      </trkpt>
      <trkpt lat="45.87137" lon="-0.94141">
        <ele>61.266293</ele>
        <time>2022-12-22T09:45:06.555Z</time>
      </trkpt>
      <trkpt lat="45.87135" lon="-0.94158">
        <ele>61.035953</ele>
        <time>2022-12-22T09:45:09.561Z</time>
      </trkpt>
      <trkpt lat="45.87133" lon="-0.94175">
        <ele>60.809133</ele>
        <time>2022-12-22T09:45:12.564Z</time>
      </trkpt>
      <trkpt lat="45.87133" lon="-0.94191">
        <ele>60.588162</ele>
        <time>2022-12-22T09:45:15.543Z</time>
      </trkpt>
      <trkpt lat="45.87134" lon="-0.94208">
        <ele>60.369331</ele>
        <time>2022-12-22T09:45:18.568Z</time>
      </trkpt>
      <trkpt lat="45.87135" lon="-0.94223">
        <ele>60.156566</ele>
        <time>2022-12-22T09:45:21.540Z</time>
      </trkpt>
      <trkpt lat="45.87138" lon="-0.94238">
        <ele>59.951624</ele>
        <time>2022-12-22T09:45:24.562Z</time>
      </trkpt>
      <trkpt lat="45.8714" lon="-0.94253">
        <ele>59.752731</ele>
        <time>2022-12-22T09:45:27.546Z</time>
      </trkpt>
      <trkpt lat="45.8714" lon="-0.94267">
        <ele>59.560078</ele>
        <time>2022-12-22T09:45:30.564Z</time>
      </trkpt>
      <trkpt lat="45.87141" lon="-0.94281">
        <ele>59.364738</ele>
        <time>2022-12-22T09:45:33.560Z</time>
      </trkpt>
      <trkpt lat="45.8714" lon="-0.94296">
        <ele>59.165562</ele>
        <time>2022-12-22T09:45:36.561Z</time>
      </trkpt>
      <trkpt lat="45.8714" lon="-0.94311">
        <ele>59.037466</ele>
        <time>2022-12-22T09:45:39.538Z</time>
      </trkpt>
      <trkpt lat="45.87139" lon="-0.94327">
        <ele>58.91253</ele>
        <time>2022-12-22T09:45:42.564Z</time>
      </trkpt>
      <trkpt lat="45.87139" lon="-0.94343">
        <ele>58.780616</ele>
        <time>2022-12-22T09:45:45.540Z</time>
      </trkpt>
      <trkpt lat="45.87139" lon="-0.9436">
        <ele>58.643052</ele>
        <time>2022-12-22T09:45:48.551Z</time>
      </trkpt>
      <trkpt lat="45.8714" lon="-0.94378">
        <ele>58.496369</ele>
        <time>2022-12-22T09:45:51.552Z</time>
      </trkpt>
      <trkpt lat="45.87145" lon="-0.94437">
        <ele>58.017868</ele>
        <time>2022-12-22T09:46:01.984Z</time>
      </trkpt>
      <trkpt lat="45.87148" lon="-0.94457">
        <ele>57.856451</ele>
        <time>2022-12-22T09:46:04.210Z</time>
      </trkpt>
      <trkpt lat="45.87153" lon="-0.94474">
        <ele>57.712742</ele>
        <time>2022-12-22T09:46:07.200Z</time>
      </trkpt>
      <trkpt lat="45.87155" lon="-0.9449">
        <ele>57.580337</ele>
        <time>2022-12-22T09:46:10.542Z</time>
      </trkpt>
      <trkpt lat="45.87157" lon="-0.94504">
        <ele>57.460456</ele>
        <time>2022-12-22T09:46:14.127Z</time>
      </trkpt>
      <trkpt lat="45.87159" lon="-0.94518">
        <ele>57.346147</ele>
        <time>2022-12-22T09:46:16.533Z</time>
      </trkpt>
      <trkpt lat="45.87161" lon="-0.94531">
        <ele>57.240596</ele>
        <time>2022-12-22T09:46:19.578Z</time>
      </trkpt>
      <trkpt lat="45.87164" lon="-0.94543">
        <ele>57.136093</ele>
        <time>2022-12-22T09:46:22.566Z</time>
      </trkpt>
      <trkpt lat="45.87167" lon="-0.9456">
        <ele>57.114593</ele>
        <time>2022-12-22T09:46:26.546Z</time>
      </trkpt>
      <trkpt lat="45.8717" lon="-0.94575">
        <ele>57.201392</ele>
        <time>2022-12-22T09:46:30.554Z</time>
      </trkpt>
      <trkpt lat="45.87174" lon="-0.9459">
        <ele>57.288394</ele>
        <time>2022-12-22T09:46:34.534Z</time>
      </trkpt>
      <trkpt lat="45.87177" lon="-0.94605">
        <ele>57.375429</ele>
        <time>2022-12-22T09:46:38.551Z</time>
      </trkpt>
      <trkpt lat="45.8718" lon="-0.94619">
        <ele>57.460493</ele>
        <time>2022-12-22T09:46:42.560Z</time>
      </trkpt>
      <trkpt lat="45.87181" lon="-0.94637">
        <ele>57.555435</ele>
        <time>2022-12-22T09:46:46.569Z</time>
      </trkpt>
      <trkpt lat="45.87181" lon="-0.94654">
        <ele>57.650628</ele>
        <time>2022-12-22T09:46:50.570Z</time>
      </trkpt>
      <trkpt lat="45.8718" lon="-0.94667">
        <ele>57.723384</ele>
        <time>2022-12-22T09:46:53.560Z</time>
      </trkpt>
      <trkpt lat="45.8718" lon="-0.9468">
        <ele>57.798734</ele>
        <time>2022-12-22T09:46:56.541Z</time>
      </trkpt>
      <trkpt lat="45.87179" lon="-0.94695">
        <ele>57.87689</ele>
        <time>2022-12-22T09:46:59.543Z</time>
      </trkpt>
      <trkpt lat="45.87179" lon="-0.94708">
        <ele>57.953278</ele>
        <time>2022-12-22T09:47:02.560Z</time>
      </trkpt>
      <trkpt lat="45.8718" lon="-0.94722">
        <ele>58.031321</ele>
        <time>2022-12-22T09:47:05.553Z</time>
      </trkpt>
      <trkpt lat="45.87182" lon="-0.94736">
        <ele>58.109693</ele>
        <time>2022-12-22T09:47:08.537Z</time>
      </trkpt>
      <trkpt lat="45.87185" lon="-0.94751">
        <ele>58.194012</ele>
        <time>2022-12-22T09:47:12.542Z</time>
      </trkpt>
      <trkpt lat="45.8719" lon="-0.94767">
        <ele>58.291321</ele>
        <time>2022-12-22T09:47:16.563Z</time>
      </trkpt>
      <trkpt lat="45.87194" lon="-0.94781">
        <ele>58.374024</ele>
        <time>2022-12-22T09:47:19.542Z</time>
      </trkpt>
      <trkpt lat="45.87198" lon="-0.94795">
        <ele>58.458877</ele>
        <time>2022-12-22T09:47:22.560Z</time>
      </trkpt>
      <trkpt lat="45.87204" lon="-0.94806">
        <ele>58.467821</ele>
        <time>2022-12-22T09:47:25.561Z</time>
      </trkpt>
      <trkpt lat="45.87209" lon="-0.94817">
        <ele>58.412766</ele>
        <time>2022-12-22T09:47:28.546Z</time>
      </trkpt>
      <trkpt lat="45.87216" lon="-0.94827">
        <ele>58.351526</ele>
        <time>2022-12-22T09:47:31.551Z</time>
      </trkpt>
      <trkpt lat="45.87226" lon="-0.94837">
        <ele>58.279729</ele>
        <time>2022-12-22T09:47:34.569Z</time>
      </trkpt>
      <trkpt lat="45.87238" lon="-0.94842">
        <ele>58.205741</ele>
        <time>2022-12-22T09:47:37.556Z</time>
      </trkpt>
      <trkpt lat="45.8725" lon="-0.94843">
        <ele>58.134885</ele>
        <time>2022-12-22T09:47:40.645Z</time>
      </trkpt>
      <trkpt lat="45.87262" lon="-0.94844">
        <ele>58.063667</ele>
        <time>2022-12-22T09:47:43.565Z</time>
      </trkpt>
      <trkpt lat="45.87274" lon="-0.94845">
        <ele>57.991756</ele>
        <time>2022-12-22T09:47:46.549Z</time>
      </trkpt>
      <trkpt lat="45.87286" lon="-0.94844">
        <ele>57.918704</ele>
        <time>2022-12-22T09:47:49.548Z</time>
      </trkpt>
      <trkpt lat="45.87299" lon="-0.94844">
        <ele>57.842703</ele>
        <time>2022-12-22T09:47:52.566Z</time>
      </trkpt>
      <trkpt lat="45.87311" lon="-0.94846">
        <ele>57.766886</ele>
        <time>2022-12-22T09:47:55.571Z</time>
      </trkpt>
      <trkpt lat="45.87324" lon="-0.94851">
        <ele>57.686591</ele>
        <time>2022-12-22T09:47:58.539Z</time>
      </trkpt>
      <trkpt lat="45.87335" lon="-0.94855">
        <ele>57.622629</ele>
        <time>2022-12-22T09:48:01.563Z</time>
      </trkpt>
      <trkpt lat="45.87348" lon="-0.94867">
        <ele>57.529196</ele>
        <time>2022-12-22T09:48:59.553Z</time>
      </trkpt>
      <trkpt lat="45.87356" lon="-0.94875">
        <ele>57.467821</ele>
        <time>2022-12-22T09:49:02.554Z</time>
      </trkpt>
      <trkpt lat="45.87367" lon="-0.94887">
        <ele>57.464204</ele>
        <time>2022-12-22T09:49:05.540Z</time>
      </trkpt>
      <trkpt lat="45.87374" lon="-0.94896">
        <ele>57.540447</ele>
        <time>2022-12-22T09:49:07.543Z</time>
      </trkpt>
      <trkpt lat="45.87381" lon="-0.94906">
        <ele>57.618351</ele>
        <time>2022-12-22T09:49:09.543Z</time>
      </trkpt>
      <trkpt lat="45.8739" lon="-0.94921">
        <ele>57.729237</ele>
        <time>2022-12-22T09:49:12.553Z</time>
      </trkpt>
      <trkpt lat="45.87398" lon="-0.94935">
        <ele>57.828757</ele>
        <time>2022-12-22T09:49:15.553Z</time>
      </trkpt>
      <trkpt lat="45.87404" lon="-0.94949">
        <ele>57.924087</ele>
        <time>2022-12-22T09:49:18.553Z</time>
      </trkpt>
      <trkpt lat="45.8741" lon="-0.94963">
        <ele>58.015033</ele>
        <time>2022-12-22T09:49:21.556Z</time>
      </trkpt>
      <trkpt lat="45.87415" lon="-0.94975">
        <ele>58.097287</ele>
        <time>2022-12-22T09:49:24.558Z</time>
      </trkpt>
      <trkpt lat="45.8742" lon="-0.94989">
        <ele>58.180173</ele>
        <time>2022-12-22T09:49:27.532Z</time>
      </trkpt>
      <trkpt lat="45.87425" lon="-0.95001">
        <ele>58.258411</ele>
        <time>2022-12-22T09:49:30.556Z</time>
      </trkpt>
      <trkpt lat="45.87431" lon="-0.95012">
        <ele>58.336588</ele>
        <time>2022-12-22T09:49:33.534Z</time>
      </trkpt>
      <trkpt lat="45.87436" lon="-0.95023">
        <ele>58.412353</ele>
        <time>2022-12-22T09:49:36.557Z</time>
      </trkpt>
      <trkpt lat="45.87443" lon="-0.95035">
        <ele>58.502171</ele>
        <time>2022-12-22T09:49:40.557Z</time>
      </trkpt>
      <trkpt lat="45.87451" lon="-0.95047">
        <ele>58.589918</ele>
        <time>2022-12-22T09:49:44.553Z</time>
      </trkpt>
      <trkpt lat="45.8746" lon="-0.95054">
        <ele>58.675621</ele>
        <time>2022-12-22T09:49:48.558Z</time>
      </trkpt>
      <trkpt lat="45.87471" lon="-0.95057">
        <ele>58.762822</ele>
        <time>2022-12-22T09:49:52.545Z</time>
      </trkpt>
      <trkpt lat="45.87482" lon="-0.95058">
        <ele>58.853209</ele>
        <time>2022-12-22T09:49:56.558Z</time>
      </trkpt>
      <trkpt lat="45.87493" lon="-0.95059">
        <ele>58.95576</ele>
        <time>2022-12-22T09:50:00.548Z</time>
      </trkpt>
      <trkpt lat="45.87503" lon="-0.95062">
        <ele>59.057171</ele>
        <time>2022-12-22T09:50:04.557Z</time>
      </trkpt>
      <trkpt lat="45.87513" lon="-0.95064">
        <ele>59.153416</ele>
        <time>2022-12-22T09:50:08.555Z</time>
      </trkpt>
      <trkpt lat="45.87516" lon="-0.95079">
        <ele>59.258048</ele>
        <time>2022-12-22T09:50:12.541Z</time>
      </trkpt>
      <trkpt lat="45.87512" lon="-0.95093">
        <ele>59.360083</ele>
        <time>2022-12-22T09:50:15.534Z</time>
      </trkpt>
      <trkpt lat="45.87508" lon="-0.95107">
        <ele>59.460321</ele>
        <time>2022-12-22T09:50:18.541Z</time>
      </trkpt>
      <trkpt lat="45.87507" lon="-0.95122">
        <ele>59.560385</ele>
        <time>2022-12-22T09:50:21.555Z</time>
      </trkpt>
      <trkpt lat="45.87507" lon="-0.95136">
        <ele>59.658376</ele>
        <time>2022-12-22T09:50:24.560Z</time>
      </trkpt>
      <trkpt lat="45.87506" lon="-0.95151">
        <ele>59.75484</ele>
        <time>2022-12-22T09:50:27.539Z</time>
      </trkpt>
      <trkpt lat="45.87506" lon="-0.95165">
        <ele>59.852675</ele>
        <time>2022-12-22T09:50:30.554Z</time>
      </trkpt>
      <trkpt lat="45.87505" lon="-0.9518">
        <ele>59.952609</ele>
        <time>2022-12-22T09:50:33.557Z</time>
      </trkpt>
      <trkpt lat="45.87505" lon="-0.95196">
        <ele>60.057281</ele>
        <time>2022-12-22T09:50:36.561Z</time>
      </trkpt>
      <trkpt lat="45.87504" lon="-0.95211">
        <ele>60.159222</ele>
        <time>2022-12-22T09:50:39.552Z</time>
      </trkpt>
      <trkpt lat="45.87503" lon="-0.95227">
        <ele>60.266786</ele>
        <time>2022-12-22T09:50:43.556Z</time>
      </trkpt>
      <trkpt lat="45.87503" lon="-0.95241">
        <ele>60.358701</ele>
        <time>2022-12-22T09:50:47.540Z</time>
      </trkpt>
      <trkpt lat="45.87502" lon="-0.95258">
        <ele>60.471454</ele>
        <time>2022-12-22T09:50:51.557Z</time>
      </trkpt>
      <trkpt lat="45.87501" lon="-0.95271">
        <ele>60.563434</ele>
        <time>2022-12-22T09:50:54.544Z</time>
      </trkpt>
      <trkpt lat="45.875" lon="-0.95285">
        <ele>60.649383</ele>
        <time>2022-12-22T09:50:57.541Z</time>
      </trkpt>
      <trkpt lat="45.87499" lon="-0.95299">
        <ele>60.730868</ele>
        <time>2022-12-22T09:51:00.545Z</time>
      </trkpt>
      <trkpt lat="45.87497" lon="-0.95313">
        <ele>60.816528</ele>
        <time>2022-12-22T09:51:03.557Z</time>
      </trkpt>
      <trkpt lat="45.87495" lon="-0.95328">
        <ele>60.905407</ele>
        <time>2022-12-22T09:51:06.557Z</time>
      </trkpt>
      <trkpt lat="45.87492" lon="-0.95343">
        <ele>60.994912</ele>
        <time>2022-12-22T09:51:09.560Z</time>
      </trkpt>
      <trkpt lat="45.87489" lon="-0.95357">
        <ele>61.084769</ele>
        <time>2022-12-22T09:51:12.557Z</time>
      </trkpt>
      <trkpt lat="45.87485" lon="-0.95371">
        <ele>61.172471</ele>
        <time>2022-12-22T09:51:15.531Z</time>
      </trkpt>
      <trkpt lat="45.87481" lon="-0.95385">
        <ele>61.260923</ele>
        <time>2022-12-22T09:51:18.538Z</time>
      </trkpt>
      <trkpt lat="45.87476" lon="-0.95398">
        <ele>61.350856</ele>
        <time>2022-12-22T09:51:21.556Z</time>
      </trkpt>
      <trkpt lat="45.87471" lon="-0.95412">
        <ele>61.441311</ele>
        <time>2022-12-22T09:51:24.553Z</time>
      </trkpt>
      <trkpt lat="45.87466" lon="-0.95425">
        <ele>61.530895</ele>
        <time>2022-12-22T09:51:27.552Z</time>
      </trkpt>
      <trkpt lat="45.8746" lon="-0.95438">
        <ele>61.620074</ele>
        <time>2022-12-22T09:51:30.554Z</time>
      </trkpt>
      <trkpt lat="45.87453" lon="-0.9545">
        <ele>61.708341</ele>
        <time>2022-12-22T09:51:33.544Z</time>
      </trkpt>
      <trkpt lat="45.87446" lon="-0.95462">
        <ele>61.800381</ele>
        <time>2022-12-22T09:51:36.552Z</time>
      </trkpt>
      <trkpt lat="45.87439" lon="-0.95474">
        <ele>61.89365</ele>
        <time>2022-12-22T09:51:39.558Z</time>
      </trkpt>
      <trkpt lat="45.87431" lon="-0.95485">
        <ele>61.986931</ele>
        <time>2022-12-22T09:51:42.557Z</time>
      </trkpt>
      <trkpt lat="45.87423" lon="-0.95495">
        <ele>62.074985</ele>
        <time>2022-12-22T09:51:45.556Z</time>
      </trkpt>
      <trkpt lat="45.87415" lon="-0.95505">
        <ele>62.141761</ele>
        <time>2022-12-22T09:51:48.557Z</time>
      </trkpt>
      <trkpt lat="45.87406" lon="-0.95515">
        <ele>62.193054</ele>
        <time>2022-12-22T09:51:51.556Z</time>
      </trkpt>
      <trkpt lat="45.87397" lon="-0.95525">
        <ele>62.245622</ele>
        <time>2022-12-22T09:51:54.529Z</time>
      </trkpt>
      <trkpt lat="45.87387" lon="-0.95535">
        <ele>62.299866</ele>
        <time>2022-12-22T09:51:57.544Z</time>
      </trkpt>
      <trkpt lat="45.87377" lon="-0.95544">
        <ele>62.352636</ele>
        <time>2022-12-22T09:52:00.550Z</time>
      </trkpt>
      <trkpt lat="45.87368" lon="-0.95554">
        <ele>62.40392</ele>
        <time>2022-12-22T09:52:03.557Z</time>
      </trkpt>
      <trkpt lat="45.87359" lon="-0.95564">
        <ele>62.455715</ele>
        <time>2022-12-22T09:52:06.559Z</time>
      </trkpt>
      <trkpt lat="45.8735" lon="-0.95575">
        <ele>62.508005</ele>
        <time>2022-12-22T09:52:09.558Z</time>
      </trkpt>
      <trkpt lat="45.87341" lon="-0.95586">
        <ele>62.56124</ele>
        <time>2022-12-22T09:52:12.558Z</time>
      </trkpt>
      <trkpt lat="45.87333" lon="-0.95597">
        <ele>62.611627</ele>
        <time>2022-12-22T09:52:15.534Z</time>
      </trkpt>
      <trkpt lat="45.87325" lon="-0.95608">
        <ele>62.661367</ele>
        <time>2022-12-22T09:52:18.554Z</time>
      </trkpt>
      <trkpt lat="45.87318" lon="-0.95619">
        <ele>62.709169</ele>
        <time>2022-12-22T09:52:21.559Z</time>
      </trkpt>
      <trkpt lat="45.8731" lon="-0.9563">
        <ele>62.757423</ele>
        <time>2022-12-22T09:52:24.556Z</time>
      </trkpt>
      <trkpt lat="45.87303" lon="-0.95641">
        <ele>62.807294</ele>
        <time>2022-12-22T09:52:27.544Z</time>
      </trkpt>
      <trkpt lat="45.87295" lon="-0.95653">
        <ele>62.858075</ele>
        <time>2022-12-22T09:52:30.544Z</time>
      </trkpt>
      <trkpt lat="45.87288" lon="-0.95665">
        <ele>62.906274</ele>
        <time>2022-12-22T09:52:33.555Z</time>
      </trkpt>
      <trkpt lat="45.87281" lon="-0.95678">
        <ele>63.125135</ele>
        <time>2022-12-22T09:52:37.547Z</time>
      </trkpt>
      <trkpt lat="45.87275" lon="-0.9569">
        <ele>63.373266</ele>
        <time>2022-12-22T09:52:40.557Z</time>
      </trkpt>
      <trkpt lat="45.8727" lon="-0.95703">
        <ele>63.638608</ele>
        <time>2022-12-22T09:52:43.556Z</time>
      </trkpt>
      <trkpt lat="45.87266" lon="-0.95716">
        <ele>63.913887</ele>
        <time>2022-12-22T09:52:46.557Z</time>
      </trkpt>
      <trkpt lat="45.87261" lon="-0.9573">
        <ele>64.189166</ele>
        <time>2022-12-22T09:52:49.550Z</time>
      </trkpt>
      <trkpt lat="45.87257" lon="-0.95744">
        <ele>64.453139</ele>
        <time>2022-12-22T09:52:52.533Z</time>
      </trkpt>
      <trkpt lat="45.87253" lon="-0.95757">
        <ele>64.713805</ele>
        <time>2022-12-22T09:52:55.536Z</time>
      </trkpt>
      <trkpt lat="45.8725" lon="-0.9577">
        <ele>64.958615</ele>
        <time>2022-12-22T09:52:58.551Z</time>
      </trkpt>
      <trkpt lat="45.87246" lon="-0.95785">
        <ele>65.253429</ele>
        <time>2022-12-22T09:53:02.557Z</time>
      </trkpt>
      <trkpt lat="45.87242" lon="-0.958">
        <ele>65.544004</ele>
        <time>2022-12-22T09:53:06.555Z</time>
      </trkpt>
      <trkpt lat="45.87238" lon="-0.95815">
        <ele>65.82059</ele>
        <time>2022-12-22T09:53:10.560Z</time>
      </trkpt>
      <trkpt lat="45.87234" lon="-0.95828">
        <ele>66.093324</ele>
        <time>2022-12-22T09:53:14.556Z</time>
      </trkpt>
      <trkpt lat="45.87229" lon="-0.95842">
        <ele>66.365363</ele>
        <time>2022-12-22T09:53:18.557Z</time>
      </trkpt>
      <trkpt lat="45.87224" lon="-0.95854">
        <ele>66.628512</ele>
        <time>2022-12-22T09:53:22.556Z</time>
      </trkpt>
      <trkpt lat="45.87218" lon="-0.95866">
        <ele>66.897255</ele>
        <time>2022-12-22T09:53:26.539Z</time>
      </trkpt>
      <trkpt lat="45.87212" lon="-0.95878">
        <ele>67.158609</ele>
        <time>2022-12-22T09:53:30.550Z</time>
      </trkpt>
      <trkpt lat="45.87205" lon="-0.9589">
        <ele>67.426515</ele>
        <time>2022-12-22T09:53:34.558Z</time>
      </trkpt>
      <trkpt lat="45.87199" lon="-0.95901">
        <ele>67.578599</ele>
        <time>2022-12-22T09:53:38.541Z</time>
      </trkpt>
      <trkpt lat="45.87192" lon="-0.95912">
        <ele>67.592808</ele>
        <time>2022-12-22T09:53:42.560Z</time>
      </trkpt>
      <trkpt lat="45.87186" lon="-0.95923">
        <ele>67.607777</ele>
        <time>2022-12-22T09:53:46.566Z</time>
      </trkpt>
      <trkpt lat="45.87179" lon="-0.95935">
        <ele>67.623284</ele>
        <time>2022-12-22T09:53:50.558Z</time>
      </trkpt>
      <trkpt lat="45.87172" lon="-0.95947">
        <ele>67.639365</ele>
        <time>2022-12-22T09:53:54.556Z</time>
      </trkpt>
      <trkpt lat="45.87166" lon="-0.9596">
        <ele>67.654327</ele>
        <time>2022-12-22T09:53:58.555Z</time>
      </trkpt>
      <trkpt lat="45.87158" lon="-0.95973">
        <ele>67.671793</ele>
        <time>2022-12-22T09:54:02.534Z</time>
      </trkpt>
      <trkpt lat="45.87152" lon="-0.95984">
        <ele>67.685796</ele>
        <time>2022-12-22T09:54:05.533Z</time>
      </trkpt>
      <trkpt lat="45.87146" lon="-0.95994">
        <ele>67.699494</ele>
        <time>2022-12-22T09:54:08.538Z</time>
      </trkpt>
      <trkpt lat="45.87136" lon="-0.96002">
        <ele>67.71613</ele>
        <time>2022-12-22T09:54:12.536Z</time>
      </trkpt>
      <trkpt lat="45.87125" lon="-0.95999">
        <ele>67.731936</ele>
        <time>2022-12-22T09:54:16.545Z</time>
      </trkpt>
      <trkpt lat="45.87118" lon="-0.95991">
        <ele>67.745626</ele>
        <time>2022-12-22T09:54:19.542Z</time>
      </trkpt>
      <trkpt lat="45.8711" lon="-0.95982">
        <ele>67.759525</ele>
        <time>2022-12-22T09:54:22.551Z</time>
      </trkpt>
      <trkpt lat="45.87103" lon="-0.95973">
        <ele>67.772612</ele>
        <time>2022-12-22T09:54:25.559Z</time>
      </trkpt>
      <trkpt lat="45.87096" lon="-0.95966">
        <ele>67.785775</ele>
        <time>2022-12-22T09:54:28.549Z</time>
      </trkpt>
      <trkpt lat="45.87089" lon="-0.95958">
        <ele>67.799172</ele>
        <time>2022-12-22T09:54:31.561Z</time>
      </trkpt>
      <trkpt lat="45.87079" lon="-0.95948">
        <ele>67.816508</ele>
        <time>2022-12-22T09:54:35.536Z</time>
      </trkpt>
      <trkpt lat="45.87071" lon="-0.9594">
        <ele>67.830321</ele>
        <time>2022-12-22T09:54:38.557Z</time>
      </trkpt>
      <trkpt lat="45.87063" lon="-0.95931">
        <ele>67.803238</ele>
        <time>2022-12-22T09:54:41.557Z</time>
      </trkpt>
      <trkpt lat="45.87056" lon="-0.95923">
        <ele>67.77154</ele>
        <time>2022-12-22T09:54:44.556Z</time>
      </trkpt>
      <trkpt lat="45.87048" lon="-0.95914">
        <ele>67.73995</ele>
        <time>2022-12-22T09:54:47.538Z</time>
      </trkpt>
      <trkpt lat="45.87039" lon="-0.95904">
        <ele>67.701719</ele>
        <time>2022-12-22T09:54:51.547Z</time>
      </trkpt>
      <trkpt lat="45.8703" lon="-0.95896">
        <ele>67.667527</ele>
        <time>2022-12-22T09:54:54.558Z</time>
      </trkpt>
      <trkpt lat="45.87022" lon="-0.95887">
        <ele>67.634411</ele>
        <time>2022-12-22T09:54:57.545Z</time>
      </trkpt>
      <trkpt lat="45.87013" lon="-0.95877">
        <ele>67.596711</ele>
        <time>2022-12-22T09:55:00.558Z</time>
      </trkpt>
      <trkpt lat="45.87005" lon="-0.95869">
        <ele>67.562907</ele>
        <time>2022-12-22T09:55:03.558Z</time>
      </trkpt>
      <trkpt lat="45.86998" lon="-0.9586">
        <ele>67.531537</ele>
        <time>2022-12-22T09:55:06.561Z</time>
      </trkpt>
      <trkpt lat="45.8699" lon="-0.95852">
        <ele>67.49868</ele>
        <time>2022-12-22T09:55:09.534Z</time>
      </trkpt>
      <trkpt lat="45.86981" lon="-0.95843">
        <ele>67.46354</ele>
        <time>2022-12-22T09:55:12.558Z</time>
      </trkpt>
      <trkpt lat="45.86973" lon="-0.95834">
        <ele>67.428936</ele>
        <time>2022-12-22T09:55:15.534Z</time>
      </trkpt>
      <trkpt lat="45.86964" lon="-0.95825">
        <ele>67.393392</ele>
        <time>2022-12-22T09:55:18.556Z</time>
      </trkpt>
      <trkpt lat="45.86956" lon="-0.95817">
        <ele>67.360277</ele>
        <time>2022-12-22T09:55:21.556Z</time>
      </trkpt>
      <trkpt lat="45.86948" lon="-0.95808">
        <ele>67.327025</ele>
        <time>2022-12-22T09:55:24.557Z</time>
      </trkpt>
      <trkpt lat="45.86939" lon="-0.95799">
        <ele>67.292426</ele>
        <time>2022-12-22T09:55:27.549Z</time>
      </trkpt>
      <trkpt lat="45.86931" lon="-0.95791">
        <ele>67.257559</ele>
        <time>2022-12-22T09:55:30.541Z</time>
      </trkpt>
      <trkpt lat="45.86922" lon="-0.95781">
        <ele>67.151107</ele>
        <time>2022-12-22T09:55:33.560Z</time>
      </trkpt>
      <trkpt lat="45.86913" lon="-0.95772">
        <ele>66.918899</ele>
        <time>2022-12-22T09:55:36.558Z</time>
      </trkpt>
      <trkpt lat="45.86906" lon="-0.95764">
        <ele>66.736415</ele>
        <time>2022-12-22T09:55:38.554Z</time>
      </trkpt>
      <trkpt lat="45.86898" lon="-0.95755">
        <ele>66.546156</ele>
        <time>2022-12-22T09:55:40.560Z</time>
      </trkpt>
      <trkpt lat="45.86891" lon="-0.95746">
        <ele>66.342407</ele>
        <time>2022-12-22T09:55:42.560Z</time>
      </trkpt>
      <trkpt lat="45.86883" lon="-0.95738">
        <ele>66.149723</ele>
        <time>2022-12-22T09:55:44.542Z</time>
      </trkpt>
      <trkpt lat="45.86875" lon="-0.9573">
        <ele>65.955285</ele>
        <time>2022-12-22T09:55:46.552Z</time>
      </trkpt>
      <trkpt lat="45.86868" lon="-0.95722">
        <ele>65.762601</ele>
        <time>2022-12-22T09:55:48.563Z</time>
      </trkpt>
      <trkpt lat="45.8686" lon="-0.95713">
        <ele>65.561615</ele>
        <time>2022-12-22T09:55:50.557Z</time>
      </trkpt>
      <trkpt lat="45.86852" lon="-0.95706">
        <ele>65.373871</ele>
        <time>2022-12-22T09:55:52.561Z</time>
      </trkpt>
      <trkpt lat="45.86845" lon="-0.95698">
        <ele>65.187696</ele>
        <time>2022-12-22T09:55:54.558Z</time>
      </trkpt>
      <trkpt lat="45.86837" lon="-0.95689">
        <ele>64.99254</ele>
        <time>2022-12-22T09:55:56.539Z</time>
      </trkpt>
      <trkpt lat="45.8683" lon="-0.95681">
        <ele>64.802172</ele>
        <time>2022-12-22T09:55:58.555Z</time>
      </trkpt>
      <trkpt lat="45.86819" lon="-0.9567">
        <ele>64.538665</ele>
        <time>2022-12-22T09:56:01.543Z</time>
      </trkpt>
      <trkpt lat="45.86811" lon="-0.95662">
        <ele>64.342619</ele>
        <time>2022-12-22T09:56:03.542Z</time>
      </trkpt>
      <trkpt lat="45.86803" lon="-0.95654">
        <ele>64.142483</ele>
        <time>2022-12-22T09:56:05.559Z</time>
      </trkpt>
      <trkpt lat="45.86795" lon="-0.95645">
        <ele>63.931622</ele>
        <time>2022-12-22T09:56:07.534Z</time>
      </trkpt>
      <trkpt lat="45.86787" lon="-0.95637">
        <ele>63.723224</ele>
        <time>2022-12-22T09:56:09.555Z</time>
      </trkpt>
      <trkpt lat="45.86778" lon="-0.95627">
        <ele>63.629606</ele>
        <time>2022-12-22T09:56:11.565Z</time>
      </trkpt>
      <trkpt lat="45.8677" lon="-0.95619">
        <ele>63.735858</ele>
        <time>2022-12-22T09:56:13.554Z</time>
      </trkpt>
      <trkpt lat="45.86762" lon="-0.95609">
        <ele>63.849778</ele>
        <time>2022-12-22T09:56:15.530Z</time>
      </trkpt>
      <trkpt lat="45.86754" lon="-0.956">
        <ele>63.953862</ele>
        <time>2022-12-22T09:56:17.547Z</time>
      </trkpt>
      <trkpt lat="45.86746" lon="-0.95593">
        <ele>64.051519</ele>
        <time>2022-12-22T09:56:19.557Z</time>
      </trkpt>
      <trkpt lat="45.86736" lon="-0.95581">
        <ele>64.185797</ele>
        <time>2022-12-22T09:56:22.555Z</time>
      </trkpt>
      <trkpt lat="45.86726" lon="-0.95571">
        <ele>64.316299</ele>
        <time>2022-12-22T09:56:25.537Z</time>
      </trkpt>
      <trkpt lat="45.86716" lon="-0.95561">
        <ele>64.441671</ele>
        <time>2022-12-22T09:56:28.561Z</time>
      </trkpt>
      <trkpt lat="45.86706" lon="-0.9555">
        <ele>64.579413</ele>
        <time>2022-12-22T09:56:31.557Z</time>
      </trkpt>
      <trkpt lat="45.86695" lon="-0.95539">
        <ele>64.714597</ele>
        <time>2022-12-22T09:56:34.556Z</time>
      </trkpt>
      <trkpt lat="45.86685" lon="-0.95528">
        <ele>64.851492</ele>
        <time>2022-12-22T09:56:37.550Z</time>
      </trkpt>
      <trkpt lat="45.86675" lon="-0.95517">
        <ele>64.980702</ele>
        <time>2022-12-22T09:56:40.559Z</time>
      </trkpt>
      <trkpt lat="45.86665" lon="-0.95507">
        <ele>65.106962</ele>
        <time>2022-12-22T09:56:43.557Z</time>
      </trkpt>
      <trkpt lat="45.86656" lon="-0.95497">
        <ele>65.229829</ele>
        <time>2022-12-22T09:56:46.561Z</time>
      </trkpt>
      <trkpt lat="45.86647" lon="-0.95487">
        <ele>65.349232</ele>
        <time>2022-12-22T09:56:49.558Z</time>
      </trkpt>
      <trkpt lat="45.86638" lon="-0.95479">
        <ele>65.457156</ele>
        <time>2022-12-22T09:56:52.562Z</time>
      </trkpt>
      <trkpt lat="45.86631" lon="-0.95471">
        <ele>65.500959</ele>
        <time>2022-12-22T09:56:55.559Z</time>
      </trkpt>
      <trkpt lat="45.86623" lon="-0.95462">
        <ele>65.530889</ele>
        <time>2022-12-22T09:56:58.556Z</time>
      </trkpt>
      <trkpt lat="45.86615" lon="-0.95454">
        <ele>65.560207</ele>
        <time>2022-12-22T09:57:01.558Z</time>
      </trkpt>
      <trkpt lat="45.86606" lon="-0.95445">
        <ele>65.591859</ele>
        <time>2022-12-22T09:57:04.558Z</time>
      </trkpt>
      <trkpt lat="45.86598" lon="-0.95436">
        <ele>65.624119</ele>
        <time>2022-12-22T09:57:07.543Z</time>
      </trkpt>
      <trkpt lat="45.86589" lon="-0.95427">
        <ele>65.655029</ele>
        <time>2022-12-22T09:57:10.555Z</time>
      </trkpt>
      <trkpt lat="45.86582" lon="-0.95419">
        <ele>65.685095</ele>
        <time>2022-12-22T09:57:13.556Z</time>
      </trkpt>
      <trkpt lat="45.86573" lon="-0.9541">
        <ele>65.716393</ele>
        <time>2022-12-22T09:57:16.559Z</time>
      </trkpt>
      <trkpt lat="45.86565" lon="-0.954">
        <ele>65.748899</ele>
        <time>2022-12-22T09:57:19.557Z</time>
      </trkpt>
      <trkpt lat="45.86556" lon="-0.95391">
        <ele>65.782264</ele>
        <time>2022-12-22T09:57:22.556Z</time>
      </trkpt>
      <trkpt lat="45.86548" lon="-0.95383">
        <ele>65.811215</ele>
        <time>2022-12-22T09:57:25.558Z</time>
      </trkpt>
      <trkpt lat="45.8654" lon="-0.95374">
        <ele>65.842497</ele>
        <time>2022-12-22T09:57:28.557Z</time>
      </trkpt>
      <trkpt lat="45.8653" lon="-0.95365">
        <ele>65.876966</ele>
        <time>2022-12-22T09:57:31.557Z</time>
      </trkpt>
      <trkpt lat="45.86521" lon="-0.95355">
        <ele>65.910966</ele>
        <time>2022-12-22T09:57:34.560Z</time>
      </trkpt>
      <trkpt lat="45.86512" lon="-0.95345">
        <ele>65.946296</ele>
        <time>2022-12-22T09:57:37.550Z</time>
      </trkpt>
      <trkpt lat="45.86502" lon="-0.95334">
        <ele>65.984934</ele>
        <time>2022-12-22T09:57:40.545Z</time>
      </trkpt>
      <trkpt lat="45.86492" lon="-0.95323">
        <ele>66.025945</ele>
        <time>2022-12-22T09:57:43.549Z</time>
      </trkpt>
      <trkpt lat="45.86482" lon="-0.95313">
        <ele>66.123839</ele>
        <time>2022-12-22T09:57:46.557Z</time>
      </trkpt>
      <trkpt lat="45.86472" lon="-0.95302">
        <ele>66.226056</ele>
        <time>2022-12-22T09:57:49.554Z</time>
      </trkpt>
      <trkpt lat="45.86462" lon="-0.95292">
        <ele>66.325597</ele>
        <time>2022-12-22T09:57:52.553Z</time>
      </trkpt>
      <trkpt lat="45.86452" lon="-0.95282">
        <ele>66.432152</ele>
        <time>2022-12-22T09:57:55.555Z</time>
      </trkpt>
      <trkpt lat="45.86442" lon="-0.95271">
        <ele>66.532395</ele>
        <time>2022-12-22T09:57:58.561Z</time>
      </trkpt>
      <trkpt lat="45.86431" lon="-0.9526">
        <ele>66.638946</ele>
        <time>2022-12-22T09:58:01.537Z</time>
      </trkpt>
      <trkpt lat="45.86422" lon="-0.95249">
        <ele>66.741239</ele>
        <time>2022-12-22T09:58:04.558Z</time>
      </trkpt>
      <trkpt lat="45.86412" lon="-0.95239">
        <ele>66.834783</ele>
        <time>2022-12-22T09:58:07.544Z</time>
      </trkpt>
      <trkpt lat="45.86404" lon="-0.9523">
        <ele>66.924634</ele>
        <time>2022-12-22T09:58:10.559Z</time>
      </trkpt>
      <trkpt lat="45.86394" lon="-0.9522">
        <ele>67.026191</ele>
        <time>2022-12-22T09:58:13.559Z</time>
      </trkpt>
      <trkpt lat="45.86384" lon="-0.9521">
        <ele>67.121395</ele>
        <time>2022-12-22T09:58:16.555Z</time>
      </trkpt>
      <trkpt lat="45.86374" lon="-0.952">
        <ele>67.226277</ele>
        <time>2022-12-22T09:58:19.560Z</time>
      </trkpt>
      <trkpt lat="45.86364" lon="-0.95189">
        <ele>67.323923</ele>
        <time>2022-12-22T09:58:22.543Z</time>
      </trkpt>
      <trkpt lat="45.86355" lon="-0.95179">
        <ele>67.41916</ele>
        <time>2022-12-22T09:58:25.558Z</time>
      </trkpt>
      <trkpt lat="45.86346" lon="-0.95169">
        <ele>67.497016</ele>
        <time>2022-12-22T09:58:28.558Z</time>
      </trkpt>
      <trkpt lat="45.86337" lon="-0.9516">
        <ele>67.470584</ele>
        <time>2022-12-22T09:58:31.555Z</time>
      </trkpt>
      <trkpt lat="45.86328" lon="-0.95151">
        <ele>67.445558</ele>
        <time>2022-12-22T09:58:34.560Z</time>
      </trkpt>
      <trkpt lat="45.8632" lon="-0.95142">
        <ele>67.422021</ele>
        <time>2022-12-22T09:58:37.549Z</time>
      </trkpt>
      <trkpt lat="45.86312" lon="-0.95133">
        <ele>67.398402</ele>
        <time>2022-12-22T09:58:40.558Z</time>
      </trkpt>
      <trkpt lat="45.86304" lon="-0.95124">
        <ele>67.374668</ele>
        <time>2022-12-22T09:58:43.557Z</time>
      </trkpt>
      <trkpt lat="45.86295" lon="-0.95116">
        <ele>67.351421</ele>
        <time>2022-12-22T09:58:46.559Z</time>
      </trkpt>
      <trkpt lat="45.86287" lon="-0.95107">
        <ele>67.3277</ele>
        <time>2022-12-22T09:58:49.557Z</time>
      </trkpt>
      <trkpt lat="45.86279" lon="-0.95098">
        <ele>67.30361</ele>
        <time>2022-12-22T09:58:52.557Z</time>
      </trkpt>
      <trkpt lat="45.8627" lon="-0.95089">
        <ele>67.278861</ele>
        <time>2022-12-22T09:58:55.558Z</time>
      </trkpt>
      <trkpt lat="45.86262" lon="-0.95079">
        <ele>67.254201</ele>
        <time>2022-12-22T09:58:58.555Z</time>
      </trkpt>
      <trkpt lat="45.86253" lon="-0.9507">
        <ele>67.229442</ele>
        <time>2022-12-22T09:59:01.554Z</time>
      </trkpt>
      <trkpt lat="45.86244" lon="-0.95061">
        <ele>67.202807</ele>
        <time>2022-12-22T09:59:04.559Z</time>
      </trkpt>
      <trkpt lat="45.86233" lon="-0.95052">
        <ele>67.175511</ele>
        <time>2022-12-22T09:59:07.540Z</time>
      </trkpt>
      <trkpt lat="45.86224" lon="-0.95045">
        <ele>67.149884</ele>
        <time>2022-12-22T09:59:10.553Z</time>
      </trkpt>
      <trkpt lat="45.86214" lon="-0.95039">
        <ele>67.125828</ele>
        <time>2022-12-22T09:59:13.557Z</time>
      </trkpt>
      <trkpt lat="45.86203" lon="-0.95035">
        <ele>67.099418</ele>
        <time>2022-12-22T09:59:16.538Z</time>
      </trkpt>
      <trkpt lat="45.86191" lon="-0.95033">
        <ele>67.143596</ele>
        <time>2022-12-22T09:59:19.562Z</time>
      </trkpt>
      <trkpt lat="45.86179" lon="-0.95032">
        <ele>67.263142</ele>
        <time>2022-12-22T09:59:22.559Z</time>
      </trkpt>
      <trkpt lat="45.86167" lon="-0.95032">
        <ele>67.385443</ele>
        <time>2022-12-22T09:59:25.558Z</time>
      </trkpt>
      <trkpt lat="45.86155" lon="-0.95032">
        <ele>67.509798</ele>
        <time>2022-12-22T09:59:28.560Z</time>
      </trkpt>
      <trkpt lat="45.86143" lon="-0.95033">
        <ele>67.63438</ele>
        <time>2022-12-22T09:59:31.559Z</time>
      </trkpt>
      <trkpt lat="45.86131" lon="-0.95034">
        <ele>67.75998</ele>
        <time>2022-12-22T09:59:34.559Z</time>
      </trkpt>
      <trkpt lat="45.86118" lon="-0.95035">
        <ele>67.883463</ele>
        <time>2022-12-22T09:59:37.547Z</time>
      </trkpt>
      <trkpt lat="45.86107" lon="-0.95036">
        <ele>67.999753</ele>
        <time>2022-12-22T09:59:40.557Z</time>
      </trkpt>
      <trkpt lat="45.86097" lon="-0.95037">
        <ele>68.106147</ele>
        <time>2022-12-22T09:59:43.559Z</time>
      </trkpt>
      <trkpt lat="45.86087" lon="-0.95037">
        <ele>68.201971</ele>
        <time>2022-12-22T09:59:46.556Z</time>
      </trkpt>
      <trkpt lat="45.86075" lon="-0.95038">
        <ele>68.323303</ele>
        <time>2022-12-22T09:59:50.558Z</time>
      </trkpt>
      <trkpt lat="45.86066" lon="-0.95039">
        <ele>68.423543</ele>
        <time>2022-12-22T09:59:53.548Z</time>
      </trkpt>
      <trkpt lat="45.86055" lon="-0.95039">
        <ele>68.528555</ele>
        <time>2022-12-22T09:59:56.557Z</time>
      </trkpt>
      <trkpt lat="45.86045" lon="-0.9504">
        <ele>68.632596</ele>
        <time>2022-12-22T09:59:59.558Z</time>
      </trkpt>
      <trkpt lat="45.86036" lon="-0.9504">
        <ele>68.725472</ele>
        <time>2022-12-22T10:00:02.560Z</time>
      </trkpt>
      <trkpt lat="45.86026" lon="-0.95042">
        <ele>68.822666</ele>
        <time>2022-12-22T10:00:05.556Z</time>
      </trkpt>
      <trkpt lat="45.86017" lon="-0.95042">
        <ele>68.915421</ele>
        <time>2022-12-22T10:00:08.560Z</time>
      </trkpt>
      <trkpt lat="45.86008" lon="-0.95042">
        <ele>69.065403</ele>
        <time>2022-12-22T10:00:11.552Z</time>
      </trkpt>
      <trkpt lat="45.85997" lon="-0.95043">
        <ele>69.248921</ele>
        <time>2022-12-22T10:00:15.545Z</time>
      </trkpt>
      <trkpt lat="45.85986" lon="-0.95045">
        <ele>69.445303</ele>
        <time>2022-12-22T10:00:19.555Z</time>
      </trkpt>
      <trkpt lat="45.85974" lon="-0.95045">
        <ele>69.63534</ele>
        <time>2022-12-22T10:00:23.560Z</time>
      </trkpt>
      <trkpt lat="45.85965" lon="-0.95045">
        <ele>69.792118</ele>
        <time>2022-12-22T10:00:27.549Z</time>
      </trkpt>
      <trkpt lat="45.85954" lon="-0.95046">
        <ele>69.967875</ele>
        <time>2022-12-22T10:00:31.542Z</time>
      </trkpt>
      <trkpt lat="45.85943" lon="-0.95047">
        <ele>70.15008</ele>
        <time>2022-12-22T10:00:35.534Z</time>
      </trkpt>
      <trkpt lat="45.85932" lon="-0.95047">
        <ele>70.33845</ele>
        <time>2022-12-22T10:00:39.535Z</time>
      </trkpt>
      <trkpt lat="45.85921" lon="-0.95048">
        <ele>70.528742</ele>
        <time>2022-12-22T10:00:43.557Z</time>
      </trkpt>
      <trkpt lat="45.8591" lon="-0.95049">
        <ele>70.709284</ele>
        <time>2022-12-22T10:00:47.543Z</time>
      </trkpt>
      <trkpt lat="45.85899" lon="-0.9505">
        <ele>70.889827</ele>
        <time>2022-12-22T10:00:51.558Z</time>
      </trkpt>
      <trkpt lat="45.85888" lon="-0.95051">
        <ele>71.076729</ele>
        <time>2022-12-22T10:00:55.554Z</time>
      </trkpt>
      <trkpt lat="45.85877" lon="-0.95052">
        <ele>71.263458</ele>
        <time>2022-12-22T10:00:59.557Z</time>
      </trkpt>
      <trkpt lat="45.85865" lon="-0.95052">
        <ele>71.450361</ele>
        <time>2022-12-22T10:01:03.530Z</time>
      </trkpt>
      <trkpt lat="45.85854" lon="-0.95053">
        <ele>71.645645</ele>
        <time>2022-12-22T10:01:07.540Z</time>
      </trkpt>
      <trkpt lat="45.85842" lon="-0.95054">
        <ele>71.84415</ele>
        <time>2022-12-22T10:01:11.565Z</time>
      </trkpt>
      <trkpt lat="45.8583" lon="-0.95055">
        <ele>71.894549</ele>
        <time>2022-12-22T10:01:15.564Z</time>
      </trkpt>
      <trkpt lat="45.85818" lon="-0.95056">
        <ele>71.860302</ele>
        <time>2022-12-22T10:01:19.556Z</time>
      </trkpt>
      <trkpt lat="45.85807" lon="-0.95057">
        <ele>71.826992</ele>
        <time>2022-12-22T10:01:23.561Z</time>
      </trkpt>
      <trkpt lat="45.85796" lon="-0.95059">
        <ele>71.795498</ele>
        <time>2022-12-22T10:01:27.549Z</time>
      </trkpt>
      <trkpt lat="45.85787" lon="-0.9506">
        <ele>71.769634</ele>
        <time>2022-12-22T10:01:30.546Z</time>
      </trkpt>
      <trkpt lat="45.85777" lon="-0.95062">
        <ele>71.741838</ele>
        <time>2022-12-22T10:01:33.558Z</time>
      </trkpt>
      <trkpt lat="45.85767" lon="-0.95064">
        <ele>71.712362</ele>
        <time>2022-12-22T10:01:36.558Z</time>
      </trkpt>
      <trkpt lat="45.85757" lon="-0.95065">
        <ele>71.683579</ele>
        <time>2022-12-22T10:01:39.558Z</time>
      </trkpt>
      <trkpt lat="45.85748" lon="-0.95067">
        <ele>71.656947</ele>
        <time>2022-12-22T10:01:42.557Z</time>
      </trkpt>
      <trkpt lat="45.85738" lon="-0.95069">
        <ele>71.628998</ele>
        <time>2022-12-22T10:01:45.555Z</time>
      </trkpt>
      <trkpt lat="45.85728" lon="-0.9507">
        <ele>71.599588</ele>
        <time>2022-12-22T10:01:48.559Z</time>
      </trkpt>
      <trkpt lat="45.85717" lon="-0.95072">
        <ele>71.568664</ele>
        <time>2022-12-22T10:01:51.559Z</time>
      </trkpt>
      <trkpt lat="45.85707" lon="-0.95074">
        <ele>71.53942</ele>
        <time>2022-12-22T10:01:54.557Z</time>
      </trkpt>
      <trkpt lat="45.85697" lon="-0.95077">
        <ele>71.510119</ele>
        <time>2022-12-22T10:01:57.542Z</time>
      </trkpt>
      <trkpt lat="45.85686" lon="-0.95079">
        <ele>71.479454</ele>
        <time>2022-12-22T10:02:00.557Z</time>
      </trkpt>
      <trkpt lat="45.85675" lon="-0.9508">
        <ele>71.446821</ele>
        <time>2022-12-22T10:02:03.562Z</time>
      </trkpt>
      <trkpt lat="45.85663" lon="-0.95082">
        <ele>71.412876</ele>
        <time>2022-12-22T10:02:06.558Z</time>
      </trkpt>
      <trkpt lat="45.85652" lon="-0.95083">
        <ele>71.360529</ele>
        <time>2022-12-22T10:02:09.557Z</time>
      </trkpt>
      <trkpt lat="45.85642" lon="-0.95085">
        <ele>71.303595</ele>
        <time>2022-12-22T10:02:12.560Z</time>
      </trkpt>
      <trkpt lat="45.85631" lon="-0.95088">
        <ele>71.242912</ele>
        <time>2022-12-22T10:02:15.560Z</time>
      </trkpt>
      <trkpt lat="45.8562" lon="-0.9509">
        <ele>71.179665</ele>
        <time>2022-12-22T10:02:18.557Z</time>
      </trkpt>
      <trkpt lat="45.85609" lon="-0.95092">
        <ele>71.113899</ele>
        <time>2022-12-22T10:02:21.554Z</time>
      </trkpt>
      <trkpt lat="45.85597" lon="-0.95094">
        <ele>71.045137</ele>
        <time>2022-12-22T10:02:24.581Z</time>
      </trkpt>
      <trkpt lat="45.85584" lon="-0.95096">
        <ele>70.974041</ele>
        <time>2022-12-22T10:02:27.550Z</time>
      </trkpt>
      <trkpt lat="45.85572" lon="-0.95099">
        <ele>70.904926</ele>
        <time>2022-12-22T10:02:30.556Z</time>
      </trkpt>
      <trkpt lat="45.85561" lon="-0.95101">
        <ele>70.841118</ele>
        <time>2022-12-22T10:02:33.559Z</time>
      </trkpt>
      <trkpt lat="45.85551" lon="-0.95103">
        <ele>70.784185</ele>
        <time>2022-12-22T10:02:36.561Z</time>
      </trkpt>
      <trkpt lat="45.8554" lon="-0.95104">
        <ele>70.723412</ele>
        <time>2022-12-22T10:02:39.553Z</time>
      </trkpt>
      <trkpt lat="45.85529" lon="-0.95107">
        <ele>70.658265</ele>
        <time>2022-12-22T10:02:42.558Z</time>
      </trkpt>
      <trkpt lat="45.85517" lon="-0.95109">
        <ele>70.589974</ele>
        <time>2022-12-22T10:02:45.559Z</time>
      </trkpt>
      <trkpt lat="45.85505" lon="-0.95111">
        <ele>70.521583</ele>
        <time>2022-12-22T10:02:48.556Z</time>
      </trkpt>
      <trkpt lat="45.85492" lon="-0.95114">
        <ele>70.449831</ele>
        <time>2022-12-22T10:02:51.558Z</time>
      </trkpt>
      <trkpt lat="45.85479" lon="-0.95116">
        <ele>70.370962</ele>
        <time>2022-12-22T10:02:54.559Z</time>
      </trkpt>
      <trkpt lat="45.85467" lon="-0.95118">
        <ele>70.231229</ele>
        <time>2022-12-22T10:02:57.544Z</time>
      </trkpt>
      <trkpt lat="45.85455" lon="-0.95121">
        <ele>70.103127</ele>
        <time>2022-12-22T10:03:00.557Z</time>
      </trkpt>
      <trkpt lat="45.85445" lon="-0.95123">
        <ele>69.99266</ele>
        <time>2022-12-22T10:03:03.558Z</time>
      </trkpt>
      <trkpt lat="45.85435" lon="-0.95125">
        <ele>69.883487</ele>
        <time>2022-12-22T10:03:06.557Z</time>
      </trkpt>
      <trkpt lat="45.85424" lon="-0.95127">
        <ele>69.763377</ele>
        <time>2022-12-22T10:03:09.560Z</time>
      </trkpt>
      <trkpt lat="45.85413" lon="-0.95128">
        <ele>69.640352</ele>
        <time>2022-12-22T10:03:12.560Z</time>
      </trkpt>
      <trkpt lat="45.85401" lon="-0.9513">
        <ele>69.506689</ele>
        <time>2022-12-22T10:03:15.559Z</time>
      </trkpt>
      <trkpt lat="45.85388" lon="-0.95127">
        <ele>69.363424</ele>
        <time>2022-12-22T10:03:18.557Z</time>
      </trkpt>
      <trkpt lat="45.85379" lon="-0.95126">
        <ele>69.264299</ele>
        <time>2022-12-22T10:03:20.555Z</time>
      </trkpt>
      <trkpt lat="45.8537" lon="-0.95123">
        <ele>69.165778</ele>
        <time>2022-12-22T10:03:22.556Z</time>
      </trkpt>
      <trkpt lat="45.85357" lon="-0.95117">
        <ele>69.021608</ele>
        <time>2022-12-22T10:03:25.535Z</time>
      </trkpt>
      <trkpt lat="45.85345" lon="-0.95109">
        <ele>68.875349</ele>
        <time>2022-12-22T10:03:28.537Z</time>
      </trkpt>
      <trkpt lat="45.85335" lon="-0.951">
        <ele>68.738858</ele>
        <time>2022-12-22T10:03:31.556Z</time>
      </trkpt>
      <trkpt lat="45.85324" lon="-0.95091">
        <ele>68.602173</ele>
        <time>2022-12-22T10:03:34.562Z</time>
      </trkpt>
      <trkpt lat="45.85314" lon="-0.95082">
        <ele>68.476631</ele>
        <time>2022-12-22T10:03:37.552Z</time>
      </trkpt>
      <trkpt lat="45.85304" lon="-0.95074">
        <ele>68.37375</ele>
        <time>2022-12-22T10:03:40.557Z</time>
      </trkpt>
      <trkpt lat="45.85294" lon="-0.95064">
        <ele>68.28556</ele>
        <time>2022-12-22T10:03:43.557Z</time>
      </trkpt>
      <trkpt lat="45.85283" lon="-0.95055">
        <ele>68.196497</ele>
        <time>2022-12-22T10:03:46.534Z</time>
      </trkpt>
      <trkpt lat="45.85272" lon="-0.95046">
        <ele>68.106511</ele>
        <time>2022-12-22T10:03:49.560Z</time>
      </trkpt>
      <trkpt lat="45.85261" lon="-0.95036">
        <ele>68.014289</ele>
        <time>2022-12-22T10:03:52.556Z</time>
      </trkpt>
      <trkpt lat="45.85251" lon="-0.95027">
        <ele>67.924787</ele>
        <time>2022-12-22T10:03:55.560Z</time>
      </trkpt>
      <trkpt lat="45.8524" lon="-0.95017">
        <ele>67.834506</ele>
        <time>2022-12-22T10:03:58.569Z</time>
      </trkpt>
      <trkpt lat="45.8523" lon="-0.95009">
        <ele>67.751864</ele>
        <time>2022-12-22T10:04:01.556Z</time>
      </trkpt>
      <trkpt lat="45.85221" lon="-0.95">
        <ele>67.673723</ele>
        <time>2022-12-22T10:04:04.555Z</time>
      </trkpt>
      <trkpt lat="45.85211" lon="-0.94991">
        <ele>67.589291</ele>
        <time>2022-12-22T10:04:07.540Z</time>
      </trkpt>
      <trkpt lat="45.852" lon="-0.94982">
        <ele>67.498555</ele>
        <time>2022-12-22T10:04:10.543Z</time>
      </trkpt>
      <trkpt lat="45.85189" lon="-0.94973">
        <ele>67.404836</ele>
        <time>2022-12-22T10:04:13.547Z</time>
      </trkpt>
      <trkpt lat="45.85178" lon="-0.94963">
        <ele>67.310356</ele>
        <time>2022-12-22T10:04:16.553Z</time>
      </trkpt>
      <trkpt lat="45.8517" lon="-0.94956">
        <ele>67.244609</ele>
        <time>2022-12-22T10:04:18.543Z</time>
      </trkpt>
      <trkpt lat="45.85158" lon="-0.94947">
        <ele>67.15089</ele>
        <time>2022-12-22T10:04:21.535Z</time>
      </trkpt>
      <trkpt lat="45.85148" lon="-0.94938">
        <ele>67.107123</ele>
        <time>2022-12-22T10:04:24.555Z</time>
      </trkpt>
      <trkpt lat="45.85138" lon="-0.9493">
        <ele>67.080747</ele>
        <time>2022-12-22T10:04:27.539Z</time>
      </trkpt>
      <trkpt lat="45.85128" lon="-0.94921">
        <ele>67.053529</ele>
        <time>2022-12-22T10:04:30.558Z</time>
      </trkpt>
      <trkpt lat="45.85117" lon="-0.94912">
        <ele>67.023898</ele>
        <time>2022-12-22T10:04:33.554Z</time>
      </trkpt>
      <trkpt lat="45.85105" lon="-0.94904">
        <ele>66.994318</ele>
        <time>2022-12-22T10:04:36.558Z</time>
      </trkpt>
      <trkpt lat="45.85094" lon="-0.94898">
        <ele>66.965342</ele>
        <time>2022-12-22T10:04:39.537Z</time>
      </trkpt>
      <trkpt lat="45.85081" lon="-0.94892">
        <ele>66.935439</ele>
        <time>2022-12-22T10:04:42.555Z</time>
      </trkpt>
      <trkpt lat="45.85069" lon="-0.94887">
        <ele>66.906471</ele>
        <time>2022-12-22T10:04:45.555Z</time>
      </trkpt>
      <trkpt lat="45.85058" lon="-0.94883">
        <ele>66.878369</ele>
        <time>2022-12-22T10:04:48.554Z</time>
      </trkpt>
      <trkpt lat="45.85046" lon="-0.94879">
        <ele>66.849965</ele>
        <time>2022-12-22T10:04:51.561Z</time>
      </trkpt>
      <trkpt lat="45.85034" lon="-0.94874">
        <ele>66.821265</ele>
        <time>2022-12-22T10:04:54.558Z</time>
      </trkpt>
      <trkpt lat="45.85022" lon="-0.94869">
        <ele>66.792696</ele>
        <time>2022-12-22T10:04:57.536Z</time>
      </trkpt>
      <trkpt lat="45.8501" lon="-0.94865">
        <ele>66.764516</ele>
        <time>2022-12-22T10:05:00.553Z</time>
      </trkpt>
      <trkpt lat="45.84998" lon="-0.9486">
        <ele>66.736128</ele>
        <time>2022-12-22T10:05:03.549Z</time>
      </trkpt>
      <trkpt lat="45.84987" lon="-0.94856">
        <ele>66.712329</ele>
        <time>2022-12-22T10:05:06.558Z</time>
      </trkpt>
      <trkpt lat="45.84976" lon="-0.94852">
        <ele>66.725633</ele>
        <time>2022-12-22T10:05:09.557Z</time>
      </trkpt>
      <trkpt lat="45.84967" lon="-0.94848">
        <ele>66.737767</ele>
        <time>2022-12-22T10:05:12.559Z</time>
      </trkpt>
      <trkpt lat="45.84957" lon="-0.94844">
        <ele>66.750916</ele>
        <time>2022-12-22T10:05:15.560Z</time>
      </trkpt>
      <trkpt lat="45.84947" lon="-0.94841">
        <ele>66.764505</ele>
        <time>2022-12-22T10:05:18.551Z</time>
      </trkpt>
      <trkpt lat="45.84936" lon="-0.94837">
        <ele>66.778724</ele>
        <time>2022-12-22T10:05:21.555Z</time>
      </trkpt>
      <trkpt lat="45.84924" lon="-0.94832">
        <ele>66.793373</ele>
        <time>2022-12-22T10:05:24.560Z</time>
      </trkpt>
      <trkpt lat="45.84913" lon="-0.94828">
        <ele>66.807582</ele>
        <time>2022-12-22T10:05:27.550Z</time>
      </trkpt>
      <trkpt lat="45.84904" lon="-0.94824">
        <ele>66.819766</ele>
        <time>2022-12-22T10:05:30.558Z</time>
      </trkpt>
      <trkpt lat="45.84894" lon="-0.9482">
        <ele>66.832483</ele>
        <time>2022-12-22T10:05:33.559Z</time>
      </trkpt>
      <trkpt lat="45.84884" lon="-0.94815">
        <ele>66.845978</ele>
        <time>2022-12-22T10:05:36.556Z</time>
      </trkpt>
      <trkpt lat="45.84874" lon="-0.94809">
        <ele>66.860097</ele>
        <time>2022-12-22T10:05:39.556Z</time>
      </trkpt>
      <trkpt lat="45.84864" lon="-0.94803">
        <ele>66.873687</ele>
        <time>2022-12-22T10:05:42.560Z</time>
      </trkpt>
      <trkpt lat="45.84855" lon="-0.94797">
        <ele>66.886028</ele>
        <time>2022-12-22T10:05:45.541Z</time>
      </trkpt>
      <trkpt lat="45.84846" lon="-0.94791">
        <ele>66.898027</ele>
        <time>2022-12-22T10:05:48.557Z</time>
      </trkpt>
      <trkpt lat="45.84838" lon="-0.94784">
        <ele>66.910224</ele>
        <time>2022-12-22T10:05:51.563Z</time>
      </trkpt>
      <trkpt lat="45.84829" lon="-0.94777">
        <ele>66.922947</ele>
        <time>2022-12-22T10:05:54.558Z</time>
      </trkpt>
      <trkpt lat="45.84819" lon="-0.94771">
        <ele>66.936533</ele>
        <time>2022-12-22T10:05:57.536Z</time>
      </trkpt>
      <trkpt lat="45.84809" lon="-0.94763">
        <ele>66.731413</ele>
        <time>2022-12-22T10:06:00.557Z</time>
      </trkpt>
      <trkpt lat="45.848" lon="-0.94756">
        <ele>66.521518</ele>
        <time>2022-12-22T10:06:03.555Z</time>
      </trkpt>
      <trkpt lat="45.8479" lon="-0.94749">
        <ele>66.310111</ele>
        <time>2022-12-22T10:06:06.559Z</time>
      </trkpt>
      <trkpt lat="45.8478" lon="-0.94742">
        <ele>66.097884</ele>
        <time>2022-12-22T10:06:09.558Z</time>
      </trkpt>
      <trkpt lat="45.84771" lon="-0.94734">
        <ele>65.887536</ele>
        <time>2022-12-22T10:06:12.558Z</time>
      </trkpt>
      <trkpt lat="45.84761" lon="-0.94727">
        <ele>65.678896</ele>
        <time>2022-12-22T10:06:15.560Z</time>
      </trkpt>
      <trkpt lat="45.84751" lon="-0.9472">
        <ele>65.465599</ele>
        <time>2022-12-22T10:06:18.538Z</time>
      </trkpt>
      <trkpt lat="45.84741" lon="-0.94712">
        <ele>65.235536</ele>
        <time>2022-12-22T10:06:21.559Z</time>
      </trkpt>
      <trkpt lat="45.84729" lon="-0.94704">
        <ele>64.983548</ele>
        <time>2022-12-22T10:06:24.557Z</time>
      </trkpt>
      <trkpt lat="45.8472" lon="-0.94697">
        <ele>64.79973</ele>
        <time>2022-12-22T10:06:26.559Z</time>
      </trkpt>
      <trkpt lat="45.84711" lon="-0.9469">
        <ele>64.596969</ele>
        <time>2022-12-22T10:06:28.536Z</time>
      </trkpt>
      <trkpt lat="45.84702" lon="-0.94683">
        <ele>64.398097</ele>
        <time>2022-12-22T10:06:30.558Z</time>
      </trkpt>
      <trkpt lat="45.84692" lon="-0.94676">
        <ele>64.187129</ele>
        <time>2022-12-22T10:06:32.560Z</time>
      </trkpt>
      <trkpt lat="45.84682" lon="-0.94669">
        <ele>63.971087</ele>
        <time>2022-12-22T10:06:34.558Z</time>
      </trkpt>
      <trkpt lat="45.84672" lon="-0.94663">
        <ele>63.760725</ele>
        <time>2022-12-22T10:06:36.541Z</time>
      </trkpt>
      <trkpt lat="45.84662" lon="-0.94657">
        <ele>63.548893</ele>
        <time>2022-12-22T10:06:38.555Z</time>
      </trkpt>
      <trkpt lat="45.84652" lon="-0.94651">
        <ele>63.488742</ele>
        <time>2022-12-22T10:06:40.557Z</time>
      </trkpt>
      <trkpt lat="45.84643" lon="-0.94646">
        <ele>63.516219</ele>
        <time>2022-12-22T10:06:42.559Z</time>
      </trkpt>
      <trkpt lat="45.84634" lon="-0.94642">
        <ele>63.541904</ele>
        <time>2022-12-22T10:06:44.546Z</time>
      </trkpt>
      <trkpt lat="45.84621" lon="-0.94638">
        <ele>63.577771</ele>
        <time>2022-12-22T10:06:47.555Z</time>
      </trkpt>
      <trkpt lat="45.84608" lon="-0.94635">
        <ele>63.612195</ele>
        <time>2022-12-22T10:06:50.563Z</time>
      </trkpt>
      <trkpt lat="45.84597" lon="-0.94633">
        <ele>63.641846</ele>
        <time>2022-12-22T10:06:53.556Z</time>
      </trkpt>
      <trkpt lat="45.84587" lon="-0.94632">
        <ele>63.668911</ele>
        <time>2022-12-22T10:06:56.555Z</time>
      </trkpt>
      <trkpt lat="45.84576" lon="-0.94631">
        <ele>63.698388</ele>
        <time>2022-12-22T10:06:59.555Z</time>
      </trkpt>
      <trkpt lat="45.84564" lon="-0.94629">
        <ele>63.729032</ele>
        <time>2022-12-22T10:07:02.559Z</time>
      </trkpt>
      <trkpt lat="45.84553" lon="-0.94627">
        <ele>63.760474</ele>
        <time>2022-12-22T10:07:05.563Z</time>
      </trkpt>
      <trkpt lat="45.84541" lon="-0.94626">
        <ele>63.792181</ele>
        <time>2022-12-22T10:07:08.558Z</time>
      </trkpt>
      <trkpt lat="45.8453" lon="-0.94624">
        <ele>63.822206</ele>
        <time>2022-12-22T10:07:11.560Z</time>
      </trkpt>
      <trkpt lat="45.84519" lon="-0.94622">
        <ele>63.850322</ele>
        <time>2022-12-22T10:07:14.557Z</time>
      </trkpt>
      <trkpt lat="45.84509" lon="-0.94618">
        <ele>63.87919</ele>
        <time>2022-12-22T10:07:17.537Z</time>
      </trkpt>
      <trkpt lat="45.84498" lon="-0.94613">
        <ele>63.90847</ele>
        <time>2022-12-22T10:07:20.561Z</time>
      </trkpt>
      <trkpt lat="45.84488" lon="-0.94608">
        <ele>63.938149</ele>
        <time>2022-12-22T10:07:23.558Z</time>
      </trkpt>
      <trkpt lat="45.84478" lon="-0.94603">
        <ele>63.961412</ele>
        <time>2022-12-22T10:07:26.557Z</time>
      </trkpt>
      <trkpt lat="45.84467" lon="-0.94596">
        <ele>63.981646</ele>
        <time>2022-12-22T10:07:30.558Z</time>
      </trkpt>
      <trkpt lat="45.84456" lon="-0.9459">
        <ele>64.001358</ele>
        <time>2022-12-22T10:07:34.560Z</time>
      </trkpt>
      <trkpt lat="45.84445" lon="-0.94584">
        <ele>64.021347</ele>
        <time>2022-12-22T10:07:38.549Z</time>
      </trkpt>
      <trkpt lat="45.84435" lon="-0.94578">
        <ele>64.040242</ele>
        <time>2022-12-22T10:07:42.560Z</time>
      </trkpt>
      <trkpt lat="45.84426" lon="-0.94572">
        <ele>64.058075</ele>
        <time>2022-12-22T10:07:46.530Z</time>
      </trkpt>
      <trkpt lat="45.84415" lon="-0.94569">
        <ele>64.076957</ele>
        <time>2022-12-22T10:07:50.536Z</time>
      </trkpt>
      <trkpt lat="45.84404" lon="-0.94566">
        <ele>64.096685</ele>
        <time>2022-12-22T10:07:54.567Z</time>
      </trkpt>
      <trkpt lat="45.84392" lon="-0.94563">
        <ele>64.11691</ele>
        <time>2022-12-22T10:07:58.557Z</time>
      </trkpt>
      <trkpt lat="45.84383" lon="-0.94561">
        <ele>64.132879</ele>
        <time>2022-12-22T10:08:01.559Z</time>
      </trkpt>
      <trkpt lat="45.84373" lon="-0.94559">
        <ele>64.149049</ele>
        <time>2022-12-22T10:08:04.542Z</time>
      </trkpt>
      <trkpt lat="45.84364" lon="-0.94558">
        <ele>64.165218</ele>
        <time>2022-12-22T10:08:07.546Z</time>
      </trkpt>
      <trkpt lat="45.84354" lon="-0.94557">
        <ele>64.182025</ele>
        <time>2022-12-22T10:08:10.563Z</time>
      </trkpt>
      <trkpt lat="45.84343" lon="-0.94557">
        <ele>64.200349</ele>
        <time>2022-12-22T10:08:13.556Z</time>
      </trkpt>
      <trkpt lat="45.84333" lon="-0.94557">
        <ele>64.218156</ele>
        <time>2022-12-22T10:08:16.557Z</time>
      </trkpt>
      <trkpt lat="45.84323" lon="-0.94557">
        <ele>64.235793</ele>
        <time>2022-12-22T10:08:19.555Z</time>
      </trkpt>
      <trkpt lat="45.84312" lon="-0.94558">
        <ele>64.253962</ele>
        <time>2022-12-22T10:08:22.546Z</time>
      </trkpt>
      <trkpt lat="45.84302" lon="-0.94558">
        <ele>64.324686</ele>
        <time>2022-12-22T10:08:25.535Z</time>
      </trkpt>
      <trkpt lat="45.84292" lon="-0.94559">
        <ele>64.428612</ele>
        <time>2022-12-22T10:08:28.536Z</time>
      </trkpt>
      <trkpt lat="45.84282" lon="-0.9456">
        <ele>64.529373</ele>
        <time>2022-12-22T10:08:31.556Z</time>
      </trkpt>
      <trkpt lat="45.84272" lon="-0.9456">
        <ele>64.628956</ele>
        <time>2022-12-22T10:08:34.568Z</time>
      </trkpt>
      <trkpt lat="45.84263" lon="-0.94561">
        <ele>64.72968</ele>
        <time>2022-12-22T10:08:37.554Z</time>
      </trkpt>
      <trkpt lat="45.84253" lon="-0.94561">
        <ele>64.828229</ele>
        <time>2022-12-22T10:08:40.560Z</time>
      </trkpt>
      <trkpt lat="45.84243" lon="-0.94561">
        <ele>64.926775</ele>
        <time>2022-12-22T10:08:43.558Z</time>
      </trkpt>
      <trkpt lat="45.84233" lon="-0.94561">
        <ele>65.02945</ele>
        <time>2022-12-22T10:08:46.561Z</time>
      </trkpt>
      <trkpt lat="45.84223" lon="-0.94562">
        <ele>65.133483</ele>
        <time>2022-12-22T10:08:49.533Z</time>
      </trkpt>
      <trkpt lat="45.84213" lon="-0.94566">
        <ele>65.240642</ele>
        <time>2022-12-22T10:08:52.535Z</time>
      </trkpt>
      <trkpt lat="45.84203" lon="-0.94574">
        <ele>65.364111</ele>
        <time>2022-12-22T10:08:55.557Z</time>
      </trkpt>
      <trkpt lat="45.84192" lon="-0.94581">
        <ele>65.484797</ele>
        <time>2022-12-22T10:08:58.559Z</time>
      </trkpt>
      <trkpt lat="45.84182" lon="-0.94589">
        <ele>65.600557</ele>
        <time>2022-12-22T10:09:01.560Z</time>
      </trkpt>
      <trkpt lat="45.84172" lon="-0.94595">
        <ele>65.716307</ele>
        <time>2022-12-22T10:09:04.562Z</time>
      </trkpt>
      <trkpt lat="45.84163" lon="-0.94602">
        <ele>65.819709</ele>
        <time>2022-12-22T10:09:07.547Z</time>
      </trkpt>
      <trkpt lat="45.84154" lon="-0.94607">
        <ele>65.915714</ele>
        <time>2022-12-22T10:09:10.559Z</time>
      </trkpt>
      <trkpt lat="45.84143" lon="-0.94614">
        <ele>66.035654</ele>
        <time>2022-12-22T10:09:14.563Z</time>
      </trkpt>
      <trkpt lat="45.84133" lon="-0.94621">
        <ele>66.050346</ele>
        <time>2022-12-22T10:09:18.560Z</time>
      </trkpt>
      <trkpt lat="45.84123" lon="-0.94628">
        <ele>65.903177</ele>
        <time>2022-12-22T10:09:22.553Z</time>
      </trkpt>
      <trkpt lat="45.84113" lon="-0.94637">
        <ele>65.756982</ele>
        <time>2022-12-22T10:09:26.547Z</time>
      </trkpt>
      <trkpt lat="45.84104" lon="-0.94645">
        <ele>65.62529</ele>
        <time>2022-12-22T10:09:30.556Z</time>
      </trkpt>
      <trkpt lat="45.84095" lon="-0.94654">
        <ele>65.485723</ele>
        <time>2022-12-22T10:09:34.545Z</time>
      </trkpt>
      <trkpt lat="45.84085" lon="-0.94663">
        <ele>65.337347</ele>
        <time>2022-12-22T10:09:38.539Z</time>
      </trkpt>
      <trkpt lat="45.84076" lon="-0.94671">
        <ele>65.203489</ele>
        <time>2022-12-22T10:09:42.557Z</time>
      </trkpt>
      <trkpt lat="45.84067" lon="-0.94681">
        <ele>65.061996</ele>
        <time>2022-12-22T10:09:46.540Z</time>
      </trkpt>
      <trkpt lat="45.8406" lon="-0.94688">
        <ele>64.946835</ele>
        <time>2022-12-22T10:09:49.560Z</time>
      </trkpt>
      <trkpt lat="45.84052" lon="-0.94696">
        <ele>64.825443</ele>
        <time>2022-12-22T10:09:52.555Z</time>
      </trkpt>
      <trkpt lat="45.84044" lon="-0.94704">
        <ele>64.691657</ele>
        <time>2022-12-22T10:09:55.560Z</time>
      </trkpt>
      <trkpt lat="45.84034" lon="-0.94714">
        <ele>64.540183</ele>
        <time>2022-12-22T10:09:58.559Z</time>
      </trkpt>
      <trkpt lat="45.84022" lon="-0.94722">
        <ele>64.369678</ele>
        <time>2022-12-22T10:10:01.564Z</time>
      </trkpt>
      <trkpt lat="45.84013" lon="-0.94728">
        <ele>64.249628</ele>
        <time>2022-12-22T10:10:03.555Z</time>
      </trkpt>
      <trkpt lat="45.84004" lon="-0.94732">
        <ele>64.129674</ele>
        <time>2022-12-22T10:10:05.558Z</time>
      </trkpt>
      <trkpt lat="45.83995" lon="-0.94736">
        <ele>64.007225</ele>
        <time>2022-12-22T10:10:07.545Z</time>
      </trkpt>
      <trkpt lat="45.83985" lon="-0.94739">
        <ele>63.881617</ele>
        <time>2022-12-22T10:10:09.556Z</time>
      </trkpt>
      <trkpt lat="45.83975" lon="-0.94742">
        <ele>63.775448</ele>
        <time>2022-12-22T10:10:11.538Z</time>
      </trkpt>
      <trkpt lat="45.83966" lon="-0.94742">
        <ele>63.698399</ele>
        <time>2022-12-22T10:10:13.558Z</time>
      </trkpt>
      <trkpt lat="45.83957" lon="-0.94741">
        <ele>63.620462</ele>
        <time>2022-12-22T10:10:15.542Z</time>
      </trkpt>
      <trkpt lat="45.83947" lon="-0.9474">
        <ele>63.543038</ele>
        <time>2022-12-22T10:10:17.537Z</time>
      </trkpt>
      <trkpt lat="45.83938" lon="-0.94738">
        <ele>63.464503</ele>
        <time>2022-12-22T10:10:19.557Z</time>
      </trkpt>
      <trkpt lat="45.83925" lon="-0.94734">
        <ele>63.355934</ele>
        <time>2022-12-22T10:10:22.539Z</time>
      </trkpt>
      <trkpt lat="45.83914" lon="-0.94729">
        <ele>63.253925</ele>
        <time>2022-12-22T10:10:25.562Z</time>
      </trkpt>
      <trkpt lat="45.83903" lon="-0.94722">
        <ele>63.157911</ele>
        <time>2022-12-22T10:10:28.542Z</time>
      </trkpt>
      <trkpt lat="45.83893" lon="-0.94715">
        <ele>63.066042</ele>
        <time>2022-12-22T10:10:31.557Z</time>
      </trkpt>
      <trkpt lat="45.83884" lon="-0.94706">
        <ele>62.96859</ele>
        <time>2022-12-22T10:10:34.559Z</time>
      </trkpt>
      <trkpt lat="45.83874" lon="-0.94696">
        <ele>62.866564</ele>
        <time>2022-12-22T10:10:37.546Z</time>
      </trkpt>
      <trkpt lat="45.83864" lon="-0.94684">
        <ele>62.761806</ele>
        <time>2022-12-22T10:10:40.559Z</time>
      </trkpt>
      <trkpt lat="45.83855" lon="-0.94672">
        <ele>62.654963</ele>
        <time>2022-12-22T10:10:43.556Z</time>
      </trkpt>
      <trkpt lat="45.83846" lon="-0.94659">
        <ele>62.55056</ele>
        <time>2022-12-22T10:10:46.557Z</time>
      </trkpt>
      <trkpt lat="45.83838" lon="-0.94647">
        <ele>62.451556</ele>
        <time>2022-12-22T10:10:49.558Z</time>
      </trkpt>
      <trkpt lat="45.83829" lon="-0.94635">
        <ele>62.352965</ele>
        <time>2022-12-22T10:10:52.561Z</time>
      </trkpt>
      <trkpt lat="45.83822" lon="-0.94623">
        <ele>62.175516</ele>
        <time>2022-12-22T10:10:55.557Z</time>
      </trkpt>
      <trkpt lat="45.83814" lon="-0.94612">
        <ele>61.95663</ele>
        <time>2022-12-22T10:10:58.558Z</time>
      </trkpt>
      <trkpt lat="45.83807" lon="-0.94601">
        <ele>61.75476</ele>
        <time>2022-12-22T10:11:01.540Z</time>
      </trkpt>
      <trkpt lat="45.838" lon="-0.94591">
        <ele>61.563084</ele>
        <time>2022-12-22T10:11:04.560Z</time>
      </trkpt>
      <trkpt lat="45.83793" lon="-0.94581">
        <ele>61.352681</ele>
        <time>2022-12-22T10:11:07.548Z</time>
      </trkpt>
      <trkpt lat="45.83785" lon="-0.94569">
        <ele>61.121986</ele>
        <time>2022-12-22T10:11:10.557Z</time>
      </trkpt>
      <trkpt lat="45.83776" lon="-0.94558">
        <ele>60.893698</ele>
        <time>2022-12-22T10:11:13.553Z</time>
      </trkpt>
      <trkpt lat="45.83769" lon="-0.94548">
        <ele>60.684256</ele>
        <time>2022-12-22T10:11:16.558Z</time>
      </trkpt>
      <trkpt lat="45.83761" lon="-0.94538">
        <ele>60.476721</ele>
        <time>2022-12-22T10:11:19.562Z</time>
      </trkpt>
      <trkpt lat="45.83754" lon="-0.94528">
        <ele>60.287551</ele>
        <time>2022-12-22T10:11:22.559Z</time>
      </trkpt>
      <trkpt lat="45.83747" lon="-0.94517">
        <ele>60.068881</ele>
        <time>2022-12-22T10:11:26.552Z</time>
      </trkpt>
      <trkpt lat="45.83731" lon="-0.94495">
        <ele>59.626824</ele>
        <time>2022-12-22T10:13:35.560Z</time>
      </trkpt>
      <trkpt lat="45.83722" lon="-0.94483">
        <ele>59.383556</ele>
        <time>2022-12-22T10:13:38.555Z</time>
      </trkpt>
      <trkpt lat="45.83714" lon="-0.94469">
        <ele>59.131262</ele>
        <time>2022-12-22T10:13:41.559Z</time>
      </trkpt>
      <trkpt lat="45.83705" lon="-0.94456">
        <ele>58.877947</ele>
        <time>2022-12-22T10:13:44.551Z</time>
      </trkpt>
      <trkpt lat="45.83696" lon="-0.94444">
        <ele>58.574156</ele>
        <time>2022-12-22T10:13:47.550Z</time>
      </trkpt>
      <trkpt lat="45.83687" lon="-0.94431">
        <ele>58.192559</ele>
        <time>2022-12-22T10:13:50.560Z</time>
      </trkpt>
      <trkpt lat="45.83677" lon="-0.94418">
        <ele>57.797144</ele>
        <time>2022-12-22T10:13:53.562Z</time>
      </trkpt>
      <trkpt lat="45.83667" lon="-0.94406">
        <ele>57.39357</ele>
        <time>2022-12-22T10:13:56.563Z</time>
      </trkpt>
      <trkpt lat="45.83658" lon="-0.94391">
        <ele>56.973696</ele>
        <time>2022-12-22T10:13:59.559Z</time>
      </trkpt>
      <trkpt lat="45.83651" lon="-0.94381">
        <ele>56.662575</ele>
        <time>2022-12-22T10:14:01.540Z</time>
      </trkpt>
      <trkpt lat="45.83643" lon="-0.94371">
        <ele>56.35522</ele>
        <time>2022-12-22T10:14:03.557Z</time>
      </trkpt>
      <trkpt lat="45.83636" lon="-0.9436">
        <ele>56.027983</ele>
        <time>2022-12-22T10:14:05.559Z</time>
      </trkpt>
      <trkpt lat="45.83628" lon="-0.94349">
        <ele>55.697091</ele>
        <time>2022-12-22T10:14:07.547Z</time>
      </trkpt>
      <trkpt lat="45.8362" lon="-0.94339">
        <ele>55.359211</ele>
        <time>2022-12-22T10:14:09.550Z</time>
      </trkpt>
      <trkpt lat="45.83612" lon="-0.94329">
        <ele>55.064188</ele>
        <time>2022-12-22T10:14:11.558Z</time>
      </trkpt>
      <trkpt lat="45.83604" lon="-0.94318">
        <ele>54.706949</ele>
        <time>2022-12-22T10:14:13.560Z</time>
      </trkpt>
      <trkpt lat="45.83596" lon="-0.94308">
        <ele>54.370451</ele>
        <time>2022-12-22T10:14:15.543Z</time>
      </trkpt>
      <trkpt lat="45.83588" lon="-0.94297">
        <ele>54.04538</ele>
        <time>2022-12-22T10:14:17.549Z</time>
      </trkpt>
      <trkpt lat="45.83579" lon="-0.94287">
        <ele>53.699528</ele>
        <time>2022-12-22T10:14:19.557Z</time>
      </trkpt>
      <trkpt lat="45.8357" lon="-0.94277">
        <ele>53.355269</ele>
        <time>2022-12-22T10:14:21.559Z</time>
      </trkpt>
      <trkpt lat="45.83561" lon="-0.94267">
        <ele>53.20163</ele>
        <time>2022-12-22T10:14:23.560Z</time>
      </trkpt>
      <trkpt lat="45.83552" lon="-0.94258">
        <ele>53.15285</ele>
        <time>2022-12-22T10:14:25.550Z</time>
      </trkpt>
      <trkpt lat="45.83544" lon="-0.94251">
        <ele>53.10894</ele>
        <time>2022-12-22T10:14:27.553Z</time>
      </trkpt>
      <trkpt lat="45.83536" lon="-0.94243">
        <ele>53.064353</ele>
        <time>2022-12-22T10:14:29.558Z</time>
      </trkpt>
      <trkpt lat="45.83528" lon="-0.94236">
        <ele>53.022342</ele>
        <time>2022-12-22T10:14:31.538Z</time>
      </trkpt>
      <trkpt lat="45.83519" lon="-0.94231">
        <ele>52.981007</ele>
        <time>2022-12-22T10:14:33.558Z</time>
      </trkpt>
      <trkpt lat="45.83507" lon="-0.94223">
        <ele>52.921176</ele>
        <time>2022-12-22T10:14:36.560Z</time>
      </trkpt>
      <trkpt lat="45.83495" lon="-0.94215">
        <ele>52.860311</ele>
        <time>2022-12-22T10:14:39.558Z</time>
      </trkpt>
      <trkpt lat="45.83482" lon="-0.94208">
        <ele>52.799822</ele>
        <time>2022-12-22T10:14:42.555Z</time>
      </trkpt>
      <trkpt lat="45.83472" lon="-0.94203">
        <ele>52.754206</ele>
        <time>2022-12-22T10:14:44.563Z</time>
      </trkpt>
      <trkpt lat="45.83462" lon="-0.942">
        <ele>52.707615</ele>
        <time>2022-12-22T10:14:46.556Z</time>
      </trkpt>
      <trkpt lat="45.83452" lon="-0.94196">
        <ele>52.661533</ele>
        <time>2022-12-22T10:14:48.558Z</time>
      </trkpt>
      <trkpt lat="45.83441" lon="-0.94193">
        <ele>52.610246</ele>
        <time>2022-12-22T10:14:50.554Z</time>
      </trkpt>
      <trkpt lat="45.83429" lon="-0.94191">
        <ele>52.558263</ele>
        <time>2022-12-22T10:14:52.538Z</time>
      </trkpt>
      <trkpt lat="45.83417" lon="-0.9419">
        <ele>52.50389</ele>
        <time>2022-12-22T10:14:54.534Z</time>
      </trkpt>
      <trkpt lat="45.83405" lon="-0.94189">
        <ele>52.450162</ele>
        <time>2022-12-22T10:14:56.557Z</time>
      </trkpt>
      <trkpt lat="45.83395" lon="-0.94188">
        <ele>52.438786</ele>
        <time>2022-12-22T10:14:58.550Z</time>
      </trkpt>
      <trkpt lat="45.83383" lon="-0.94188">
        <ele>52.460334</ele>
        <time>2022-12-22T10:15:00.558Z</time>
      </trkpt>
      <trkpt lat="45.83372" lon="-0.94188">
        <ele>52.481701</ele>
        <time>2022-12-22T10:15:02.557Z</time>
      </trkpt>
      <trkpt lat="45.83362" lon="-0.9419">
        <ele>52.501458</ele>
        <time>2022-12-22T10:15:04.560Z</time>
      </trkpt>
      <trkpt lat="45.83351" lon="-0.94191">
        <ele>52.522107</ele>
        <time>2022-12-22T10:15:06.560Z</time>
      </trkpt>
      <trkpt lat="45.83341" lon="-0.94192">
        <ele>52.542373</ele>
        <time>2022-12-22T10:15:08.557Z</time>
      </trkpt>
      <trkpt lat="45.83331" lon="-0.94194">
        <ele>52.561954</ele>
        <time>2022-12-22T10:15:10.553Z</time>
      </trkpt>
      <trkpt lat="45.83321" lon="-0.94197">
        <ele>52.581272</ele>
        <time>2022-12-22T10:15:12.560Z</time>
      </trkpt>
      <trkpt lat="45.83311" lon="-0.94198">
        <ele>52.60087</ele>
        <time>2022-12-22T10:15:14.557Z</time>
      </trkpt>
      <trkpt lat="45.83301" lon="-0.94201">
        <ele>52.620545</ele>
        <time>2022-12-22T10:15:16.560Z</time>
      </trkpt>
      <trkpt lat="45.83291" lon="-0.94202">
        <ele>52.63965</ele>
        <time>2022-12-22T10:15:18.553Z</time>
      </trkpt>
      <trkpt lat="45.83281" lon="-0.94203">
        <ele>52.659138</ele>
        <time>2022-12-22T10:15:20.553Z</time>
      </trkpt>
      <trkpt lat="45.83271" lon="-0.94204">
        <ele>52.678661</ele>
        <time>2022-12-22T10:15:22.555Z</time>
      </trkpt>
      <trkpt lat="45.83257" lon="-0.94207">
        <ele>52.704904</ele>
        <time>2022-12-22T10:15:25.559Z</time>
      </trkpt>
      <trkpt lat="45.83245" lon="-0.94209">
        <ele>52.729075</ele>
        <time>2022-12-22T10:15:28.561Z</time>
      </trkpt>
      <trkpt lat="45.83233" lon="-0.94212">
        <ele>52.751093</ele>
        <time>2022-12-22T10:15:31.562Z</time>
      </trkpt>
      <trkpt lat="45.83222" lon="-0.94214">
        <ele>52.772922</ele>
        <time>2022-12-22T10:15:34.558Z</time>
      </trkpt>
      <trkpt lat="45.83211" lon="-0.94216">
        <ele>52.811658</ele>
        <time>2022-12-22T10:15:37.544Z</time>
      </trkpt>
      <trkpt lat="45.832" lon="-0.94218">
        <ele>52.849936</ele>
        <time>2022-12-22T10:15:40.557Z</time>
      </trkpt>
      <trkpt lat="45.83189" lon="-0.94219">
        <ele>52.888875</ele>
        <time>2022-12-22T10:15:43.559Z</time>
      </trkpt>
      <trkpt lat="45.83177" lon="-0.94221">
        <ele>52.929559</ele>
        <time>2022-12-22T10:15:46.560Z</time>
      </trkpt>
      <trkpt lat="45.83165" lon="-0.94223">
        <ele>52.971385</ele>
        <time>2022-12-22T10:15:49.560Z</time>
      </trkpt>
      <trkpt lat="45.83153" lon="-0.94226">
        <ele>53.013898</ele>
        <time>2022-12-22T10:15:52.564Z</time>
      </trkpt>
      <trkpt lat="45.83141" lon="-0.94227">
        <ele>53.055269</ele>
        <time>2022-12-22T10:15:55.558Z</time>
      </trkpt>
      <trkpt lat="45.83129" lon="-0.94229">
        <ele>53.097304</ele>
        <time>2022-12-22T10:15:58.557Z</time>
      </trkpt>
      <trkpt lat="45.83116" lon="-0.94231">
        <ele>53.139787</ele>
        <time>2022-12-22T10:16:01.560Z</time>
      </trkpt>
      <trkpt lat="45.83104" lon="-0.94233">
        <ele>53.183273</ele>
        <time>2022-12-22T10:16:04.561Z</time>
      </trkpt>
      <trkpt lat="45.83091" lon="-0.94235">
        <ele>53.227816</ele>
        <time>2022-12-22T10:16:07.542Z</time>
      </trkpt>
      <trkpt lat="45.83078" lon="-0.94238">
        <ele>53.272417</ele>
        <time>2022-12-22T10:16:10.557Z</time>
      </trkpt>
      <trkpt lat="45.83065" lon="-0.94239">
        <ele>53.317145</ele>
        <time>2022-12-22T10:16:13.558Z</time>
      </trkpt>
      <trkpt lat="45.83053" lon="-0.94241">
        <ele>53.360717</ele>
        <time>2022-12-22T10:16:16.558Z</time>
      </trkpt>
      <trkpt lat="45.83041" lon="-0.94243">
        <ele>53.440893</ele>
        <time>2022-12-22T10:16:19.560Z</time>
      </trkpt>
      <trkpt lat="45.83029" lon="-0.94244">
        <ele>53.690967</ele>
        <time>2022-12-22T10:16:22.558Z</time>
      </trkpt>
      <trkpt lat="45.83019" lon="-0.94247">
        <ele>53.918531</ele>
        <time>2022-12-22T10:16:25.542Z</time>
      </trkpt>
      <trkpt lat="45.83009" lon="-0.94249">
        <ele>54.146535</ele>
        <time>2022-12-22T10:16:28.556Z</time>
      </trkpt>
      <trkpt lat="45.82998" lon="-0.9425">
        <ele>54.368554</ele>
        <time>2022-12-22T10:16:31.567Z</time>
      </trkpt>
      <trkpt lat="45.82988" lon="-0.94252">
        <ele>54.585179</ele>
        <time>2022-12-22T10:16:34.547Z</time>
      </trkpt>
      <trkpt lat="45.82979" lon="-0.94253">
        <ele>54.780662</ele>
        <time>2022-12-22T10:16:37.545Z</time>
      </trkpt>
      <trkpt lat="45.8297" lon="-0.94254">
        <ele>54.978415</ele>
        <time>2022-12-22T10:16:41.556Z</time>
      </trkpt>
      <trkpt lat="45.8296" lon="-0.94257">
        <ele>55.209036</ele>
        <time>2022-12-22T10:16:45.558Z</time>
      </trkpt>
      <trkpt lat="45.82949" lon="-0.94258">
        <ele>55.442135</ele>
        <time>2022-12-22T10:16:49.559Z</time>
      </trkpt>
      <trkpt lat="45.82938" lon="-0.94259">
        <ele>55.674378</ele>
        <time>2022-12-22T10:16:53.558Z</time>
      </trkpt>
      <trkpt lat="45.82928" lon="-0.94262">
        <ele>55.902617</ele>
        <time>2022-12-22T10:16:57.545Z</time>
      </trkpt>
      <trkpt lat="45.82919" lon="-0.94263">
        <ele>56.109702</ele>
        <time>2022-12-22T10:17:01.546Z</time>
      </trkpt>
      <trkpt lat="45.82908" lon="-0.94264">
        <ele>56.335552</ele>
        <time>2022-12-22T10:17:06.564Z</time>
      </trkpt>
      <trkpt lat="45.82897" lon="-0.94266">
        <ele>56.57992</ele>
        <time>2022-12-22T10:17:11.547Z</time>
      </trkpt>
      <trkpt lat="45.82888" lon="-0.94267">
        <ele>56.775635</ele>
        <time>2022-12-22T10:17:15.557Z</time>
      </trkpt>
      <trkpt lat="45.82877" lon="-0.94268">
        <ele>57.014916</ele>
        <time>2022-12-22T10:17:20.562Z</time>
      </trkpt>
      <trkpt lat="45.82868" lon="-0.94271">
        <ele>57.21086</ele>
        <time>2022-12-22T10:17:24.557Z</time>
      </trkpt>
      <trkpt lat="45.82857" lon="-0.94273">
        <ele>57.575537</ele>
        <time>2022-12-22T10:17:29.556Z</time>
      </trkpt>
      <trkpt lat="45.82846" lon="-0.94274">
        <ele>58.009458</ele>
        <time>2022-12-22T10:17:34.558Z</time>
      </trkpt>
      <trkpt lat="45.82836" lon="-0.94276">
        <ele>58.42545</ele>
        <time>2022-12-22T10:17:39.542Z</time>
      </trkpt>
      <trkpt lat="45.82826" lon="-0.94277">
        <ele>58.824667</ele>
        <time>2022-12-22T10:17:44.553Z</time>
      </trkpt>
      <trkpt lat="45.82815" lon="-0.9428">
        <ele>59.245931</ele>
        <time>2022-12-22T10:17:49.555Z</time>
      </trkpt>
      <trkpt lat="45.82804" lon="-0.94281">
        <ele>59.67366</ele>
        <time>2022-12-22T10:17:54.540Z</time>
      </trkpt>
      <trkpt lat="45.82794" lon="-0.94284">
        <ele>60.068929</ele>
        <time>2022-12-22T10:17:59.558Z</time>
      </trkpt>
      <trkpt lat="45.82784" lon="-0.94284">
        <ele>60.475018</ele>
        <time>2022-12-22T10:18:04.559Z</time>
      </trkpt>
      <trkpt lat="45.82774" lon="-0.94287">
        <ele>60.870754</ele>
        <time>2022-12-22T10:18:09.540Z</time>
      </trkpt>
      <trkpt lat="45.82764" lon="-0.9429">
        <ele>61.271346</ele>
        <time>2022-12-22T10:18:14.561Z</time>
      </trkpt>
      <trkpt lat="45.82754" lon="-0.94292">
        <ele>61.68172</ele>
        <time>2022-12-22T10:18:19.557Z</time>
      </trkpt>
      <trkpt lat="45.82743" lon="-0.94295">
        <ele>62.113165</ele>
        <time>2022-12-22T10:18:24.559Z</time>
      </trkpt>
      <trkpt lat="45.82733" lon="-0.94298">
        <ele>62.528302</ele>
        <time>2022-12-22T10:18:29.562Z</time>
      </trkpt>
      <trkpt lat="45.82723" lon="-0.94302">
        <ele>62.93551</ele>
        <time>2022-12-22T10:18:34.562Z</time>
      </trkpt>
      <trkpt lat="45.82713" lon="-0.94306">
        <ele>63.348733</ele>
        <time>2022-12-22T10:18:39.570Z</time>
      </trkpt>
      <trkpt lat="45.82702" lon="-0.9431">
        <ele>63.768054</ele>
        <time>2022-12-22T10:18:44.560Z</time>
      </trkpt>
      <trkpt lat="45.82692" lon="-0.94314">
        <ele>64.188134</ele>
        <time>2022-12-22T10:18:49.556Z</time>
      </trkpt>
      <trkpt lat="45.82683" lon="-0.94317">
        <ele>64.467508</ele>
        <time>2022-12-22T10:18:54.561Z</time>
      </trkpt>
      <trkpt lat="45.82673" lon="-0.9432">
        <ele>64.668995</ele>
        <time>2022-12-22T10:18:59.544Z</time>
      </trkpt>
      <trkpt lat="45.82663" lon="-0.94322">
        <ele>64.870395</ele>
        <time>2022-12-22T10:19:04.562Z</time>
      </trkpt>
      <trkpt lat="45.82653" lon="-0.94325">
        <ele>65.077358</ele>
        <time>2022-12-22T10:19:09.539Z</time>
      </trkpt>
      <trkpt lat="45.82644" lon="-0.94329">
        <ele>65.270358</ele>
        <time>2022-12-22T10:19:13.559Z</time>
      </trkpt>
      <trkpt lat="45.82635" lon="-0.94331">
        <ele>65.455606</ele>
        <time>2022-12-22T10:19:17.550Z</time>
      </trkpt>
      <trkpt lat="45.82624" lon="-0.94335">
        <ele>65.676048</ele>
        <time>2022-12-22T10:19:22.560Z</time>
      </trkpt>
      <trkpt lat="45.82614" lon="-0.94339">
        <ele>65.887116</ele>
        <time>2022-12-22T10:19:26.559Z</time>
      </trkpt>
      <trkpt lat="45.82604" lon="-0.94342">
        <ele>66.098041</ele>
        <time>2022-12-22T10:19:30.558Z</time>
      </trkpt>
      <trkpt lat="45.82594" lon="-0.94345">
        <ele>66.302785</ele>
        <time>2022-12-22T10:19:34.560Z</time>
      </trkpt>
      <trkpt lat="45.82584" lon="-0.9435">
        <ele>66.523537</ele>
        <time>2022-12-22T10:19:38.561Z</time>
      </trkpt>
      <trkpt lat="45.82574" lon="-0.94354">
        <ele>66.737001</ele>
        <time>2022-12-22T10:19:42.557Z</time>
      </trkpt>
      <trkpt lat="45.82563" lon="-0.94358">
        <ele>66.94734</ele>
        <time>2022-12-22T10:19:46.558Z</time>
      </trkpt>
      <trkpt lat="45.82554" lon="-0.94364">
        <ele>67.164938</ele>
        <time>2022-12-22T10:19:50.556Z</time>
      </trkpt>
      <trkpt lat="45.82543" lon="-0.94371">
        <ele>67.394016</ele>
        <time>2022-12-22T10:19:54.560Z</time>
      </trkpt>
      <trkpt lat="45.82533" lon="-0.94379">
        <ele>67.628857</ele>
        <time>2022-12-22T10:19:58.532Z</time>
      </trkpt>
      <trkpt lat="45.82525" lon="-0.94386">
        <ele>67.810991</ele>
        <time>2022-12-22T10:20:01.561Z</time>
      </trkpt>
      <trkpt lat="45.82518" lon="-0.94393">
        <ele>67.994612</ele>
        <time>2022-12-22T10:20:04.560Z</time>
      </trkpt>
      <trkpt lat="45.8251" lon="-0.944">
        <ele>68.209093</ele>
        <time>2022-12-22T10:20:07.552Z</time>
      </trkpt>
      <trkpt lat="45.82503" lon="-0.94409">
        <ele>68.421434</ele>
        <time>2022-12-22T10:20:10.561Z</time>
      </trkpt>
      <trkpt lat="45.82496" lon="-0.94418">
        <ele>68.640972</ele>
        <time>2022-12-22T10:20:13.558Z</time>
      </trkpt>
      <trkpt lat="45.82489" lon="-0.94427">
        <ele>68.853076</ele>
        <time>2022-12-22T10:20:16.562Z</time>
      </trkpt>
      <trkpt lat="45.82483" lon="-0.94436">
        <ele>69.060884</ele>
        <time>2022-12-22T10:20:19.558Z</time>
      </trkpt>
      <trkpt lat="45.82475" lon="-0.94448">
        <ele>69.326963</ele>
        <time>2022-12-22T10:20:23.543Z</time>
      </trkpt>
      <trkpt lat="45.82467" lon="-0.94461">
        <ele>69.599719</ele>
        <time>2022-12-22T10:20:27.549Z</time>
      </trkpt>
      <trkpt lat="45.82459" lon="-0.94473">
        <ele>69.860742</ele>
        <time>2022-12-22T10:20:31.555Z</time>
      </trkpt>
      <trkpt lat="45.82451" lon="-0.94485">
        <ele>70.126821</ele>
        <time>2022-12-22T10:20:35.559Z</time>
      </trkpt>
      <trkpt lat="45.82443" lon="-0.94496">
        <ele>70.380044</ele>
        <time>2022-12-22T10:20:39.555Z</time>
      </trkpt>
      <trkpt lat="45.82435" lon="-0.94508">
        <ele>70.643818</ele>
        <time>2022-12-22T10:20:43.558Z</time>
      </trkpt>
      <trkpt lat="45.82427" lon="-0.94519">
        <ele>70.901411</ele>
        <time>2022-12-22T10:20:47.551Z</time>
      </trkpt>
      <trkpt lat="45.82419" lon="-0.94531">
        <ele>71.162434</ele>
        <time>2022-12-22T10:20:51.557Z</time>
      </trkpt>
      <trkpt lat="45.82411" lon="-0.94542">
        <ele>71.421166</ele>
        <time>2022-12-22T10:20:55.560Z</time>
      </trkpt>
      <trkpt lat="45.82403" lon="-0.94554">
        <ele>71.677626</ele>
        <time>2022-12-22T10:20:59.560Z</time>
      </trkpt>
      <trkpt lat="45.82395" lon="-0.94565">
        <ele>71.94401</ele>
        <time>2022-12-22T10:21:03.558Z</time>
      </trkpt>
      <trkpt lat="45.82386" lon="-0.94576">
        <ele>72.120701</ele>
        <time>2022-12-22T10:21:07.548Z</time>
      </trkpt>
      <trkpt lat="45.82377" lon="-0.94587">
        <ele>72.082779</ele>
        <time>2022-12-22T10:21:11.559Z</time>
      </trkpt>
      <trkpt lat="45.82368" lon="-0.94597">
        <ele>72.046804</ele>
        <time>2022-12-22T10:21:15.558Z</time>
      </trkpt>
      <trkpt lat="45.82359" lon="-0.94605">
        <ele>72.012557</ele>
        <time>2022-12-22T10:21:19.540Z</time>
      </trkpt>
      <trkpt lat="45.82349" lon="-0.94613">
        <ele>71.975861</ele>
        <time>2022-12-22T10:21:24.560Z</time>
      </trkpt>
      <trkpt lat="45.8234" lon="-0.94621">
        <ele>71.940085</ele>
        <time>2022-12-22T10:21:28.557Z</time>
      </trkpt>
      <trkpt lat="45.8233" lon="-0.94629">
        <ele>71.903891</ele>
        <time>2022-12-22T10:21:32.561Z</time>
      </trkpt>
      <trkpt lat="45.82321" lon="-0.94635">
        <ele>71.873584</ele>
        <time>2022-12-22T10:21:35.559Z</time>
      </trkpt>
      <trkpt lat="45.82313" lon="-0.94641">
        <ele>71.841917</ele>
        <time>2022-12-22T10:21:38.557Z</time>
      </trkpt>
      <trkpt lat="45.82304" lon="-0.94646">
        <ele>71.812665</ele>
        <time>2022-12-22T10:21:41.542Z</time>
      </trkpt>
      <trkpt lat="45.82295" lon="-0.94653">
        <ele>71.778092</ele>
        <time>2022-12-22T10:21:45.559Z</time>
      </trkpt>
      <trkpt lat="45.82286" lon="-0.94661">
        <ele>71.744131</ele>
        <time>2022-12-22T10:21:49.538Z</time>
      </trkpt>
      <trkpt lat="45.82276" lon="-0.94668">
        <ele>71.710705</ele>
        <time>2022-12-22T10:21:53.555Z</time>
      </trkpt>
      <trkpt lat="45.82267" lon="-0.94674">
        <ele>71.67816</ele>
        <time>2022-12-22T10:21:57.542Z</time>
      </trkpt>
      <trkpt lat="45.82258" lon="-0.94682">
        <ele>71.642964</ele>
        <time>2022-12-22T10:22:01.559Z</time>
      </trkpt>
      <trkpt lat="45.82247" lon="-0.9469">
        <ele>71.604926</ele>
        <time>2022-12-22T10:22:05.549Z</time>
      </trkpt>
      <trkpt lat="45.82239" lon="-0.94695">
        <ele>71.574994</ele>
        <time>2022-12-22T10:22:08.559Z</time>
      </trkpt>
      <trkpt lat="45.8223" lon="-0.94702">
        <ele>71.529512</ele>
        <time>2022-12-22T10:22:11.561Z</time>
      </trkpt>
      <trkpt lat="45.82222" lon="-0.94709">
        <ele>71.451866</ele>
        <time>2022-12-22T10:22:14.557Z</time>
      </trkpt>
      <trkpt lat="45.82213" lon="-0.94713">
        <ele>71.378954</ele>
        <time>2022-12-22T10:22:17.545Z</time>
      </trkpt>
      <trkpt lat="45.82204" lon="-0.94716">
        <ele>71.30784</ele>
        <time>2022-12-22T10:22:20.562Z</time>
      </trkpt>
      <trkpt lat="45.82195" lon="-0.94716">
        <ele>71.233084</ele>
        <time>2022-12-22T10:22:23.547Z</time>
      </trkpt>
      <trkpt lat="45.82185" lon="-0.94714">
        <ele>71.157905</ele>
        <time>2022-12-22T10:22:26.557Z</time>
      </trkpt>
      <trkpt lat="45.82176" lon="-0.94709">
        <ele>71.080347</ele>
        <time>2022-12-22T10:22:29.559Z</time>
      </trkpt>
      <trkpt lat="45.82167" lon="-0.94701">
        <ele>71.000815</ele>
        <time>2022-12-22T10:22:32.560Z</time>
      </trkpt>
      <trkpt lat="45.82158" lon="-0.94694">
        <ele>70.920606</ele>
        <time>2022-12-22T10:22:35.547Z</time>
      </trkpt>
      <trkpt lat="45.82149" lon="-0.94686">
        <ele>70.833265</ele>
        <time>2022-12-22T10:22:38.557Z</time>
      </trkpt>
      <trkpt lat="45.82137" lon="-0.9468">
        <ele>70.732782</ele>
        <time>2022-12-22T10:22:41.560Z</time>
      </trkpt>
      <trkpt lat="45.82124" lon="-0.94675">
        <ele>70.626355</ele>
        <time>2022-12-22T10:22:44.559Z</time>
      </trkpt>
      <trkpt lat="45.82114" lon="-0.94671">
        <ele>70.550607</ele>
        <time>2022-12-22T10:22:46.557Z</time>
      </trkpt>
      <trkpt lat="45.82105" lon="-0.94669">
        <ele>70.47717</ele>
        <time>2022-12-22T10:22:48.558Z</time>
      </trkpt>
      <trkpt lat="45.82096" lon="-0.94668">
        <ele>70.406224</ele>
        <time>2022-12-22T10:22:50.562Z</time>
      </trkpt>
      <trkpt lat="45.82084" lon="-0.94667">
        <ele>70.307017</ele>
        <time>2022-12-22T10:22:53.550Z</time>
      </trkpt>
      <trkpt lat="45.82074" lon="-0.94666">
        <ele>70.233046</ele>
        <time>2022-12-22T10:22:56.571Z</time>
      </trkpt>
      <trkpt lat="45.82064" lon="-0.94668">
        <ele>70.14923</ele>
        <time>2022-12-22T10:23:00.556Z</time>
      </trkpt>
      <trkpt lat="45.82052" lon="-0.9467">
        <ele>70.300983</ele>
        <time>2022-12-22T10:23:04.604Z</time>
      </trkpt>
      <trkpt lat="45.82041" lon="-0.94671">
        <ele>70.478732</ele>
        <time>2022-12-22T10:23:08.563Z</time>
      </trkpt>
      <trkpt lat="45.82029" lon="-0.94673">
        <ele>70.661728</ele>
        <time>2022-12-22T10:23:12.557Z</time>
      </trkpt>
      <trkpt lat="45.82019" lon="-0.94676">
        <ele>70.836402</ele>
        <time>2022-12-22T10:23:16.620Z</time>
      </trkpt>
      <trkpt lat="45.82007" lon="-0.9468">
        <ele>71.020094</ele>
        <time>2022-12-22T10:23:20.560Z</time>
      </trkpt>
      <trkpt lat="45.81997" lon="-0.94685">
        <ele>71.191001</ele>
        <time>2022-12-22T10:23:25.560Z</time>
      </trkpt>
      <trkpt lat="45.81988" lon="-0.94685">
        <ele>71.336873</ele>
        <time>2022-12-22T10:23:30.561Z</time>
      </trkpt>
      <trkpt lat="45.81979" lon="-0.94688">
        <ele>71.480125</ele>
        <time>2022-12-22T10:23:34.560Z</time>
      </trkpt>
      <trkpt lat="45.8197" lon="-0.9469">
        <ele>71.62686</ele>
        <time>2022-12-22T10:23:38.573Z</time>
      </trkpt>
      <trkpt lat="45.8196" lon="-0.94691">
        <ele>71.77333</ele>
        <time>2022-12-22T10:23:42.542Z</time>
      </trkpt>
      <trkpt lat="45.81951" lon="-0.94692">
        <ele>71.927342</ele>
        <time>2022-12-22T10:23:46.560Z</time>
      </trkpt>
      <trkpt lat="45.81942" lon="-0.94696">
        <ele>72.077266</ele>
        <time>2022-12-22T10:23:50.563Z</time>
      </trkpt>
      <trkpt lat="45.81933" lon="-0.947">
        <ele>72.223245</ele>
        <time>2022-12-22T10:23:54.558Z</time>
      </trkpt>
      <trkpt lat="45.81923" lon="-0.94705">
        <ele>72.386665</ele>
        <time>2022-12-22T10:23:58.568Z</time>
      </trkpt>
      <trkpt lat="45.81912" lon="-0.94709">
        <ele>72.567979</ele>
        <time>2022-12-22T10:24:02.578Z</time>
      </trkpt>
      <trkpt lat="45.81902" lon="-0.94712">
        <ele>72.733627</ele>
        <time>2022-12-22T10:24:06.558Z</time>
      </trkpt>
      <trkpt lat="45.81891" lon="-0.94716">
        <ele>72.905766</ele>
        <time>2022-12-22T10:24:10.559Z</time>
      </trkpt>
      <trkpt lat="45.8188" lon="-0.9472">
        <ele>73.010836</ele>
        <time>2022-12-22T10:24:14.610Z</time>
      </trkpt>
      <trkpt lat="45.81871" lon="-0.94723">
        <ele>73.05008</ele>
        <time>2022-12-22T10:24:17.543Z</time>
      </trkpt>
      <trkpt lat="45.81862" lon="-0.94725">
        <ele>73.091257</ele>
        <time>2022-12-22T10:24:20.612Z</time>
      </trkpt>
      <trkpt lat="45.81852" lon="-0.94726">
        <ele>73.131286</ele>
        <time>2022-12-22T10:24:23.559Z</time>
      </trkpt>
      <trkpt lat="45.81843" lon="-0.94729">
        <ele>73.173315</ele>
        <time>2022-12-22T10:24:26.612Z</time>
      </trkpt>
      <trkpt lat="45.81833" lon="-0.94732">
        <ele>73.213238</ele>
        <time>2022-12-22T10:24:29.557Z</time>
      </trkpt>
      <trkpt lat="45.81822" lon="-0.94734">
        <ele>73.260784</ele>
        <time>2022-12-22T10:24:33.562Z</time>
      </trkpt>
      <trkpt lat="45.81811" lon="-0.94738">
        <ele>73.308825</ele>
        <time>2022-12-22T10:24:37.543Z</time>
      </trkpt>
      <trkpt lat="45.81802" lon="-0.94742">
        <ele>73.349403</ele>
        <time>2022-12-22T10:24:40.561Z</time>
      </trkpt>
      <trkpt lat="45.81792" lon="-0.94746">
        <ele>73.39218</ele>
        <time>2022-12-22T10:24:43.562Z</time>
      </trkpt>
      <trkpt lat="45.81784" lon="-0.94752">
        <ele>73.432813</ele>
        <time>2022-12-22T10:24:46.560Z</time>
      </trkpt>
      <trkpt lat="45.81773" lon="-0.94759">
        <ele>73.480473</ele>
        <time>2022-12-22T10:24:50.607Z</time>
      </trkpt>
      <trkpt lat="45.81765" lon="-0.94765">
        <ele>73.521269</ele>
        <time>2022-12-22T10:24:53.559Z</time>
      </trkpt>
      <trkpt lat="45.81756" lon="-0.94771">
        <ele>73.562551</ele>
        <time>2022-12-22T10:24:56.634Z</time>
      </trkpt>
      <trkpt lat="45.81747" lon="-0.94775">
        <ele>73.603721</ele>
        <time>2022-12-22T10:24:59.569Z</time>
      </trkpt>
      <trkpt lat="45.81738" lon="-0.94781">
        <ele>73.645936</ele>
        <time>2022-12-22T10:25:02.558Z</time>
      </trkpt>
      <trkpt lat="45.81729" lon="-0.94786">
        <ele>73.685697</ele>
        <time>2022-12-22T10:25:05.558Z</time>
      </trkpt>
      <trkpt lat="45.81719" lon="-0.94792">
        <ele>73.733008</ele>
        <time>2022-12-22T10:25:09.571Z</time>
      </trkpt>
      <trkpt lat="45.8171" lon="-0.94797">
        <ele>73.713894</ele>
        <time>2022-12-22T10:25:12.545Z</time>
      </trkpt>
      <trkpt lat="45.817" lon="-0.94802">
        <ele>73.662039</ele>
        <time>2022-12-22T10:25:15.563Z</time>
      </trkpt>
      <trkpt lat="45.81689" lon="-0.94808">
        <ele>73.607502</ele>
        <time>2022-12-22T10:25:18.610Z</time>
      </trkpt>
      <trkpt lat="45.81679" lon="-0.94815">
        <ele>73.549083</ele>
        <time>2022-12-22T10:25:21.560Z</time>
      </trkpt>
      <trkpt lat="45.81667" lon="-0.94823">
        <ele>73.488602</ele>
        <time>2022-12-22T10:25:24.609Z</time>
      </trkpt>
      <trkpt lat="45.81657" lon="-0.94831">
        <ele>73.428354</ele>
        <time>2022-12-22T10:25:27.552Z</time>
      </trkpt>
      <trkpt lat="45.81647" lon="-0.94838">
        <ele>73.373301</ele>
        <time>2022-12-22T10:25:30.610Z</time>
      </trkpt>
      <trkpt lat="45.81638" lon="-0.94845">
        <ele>73.324206</ele>
        <time>2022-12-22T10:25:33.558Z</time>
      </trkpt>
      <trkpt lat="45.8163" lon="-0.94851">
        <ele>73.279324</ele>
        <time>2022-12-22T10:25:36.607Z</time>
      </trkpt>
      <trkpt lat="45.81621" lon="-0.94859">
        <ele>73.228911</ele>
        <time>2022-12-22T10:25:39.563Z</time>
      </trkpt>
      <trkpt lat="45.81612" lon="-0.94867">
        <ele>73.176186</ele>
        <time>2022-12-22T10:25:42.612Z</time>
      </trkpt>
      <trkpt lat="45.81603" lon="-0.94874">
        <ele>73.124408</ele>
        <time>2022-12-22T10:25:45.567Z</time>
      </trkpt>
      <trkpt lat="45.81593" lon="-0.94881">
        <ele>73.071413</ele>
        <time>2022-12-22T10:25:48.607Z</time>
      </trkpt>
      <trkpt lat="45.81584" lon="-0.94889">
        <ele>73.018951</ele>
        <time>2022-12-22T10:25:51.568Z</time>
      </trkpt>
      <trkpt lat="45.81575" lon="-0.94896">
        <ele>72.969562</ele>
        <time>2022-12-22T10:25:54.613Z</time>
      </trkpt>
      <trkpt lat="45.81566" lon="-0.94903">
        <ele>72.919486</ele>
        <time>2022-12-22T10:25:57.548Z</time>
      </trkpt>
      <trkpt lat="45.81558" lon="-0.94911">
        <ele>72.869397</ele>
        <time>2022-12-22T10:26:00.632Z</time>
      </trkpt>
      <trkpt lat="45.81549" lon="-0.94919">
        <ele>72.953987</ele>
        <time>2022-12-22T10:26:03.565Z</time>
      </trkpt>
      <trkpt lat="45.8154" lon="-0.94926">
        <ele>73.06832</ele>
        <time>2022-12-22T10:26:06.557Z</time>
      </trkpt>
      <trkpt lat="45.81531" lon="-0.94932">
        <ele>73.17816</ele>
        <time>2022-12-22T10:26:09.561Z</time>
      </trkpt>
      <trkpt lat="45.81522" lon="-0.94938">
        <ele>73.290348</ele>
        <time>2022-12-22T10:26:12.561Z</time>
      </trkpt>
      <trkpt lat="45.81511" lon="-0.94945">
        <ele>73.42327</ele>
        <time>2022-12-22T10:26:16.606Z</time>
      </trkpt>
      <trkpt lat="45.81501" lon="-0.94949">
        <ele>73.534081</ele>
        <time>2022-12-22T10:26:19.561Z</time>
      </trkpt>
      <trkpt lat="45.81492" lon="-0.94953">
        <ele>73.634362</ele>
        <time>2022-12-22T10:26:22.611Z</time>
      </trkpt>
      <trkpt lat="45.81484" lon="-0.94956">
        <ele>73.733876</ele>
        <time>2022-12-22T10:26:25.560Z</time>
      </trkpt>
      <trkpt lat="45.81474" lon="-0.94958">
        <ele>73.839113</ele>
        <time>2022-12-22T10:26:28.613Z</time>
      </trkpt>
      <trkpt lat="45.81465" lon="-0.9496">
        <ele>73.945631</ele>
        <time>2022-12-22T10:26:31.563Z</time>
      </trkpt>
      <trkpt lat="45.81455" lon="-0.94961">
        <ele>74.056036</ele>
        <time>2022-12-22T10:26:34.630Z</time>
      </trkpt>
      <trkpt lat="45.81444" lon="-0.94962">
        <ele>74.168424</ele>
        <time>2022-12-22T10:26:37.564Z</time>
      </trkpt>
      <trkpt lat="45.81434" lon="-0.94963">
        <ele>74.278712</ele>
        <time>2022-12-22T10:26:40.613Z</time>
      </trkpt>
      <trkpt lat="45.81424" lon="-0.94963">
        <ele>74.391061</ele>
        <time>2022-12-22T10:26:43.558Z</time>
      </trkpt>
      <trkpt lat="45.81414" lon="-0.94964">
        <ele>74.503411</ele>
        <time>2022-12-22T10:26:46.606Z</time>
      </trkpt>
      <trkpt lat="45.81404" lon="-0.94964">
        <ele>74.614574</ele>
        <time>2022-12-22T10:26:49.559Z</time>
      </trkpt>
      <trkpt lat="45.81394" lon="-0.94965">
        <ele>74.724765</ele>
        <time>2022-12-22T10:26:52.622Z</time>
      </trkpt>
      <trkpt lat="45.81382" lon="-0.94968">
        <ele>74.844876</ele>
        <time>2022-12-22T10:26:56.555Z</time>
      </trkpt>
      <trkpt lat="45.81371" lon="-0.9497">
        <ele>74.885633</ele>
        <time>2022-12-22T10:27:00.571Z</time>
      </trkpt>
      <trkpt lat="45.81362" lon="-0.94973">
        <ele>74.919793</ele>
        <time>2022-12-22T10:27:03.567Z</time>
      </trkpt>
      <trkpt lat="45.81351" lon="-0.94977">
        <ele>74.960071</ele>
        <time>2022-12-22T10:27:07.551Z</time>
      </trkpt>
      <trkpt lat="45.8134" lon="-0.94983">
        <ele>75.002867</ele>
        <time>2022-12-22T10:27:11.572Z</time>
      </trkpt>
      <trkpt lat="45.81331" lon="-0.94989">
        <ele>75.038321</ele>
        <time>2022-12-22T10:27:14.558Z</time>
      </trkpt>
      <trkpt lat="45.81322" lon="-0.94995">
        <ele>75.075846</ele>
        <time>2022-12-22T10:27:17.542Z</time>
      </trkpt>
      <trkpt lat="45.81312" lon="-0.95002">
        <ele>75.112708</ele>
        <time>2022-12-22T10:27:20.572Z</time>
      </trkpt>
      <trkpt lat="45.81303" lon="-0.95008">
        <ele>75.149471</ele>
        <time>2022-12-22T10:27:23.561Z</time>
      </trkpt>
      <trkpt lat="45.81294" lon="-0.95015">
        <ele>75.186658</ele>
        <time>2022-12-22T10:27:26.562Z</time>
      </trkpt>
      <trkpt lat="45.81284" lon="-0.95021">
        <ele>75.224497</ele>
        <time>2022-12-22T10:27:29.546Z</time>
      </trkpt>
      <trkpt lat="45.81275" lon="-0.95028">
        <ele>75.262444</ele>
        <time>2022-12-22T10:27:32.560Z</time>
      </trkpt>
      <trkpt lat="45.81266" lon="-0.95034">
        <ele>75.29964</ele>
        <time>2022-12-22T10:27:35.562Z</time>
      </trkpt>
      <trkpt lat="45.81256" lon="-0.9504">
        <ele>75.337371</ele>
        <time>2022-12-22T10:27:38.542Z</time>
      </trkpt>
      <trkpt lat="45.81247" lon="-0.95046">
        <ele>75.371547</ele>
        <time>2022-12-22T10:27:41.561Z</time>
      </trkpt>
      <trkpt lat="45.81239" lon="-0.95052">
        <ele>75.406025</ele>
        <time>2022-12-22T10:27:44.562Z</time>
      </trkpt>
      <trkpt lat="45.8123" lon="-0.95058">
        <ele>75.441268</ele>
        <time>2022-12-22T10:27:47.539Z</time>
      </trkpt>
      <trkpt lat="45.81221" lon="-0.95063">
        <ele>75.476079</ele>
        <time>2022-12-22T10:27:50.561Z</time>
      </trkpt>
      <trkpt lat="45.81212" lon="-0.9507">
        <ele>75.540602</ele>
        <time>2022-12-22T10:27:53.555Z</time>
      </trkpt>
      <trkpt lat="45.81202" lon="-0.95077">
        <ele>75.638526</ele>
        <time>2022-12-22T10:27:57.548Z</time>
      </trkpt>
      <trkpt lat="45.81191" lon="-0.95085">
        <ele>75.737948</ele>
        <time>2022-12-22T10:28:01.560Z</time>
      </trkpt>
      <trkpt lat="45.8118" lon="-0.95092">
        <ele>75.836888</ele>
        <time>2022-12-22T10:28:05.561Z</time>
      </trkpt>
      <trkpt lat="45.8117" lon="-0.95099">
        <ele>75.93582</ele>
        <time>2022-12-22T10:28:09.559Z</time>
      </trkpt>
      <trkpt lat="45.8116" lon="-0.95106">
        <ele>76.028999</ele>
        <time>2022-12-22T10:28:13.558Z</time>
      </trkpt>
      <trkpt lat="45.8115" lon="-0.95113">
        <ele>76.122392</ele>
        <time>2022-12-22T10:28:17.544Z</time>
      </trkpt>
      <trkpt lat="45.81139" lon="-0.95119">
        <ele>76.216049</ele>
        <time>2022-12-22T10:28:21.559Z</time>
      </trkpt>
      <trkpt lat="45.81129" lon="-0.95126">
        <ele>76.310955</ele>
        <time>2022-12-22T10:28:25.561Z</time>
      </trkpt>
      <trkpt lat="45.81119" lon="-0.95134">
        <ele>76.405902</ele>
        <time>2022-12-22T10:28:29.560Z</time>
      </trkpt>
      <trkpt lat="45.81109" lon="-0.9514">
        <ele>76.494558</ele>
        <time>2022-12-22T10:28:33.543Z</time>
      </trkpt>
      <trkpt lat="45.81101" lon="-0.95146">
        <ele>76.574166</ele>
        <time>2022-12-22T10:28:37.545Z</time>
      </trkpt>
      <trkpt lat="45.81091" lon="-0.95151">
        <ele>76.662388</ele>
        <time>2022-12-22T10:28:41.563Z</time>
      </trkpt>
      <trkpt lat="45.8108" lon="-0.95156">
        <ele>76.759264</ele>
        <time>2022-12-22T10:28:45.571Z</time>
      </trkpt>
      <trkpt lat="45.81071" lon="-0.95161">
        <ele>76.835109</ele>
        <time>2022-12-22T10:28:48.561Z</time>
      </trkpt>
      <trkpt lat="45.81062" lon="-0.95164">
        <ele>76.911195</ele>
        <time>2022-12-22T10:28:51.573Z</time>
      </trkpt>
      <trkpt lat="45.81051" lon="-0.9517">
        <ele>77.002789</ele>
        <time>2022-12-22T10:28:55.620Z</time>
      </trkpt>
      <trkpt lat="45.81043" lon="-0.95174">
        <ele>77.05066</ele>
        <time>2022-12-22T10:28:58.559Z</time>
      </trkpt>
      <trkpt lat="45.81034" lon="-0.95178">
        <ele>77.10003</ele>
        <time>2022-12-22T10:29:01.625Z</time>
      </trkpt>
      <trkpt lat="45.81025" lon="-0.95182">
        <ele>77.148686</ele>
        <time>2022-12-22T10:29:04.570Z</time>
      </trkpt>
      <trkpt lat="45.81015" lon="-0.95186">
        <ele>77.200496</ele>
        <time>2022-12-22T10:29:07.574Z</time>
      </trkpt>
      <trkpt lat="45.81006" lon="-0.9519">
        <ele>77.252679</ele>
        <time>2022-12-22T10:29:10.561Z</time>
      </trkpt>
      <trkpt lat="45.80996" lon="-0.95195">
        <ele>77.305377</ele>
        <time>2022-12-22T10:29:14.571Z</time>
      </trkpt>
      <trkpt lat="45.80986" lon="-0.95199">
        <ele>77.360018</ele>
        <time>2022-12-22T10:29:18.571Z</time>
      </trkpt>
      <trkpt lat="45.80975" lon="-0.95204">
        <ele>77.419483</ele>
        <time>2022-12-22T10:29:22.557Z</time>
      </trkpt>
      <trkpt lat="45.80964" lon="-0.95209">
        <ele>77.481737</ele>
        <time>2022-12-22T10:29:26.562Z</time>
      </trkpt>
      <trkpt lat="45.80953" lon="-0.95212">
        <ele>77.542749</ele>
        <time>2022-12-22T10:29:30.562Z</time>
      </trkpt>
      <trkpt lat="45.80941" lon="-0.95216">
        <ele>77.605608</ele>
        <time>2022-12-22T10:29:34.572Z</time>
      </trkpt>
      <trkpt lat="45.80931" lon="-0.95215">
        <ele>77.65542</ele>
        <time>2022-12-22T10:29:37.547Z</time>
      </trkpt>
      <trkpt lat="45.80921" lon="-0.95214">
        <ele>77.709111</ele>
        <time>2022-12-22T10:29:40.572Z</time>
      </trkpt>
      <trkpt lat="45.80911" lon="-0.95211">
        <ele>77.764249</ele>
        <time>2022-12-22T10:29:43.566Z</time>
      </trkpt>
      <trkpt lat="45.80901" lon="-0.95208">
        <ele>77.818694</ele>
        <time>2022-12-22T10:29:46.562Z</time>
      </trkpt>
      <trkpt lat="45.8089" lon="-0.95204">
        <ele>77.876035</ele>
        <time>2022-12-22T10:29:49.545Z</time>
      </trkpt>
      <trkpt lat="45.80879" lon="-0.95199">
        <ele>77.929113</ele>
        <time>2022-12-22T10:29:52.572Z</time>
      </trkpt>
      <trkpt lat="45.80868" lon="-0.95194">
        <ele>77.862298</ele>
        <time>2022-12-22T10:29:55.559Z</time>
      </trkpt>
      <trkpt lat="45.80857" lon="-0.9519">
        <ele>77.794796</ele>
        <time>2022-12-22T10:29:58.562Z</time>
      </trkpt>
      <trkpt lat="45.80847" lon="-0.95185">
        <ele>77.728548</ele>
        <time>2022-12-22T10:30:01.562Z</time>
      </trkpt>
      <trkpt lat="45.80835" lon="-0.9518">
        <ele>77.659227</ele>
        <time>2022-12-22T10:30:04.570Z</time>
      </trkpt>
      <trkpt lat="45.80824" lon="-0.95176">
        <ele>77.590015</ele>
        <time>2022-12-22T10:30:07.543Z</time>
      </trkpt>
      <trkpt lat="45.80813" lon="-0.95171">
        <ele>77.519224</ele>
        <time>2022-12-22T10:30:10.558Z</time>
      </trkpt>
      <trkpt lat="45.80802" lon="-0.95166">
        <ele>77.452528</ele>
        <time>2022-12-22T10:30:13.548Z</time>
      </trkpt>
      <trkpt lat="45.80792" lon="-0.95161">
        <ele>77.388579</ele>
        <time>2022-12-22T10:30:16.560Z</time>
      </trkpt>
      <trkpt lat="45.80781" lon="-0.95155">
        <ele>77.322766</ele>
        <time>2022-12-22T10:30:19.574Z</time>
      </trkpt>
      <trkpt lat="45.80772" lon="-0.95147">
        <ele>77.256731</ele>
        <time>2022-12-22T10:30:22.572Z</time>
      </trkpt>
      <trkpt lat="45.80762" lon="-0.95139">
        <ele>77.189146</ele>
        <time>2022-12-22T10:30:25.566Z</time>
      </trkpt>
      <trkpt lat="45.80753" lon="-0.95131">
        <ele>77.129632</ele>
        <time>2022-12-22T10:30:28.617Z</time>
      </trkpt>
      <trkpt lat="45.80745" lon="-0.95122">
        <ele>77.067809</ele>
        <time>2022-12-22T10:30:32.571Z</time>
      </trkpt>
      <trkpt lat="45.80736" lon="-0.95111">
        <ele>76.997773</ele>
        <time>2022-12-22T10:30:36.573Z</time>
      </trkpt>
      <trkpt lat="45.80729" lon="-0.95102">
        <ele>76.938711</ele>
        <time>2022-12-22T10:30:39.561Z</time>
      </trkpt>
      <trkpt lat="45.80721" lon="-0.95091">
        <ele>76.877669</ele>
        <time>2022-12-22T10:30:42.559Z</time>
      </trkpt>
      <trkpt lat="45.80714" lon="-0.95079">
        <ele>76.782976</ele>
        <time>2022-12-22T10:30:45.551Z</time>
      </trkpt>
      <trkpt lat="45.80708" lon="-0.95068">
        <ele>76.684274</ele>
        <time>2022-12-22T10:30:48.569Z</time>
      </trkpt>
      <trkpt lat="45.80701" lon="-0.95055">
        <ele>76.580454</ele>
        <time>2022-12-22T10:30:51.560Z</time>
      </trkpt>
      <trkpt lat="45.80694" lon="-0.95043">
        <ele>76.478072</ele>
        <time>2022-12-22T10:30:54.561Z</time>
      </trkpt>
      <trkpt lat="45.80687" lon="-0.95032">
        <ele>76.383644</ele>
        <time>2022-12-22T10:30:57.605Z</time>
      </trkpt>
      <trkpt lat="45.80682" lon="-0.95021">
        <ele>76.297924</ele>
        <time>2022-12-22T10:31:00.561Z</time>
      </trkpt>
      <trkpt lat="45.80675" lon="-0.9501">
        <ele>76.205762</ele>
        <time>2022-12-22T10:31:03.621Z</time>
      </trkpt>
      <trkpt lat="45.80668" lon="-0.94998">
        <ele>76.106463</ele>
        <time>2022-12-22T10:31:06.571Z</time>
      </trkpt>
      <trkpt lat="45.80661" lon="-0.94987">
        <ele>76.004997</ele>
        <time>2022-12-22T10:31:09.602Z</time>
      </trkpt>
      <trkpt lat="45.80652" lon="-0.94976">
        <ele>75.893226</ele>
        <time>2022-12-22T10:31:12.559Z</time>
      </trkpt>
      <trkpt lat="45.80643" lon="-0.94965">
        <ele>75.787128</ele>
        <time>2022-12-22T10:31:15.570Z</time>
      </trkpt>
      <trkpt lat="45.80634" lon="-0.94956">
        <ele>75.687048</ele>
        <time>2022-12-22T10:31:18.557Z</time>
      </trkpt>
      <trkpt lat="45.80626" lon="-0.94947">
        <ele>75.592631</ele>
        <time>2022-12-22T10:31:21.552Z</time>
      </trkpt>
      <trkpt lat="45.80617" lon="-0.9494">
        <ele>75.497161</ele>
        <time>2022-12-22T10:31:24.572Z</time>
      </trkpt>
      <trkpt lat="45.80607" lon="-0.94933">
        <ele>75.388901</ele>
        <time>2022-12-22T10:31:27.600Z</time>
      </trkpt>
      <trkpt lat="45.80596" lon="-0.94925">
        <ele>75.273169</ele>
        <time>2022-12-22T10:31:30.568Z</time>
      </trkpt>
      <trkpt lat="45.80584" lon="-0.94919">
        <ele>75.22874</ele>
        <time>2022-12-22T10:31:33.610Z</time>
      </trkpt>
      <trkpt lat="45.80571" lon="-0.94914">
        <ele>75.319393</ele>
        <time>2022-12-22T10:31:36.563Z</time>
      </trkpt>
      <trkpt lat="45.80558" lon="-0.94911">
        <ele>75.411342</ele>
        <time>2022-12-22T10:31:39.547Z</time>
      </trkpt>
      <trkpt lat="45.80546" lon="-0.94908">
        <ele>75.502898</ele>
        <time>2022-12-22T10:31:42.547Z</time>
      </trkpt>
      <trkpt lat="45.80533" lon="-0.94907">
        <ele>75.593684</ele>
        <time>2022-12-22T10:31:45.561Z</time>
      </trkpt>
      <trkpt lat="45.80521" lon="-0.94908">
        <ele>75.680883</ele>
        <time>2022-12-22T10:31:48.563Z</time>
      </trkpt>
      <trkpt lat="45.80508" lon="-0.9491">
        <ele>75.768094</ele>
        <time>2022-12-22T10:31:51.561Z</time>
      </trkpt>
      <trkpt lat="45.80496" lon="-0.94913">
        <ele>75.855907</ele>
        <time>2022-12-22T10:31:54.559Z</time>
      </trkpt>
      <trkpt lat="45.80484" lon="-0.94917">
        <ele>75.944715</ele>
        <time>2022-12-22T10:31:57.543Z</time>
      </trkpt>
      <trkpt lat="45.80472" lon="-0.94921">
        <ele>76.029738</ele>
        <time>2022-12-22T10:32:00.571Z</time>
      </trkpt>
      <trkpt lat="45.80461" lon="-0.94925">
        <ele>76.115464</ele>
        <time>2022-12-22T10:32:03.560Z</time>
      </trkpt>
      <trkpt lat="45.80449" lon="-0.94929">
        <ele>76.202456</ele>
        <time>2022-12-22T10:32:06.547Z</time>
      </trkpt>
      <trkpt lat="45.80437" lon="-0.94933">
        <ele>76.285067</ele>
        <time>2022-12-22T10:32:09.541Z</time>
      </trkpt>
      <trkpt lat="45.80426" lon="-0.94937">
        <ele>76.365947</ele>
        <time>2022-12-22T10:32:12.572Z</time>
      </trkpt>
      <trkpt lat="45.80416" lon="-0.9494">
        <ele>76.440747</ele>
        <time>2022-12-22T10:32:15.574Z</time>
      </trkpt>
      <trkpt lat="45.80405" lon="-0.94944">
        <ele>76.526886</ele>
        <time>2022-12-22T10:32:19.565Z</time>
      </trkpt>
      <trkpt lat="45.80396" lon="-0.94947">
        <ele>76.615488</ele>
        <time>2022-12-22T10:32:23.563Z</time>
      </trkpt>
      <trkpt lat="45.80385" lon="-0.94952">
        <ele>76.713148</ele>
        <time>2022-12-22T10:32:27.550Z</time>
      </trkpt>
      <trkpt lat="45.80374" lon="-0.94956">
        <ele>76.816869</ele>
        <time>2022-12-22T10:32:31.557Z</time>
      </trkpt>
      <trkpt lat="45.80364" lon="-0.94959">
        <ele>76.897907</ele>
        <time>2022-12-22T10:32:34.559Z</time>
      </trkpt>
      <trkpt lat="45.80354" lon="-0.94963">
        <ele>76.995302</ele>
        <time>2022-12-22T10:32:38.562Z</time>
      </trkpt>
      <trkpt lat="45.80342" lon="-0.94967">
        <ele>77.099794</ele>
        <time>2022-12-22T10:32:42.575Z</time>
      </trkpt>
      <trkpt lat="45.80333" lon="-0.94969">
        <ele>77.181587</ele>
        <time>2022-12-22T10:32:45.567Z</time>
      </trkpt>
      <trkpt lat="45.80324" lon="-0.94971">
        <ele>77.262412</ele>
        <time>2022-12-22T10:32:48.611Z</time>
      </trkpt>
      <trkpt lat="45.80315" lon="-0.94974">
        <ele>77.341925</ele>
        <time>2022-12-22T10:32:51.570Z</time>
      </trkpt>
      <trkpt lat="45.80306" lon="-0.94978">
        <ele>77.423758</ele>
        <time>2022-12-22T10:32:54.618Z</time>
      </trkpt>
      <trkpt lat="45.80297" lon="-0.94981">
        <ele>77.507382</ele>
        <time>2022-12-22T10:32:57.555Z</time>
      </trkpt>
      <trkpt lat="45.80288" lon="-0.94985">
        <ele>77.587873</ele>
        <time>2022-12-22T10:33:00.549Z</time>
      </trkpt>
      <trkpt lat="45.80278" lon="-0.94989">
        <ele>77.675429</ele>
        <time>2022-12-22T10:33:04.570Z</time>
      </trkpt>
      <trkpt lat="45.80268" lon="-0.94995">
        <ele>77.776501</ele>
        <time>2022-12-22T10:33:08.558Z</time>
      </trkpt>
      <trkpt lat="45.80259" lon="-0.95">
        <ele>77.858534</ele>
        <time>2022-12-22T10:33:11.616Z</time>
      </trkpt>
      <trkpt lat="45.8025" lon="-0.95004">
        <ele>77.940777</ele>
        <time>2022-12-22T10:33:14.562Z</time>
      </trkpt>
      <trkpt lat="45.80241" lon="-0.9501">
        <ele>78.025062</ele>
        <time>2022-12-22T10:33:17.577Z</time>
      </trkpt>
      <trkpt lat="45.80231" lon="-0.95017">
        <ele>78.138262</ele>
        <time>2022-12-22T10:33:21.560Z</time>
      </trkpt>
      <trkpt lat="45.80221" lon="-0.95023">
        <ele>78.258797</ele>
        <time>2022-12-22T10:33:25.567Z</time>
      </trkpt>
      <trkpt lat="45.80213" lon="-0.95028">
        <ele>78.357283</ele>
        <time>2022-12-22T10:33:28.562Z</time>
      </trkpt>
      <trkpt lat="45.80205" lon="-0.95034">
        <ele>78.460409</ele>
        <time>2022-12-22T10:33:31.559Z</time>
      </trkpt>
      <trkpt lat="45.80196" lon="-0.95039">
        <ele>78.563313</ele>
        <time>2022-12-22T10:33:34.557Z</time>
      </trkpt>
      <trkpt lat="45.80187" lon="-0.95044">
        <ele>78.671606</ele>
        <time>2022-12-22T10:33:37.551Z</time>
      </trkpt>
      <trkpt lat="45.80178" lon="-0.9505">
        <ele>78.779171</ele>
        <time>2022-12-22T10:33:40.558Z</time>
      </trkpt>
      <trkpt lat="45.80169" lon="-0.95056">
        <ele>78.888968</ele>
        <time>2022-12-22T10:33:43.558Z</time>
      </trkpt>
      <trkpt lat="45.8016" lon="-0.95061">
        <ele>78.998074</ele>
        <time>2022-12-22T10:33:46.557Z</time>
      </trkpt>
      <trkpt lat="45.80151" lon="-0.95067">
        <ele>79.10608</ele>
        <time>2022-12-22T10:33:49.564Z</time>
      </trkpt>
      <trkpt lat="45.80142" lon="-0.95072">
        <ele>79.213526</ele>
        <time>2022-12-22T10:33:52.571Z</time>
      </trkpt>
      <trkpt lat="45.80133" lon="-0.95077">
        <ele>79.317447</ele>
        <time>2022-12-22T10:33:55.565Z</time>
      </trkpt>
      <trkpt lat="45.80123" lon="-0.95083">
        <ele>79.436865</ele>
        <time>2022-12-22T10:33:59.620Z</time>
      </trkpt>
      <trkpt lat="45.80113" lon="-0.95089">
        <ele>79.560117</ele>
        <time>2022-12-22T10:34:03.561Z</time>
      </trkpt>
      <trkpt lat="45.80104" lon="-0.95093">
        <ele>79.66056</ele>
        <time>2022-12-22T10:34:06.558Z</time>
      </trkpt>
      <trkpt lat="45.80096" lon="-0.951">
        <ele>79.765703</ele>
        <time>2022-12-22T10:34:09.570Z</time>
      </trkpt>
      <trkpt lat="45.80087" lon="-0.95105">
        <ele>79.869489</ele>
        <time>2022-12-22T10:34:12.561Z</time>
      </trkpt>
      <trkpt lat="45.80078" lon="-0.95109">
        <ele>79.973153</ele>
        <time>2022-12-22T10:34:15.572Z</time>
      </trkpt>
      <trkpt lat="45.80069" lon="-0.95114">
        <ele>80.09907</ele>
        <time>2022-12-22T10:34:19.567Z</time>
      </trkpt>
      <trkpt lat="45.80059" lon="-0.9512">
        <ele>80.251148</ele>
        <time>2022-12-22T10:34:23.561Z</time>
      </trkpt>
      <trkpt lat="45.8005" lon="-0.95126">
        <ele>80.380893</ele>
        <time>2022-12-22T10:34:26.563Z</time>
      </trkpt>
      <trkpt lat="45.80041" lon="-0.95132">
        <ele>80.513555</ele>
        <time>2022-12-22T10:34:29.564Z</time>
      </trkpt>
      <trkpt lat="45.80033" lon="-0.95138">
        <ele>80.648753</ele>
        <time>2022-12-22T10:34:32.560Z</time>
      </trkpt>
      <trkpt lat="45.80024" lon="-0.95145">
        <ele>80.784079</ele>
        <time>2022-12-22T10:34:35.563Z</time>
      </trkpt>
      <trkpt lat="45.80015" lon="-0.95152">
        <ele>80.922966</ele>
        <time>2022-12-22T10:34:38.557Z</time>
      </trkpt>
      <trkpt lat="45.80007" lon="-0.9516">
        <ele>81.064018</ele>
        <time>2022-12-22T10:34:41.568Z</time>
      </trkpt>
      <trkpt lat="45.79998" lon="-0.95167">
        <ele>81.199547</ele>
        <time>2022-12-22T10:34:44.564Z</time>
      </trkpt>
      <trkpt lat="45.7999" lon="-0.95174">
        <ele>81.337539</ele>
        <time>2022-12-22T10:34:47.549Z</time>
      </trkpt>
      <trkpt lat="45.79982" lon="-0.95181">
        <ele>81.465636</ele>
        <time>2022-12-22T10:34:50.564Z</time>
      </trkpt>
      <trkpt lat="45.79973" lon="-0.95188">
        <ele>81.599748</ele>
        <time>2022-12-22T10:34:54.569Z</time>
      </trkpt>
      <trkpt lat="45.79965" lon="-0.95195">
        <ele>81.734567</ele>
        <time>2022-12-22T10:34:58.616Z</time>
      </trkpt>
      <trkpt lat="45.79956" lon="-0.95203">
        <ele>81.881484</ele>
        <time>2022-12-22T10:35:02.565Z</time>
      </trkpt>
      <trkpt lat="45.79947" lon="-0.95211">
        <ele>82.030086</ele>
        <time>2022-12-22T10:35:06.561Z</time>
      </trkpt>
      <trkpt lat="45.79937" lon="-0.95217">
        <ele>82.178697</ele>
        <time>2022-12-22T10:35:10.617Z</time>
      </trkpt>
      <trkpt lat="45.79926" lon="-0.95223">
        <ele>82.333938</ele>
        <time>2022-12-22T10:35:14.562Z</time>
      </trkpt>
      <trkpt lat="45.79916" lon="-0.95226">
        <ele>82.484511</ele>
        <time>2022-12-22T10:35:18.547Z</time>
      </trkpt>
      <trkpt lat="45.79904" lon="-0.95225">
        <ele>82.400993</ele>
        <time>2022-12-22T10:35:22.616Z</time>
      </trkpt>
      <trkpt lat="45.79893" lon="-0.95221">
        <ele>82.252006</ele>
        <time>2022-12-22T10:35:26.566Z</time>
      </trkpt>
      <trkpt lat="45.79884" lon="-0.95217">
        <ele>82.13521</ele>
        <time>2022-12-22T10:35:29.572Z</time>
      </trkpt>
      <trkpt lat="45.79875" lon="-0.95214">
        <ele>82.010748</ele>
        <time>2022-12-22T10:35:32.561Z</time>
      </trkpt>
      <trkpt lat="45.79865" lon="-0.95209">
        <ele>81.880756</ele>
        <time>2022-12-22T10:35:35.562Z</time>
      </trkpt>
      <trkpt lat="45.79856" lon="-0.95205">
        <ele>81.74911</ele>
        <time>2022-12-22T10:35:38.561Z</time>
      </trkpt>
      <trkpt lat="45.79846" lon="-0.952">
        <ele>81.613666</ele>
        <time>2022-12-22T10:35:41.564Z</time>
      </trkpt>
      <trkpt lat="45.79835" lon="-0.95196">
        <ele>81.474106</ele>
        <time>2022-12-22T10:35:44.561Z</time>
      </trkpt>
      <trkpt lat="45.79824" lon="-0.95191">
        <ele>81.329538</ele>
        <time>2022-12-22T10:35:47.553Z</time>
      </trkpt>
      <trkpt lat="45.79814" lon="-0.95186">
        <ele>81.183743</ele>
        <time>2022-12-22T10:35:50.562Z</time>
      </trkpt>
      <trkpt lat="45.79804" lon="-0.95181">
        <ele>81.049237</ele>
        <time>2022-12-22T10:35:53.559Z</time>
      </trkpt>
      <trkpt lat="45.79795" lon="-0.95177">
        <ele>80.925503</ele>
        <time>2022-12-22T10:35:56.561Z</time>
      </trkpt>
      <trkpt lat="45.79784" lon="-0.95173">
        <ele>80.78272</ele>
        <time>2022-12-22T10:36:00.546Z</time>
      </trkpt>
      <trkpt lat="45.79773" lon="-0.95167">
        <ele>80.632485</ele>
        <time>2022-12-22T10:36:04.626Z</time>
      </trkpt>
      <trkpt lat="45.79763" lon="-0.95163">
        <ele>80.504937</ele>
        <time>2022-12-22T10:36:07.546Z</time>
      </trkpt>
      <trkpt lat="45.79753" lon="-0.95159">
        <ele>80.367113</ele>
        <time>2022-12-22T10:36:10.605Z</time>
      </trkpt>
      <trkpt lat="45.79743" lon="-0.95154">
        <ele>80.224829</ele>
        <time>2022-12-22T10:36:13.563Z</time>
      </trkpt>
      <trkpt lat="45.79732" lon="-0.9515">
        <ele>80.216744</ele>
        <time>2022-12-22T10:36:16.628Z</time>
      </trkpt>
      <trkpt lat="45.79721" lon="-0.95145">
        <ele>80.23462</ele>
        <time>2022-12-22T10:36:19.571Z</time>
      </trkpt>
      <trkpt lat="45.79711" lon="-0.95141">
        <ele>80.252796</ele>
        <time>2022-12-22T10:36:22.608Z</time>
      </trkpt>
      <trkpt lat="45.79701" lon="-0.95136">
        <ele>80.269678</ele>
        <time>2022-12-22T10:36:25.564Z</time>
      </trkpt>
      <trkpt lat="45.79692" lon="-0.95132">
        <ele>80.284805</ele>
        <time>2022-12-22T10:36:28.614Z</time>
      </trkpt>
      <trkpt lat="45.7968" lon="-0.95127">
        <ele>80.303983</ele>
        <time>2022-12-22T10:36:32.564Z</time>
      </trkpt>
      <trkpt lat="45.7967" lon="-0.95123">
        <ele>80.320604</ele>
        <time>2022-12-22T10:36:35.573Z</time>
      </trkpt>
      <trkpt lat="45.7966" lon="-0.9512">
        <ele>80.338458</ele>
        <time>2022-12-22T10:36:38.565Z</time>
      </trkpt>
      <trkpt lat="45.79649" lon="-0.95118">
        <ele>80.356087</ele>
        <time>2022-12-22T10:36:41.562Z</time>
      </trkpt>
      <trkpt lat="45.79639" lon="-0.95117">
        <ele>80.37286</ele>
        <time>2022-12-22T10:36:44.556Z</time>
      </trkpt>
      <trkpt lat="45.79627" lon="-0.95117">
        <ele>80.391641</ele>
        <time>2022-12-22T10:36:47.542Z</time>
      </trkpt>
      <trkpt lat="45.79615" lon="-0.95118">
        <ele>80.410819</ele>
        <time>2022-12-22T10:36:50.563Z</time>
      </trkpt>
      <trkpt lat="45.79603" lon="-0.9512">
        <ele>80.430244</ele>
        <time>2022-12-22T10:36:53.563Z</time>
      </trkpt>
      <trkpt lat="45.79591" lon="-0.95124">
        <ele>80.450025</ele>
        <time>2022-12-22T10:36:56.553Z</time>
      </trkpt>
      <trkpt lat="45.79579" lon="-0.95127">
        <ele>80.46951</ele>
        <time>2022-12-22T10:36:59.562Z</time>
      </trkpt>
      <trkpt lat="45.79568" lon="-0.95131">
        <ele>80.489089</ele>
        <time>2022-12-22T10:37:02.562Z</time>
      </trkpt>
      <trkpt lat="45.79556" lon="-0.95135">
        <ele>80.29541</ele>
        <time>2022-12-22T10:37:05.542Z</time>
      </trkpt>
      <trkpt lat="45.79545" lon="-0.95138">
        <ele>80.067531</ele>
        <time>2022-12-22T10:37:08.564Z</time>
      </trkpt>
      <trkpt lat="45.79535" lon="-0.95141">
        <ele>79.873139</ele>
        <time>2022-12-22T10:37:11.564Z</time>
      </trkpt>
      <trkpt lat="45.79526" lon="-0.95143">
        <ele>79.686093</ele>
        <time>2022-12-22T10:37:14.559Z</time>
      </trkpt>
      <trkpt lat="45.79517" lon="-0.95147">
        <ele>79.492487</ele>
        <time>2022-12-22T10:37:17.545Z</time>
      </trkpt>
      <trkpt lat="45.79506" lon="-0.95148">
        <ele>79.269837</ele>
        <time>2022-12-22T10:37:21.633Z</time>
      </trkpt>
      <trkpt lat="45.79495" lon="-0.9515">
        <ele>79.045642</ele>
        <time>2022-12-22T10:37:25.572Z</time>
      </trkpt>
      <trkpt lat="45.79485" lon="-0.95151">
        <ele>78.844294</ele>
        <time>2022-12-22T10:37:30.567Z</time>
      </trkpt>
      <trkpt lat="45.79474" lon="-0.95148">
        <ele>78.607278</ele>
        <time>2022-12-22T10:41:39.541Z</time>
      </trkpt>
      <trkpt lat="45.79462" lon="-0.95148">
        <ele>78.376046</ele>
        <time>2022-12-22T10:41:43.551Z</time>
      </trkpt>
      <trkpt lat="45.79453" lon="-0.95147">
        <ele>78.180763</ele>
        <time>2022-12-22T10:41:46.539Z</time>
      </trkpt>
      <trkpt lat="45.79443" lon="-0.95144">
        <ele>77.971393</ele>
        <time>2022-12-22T10:41:49.542Z</time>
      </trkpt>
      <trkpt lat="45.79432" lon="-0.95142">
        <ele>77.758817</ele>
        <time>2022-12-22T10:41:52.545Z</time>
      </trkpt>
      <trkpt lat="45.79421" lon="-0.9514">
        <ele>77.53476</ele>
        <time>2022-12-22T10:41:55.561Z</time>
      </trkpt>
      <trkpt lat="45.7941" lon="-0.95138">
        <ele>77.302493</ele>
        <time>2022-12-22T10:41:58.559Z</time>
      </trkpt>
      <trkpt lat="45.79398" lon="-0.95136">
        <ele>77.06303</ele>
        <time>2022-12-22T10:42:01.546Z</time>
      </trkpt>
      <trkpt lat="45.79387" lon="-0.95134">
        <ele>76.841878</ele>
        <time>2022-12-22T10:42:04.560Z</time>
      </trkpt>
      <trkpt lat="45.79375" lon="-0.95133">
        <ele>76.783818</ele>
        <time>2022-12-22T10:42:07.543Z</time>
      </trkpt>
      <trkpt lat="45.79363" lon="-0.9513">
        <ele>76.724481</ele>
        <time>2022-12-22T10:42:10.554Z</time>
      </trkpt>
      <trkpt lat="45.79351" lon="-0.95128">
        <ele>76.66602</ele>
        <time>2022-12-22T10:42:13.561Z</time>
      </trkpt>
      <trkpt lat="45.79339" lon="-0.95126">
        <ele>76.606886</ele>
        <time>2022-12-22T10:42:16.558Z</time>
      </trkpt>
      <trkpt lat="45.79327" lon="-0.95124">
        <ele>76.547549</ele>
        <time>2022-12-22T10:42:19.573Z</time>
      </trkpt>
      <trkpt lat="45.79316" lon="-0.95121">
        <ele>76.490006</ele>
        <time>2022-12-22T10:42:22.561Z</time>
      </trkpt>
      <trkpt lat="45.79304" lon="-0.95119">
        <ele>76.431641</ele>
        <time>2022-12-22T10:42:25.542Z</time>
      </trkpt>
      <trkpt lat="45.79292" lon="-0.95117">
        <ele>76.372877</ele>
        <time>2022-12-22T10:42:28.560Z</time>
      </trkpt>
      <trkpt lat="45.7928" lon="-0.95115">
        <ele>76.31423</ele>
        <time>2022-12-22T10:42:31.559Z</time>
      </trkpt>
      <trkpt lat="45.79268" lon="-0.95113">
        <ele>76.25635</ele>
        <time>2022-12-22T10:42:34.571Z</time>
      </trkpt>
      <trkpt lat="45.79257" lon="-0.9511">
        <ele>76.197889</ele>
        <time>2022-12-22T10:42:37.545Z</time>
      </trkpt>
      <trkpt lat="45.79245" lon="-0.95108">
        <ele>76.139692</ele>
        <time>2022-12-22T10:42:40.552Z</time>
      </trkpt>
      <trkpt lat="45.79234" lon="-0.95106">
        <ele>76.08579</ele>
        <time>2022-12-22T10:42:43.543Z</time>
      </trkpt>
      <trkpt lat="45.79224" lon="-0.95103">
        <ele>76.037406</ele>
        <time>2022-12-22T10:42:46.543Z</time>
      </trkpt>
      <trkpt lat="45.79214" lon="-0.951">
        <ele>75.986232</ele>
        <time>2022-12-22T10:42:49.538Z</time>
      </trkpt>
      <trkpt lat="45.79204" lon="-0.95095">
        <ele>75.915669</ele>
        <time>2022-12-22T10:42:52.544Z</time>
      </trkpt>
      <trkpt lat="45.79194" lon="-0.95089">
        <ele>75.825117</ele>
        <time>2022-12-22T10:42:55.559Z</time>
      </trkpt>
      <trkpt lat="45.79184" lon="-0.95082">
        <ele>75.729996</ele>
        <time>2022-12-22T10:42:58.559Z</time>
      </trkpt>
      <trkpt lat="45.79173" lon="-0.95074">
        <ele>75.63314</ele>
        <time>2022-12-22T10:43:01.542Z</time>
      </trkpt>
      <trkpt lat="45.79163" lon="-0.95066">
        <ele>75.533726</ele>
        <time>2022-12-22T10:43:04.545Z</time>
      </trkpt>
      <trkpt lat="45.79152" lon="-0.95057">
        <ele>75.434602</ele>
        <time>2022-12-22T10:43:07.553Z</time>
      </trkpt>
      <trkpt lat="45.79142" lon="-0.95049">
        <ele>75.336329</ele>
        <time>2022-12-22T10:43:10.543Z</time>
      </trkpt>
      <trkpt lat="45.79131" lon="-0.9504">
        <ele>75.232157</ele>
        <time>2022-12-22T10:43:13.562Z</time>
      </trkpt>
      <trkpt lat="45.7912" lon="-0.95031">
        <ele>75.126709</ele>
        <time>2022-12-22T10:43:16.556Z</time>
      </trkpt>
      <trkpt lat="45.79108" lon="-0.95023">
        <ele>75.02181</ele>
        <time>2022-12-22T10:43:19.561Z</time>
      </trkpt>
      <trkpt lat="45.79098" lon="-0.95015">
        <ele>74.926634</ele>
        <time>2022-12-22T10:43:22.552Z</time>
      </trkpt>
      <trkpt lat="45.79087" lon="-0.95006">
        <ele>74.822911</ele>
        <time>2022-12-22T10:43:25.558Z</time>
      </trkpt>
      <trkpt lat="45.79076" lon="-0.94998">
        <ele>74.717012</ele>
        <time>2022-12-22T10:43:28.560Z</time>
      </trkpt>
      <trkpt lat="45.79065" lon="-0.94988">
        <ele>74.610573</ele>
        <time>2022-12-22T10:43:31.540Z</time>
      </trkpt>
      <trkpt lat="45.79053" lon="-0.9498">
        <ele>74.502751</ele>
        <time>2022-12-22T10:43:34.555Z</time>
      </trkpt>
      <trkpt lat="45.79041" lon="-0.94972">
        <ele>74.511217</ele>
        <time>2022-12-22T10:43:37.545Z</time>
      </trkpt>
      <trkpt lat="45.79029" lon="-0.94966">
        <ele>74.550685</ele>
        <time>2022-12-22T10:43:40.551Z</time>
      </trkpt>
      <trkpt lat="45.79017" lon="-0.94962">
        <ele>74.58827</ele>
        <time>2022-12-22T10:43:43.560Z</time>
      </trkpt>
      <trkpt lat="45.79005" lon="-0.94959">
        <ele>74.626697</ele>
        <time>2022-12-22T10:43:46.548Z</time>
      </trkpt>
      <trkpt lat="45.78993" lon="-0.94957">
        <ele>74.663488</ele>
        <time>2022-12-22T10:43:49.562Z</time>
      </trkpt>
      <trkpt lat="45.78982" lon="-0.94958">
        <ele>74.697709</ele>
        <time>2022-12-22T10:43:52.553Z</time>
      </trkpt>
      <trkpt lat="45.78971" lon="-0.94959">
        <ele>74.731445</ele>
        <time>2022-12-22T10:43:55.560Z</time>
      </trkpt>
      <trkpt lat="45.7896" lon="-0.94961">
        <ele>74.766238</ele>
        <time>2022-12-22T10:43:58.567Z</time>
      </trkpt>
      <trkpt lat="45.78949" lon="-0.94964">
        <ele>74.800414</ele>
        <time>2022-12-22T10:44:01.549Z</time>
      </trkpt>
      <trkpt lat="45.78938" lon="-0.94967">
        <ele>74.833852</ele>
        <time>2022-12-22T10:44:04.558Z</time>
      </trkpt>
      <trkpt lat="45.78928" lon="-0.94971">
        <ele>74.867886</ele>
        <time>2022-12-22T10:44:07.548Z</time>
      </trkpt>
      <trkpt lat="45.78917" lon="-0.94975">
        <ele>74.902667</ele>
        <time>2022-12-22T10:44:10.560Z</time>
      </trkpt>
      <trkpt lat="45.78905" lon="-0.94977">
        <ele>74.938127</ele>
        <time>2022-12-22T10:44:13.561Z</time>
      </trkpt>
      <trkpt lat="45.78893" lon="-0.94978">
        <ele>74.974595</ele>
        <time>2022-12-22T10:44:16.561Z</time>
      </trkpt>
      <trkpt lat="45.78881" lon="-0.94977">
        <ele>75.012254</ele>
        <time>2022-12-22T10:44:19.567Z</time>
      </trkpt>
      <trkpt lat="45.78869" lon="-0.94975">
        <ele>75.028515</ele>
        <time>2022-12-22T10:44:22.562Z</time>
      </trkpt>
      <trkpt lat="45.78857" lon="-0.94971">
        <ele>75.017898</ele>
        <time>2022-12-22T10:44:25.561Z</time>
      </trkpt>
      <trkpt lat="45.78847" lon="-0.94967">
        <ele>75.008065</ele>
        <time>2022-12-22T10:44:28.563Z</time>
      </trkpt>
      <trkpt lat="45.78836" lon="-0.94962">
        <ele>74.99763</ele>
        <time>2022-12-22T10:44:31.562Z</time>
      </trkpt>
      <trkpt lat="45.78825" lon="-0.94956">
        <ele>74.986916</ele>
        <time>2022-12-22T10:44:34.560Z</time>
      </trkpt>
      <trkpt lat="45.78816" lon="-0.94947">
        <ele>74.976948</ele>
        <time>2022-12-22T10:44:37.542Z</time>
      </trkpt>
      <trkpt lat="45.78806" lon="-0.94937">
        <ele>74.966723</ele>
        <time>2022-12-22T10:44:40.568Z</time>
      </trkpt>
      <trkpt lat="45.78797" lon="-0.94927">
        <ele>74.956279</ele>
        <time>2022-12-22T10:44:43.537Z</time>
      </trkpt>
      <trkpt lat="45.78788" lon="-0.94916">
        <ele>74.945573</ele>
        <time>2022-12-22T10:44:46.566Z</time>
      </trkpt>
      <trkpt lat="45.78778" lon="-0.94905">
        <ele>74.934662</ele>
        <time>2022-12-22T10:44:49.546Z</time>
      </trkpt>
      <trkpt lat="45.78769" lon="-0.94893">
        <ele>74.923554</ele>
        <time>2022-12-22T10:44:52.562Z</time>
      </trkpt>
      <trkpt lat="45.7876" lon="-0.94881">
        <ele>74.912229</ele>
        <time>2022-12-22T10:44:55.558Z</time>
      </trkpt>
      <trkpt lat="45.7875" lon="-0.94869">
        <ele>74.900812</ele>
        <time>2022-12-22T10:44:58.574Z</time>
      </trkpt>
      <trkpt lat="45.78741" lon="-0.94858">
        <ele>74.889897</ele>
        <time>2022-12-22T10:45:01.560Z</time>
      </trkpt>
      <trkpt lat="45.78733" lon="-0.94847">
        <ele>74.879978</ele>
        <time>2022-12-22T10:45:04.558Z</time>
      </trkpt>
      <trkpt lat="45.78725" lon="-0.94837">
        <ele>74.876413</ele>
        <time>2022-12-22T10:45:07.545Z</time>
      </trkpt>
      <trkpt lat="45.78716" lon="-0.94826">
        <ele>74.901865</ele>
        <time>2022-12-22T10:45:10.562Z</time>
      </trkpt>
      <trkpt lat="45.78708" lon="-0.94815">
        <ele>74.927805</ele>
        <time>2022-12-22T10:45:13.569Z</time>
      </trkpt>
      <trkpt lat="45.78699" lon="-0.94804">
        <ele>74.954524</ele>
        <time>2022-12-22T10:45:16.559Z</time>
      </trkpt>
      <trkpt lat="45.78691" lon="-0.94793">
        <ele>74.980297</ele>
        <time>2022-12-22T10:45:19.545Z</time>
      </trkpt>
      <trkpt lat="45.78683" lon="-0.94782">
        <ele>75.0052</ele>
        <time>2022-12-22T10:45:22.560Z</time>
      </trkpt>
      <trkpt lat="45.78674" lon="-0.94771">
        <ele>75.032025</ele>
        <time>2022-12-22T10:45:25.558Z</time>
      </trkpt>
      <trkpt lat="45.78665" lon="-0.94759">
        <ele>75.05919</ele>
        <time>2022-12-22T10:45:28.566Z</time>
      </trkpt>
      <trkpt lat="45.78656" lon="-0.94749">
        <ele>75.086015</ele>
        <time>2022-12-22T10:45:31.561Z</time>
      </trkpt>
      <trkpt lat="45.78647" lon="-0.94737">
        <ele>75.111896</ele>
        <time>2022-12-22T10:45:34.562Z</time>
      </trkpt>
      <trkpt lat="45.78639" lon="-0.94727">
        <ele>75.138028</ele>
        <time>2022-12-22T10:45:37.547Z</time>
      </trkpt>
      <trkpt lat="45.7863" lon="-0.94716">
        <ele>75.164534</ele>
        <time>2022-12-22T10:45:40.565Z</time>
      </trkpt>
      <trkpt lat="45.78619" lon="-0.94707">
        <ele>75.192415</ele>
        <time>2022-12-22T10:45:43.562Z</time>
      </trkpt>
      <trkpt lat="45.78608" lon="-0.94697">
        <ele>75.221254</ele>
        <time>2022-12-22T10:45:46.570Z</time>
      </trkpt>
      <trkpt lat="45.78598" lon="-0.94689">
        <ele>75.248859</ele>
        <time>2022-12-22T10:45:49.565Z</time>
      </trkpt>
      <trkpt lat="45.78587" lon="-0.94682">
        <ele>75.275563</ele>
        <time>2022-12-22T10:45:52.558Z</time>
      </trkpt>
      <trkpt lat="45.78575" lon="-0.94677">
        <ele>75.351551</ele>
        <time>2022-12-22T10:45:55.560Z</time>
      </trkpt>
      <trkpt lat="45.78561" lon="-0.94671">
        <ele>75.440213</ele>
        <time>2022-12-22T10:45:58.561Z</time>
      </trkpt>
      <trkpt lat="45.78552" lon="-0.94668">
        <ele>75.501242</ele>
        <time>2022-12-22T10:46:00.561Z</time>
      </trkpt>
      <trkpt lat="45.78543" lon="-0.94664">
        <ele>75.562653</ele>
        <time>2022-12-22T10:46:02.557Z</time>
      </trkpt>
      <trkpt lat="45.78534" lon="-0.9466">
        <ele>75.626962</ele>
        <time>2022-12-22T10:46:04.557Z</time>
      </trkpt>
      <trkpt lat="45.78525" lon="-0.94657">
        <ele>75.686199</ele>
        <time>2022-12-22T10:46:06.558Z</time>
      </trkpt>
      <trkpt lat="45.78516" lon="-0.94654">
        <ele>75.747621</ele>
        <time>2022-12-22T10:46:08.562Z</time>
      </trkpt>
      <trkpt lat="45.78507" lon="-0.9465">
        <ele>75.807393</ele>
        <time>2022-12-22T10:46:10.563Z</time>
      </trkpt>
      <trkpt lat="45.78499" lon="-0.94646">
        <ele>75.866734</ele>
        <time>2022-12-22T10:46:12.561Z</time>
      </trkpt>
      <trkpt lat="45.78486" lon="-0.94641">
        <ele>75.954827</ele>
        <time>2022-12-22T10:46:15.559Z</time>
      </trkpt>
      <trkpt lat="45.78474" lon="-0.94636">
        <ele>76.036976</ele>
        <time>2022-12-22T10:46:18.575Z</time>
      </trkpt>
      <trkpt lat="45.78462" lon="-0.9463">
        <ele>76.120444</ele>
        <time>2022-12-22T10:46:21.558Z</time>
      </trkpt>
      <trkpt lat="45.7845" lon="-0.94623">
        <ele>76.199464</ele>
        <time>2022-12-22T10:46:24.559Z</time>
      </trkpt>
      <trkpt lat="45.7844" lon="-0.94619">
        <ele>76.269284</ele>
        <time>2022-12-22T10:46:27.552Z</time>
      </trkpt>
      <trkpt lat="45.78431" lon="-0.94613">
        <ele>76.334146</ele>
        <time>2022-12-22T10:46:30.556Z</time>
      </trkpt>
      <trkpt lat="45.78423" lon="-0.94606">
        <ele>76.396583</ele>
        <time>2022-12-22T10:46:33.562Z</time>
      </trkpt>
      <trkpt lat="45.78414" lon="-0.946">
        <ele>76.471842</ele>
        <time>2022-12-22T10:46:36.567Z</time>
      </trkpt>
      <trkpt lat="45.78405" lon="-0.94591">
        <ele>76.644485</ele>
        <time>2022-12-22T10:46:39.559Z</time>
      </trkpt>
      <trkpt lat="45.78397" lon="-0.94584">
        <ele>76.807324</ele>
        <time>2022-12-22T10:46:42.560Z</time>
      </trkpt>
      <trkpt lat="45.78388" lon="-0.94573">
        <ele>76.997499</ele>
        <time>2022-12-22T10:46:46.560Z</time>
      </trkpt>
      <trkpt lat="45.78381" lon="-0.94565">
        <ele>77.152419</ele>
        <time>2022-12-22T10:46:49.564Z</time>
      </trkpt>
      <trkpt lat="45.78375" lon="-0.94556">
        <ele>77.30763</ele>
        <time>2022-12-22T10:46:52.559Z</time>
      </trkpt>
      <trkpt lat="45.78367" lon="-0.94547">
        <ele>77.467669</ele>
        <time>2022-12-22T10:46:55.558Z</time>
      </trkpt>
      <trkpt lat="45.78361" lon="-0.94537">
        <ele>77.624841</ele>
        <time>2022-12-22T10:46:58.570Z</time>
      </trkpt>
      <trkpt lat="45.78353" lon="-0.94527">
        <ele>77.79524</ele>
        <time>2022-12-22T10:47:02.561Z</time>
      </trkpt>
      <trkpt lat="45.78346" lon="-0.94519">
        <ele>77.953243</ele>
        <time>2022-12-22T10:47:06.570Z</time>
      </trkpt>
      <trkpt lat="45.78338" lon="-0.94509">
        <ele>78.130733</ele>
        <time>2022-12-22T10:47:10.558Z</time>
      </trkpt>
      <trkpt lat="45.7833" lon="-0.94498">
        <ele>78.318639</ele>
        <time>2022-12-22T10:47:14.559Z</time>
      </trkpt>
      <trkpt lat="45.78321" lon="-0.94486">
        <ele>78.516975</ele>
        <time>2022-12-22T10:47:18.571Z</time>
      </trkpt>
      <trkpt lat="45.78312" lon="-0.94475">
        <ele>78.713288</ele>
        <time>2022-12-22T10:47:22.563Z</time>
      </trkpt>
      <trkpt lat="45.78304" lon="-0.94465">
        <ele>78.898396</ele>
        <time>2022-12-22T10:47:26.565Z</time>
      </trkpt>
      <trkpt lat="45.78295" lon="-0.94453">
        <ele>79.093929</ele>
        <time>2022-12-22T10:47:30.562Z</time>
      </trkpt>
      <trkpt lat="45.78288" lon="-0.94445">
        <ele>79.247333</ele>
        <time>2022-12-22T10:47:33.562Z</time>
      </trkpt>
      <trkpt lat="45.78281" lon="-0.94437">
        <ele>79.402566</ele>
        <time>2022-12-22T10:47:36.562Z</time>
      </trkpt>
      <trkpt lat="45.78271" lon="-0.94427">
        <ele>79.50649</ele>
        <time>2022-12-22T10:47:40.548Z</time>
      </trkpt>
      <trkpt lat="45.78261" lon="-0.94419">
        <ele>79.564982</ele>
        <time>2022-12-22T10:47:44.553Z</time>
      </trkpt>
      <trkpt lat="45.7825" lon="-0.94413">
        <ele>79.628094</ele>
        <time>2022-12-22T10:47:48.560Z</time>
      </trkpt>
      <trkpt lat="45.78241" lon="-0.9441">
        <ele>79.676201</ele>
        <time>2022-12-22T10:47:51.559Z</time>
      </trkpt>
      <trkpt lat="45.78232" lon="-0.94409">
        <ele>79.726934</ele>
        <time>2022-12-22T10:47:54.557Z</time>
      </trkpt>
      <trkpt lat="45.78221" lon="-0.94408">
        <ele>79.785963</ele>
        <time>2022-12-22T10:47:58.539Z</time>
      </trkpt>
      <trkpt lat="45.78209" lon="-0.94413">
        <ele>79.847235</ele>
        <time>2022-12-22T10:48:02.554Z</time>
      </trkpt>
      <trkpt lat="45.782" lon="-0.94418">
        <ele>79.900295</ele>
        <time>2022-12-22T10:48:05.551Z</time>
      </trkpt>
      <trkpt lat="45.7819" lon="-0.94424">
        <ele>79.957022</ele>
        <time>2022-12-22T10:48:08.561Z</time>
      </trkpt>
      <trkpt lat="45.7818" lon="-0.9443">
        <ele>80.013499</ele>
        <time>2022-12-22T10:48:11.560Z</time>
      </trkpt>
      <trkpt lat="45.78171" lon="-0.94436">
        <ele>80.069108</ele>
        <time>2022-12-22T10:48:14.571Z</time>
      </trkpt>
      <trkpt lat="45.78161" lon="-0.94443">
        <ele>80.128203</ele>
        <time>2022-12-22T10:48:17.556Z</time>
      </trkpt>
      <trkpt lat="45.78151" lon="-0.94449">
        <ele>80.18211</ele>
        <time>2022-12-22T10:48:20.557Z</time>
      </trkpt>
      <trkpt lat="45.78141" lon="-0.94456">
        <ele>80.242698</ele>
        <time>2022-12-22T10:48:24.561Z</time>
      </trkpt>
      <trkpt lat="45.78132" lon="-0.94461">
        <ele>80.293718</ele>
        <time>2022-12-22T10:48:27.555Z</time>
      </trkpt>
      <trkpt lat="45.78122" lon="-0.94466">
        <ele>80.350385</ele>
        <time>2022-12-22T10:48:30.560Z</time>
      </trkpt>
      <trkpt lat="45.7811" lon="-0.94471">
        <ele>80.40876</ele>
        <time>2022-12-22T10:48:33.551Z</time>
      </trkpt>
      <trkpt lat="45.78098" lon="-0.94475">
        <ele>80.279244</ele>
        <time>2022-12-22T10:48:36.559Z</time>
      </trkpt>
      <trkpt lat="45.78085" lon="-0.94476">
        <ele>80.143613</ele>
        <time>2022-12-22T10:48:39.546Z</time>
      </trkpt>
      <trkpt lat="45.78076" lon="-0.94473">
        <ele>80.048215</ele>
        <time>2022-12-22T10:48:41.565Z</time>
      </trkpt>
      <trkpt lat="45.78064" lon="-0.94468">
        <ele>79.914985</ele>
        <time>2022-12-22T10:48:44.564Z</time>
      </trkpt>
      <trkpt lat="45.78052" lon="-0.94463">
        <ele>79.788185</ele>
        <time>2022-12-22T10:48:47.548Z</time>
      </trkpt>
      <trkpt lat="45.7804" lon="-0.94455">
        <ele>79.650277</ele>
        <time>2022-12-22T10:48:50.560Z</time>
      </trkpt>
      <trkpt lat="45.78029" lon="-0.94447">
        <ele>79.522715</ele>
        <time>2022-12-22T10:48:53.577Z</time>
      </trkpt>
      <trkpt lat="45.78019" lon="-0.9444">
        <ele>79.407995</ele>
        <time>2022-12-22T10:48:56.562Z</time>
      </trkpt>
      <trkpt lat="45.78009" lon="-0.94434">
        <ele>79.293275</ele>
        <time>2022-12-22T10:48:59.559Z</time>
      </trkpt>
      <trkpt lat="45.77999" lon="-0.94426">
        <ele>79.169158</ele>
        <time>2022-12-22T10:49:02.558Z</time>
      </trkpt>
      <trkpt lat="45.77987" lon="-0.94419">
        <ele>79.04</ele>
        <time>2022-12-22T10:49:05.561Z</time>
      </trkpt>
      <trkpt lat="45.77976" lon="-0.94411">
        <ele>78.90852</ele>
        <time>2022-12-22T10:49:08.543Z</time>
      </trkpt>
      <trkpt lat="45.77966" lon="-0.94402">
        <ele>78.783922</ele>
        <time>2022-12-22T10:49:11.560Z</time>
      </trkpt>
      <trkpt lat="45.77956" lon="-0.94395">
        <ele>78.668731</ele>
        <time>2022-12-22T10:49:14.565Z</time>
      </trkpt>
      <trkpt lat="45.77945" lon="-0.94388">
        <ele>78.546389</ele>
        <time>2022-12-22T10:49:17.556Z</time>
      </trkpt>
      <trkpt lat="45.77934" lon="-0.94381">
        <ele>78.453583</ele>
        <time>2022-12-22T10:49:20.564Z</time>
      </trkpt>
      <trkpt lat="45.77923" lon="-0.94373">
        <ele>78.362307</ele>
        <time>2022-12-22T10:49:23.560Z</time>
      </trkpt>
      <trkpt lat="45.77911" lon="-0.94363">
        <ele>78.267739</ele>
        <time>2022-12-22T10:49:26.565Z</time>
      </trkpt>
      <trkpt lat="45.779" lon="-0.94354">
        <ele>78.1738</ele>
        <time>2022-12-22T10:49:29.557Z</time>
      </trkpt>
      <trkpt lat="45.7789" lon="-0.94343">
        <ele>78.081467</ele>
        <time>2022-12-22T10:49:32.559Z</time>
      </trkpt>
      <trkpt lat="45.77881" lon="-0.94331">
        <ele>77.989908</ele>
        <time>2022-12-22T10:49:35.561Z</time>
      </trkpt>
      <trkpt lat="45.77873" lon="-0.94317">
        <ele>77.900101</ele>
        <time>2022-12-22T10:49:38.550Z</time>
      </trkpt>
      <trkpt lat="45.77866" lon="-0.94302">
        <ele>77.807018</ele>
        <time>2022-12-22T10:49:41.570Z</time>
      </trkpt>
      <trkpt lat="45.7786" lon="-0.94285">
        <ele>77.710907</ele>
        <time>2022-12-22T10:49:44.561Z</time>
      </trkpt>
      <trkpt lat="45.77855" lon="-0.94274">
        <ele>77.642688</ele>
        <time>2022-12-22T10:49:46.563Z</time>
      </trkpt>
      <trkpt lat="45.77851" lon="-0.94261">
        <ele>77.574447</ele>
        <time>2022-12-22T10:49:48.570Z</time>
      </trkpt>
      <trkpt lat="45.77847" lon="-0.94249">
        <ele>77.502839</ele>
        <time>2022-12-22T10:49:50.565Z</time>
      </trkpt>
      <trkpt lat="45.77843" lon="-0.94235">
        <ele>77.42887</ele>
        <time>2022-12-22T10:49:52.570Z</time>
      </trkpt>
      <trkpt lat="45.77839" lon="-0.94223">
        <ele>77.359551</ele>
        <time>2022-12-22T10:49:54.564Z</time>
      </trkpt>
      <trkpt lat="45.77835" lon="-0.9421">
        <ele>77.288006</ele>
        <time>2022-12-22T10:49:56.556Z</time>
      </trkpt>
      <trkpt lat="45.77831" lon="-0.94198">
        <ele>77.24813</ele>
        <time>2022-12-22T10:49:58.560Z</time>
      </trkpt>
      <trkpt lat="45.77826" lon="-0.9418">
        <ele>77.419358</ele>
        <time>2022-12-22T10:50:01.564Z</time>
      </trkpt>
      <trkpt lat="45.77821" lon="-0.94164">
        <ele>77.582483</ele>
        <time>2022-12-22T10:50:04.568Z</time>
      </trkpt>
      <trkpt lat="45.77814" lon="-0.9415">
        <ele>77.739842</ele>
        <time>2022-12-22T10:50:07.551Z</time>
      </trkpt>
      <trkpt lat="45.77807" lon="-0.94136">
        <ele>77.897046</ele>
        <time>2022-12-22T10:50:10.557Z</time>
      </trkpt>
      <trkpt lat="45.778" lon="-0.94123">
        <ele>78.050925</ele>
        <time>2022-12-22T10:50:13.539Z</time>
      </trkpt>
      <trkpt lat="45.77792" lon="-0.94111">
        <ele>78.201812</ele>
        <time>2022-12-22T10:50:16.539Z</time>
      </trkpt>
      <trkpt lat="45.77785" lon="-0.941">
        <ele>78.344384</ele>
        <time>2022-12-22T10:50:19.559Z</time>
      </trkpt>
      <trkpt lat="45.77776" lon="-0.9409">
        <ele>78.487939</ele>
        <time>2022-12-22T10:50:22.556Z</time>
      </trkpt>
      <trkpt lat="45.77768" lon="-0.94082">
        <ele>78.621554</ele>
        <time>2022-12-22T10:50:25.564Z</time>
      </trkpt>
      <trkpt lat="45.77759" lon="-0.94073">
        <ele>78.755133</ele>
        <time>2022-12-22T10:50:28.564Z</time>
      </trkpt>
      <trkpt lat="45.77751" lon="-0.94065">
        <ele>78.89087</ele>
        <time>2022-12-22T10:50:31.561Z</time>
      </trkpt>
      <trkpt lat="45.77742" lon="-0.94056">
        <ele>79.028722</ele>
        <time>2022-12-22T10:50:34.559Z</time>
      </trkpt>
      <trkpt lat="45.77734" lon="-0.94049">
        <ele>79.15932</ele>
        <time>2022-12-22T10:50:37.543Z</time>
      </trkpt>
      <trkpt lat="45.77726" lon="-0.9404">
        <ele>79.285983</ele>
        <time>2022-12-22T10:50:40.561Z</time>
      </trkpt>
      <trkpt lat="45.77719" lon="-0.9403">
        <ele>79.416951</ele>
        <time>2022-12-22T10:50:43.561Z</time>
      </trkpt>
      <trkpt lat="45.77713" lon="-0.94019">
        <ele>79.551273</ele>
        <time>2022-12-22T10:50:46.556Z</time>
      </trkpt>
      <trkpt lat="45.77707" lon="-0.94007">
        <ele>79.480429</ele>
        <time>2022-12-22T10:50:49.561Z</time>
      </trkpt>
      <trkpt lat="45.77702" lon="-0.93995">
        <ele>79.306509</ele>
        <time>2022-12-22T10:50:52.557Z</time>
      </trkpt>
      <trkpt lat="45.77696" lon="-0.93982">
        <ele>79.117449</ele>
        <time>2022-12-22T10:50:55.559Z</time>
      </trkpt>
      <trkpt lat="45.77691" lon="-0.93968">
        <ele>78.923694</ele>
        <time>2022-12-22T10:50:58.559Z</time>
      </trkpt>
      <trkpt lat="45.77685" lon="-0.93954">
        <ele>78.722882</ele>
        <time>2022-12-22T10:51:01.560Z</time>
      </trkpt>
      <trkpt lat="45.77679" lon="-0.93938">
        <ele>78.506664</ele>
        <time>2022-12-22T10:51:04.561Z</time>
      </trkpt>
      <trkpt lat="45.77674" lon="-0.93924">
        <ele>78.312177</ele>
        <time>2022-12-22T10:51:07.547Z</time>
      </trkpt>
      <trkpt lat="45.7767" lon="-0.93911">
        <ele>78.137073</ele>
        <time>2022-12-22T10:51:10.561Z</time>
      </trkpt>
      <trkpt lat="45.77666" lon="-0.93898">
        <ele>77.959417</ele>
        <time>2022-12-22T10:51:13.561Z</time>
      </trkpt>
      <trkpt lat="45.77663" lon="-0.93884">
        <ele>77.783666</ele>
        <time>2022-12-22T10:51:16.559Z</time>
      </trkpt>
      <trkpt lat="45.77659" lon="-0.93869">
        <ele>77.589989</ele>
        <time>2022-12-22T10:51:19.540Z</time>
      </trkpt>
      <trkpt lat="45.77657" lon="-0.93853">
        <ele>77.387023</ele>
        <time>2022-12-22T10:51:22.539Z</time>
      </trkpt>
      <trkpt lat="45.77657" lon="-0.93836">
        <ele>77.178596</ele>
        <time>2022-12-22T10:51:25.548Z</time>
      </trkpt>
      <trkpt lat="45.77656" lon="-0.93818">
        <ele>76.963024</ele>
        <time>2022-12-22T10:51:28.611Z</time>
      </trkpt>
      <trkpt lat="45.77657" lon="-0.93801">
        <ele>76.744891</ele>
        <time>2022-12-22T10:51:31.563Z</time>
      </trkpt>
      <trkpt lat="45.77657" lon="-0.93783">
        <ele>76.535388</ele>
        <time>2022-12-22T10:51:34.601Z</time>
      </trkpt>
      <trkpt lat="45.77658" lon="-0.93767">
        <ele>76.327313</ele>
        <time>2022-12-22T10:51:37.548Z</time>
      </trkpt>
      <trkpt lat="45.77659" lon="-0.93748">
        <ele>76.089575</ele>
        <time>2022-12-22T10:51:40.618Z</time>
      </trkpt>
      <trkpt lat="45.77659" lon="-0.93735">
        <ele>75.925087</ele>
        <time>2022-12-22T10:51:42.561Z</time>
      </trkpt>
      <trkpt lat="45.77659" lon="-0.93716">
        <ele>75.682056</ele>
        <time>2022-12-22T10:51:45.564Z</time>
      </trkpt>
      <trkpt lat="45.77657" lon="-0.93697">
        <ele>75.436581</ele>
        <time>2022-12-22T10:51:48.563Z</time>
      </trkpt>
      <trkpt lat="45.77654" lon="-0.93684">
        <ele>75.260435</ele>
        <time>2022-12-22T10:51:50.568Z</time>
      </trkpt>
      <trkpt lat="45.77648" lon="-0.93666">
        <ele>75.015074</ele>
        <time>2022-12-22T10:51:53.564Z</time>
      </trkpt>
      <trkpt lat="45.77641" lon="-0.93655">
        <ele>74.839232</ele>
        <time>2022-12-22T10:51:55.567Z</time>
      </trkpt>
      <trkpt lat="45.77634" lon="-0.93647">
        <ele>74.669055</ele>
        <time>2022-12-22T10:51:57.584Z</time>
      </trkpt>
      <trkpt lat="45.77626" lon="-0.9364">
        <ele>74.499196</ele>
        <time>2022-12-22T10:51:59.553Z</time>
      </trkpt>
      <trkpt lat="45.77616" lon="-0.93634">
        <ele>74.303213</ele>
        <time>2022-12-22T10:52:01.561Z</time>
      </trkpt>
      <trkpt lat="45.77606" lon="-0.93631">
        <ele>74.12253</ele>
        <time>2022-12-22T10:52:03.619Z</time>
      </trkpt>
      <trkpt lat="45.77597" lon="-0.93629">
        <ele>73.948686</ele>
        <time>2022-12-22T10:52:05.569Z</time>
      </trkpt>
      <trkpt lat="45.77587" lon="-0.93628">
        <ele>73.775843</ele>
        <time>2022-12-22T10:52:07.562Z</time>
      </trkpt>
      <trkpt lat="45.77578" lon="-0.93628">
        <ele>73.603661</ele>
        <time>2022-12-22T10:52:09.623Z</time>
      </trkpt>
      <trkpt lat="45.77568" lon="-0.93628">
        <ele>73.427842</ele>
        <time>2022-12-22T10:52:11.565Z</time>
      </trkpt>
      <trkpt lat="45.77559" lon="-0.93627">
        <ele>73.255438</ele>
        <time>2022-12-22T10:52:13.575Z</time>
      </trkpt>
      <trkpt lat="45.77548" lon="-0.93628">
        <ele>73.103728</ele>
        <time>2022-12-22T10:52:15.578Z</time>
      </trkpt>
      <trkpt lat="45.77537" lon="-0.93628">
        <ele>72.972643</ele>
        <time>2022-12-22T10:52:17.548Z</time>
      </trkpt>
      <trkpt lat="45.77526" lon="-0.93628">
        <ele>72.840334</ele>
        <time>2022-12-22T10:52:19.563Z</time>
      </trkpt>
      <trkpt lat="45.77515" lon="-0.93629">
        <ele>72.706812</ele>
        <time>2022-12-22T10:52:21.545Z</time>
      </trkpt>
      <trkpt lat="45.77504" lon="-0.93629">
        <ele>72.578077</ele>
        <time>2022-12-22T10:52:23.554Z</time>
      </trkpt>
      <trkpt lat="45.77493" lon="-0.9363">
        <ele>72.444409</ele>
        <time>2022-12-22T10:52:25.563Z</time>
      </trkpt>
      <trkpt lat="45.77482" lon="-0.9363">
        <ele>72.316906</ele>
        <time>2022-12-22T10:52:27.557Z</time>
      </trkpt>
      <trkpt lat="45.7747" lon="-0.9363">
        <ele>72.175097</ele>
        <time>2022-12-22T10:52:29.570Z</time>
      </trkpt>
      <trkpt lat="45.77458" lon="-0.9363">
        <ele>72.033298</ele>
        <time>2022-12-22T10:52:31.616Z</time>
      </trkpt>
      <trkpt lat="45.77447" lon="-0.9363">
        <ele>71.903412</ele>
        <time>2022-12-22T10:52:33.554Z</time>
      </trkpt>
      <trkpt lat="45.77437" lon="-0.93631">
        <ele>71.782775</ele>
        <time>2022-12-22T10:52:35.563Z</time>
      </trkpt>
      <trkpt lat="45.77427" lon="-0.9363">
        <ele>71.664805</ele>
        <time>2022-12-22T10:52:37.628Z</time>
      </trkpt>
      <trkpt lat="45.77417" lon="-0.93631">
        <ele>71.546825</ele>
        <time>2022-12-22T10:52:39.569Z</time>
      </trkpt>
      <trkpt lat="45.77407" lon="-0.93631">
        <ele>71.427481</ele>
        <time>2022-12-22T10:52:41.572Z</time>
      </trkpt>
      <trkpt lat="45.77397" lon="-0.93632">
        <ele>71.30461</ele>
        <time>2022-12-22T10:52:43.632Z</time>
      </trkpt>
      <trkpt lat="45.77387" lon="-0.93633">
        <ele>71.180214</ele>
        <time>2022-12-22T10:52:45.575Z</time>
      </trkpt>
      <trkpt lat="45.77376" lon="-0.93634">
        <ele>71.052689</ele>
        <time>2022-12-22T10:52:47.543Z</time>
      </trkpt>
      <trkpt lat="45.77365" lon="-0.93635">
        <ele>71.0173</ele>
        <time>2022-12-22T10:52:49.625Z</time>
      </trkpt>
      <trkpt lat="45.77354" lon="-0.93635">
        <ele>70.99559</ele>
        <time>2022-12-22T10:52:51.575Z</time>
      </trkpt>
      <trkpt lat="45.77342" lon="-0.93637">
        <ele>70.974489</ele>
        <time>2022-12-22T10:52:53.573Z</time>
      </trkpt>
      <trkpt lat="45.77331" lon="-0.93639">
        <ele>70.953202</ele>
        <time>2022-12-22T10:52:55.628Z</time>
      </trkpt>
      <trkpt lat="45.7732" lon="-0.93641">
        <ele>70.931899</ele>
        <time>2022-12-22T10:52:57.548Z</time>
      </trkpt>
      <trkpt lat="45.77308" lon="-0.93642">
        <ele>70.909246</ele>
        <time>2022-12-22T10:52:59.564Z</time>
      </trkpt>
      <trkpt lat="45.77296" lon="-0.93643">
        <ele>70.886896</ele>
        <time>2022-12-22T10:53:01.615Z</time>
      </trkpt>
      <trkpt lat="45.77284" lon="-0.93645">
        <ele>70.865189</ele>
        <time>2022-12-22T10:53:03.565Z</time>
      </trkpt>
      <trkpt lat="45.77273" lon="-0.93647">
        <ele>70.843498</ele>
        <time>2022-12-22T10:53:05.565Z</time>
      </trkpt>
      <trkpt lat="45.77262" lon="-0.9365">
        <ele>70.822903</ele>
        <time>2022-12-22T10:53:07.563Z</time>
      </trkpt>
      <trkpt lat="45.77251" lon="-0.93652">
        <ele>70.803129</ele>
        <time>2022-12-22T10:53:09.575Z</time>
      </trkpt>
      <trkpt lat="45.77241" lon="-0.93655">
        <ele>70.783097</ele>
        <time>2022-12-22T10:53:11.561Z</time>
      </trkpt>
      <trkpt lat="45.7723" lon="-0.93657">
        <ele>70.762446</ele>
        <time>2022-12-22T10:53:13.552Z</time>
      </trkpt>
      <trkpt lat="45.77219" lon="-0.93659">
        <ele>70.742347</ele>
        <time>2022-12-22T10:53:15.575Z</time>
      </trkpt>
      <trkpt lat="45.77209" lon="-0.93662">
        <ele>70.722157</ele>
        <time>2022-12-22T10:53:17.543Z</time>
      </trkpt>
      <trkpt lat="45.77198" lon="-0.93664">
        <ele>70.701339</ele>
        <time>2022-12-22T10:53:19.567Z</time>
      </trkpt>
      <trkpt lat="45.77187" lon="-0.93667">
        <ele>70.637416</ele>
        <time>2022-12-22T10:53:21.561Z</time>
      </trkpt>
      <trkpt lat="45.77177" lon="-0.93669">
        <ele>70.568761</ele>
        <time>2022-12-22T10:53:23.569Z</time>
      </trkpt>
      <trkpt lat="45.77166" lon="-0.93672">
        <ele>70.495649</ele>
        <time>2022-12-22T10:53:25.551Z</time>
      </trkpt>
      <trkpt lat="45.77156" lon="-0.93675">
        <ele>70.427788</ele>
        <time>2022-12-22T10:53:27.547Z</time>
      </trkpt>
      <trkpt lat="45.77145" lon="-0.93678">
        <ele>70.359057</ele>
        <time>2022-12-22T10:53:29.621Z</time>
      </trkpt>
      <trkpt lat="45.77135" lon="-0.93681">
        <ele>70.291196</ele>
        <time>2022-12-22T10:53:31.562Z</time>
      </trkpt>
      <trkpt lat="45.77126" lon="-0.93684">
        <ele>70.22581</ele>
        <time>2022-12-22T10:53:33.573Z</time>
      </trkpt>
      <trkpt lat="45.77116" lon="-0.93687">
        <ele>70.15914</ele>
        <time>2022-12-22T10:53:35.735Z</time>
      </trkpt>
      <trkpt lat="45.77106" lon="-0.9369">
        <ele>70.092268</ele>
        <time>2022-12-22T10:53:37.545Z</time>
      </trkpt>
      <trkpt lat="45.77096" lon="-0.93693">
        <ele>70.028549</ele>
        <time>2022-12-22T10:53:39.574Z</time>
      </trkpt>
      <trkpt lat="45.77087" lon="-0.93695">
        <ele>69.965236</ele>
        <time>2022-12-22T10:53:41.567Z</time>
      </trkpt>
      <trkpt lat="45.77078" lon="-0.93699">
        <ele>69.903636</ele>
        <time>2022-12-22T10:53:43.553Z</time>
      </trkpt>
      <trkpt lat="45.77069" lon="-0.93702">
        <ele>69.843267</ele>
        <time>2022-12-22T10:53:45.564Z</time>
      </trkpt>
      <trkpt lat="45.7706" lon="-0.93705">
        <ele>69.783304</ele>
        <time>2022-12-22T10:53:47.547Z</time>
      </trkpt>
      <trkpt lat="45.77051" lon="-0.93709">
        <ele>69.721704</ele>
        <time>2022-12-22T10:53:49.574Z</time>
      </trkpt>
      <trkpt lat="45.77042" lon="-0.93713">
        <ele>69.66023</ele>
        <time>2022-12-22T10:53:51.568Z</time>
      </trkpt>
      <trkpt lat="45.77033" lon="-0.93716">
        <ele>69.598755</ele>
        <time>2022-12-22T10:53:53.577Z</time>
      </trkpt>
      <trkpt lat="45.77024" lon="-0.9372">
        <ele>69.535494</ele>
        <time>2022-12-22T10:53:55.566Z</time>
      </trkpt>
      <trkpt lat="45.77015" lon="-0.93724">
        <ele>69.495389</ele>
        <time>2022-12-22T10:53:57.555Z</time>
      </trkpt>
      <trkpt lat="45.77006" lon="-0.93728">
        <ele>69.466333</ele>
        <time>2022-12-22T10:53:59.566Z</time>
      </trkpt>
      <trkpt lat="45.76997" lon="-0.93732">
        <ele>69.436796</ele>
        <time>2022-12-22T10:54:01.575Z</time>
      </trkpt>
      <trkpt lat="45.76988" lon="-0.93735">
        <ele>69.407257</ele>
        <time>2022-12-22T10:54:03.574Z</time>
      </trkpt>
      <trkpt lat="45.76978" lon="-0.93739">
        <ele>69.377843</ele>
        <time>2022-12-22T10:54:05.575Z</time>
      </trkpt>
      <trkpt lat="45.7697" lon="-0.93744">
        <ele>69.348775</ele>
        <time>2022-12-22T10:54:07.543Z</time>
      </trkpt>
      <trkpt lat="45.76961" lon="-0.93747">
        <ele>69.319659</ele>
        <time>2022-12-22T10:54:09.564Z</time>
      </trkpt>
      <trkpt lat="45.76951" lon="-0.93751">
        <ele>69.289109</ele>
        <time>2022-12-22T10:54:11.557Z</time>
      </trkpt>
      <trkpt lat="45.76942" lon="-0.93755">
        <ele>69.258915</ele>
        <time>2022-12-22T10:54:13.556Z</time>
      </trkpt>
      <trkpt lat="45.76932" lon="-0.93759">
        <ele>69.228423</ele>
        <time>2022-12-22T10:54:15.560Z</time>
      </trkpt>
      <trkpt lat="45.76924" lon="-0.93764">
        <ele>69.199571</ele>
        <time>2022-12-22T10:54:17.547Z</time>
      </trkpt>
      <trkpt lat="45.76915" lon="-0.93768">
        <ele>69.171743</ele>
        <time>2022-12-22T10:54:19.562Z</time>
      </trkpt>
      <trkpt lat="45.76906" lon="-0.93772">
        <ele>69.14209</ele>
        <time>2022-12-22T10:54:21.573Z</time>
      </trkpt>
      <trkpt lat="45.76897" lon="-0.93776">
        <ele>69.112318</ele>
        <time>2022-12-22T10:54:23.567Z</time>
      </trkpt>
      <trkpt lat="45.76888" lon="-0.9378">
        <ele>69.084123</ele>
        <time>2022-12-22T10:54:25.576Z</time>
      </trkpt>
      <trkpt lat="45.76879" lon="-0.93785">
        <ele>69.05388</ele>
        <time>2022-12-22T10:54:27.553Z</time>
      </trkpt>
      <trkpt lat="45.7687" lon="-0.9379">
        <ele>69.02229</ele>
        <time>2022-12-22T10:54:29.551Z</time>
      </trkpt>
      <trkpt lat="45.7686" lon="-0.93795">
        <ele>68.991324</ele>
        <time>2022-12-22T10:54:31.560Z</time>
      </trkpt>
      <trkpt lat="45.76851" lon="-0.93802">
        <ele>68.959963</ele>
        <time>2022-12-22T10:54:33.567Z</time>
      </trkpt>
      <trkpt lat="45.76842" lon="-0.93806">
        <ele>68.735632</ele>
        <time>2022-12-22T10:54:35.572Z</time>
      </trkpt>
      <trkpt lat="45.76833" lon="-0.93812">
        <ele>68.497822</ele>
        <time>2022-12-22T10:54:37.559Z</time>
      </trkpt>
      <trkpt lat="45.76824" lon="-0.93817">
        <ele>68.266686</ele>
        <time>2022-12-22T10:54:39.597Z</time>
      </trkpt>
      <trkpt lat="45.76815" lon="-0.93822">
        <ele>68.034335</ele>
        <time>2022-12-22T10:54:41.566Z</time>
      </trkpt>
      <trkpt lat="45.76806" lon="-0.93827">
        <ele>67.802323</ele>
        <time>2022-12-22T10:54:43.567Z</time>
      </trkpt>
      <trkpt lat="45.76797" lon="-0.93832">
        <ele>67.569649</ele>
        <time>2022-12-22T10:54:45.638Z</time>
      </trkpt>
      <trkpt lat="45.76788" lon="-0.93838">
        <ele>67.333786</ele>
        <time>2022-12-22T10:54:47.549Z</time>
      </trkpt>
      <trkpt lat="45.76779" lon="-0.93843">
        <ele>67.083459</ele>
        <time>2022-12-22T10:54:49.577Z</time>
      </trkpt>
      <trkpt lat="45.76769" lon="-0.93849">
        <ele>66.832791</ele>
        <time>2022-12-22T10:54:51.613Z</time>
      </trkpt>
      <trkpt lat="45.76759" lon="-0.93854">
        <ele>66.579372</ele>
        <time>2022-12-22T10:54:53.568Z</time>
      </trkpt>
      <trkpt lat="45.7675" lon="-0.93859">
        <ele>66.324173</ele>
        <time>2022-12-22T10:54:55.568Z</time>
      </trkpt>
      <trkpt lat="45.7674" lon="-0.93865">
        <ele>66.064213</ele>
        <time>2022-12-22T10:54:57.603Z</time>
      </trkpt>
      <trkpt lat="45.76729" lon="-0.9387">
        <ele>65.795349</ele>
        <time>2022-12-22T10:54:59.558Z</time>
      </trkpt>
      <trkpt lat="45.7672" lon="-0.93876">
        <ele>65.548172</ele>
        <time>2022-12-22T10:55:01.564Z</time>
      </trkpt>
      <trkpt lat="45.7671" lon="-0.93881">
        <ele>65.300086</ele>
        <time>2022-12-22T10:55:03.550Z</time>
      </trkpt>
      <trkpt lat="45.76701" lon="-0.93887">
        <ele>65.040763</ele>
        <time>2022-12-22T10:55:05.561Z</time>
      </trkpt>
      <trkpt lat="45.76691" lon="-0.93892">
        <ele>64.788439</ele>
        <time>2022-12-22T10:55:07.551Z</time>
      </trkpt>
      <trkpt lat="45.76682" lon="-0.93898">
        <ele>64.549859</ele>
        <time>2022-12-22T10:55:09.574Z</time>
      </trkpt>
      <trkpt lat="45.76673" lon="-0.93903">
        <ele>64.341793</ele>
        <time>2022-12-22T10:55:11.560Z</time>
      </trkpt>
      <trkpt lat="45.76664" lon="-0.93907">
        <ele>64.144726</ele>
        <time>2022-12-22T10:55:13.567Z</time>
      </trkpt>
      <trkpt lat="45.76652" lon="-0.93915">
        <ele>63.868983</ele>
        <time>2022-12-22T10:55:16.564Z</time>
      </trkpt>
      <trkpt lat="45.7664" lon="-0.93922">
        <ele>63.582831</ele>
        <time>2022-12-22T10:55:19.568Z</time>
      </trkpt>
      <trkpt lat="45.76627" lon="-0.93929">
        <ele>63.291657</ele>
        <time>2022-12-22T10:55:22.570Z</time>
      </trkpt>
      <trkpt lat="45.76619" lon="-0.93934">
        <ele>63.090339</ele>
        <time>2022-12-22T10:55:24.570Z</time>
      </trkpt>
      <trkpt lat="45.7661" lon="-0.93939">
        <ele>62.883113</ele>
        <time>2022-12-22T10:55:26.565Z</time>
      </trkpt>
      <trkpt lat="45.76601" lon="-0.93944">
        <ele>62.680251</ele>
        <time>2022-12-22T10:55:28.561Z</time>
      </trkpt>
      <trkpt lat="45.76591" lon="-0.93949">
        <ele>62.462204</ele>
        <time>2022-12-22T10:55:30.574Z</time>
      </trkpt>
      <trkpt lat="45.76582" lon="-0.93954">
        <ele>62.244157</ele>
        <time>2022-12-22T10:55:32.564Z</time>
      </trkpt>
      <trkpt lat="45.76572" lon="-0.93961">
        <ele>62.016505</ele>
        <time>2022-12-22T10:55:34.554Z</time>
      </trkpt>
      <trkpt lat="45.76562" lon="-0.93965">
        <ele>61.79381</ele>
        <time>2022-12-22T10:55:36.574Z</time>
      </trkpt>
      <trkpt lat="45.76553" lon="-0.9397">
        <ele>61.575655</ele>
        <time>2022-12-22T10:55:38.572Z</time>
      </trkpt>
      <trkpt lat="45.76544" lon="-0.93975">
        <ele>61.374111</ele>
        <time>2022-12-22T10:55:40.564Z</time>
      </trkpt>
      <trkpt lat="45.76535" lon="-0.93981">
        <ele>61.170288</ele>
        <time>2022-12-22T10:55:42.625Z</time>
      </trkpt>
      <trkpt lat="45.76527" lon="-0.93986">
        <ele>60.978006</ele>
        <time>2022-12-22T10:55:44.563Z</time>
      </trkpt>
      <trkpt lat="45.76514" lon="-0.93992">
        <ele>60.725175</ele>
        <time>2022-12-22T10:55:47.558Z</time>
      </trkpt>
      <trkpt lat="45.76502" lon="-0.93998">
        <ele>60.699495</ele>
        <time>2022-12-22T10:55:50.561Z</time>
      </trkpt>
      <trkpt lat="45.7649" lon="-0.94005">
        <ele>60.672882</ele>
        <time>2022-12-22T10:55:53.563Z</time>
      </trkpt>
      <trkpt lat="45.76478" lon="-0.94011">
        <ele>60.647932</ele>
        <time>2022-12-22T10:55:56.562Z</time>
      </trkpt>
      <trkpt lat="45.76467" lon="-0.94017">
        <ele>60.624893</ele>
        <time>2022-12-22T10:55:59.561Z</time>
      </trkpt>
      <trkpt lat="45.76456" lon="-0.94024">
        <ele>60.601117</ele>
        <time>2022-12-22T10:56:02.562Z</time>
      </trkpt>
      <trkpt lat="45.76444" lon="-0.9403">
        <ele>60.575157</ele>
        <time>2022-12-22T10:56:05.575Z</time>
      </trkpt>
      <trkpt lat="45.76432" lon="-0.94037">
        <ele>60.549802</ele>
        <time>2022-12-22T10:56:08.555Z</time>
      </trkpt>
      <trkpt lat="45.7642" lon="-0.94044">
        <ele>60.523962</ele>
        <time>2022-12-22T10:56:11.547Z</time>
      </trkpt>
      <trkpt lat="45.76411" lon="-0.94049">
        <ele>60.505975</ele>
        <time>2022-12-22T10:56:13.565Z</time>
      </trkpt>
      <trkpt lat="45.76402" lon="-0.94054">
        <ele>60.48682</ele>
        <time>2022-12-22T10:56:15.571Z</time>
      </trkpt>
      <trkpt lat="45.76393" lon="-0.94058">
        <ele>60.467712</ele>
        <time>2022-12-22T10:56:17.544Z</time>
      </trkpt>
      <trkpt lat="45.76384" lon="-0.94063">
        <ele>60.448086</ele>
        <time>2022-12-22T10:56:19.566Z</time>
      </trkpt>
      <trkpt lat="45.76374" lon="-0.94068">
        <ele>60.428512</ele>
        <time>2022-12-22T10:56:21.559Z</time>
      </trkpt>
      <trkpt lat="45.76365" lon="-0.94074">
        <ele>60.407645</ele>
        <time>2022-12-22T10:56:23.561Z</time>
      </trkpt>
      <trkpt lat="45.76355" lon="-0.9408">
        <ele>60.387142</ele>
        <time>2022-12-22T10:56:25.564Z</time>
      </trkpt>
      <trkpt lat="45.76346" lon="-0.94085">
        <ele>60.35979</ele>
        <time>2022-12-22T10:56:27.553Z</time>
      </trkpt>
      <trkpt lat="45.76336" lon="-0.9409">
        <ele>60.303503</ele>
        <time>2022-12-22T10:56:29.573Z</time>
      </trkpt>
      <trkpt lat="45.76326" lon="-0.94096">
        <ele>60.248909</ele>
        <time>2022-12-22T10:56:31.568Z</time>
      </trkpt>
      <trkpt lat="45.76317" lon="-0.94102">
        <ele>60.194857</ele>
        <time>2022-12-22T10:56:33.564Z</time>
      </trkpt>
      <trkpt lat="45.76307" lon="-0.94107">
        <ele>60.139554</ele>
        <time>2022-12-22T10:56:35.572Z</time>
      </trkpt>
      <trkpt lat="45.76298" lon="-0.94113">
        <ele>60.088356</ele>
        <time>2022-12-22T10:56:37.549Z</time>
      </trkpt>
      <trkpt lat="45.76289" lon="-0.94117">
        <ele>60.03753</ele>
        <time>2022-12-22T10:56:39.613Z</time>
      </trkpt>
      <trkpt lat="45.7628" lon="-0.94121">
        <ele>59.987284</ele>
        <time>2022-12-22T10:56:41.563Z</time>
      </trkpt>
      <trkpt lat="45.76268" lon="-0.94128">
        <ele>59.919969</ele>
        <time>2022-12-22T10:56:44.567Z</time>
      </trkpt>
      <trkpt lat="45.7626" lon="-0.94133">
        <ele>59.872437</ele>
        <time>2022-12-22T10:56:46.561Z</time>
      </trkpt>
      <trkpt lat="45.76251" lon="-0.94138">
        <ele>59.822926</ele>
        <time>2022-12-22T10:56:48.563Z</time>
      </trkpt>
      <trkpt lat="45.76242" lon="-0.94143">
        <ele>59.7711</ele>
        <time>2022-12-22T10:56:50.559Z</time>
      </trkpt>
      <trkpt lat="45.76233" lon="-0.94148">
        <ele>59.719403</ele>
        <time>2022-12-22T10:56:52.576Z</time>
      </trkpt>
      <trkpt lat="45.76224" lon="-0.94154">
        <ele>59.667752</ele>
        <time>2022-12-22T10:56:54.558Z</time>
      </trkpt>
      <trkpt lat="45.76215" lon="-0.9416">
        <ele>59.614991</ele>
        <time>2022-12-22T10:56:56.613Z</time>
      </trkpt>
      <trkpt lat="45.76205" lon="-0.94165">
        <ele>59.562138</ele>
        <time>2022-12-22T10:56:58.562Z</time>
      </trkpt>
      <trkpt lat="45.76196" lon="-0.94171">
        <ele>59.508658</ele>
        <time>2022-12-22T10:57:00.573Z</time>
      </trkpt>
      <trkpt lat="45.76187" lon="-0.94176">
        <ele>59.455094</ele>
        <time>2022-12-22T10:57:02.620Z</time>
      </trkpt>
      <trkpt lat="45.76177" lon="-0.94182">
        <ele>59.384519</ele>
        <time>2022-12-22T10:57:04.562Z</time>
      </trkpt>
      <trkpt lat="45.76168" lon="-0.94187">
        <ele>59.306683</ele>
        <time>2022-12-22T10:57:06.567Z</time>
      </trkpt>
      <trkpt lat="45.76159" lon="-0.94192">
        <ele>59.228951</ele>
        <time>2022-12-22T10:57:08.614Z</time>
      </trkpt>
      <trkpt lat="45.76151" lon="-0.94198">
        <ele>59.152912</ele>
        <time>2022-12-22T10:57:10.574Z</time>
      </trkpt>
      <trkpt lat="45.76138" lon="-0.94205">
        <ele>59.041113</ele>
        <time>2022-12-22T10:57:13.564Z</time>
      </trkpt>
      <trkpt lat="45.76129" lon="-0.94211">
        <ele>58.961537</ele>
        <time>2022-12-22T10:57:15.572Z</time>
      </trkpt>
      <trkpt lat="45.7612" lon="-0.94215">
        <ele>58.882469</ele>
        <time>2022-12-22T10:57:17.545Z</time>
      </trkpt>
      <trkpt lat="45.76112" lon="-0.94221">
        <ele>58.803548</ele>
        <time>2022-12-22T10:57:19.568Z</time>
      </trkpt>
      <trkpt lat="45.76103" lon="-0.94226">
        <ele>58.729417</ele>
        <time>2022-12-22T10:57:21.569Z</time>
      </trkpt>
      <trkpt lat="45.76091" lon="-0.94232">
        <ele>58.623791</ele>
        <time>2022-12-22T10:57:24.562Z</time>
      </trkpt>
      <trkpt lat="45.7608" lon="-0.94239">
        <ele>58.523103</ele>
        <time>2022-12-22T10:57:27.552Z</time>
      </trkpt>
      <trkpt lat="45.76069" lon="-0.94246">
        <ele>58.422546</ele>
        <time>2022-12-22T10:57:30.564Z</time>
      </trkpt>
      <trkpt lat="45.7606" lon="-0.94252">
        <ele>58.344276</ele>
        <time>2022-12-22T10:57:32.615Z</time>
      </trkpt>
      <trkpt lat="45.76052" lon="-0.94257">
        <ele>58.268695</ele>
        <time>2022-12-22T10:57:34.571Z</time>
      </trkpt>
      <trkpt lat="45.76043" lon="-0.94262">
        <ele>58.189986</ele>
        <time>2022-12-22T10:57:36.558Z</time>
      </trkpt>
      <trkpt lat="45.76034" lon="-0.94267">
        <ele>58.110632</ele>
        <time>2022-12-22T10:57:38.628Z</time>
      </trkpt>
      <trkpt lat="45.76025" lon="-0.94272">
        <ele>58.032733</ele>
        <time>2022-12-22T10:57:40.564Z</time>
      </trkpt>
      <trkpt lat="45.76016" lon="-0.94277">
        <ele>57.95467</ele>
        <time>2022-12-22T10:57:42.571Z</time>
      </trkpt>
      <trkpt lat="45.76008" lon="-0.94282">
        <ele>57.865386</ele>
        <time>2022-12-22T10:57:44.626Z</time>
      </trkpt>
      <trkpt lat="45.75999" lon="-0.94288">
        <ele>57.769197</ele>
        <time>2022-12-22T10:57:46.568Z</time>
      </trkpt>
      <trkpt lat="45.7599" lon="-0.94293">
        <ele>57.672735</ele>
        <time>2022-12-22T10:57:48.563Z</time>
      </trkpt>
      <trkpt lat="45.75981" lon="-0.94298">
        <ele>57.572715</ele>
        <time>2022-12-22T10:57:50.621Z</time>
      </trkpt>
      <trkpt lat="45.75972" lon="-0.94303">
        <ele>57.472946</ele>
        <time>2022-12-22T10:57:52.572Z</time>
      </trkpt>
      <trkpt lat="45.75959" lon="-0.9431">
        <ele>57.338483</ele>
        <time>2022-12-22T10:57:55.563Z</time>
      </trkpt>
      <trkpt lat="45.75947" lon="-0.94316">
        <ele>57.207133</ele>
        <time>2022-12-22T10:57:58.561Z</time>
      </trkpt>
      <trkpt lat="45.75934" lon="-0.94323">
        <ele>57.07267</ele>
        <time>2022-12-22T10:58:01.566Z</time>
      </trkpt>
      <trkpt lat="45.75925" lon="-0.94329">
        <ele>56.975913</ele>
        <time>2022-12-22T10:58:03.564Z</time>
      </trkpt>
      <trkpt lat="45.75917" lon="-0.94334">
        <ele>56.883941</ele>
        <time>2022-12-22T10:58:05.562Z</time>
      </trkpt>
      <trkpt lat="45.75908" lon="-0.94338">
        <ele>56.788364</ele>
        <time>2022-12-22T10:58:07.555Z</time>
      </trkpt>
      <trkpt lat="45.75899" lon="-0.94343">
        <ele>56.689277</ele>
        <time>2022-12-22T10:58:09.568Z</time>
      </trkpt>
      <trkpt lat="45.75889" lon="-0.94348">
        <ele>56.59112</ele>
        <time>2022-12-22T10:58:11.562Z</time>
      </trkpt>
      <trkpt lat="45.7588" lon="-0.94353">
        <ele>56.49326</ele>
        <time>2022-12-22T10:58:13.564Z</time>
      </trkpt>
      <trkpt lat="45.75871" lon="-0.94358">
        <ele>56.397734</ele>
        <time>2022-12-22T10:58:15.566Z</time>
      </trkpt>
      <trkpt lat="45.75862" lon="-0.94363">
        <ele>56.300087</ele>
        <time>2022-12-22T10:58:17.549Z</time>
      </trkpt>
      <trkpt lat="45.75853" lon="-0.94368">
        <ele>56.200809</ele>
        <time>2022-12-22T10:58:19.604Z</time>
      </trkpt>
      <trkpt lat="45.75844" lon="-0.94372">
        <ele>56.154843</ele>
        <time>2022-12-22T10:58:21.562Z</time>
      </trkpt>
      <trkpt lat="45.75835" lon="-0.94377">
        <ele>56.187663</ele>
        <time>2022-12-22T10:58:23.563Z</time>
      </trkpt>
      <trkpt lat="45.75823" lon="-0.94383">
        <ele>56.235392</ele>
        <time>2022-12-22T10:58:26.569Z</time>
      </trkpt>
      <trkpt lat="45.75811" lon="-0.9439">
        <ele>56.281506</ele>
        <time>2022-12-22T10:58:29.574Z</time>
      </trkpt>
      <trkpt lat="45.758" lon="-0.94395">
        <ele>56.323885</ele>
        <time>2022-12-22T10:58:32.569Z</time>
      </trkpt>
      <trkpt lat="45.75788" lon="-0.94401">
        <ele>56.367817</ele>
        <time>2022-12-22T10:58:35.555Z</time>
      </trkpt>
      <trkpt lat="45.75777" lon="-0.94407">
        <ele>56.411995</ele>
        <time>2022-12-22T10:58:38.552Z</time>
      </trkpt>
      <trkpt lat="45.75765" lon="-0.94413">
        <ele>56.455817</ele>
        <time>2022-12-22T10:58:41.554Z</time>
      </trkpt>
      <trkpt lat="45.75754" lon="-0.9442">
        <ele>56.499575</ele>
        <time>2022-12-22T10:58:44.552Z</time>
      </trkpt>
      <trkpt lat="45.75743" lon="-0.94426">
        <ele>56.543735</ele>
        <time>2022-12-22T10:58:47.547Z</time>
      </trkpt>
      <trkpt lat="45.75731" lon="-0.94432">
        <ele>56.587725</ele>
        <time>2022-12-22T10:58:50.565Z</time>
      </trkpt>
      <trkpt lat="45.7572" lon="-0.94438">
        <ele>56.631208</ele>
        <time>2022-12-22T10:58:53.575Z</time>
      </trkpt>
      <trkpt lat="45.7571" lon="-0.94444">
        <ele>56.670659</ele>
        <time>2022-12-22T10:58:56.576Z</time>
      </trkpt>
      <trkpt lat="45.75701" lon="-0.94449">
        <ele>56.705532</ele>
        <time>2022-12-22T10:58:59.566Z</time>
      </trkpt>
      <trkpt lat="45.75692" lon="-0.94454">
        <ele>56.740976</ele>
        <time>2022-12-22T10:59:02.572Z</time>
      </trkpt>
      <trkpt lat="45.75683" lon="-0.94459">
        <ele>56.776142</ele>
        <time>2022-12-22T10:59:05.549Z</time>
      </trkpt>
      <trkpt lat="45.75674" lon="-0.94464">
        <ele>56.89469</ele>
        <time>2022-12-22T10:59:08.568Z</time>
      </trkpt>
      <trkpt lat="45.75664" lon="-0.9447">
        <ele>57.103985</ele>
        <time>2022-12-22T10:59:12.623Z</time>
      </trkpt>
      <trkpt lat="45.75654" lon="-0.94476">
        <ele>57.320725</ele>
        <time>2022-12-22T10:59:16.561Z</time>
      </trkpt>
      <trkpt lat="45.75644" lon="-0.94482">
        <ele>57.533045</ele>
        <time>2022-12-22T10:59:20.562Z</time>
      </trkpt>
      <trkpt lat="45.75633" lon="-0.94487">
        <ele>57.743148</ele>
        <time>2022-12-22T10:59:24.630Z</time>
      </trkpt>
      <trkpt lat="45.75623" lon="-0.94494">
        <ele>57.955075</ele>
        <time>2022-12-22T10:59:28.578Z</time>
      </trkpt>
      <trkpt lat="45.75614" lon="-0.94498">
        <ele>58.142285</ele>
        <time>2022-12-22T10:59:32.574Z</time>
      </trkpt>
      <trkpt lat="45.75605" lon="-0.94504">
        <ele>58.338521</ele>
        <time>2022-12-22T10:59:36.626Z</time>
      </trkpt>
      <trkpt lat="45.75595" lon="-0.94509">
        <ele>58.538112</ele>
        <time>2022-12-22T10:59:40.579Z</time>
      </trkpt>
      <trkpt lat="45.75586" lon="-0.94515">
        <ele>58.7423</ele>
        <time>2022-12-22T10:59:44.575Z</time>
      </trkpt>
      <trkpt lat="45.75576" lon="-0.9452">
        <ele>58.940934</ele>
        <time>2022-12-22T10:59:48.631Z</time>
      </trkpt>
      <trkpt lat="45.75567" lon="-0.94525">
        <ele>59.135105</ele>
        <time>2022-12-22T10:59:52.572Z</time>
      </trkpt>
      <trkpt lat="45.75558" lon="-0.9453">
        <ele>59.32189</ele>
        <time>2022-12-22T10:59:56.577Z</time>
      </trkpt>
      <trkpt lat="45.75548" lon="-0.94535">
        <ele>59.514597</ele>
        <time>2022-12-22T11:00:00.627Z</time>
      </trkpt>
      <trkpt lat="45.75539" lon="-0.9454">
        <ele>59.708769</ele>
        <time>2022-12-22T11:00:04.561Z</time>
      </trkpt>
      <trkpt lat="45.7553" lon="-0.94546">
        <ele>59.90269</ele>
        <time>2022-12-22T11:00:08.575Z</time>
      </trkpt>
      <trkpt lat="45.75521" lon="-0.94551">
        <ele>60.098398</ele>
        <time>2022-12-22T11:00:12.653Z</time>
      </trkpt>
      <trkpt lat="45.75512" lon="-0.94557">
        <ele>60.287776</ele>
        <time>2022-12-22T11:00:16.565Z</time>
      </trkpt>
      <trkpt lat="45.75503" lon="-0.94562">
        <ele>60.547216</ele>
        <time>2022-12-22T11:00:20.574Z</time>
      </trkpt>
      <trkpt lat="45.75492" lon="-0.94567">
        <ele>60.833478</ele>
        <time>2022-12-22T11:00:25.547Z</time>
      </trkpt>
      <trkpt lat="45.75482" lon="-0.9457">
        <ele>61.104218</ele>
        <time>2022-12-22T11:00:29.632Z</time>
      </trkpt>
      <trkpt lat="45.75473" lon="-0.94577">
        <ele>61.38192</ele>
        <time>2022-12-22T11:00:33.566Z</time>
      </trkpt>
      <trkpt lat="45.75463" lon="-0.94582">
        <ele>61.649383</ele>
        <time>2022-12-22T11:00:37.550Z</time>
      </trkpt>
      <trkpt lat="45.75453" lon="-0.94588">
        <ele>61.932432</ele>
        <time>2022-12-22T11:00:41.555Z</time>
      </trkpt>
      <trkpt lat="45.75444" lon="-0.94593">
        <ele>62.199896</ele>
        <time>2022-12-22T11:00:45.574Z</time>
      </trkpt>
      <trkpt lat="45.75434" lon="-0.94598">
        <ele>62.479063</ele>
        <time>2022-12-22T11:00:49.570Z</time>
      </trkpt>
      <trkpt lat="45.75423" lon="-0.94603">
        <ele>62.778974</ele>
        <time>2022-12-22T11:00:53.575Z</time>
      </trkpt>
      <trkpt lat="45.75414" lon="-0.94607">
        <ele>63.025338</ele>
        <time>2022-12-22T11:00:56.562Z</time>
      </trkpt>
      <trkpt lat="45.75405" lon="-0.94612">
        <ele>63.278525</ele>
        <time>2022-12-22T11:00:59.564Z</time>
      </trkpt>
      <trkpt lat="45.75396" lon="-0.94615">
        <ele>63.524782</ele>
        <time>2022-12-22T11:01:02.565Z</time>
      </trkpt>
      <trkpt lat="45.75387" lon="-0.94619">
        <ele>63.765986</ele>
        <time>2022-12-22T11:01:05.575Z</time>
      </trkpt>
      <trkpt lat="45.75378" lon="-0.94623">
        <ele>64.004153</ele>
        <time>2022-12-22T11:01:08.554Z</time>
      </trkpt>
      <trkpt lat="45.75369" lon="-0.94627">
        <ele>64.250922</ele>
        <time>2022-12-22T11:01:11.575Z</time>
      </trkpt>
      <trkpt lat="45.75359" lon="-0.94632">
        <ele>64.548084</ele>
        <time>2022-12-22T11:01:15.570Z</time>
      </trkpt>
      <trkpt lat="45.75347" lon="-0.94637">
        <ele>64.858299</ele>
        <time>2022-12-22T11:01:19.577Z</time>
      </trkpt>
      <trkpt lat="45.75336" lon="-0.94642">
        <ele>64.993058</ele>
        <time>2022-12-22T11:01:23.566Z</time>
      </trkpt>
      <trkpt lat="45.75327" lon="-0.94646">
        <ele>64.967054</ele>
        <time>2022-12-22T11:01:26.561Z</time>
      </trkpt>
      <trkpt lat="45.75318" lon="-0.9465">
        <ele>64.939265</ele>
        <time>2022-12-22T11:01:29.617Z</time>
      </trkpt>
      <trkpt lat="45.75309" lon="-0.94654">
        <ele>64.912155</ele>
        <time>2022-12-22T11:01:32.568Z</time>
      </trkpt>
      <trkpt lat="45.753" lon="-0.94657">
        <ele>64.885045</ele>
        <time>2022-12-22T11:01:35.622Z</time>
      </trkpt>
      <trkpt lat="45.7529" lon="-0.94661">
        <ele>64.856497</ele>
        <time>2022-12-22T11:01:38.565Z</time>
      </trkpt>
      <trkpt lat="45.75281" lon="-0.94666">
        <ele>64.826883</ele>
        <time>2022-12-22T11:01:41.628Z</time>
      </trkpt>
      <trkpt lat="45.75271" lon="-0.9467">
        <ele>64.798882</ele>
        <time>2022-12-22T11:01:44.576Z</time>
      </trkpt>
      <trkpt lat="45.75262" lon="-0.94674">
        <ele>64.77082</ele>
        <time>2022-12-22T11:01:47.588Z</time>
      </trkpt>
      <trkpt lat="45.75252" lon="-0.94678">
        <ele>64.741834</ele>
        <time>2022-12-22T11:01:50.574Z</time>
      </trkpt>
      <trkpt lat="45.75242" lon="-0.94682">
        <ele>64.711136</ele>
        <time>2022-12-22T11:01:53.621Z</time>
      </trkpt>
      <trkpt lat="45.75232" lon="-0.94687">
        <ele>64.680821</ele>
        <time>2022-12-22T11:01:56.568Z</time>
      </trkpt>
      <trkpt lat="45.75221" lon="-0.94691">
        <ele>64.648624</ele>
        <time>2022-12-22T11:01:59.610Z</time>
      </trkpt>
      <trkpt lat="45.7521" lon="-0.94696">
        <ele>64.615758</ele>
        <time>2022-12-22T11:02:02.572Z</time>
      </trkpt>
      <trkpt lat="45.75199" lon="-0.94701">
        <ele>64.583103</ele>
        <time>2022-12-22T11:02:05.629Z</time>
      </trkpt>
      <trkpt lat="45.75188" lon="-0.94706">
        <ele>64.549964</ele>
        <time>2022-12-22T11:02:08.575Z</time>
      </trkpt>
      <trkpt lat="45.75177" lon="-0.94711">
        <ele>64.515048</ele>
        <time>2022-12-22T11:02:11.563Z</time>
      </trkpt>
      <trkpt lat="45.75166" lon="-0.94715">
        <ele>64.476042</ele>
        <time>2022-12-22T11:02:14.563Z</time>
      </trkpt>
      <trkpt lat="45.75157" lon="-0.94719">
        <ele>64.429661</ele>
        <time>2022-12-22T11:02:17.549Z</time>
      </trkpt>
      <trkpt lat="45.75148" lon="-0.94722">
        <ele>64.382439</ele>
        <time>2022-12-22T11:02:20.576Z</time>
      </trkpt>
      <trkpt lat="45.75138" lon="-0.94727">
        <ele>64.332024</ele>
        <time>2022-12-22T11:02:23.575Z</time>
      </trkpt>
      <trkpt lat="45.75127" lon="-0.94731">
        <ele>64.279262</ele>
        <time>2022-12-22T11:02:26.574Z</time>
      </trkpt>
      <trkpt lat="45.75117" lon="-0.94735">
        <ele>64.226681</ele>
        <time>2022-12-22T11:02:29.575Z</time>
      </trkpt>
      <trkpt lat="45.75106" lon="-0.94741">
        <ele>64.1714</ele>
        <time>2022-12-22T11:02:32.575Z</time>
      </trkpt>
      <trkpt lat="45.75095" lon="-0.94745">
        <ele>64.11535</ele>
        <time>2022-12-22T11:02:35.572Z</time>
      </trkpt>
      <trkpt lat="45.75084" lon="-0.9475">
        <ele>64.0562</ele>
        <time>2022-12-22T11:02:38.628Z</time>
      </trkpt>
      <trkpt lat="45.75072" lon="-0.94756">
        <ele>63.996282</ele>
        <time>2022-12-22T11:02:41.549Z</time>
      </trkpt>
      <trkpt lat="45.75061" lon="-0.94761">
        <ele>63.938067</ele>
        <time>2022-12-22T11:02:44.558Z</time>
      </trkpt>
      <trkpt lat="45.7505" lon="-0.94765">
        <ele>63.881918</ele>
        <time>2022-12-22T11:02:47.557Z</time>
      </trkpt>
      <trkpt lat="45.75038" lon="-0.94771">
        <ele>63.823965</ele>
        <time>2022-12-22T11:02:50.570Z</time>
      </trkpt>
      <trkpt lat="45.75027" lon="-0.94775">
        <ele>63.767349</ele>
        <time>2022-12-22T11:02:53.563Z</time>
      </trkpt>
      <trkpt lat="45.75016" lon="-0.9478">
        <ele>63.711201</ele>
        <time>2022-12-22T11:02:56.563Z</time>
      </trkpt>
      <trkpt lat="45.75005" lon="-0.94785">
        <ele>63.654118</ele>
        <time>2022-12-22T11:02:59.575Z</time>
      </trkpt>
      <trkpt lat="45.74994" lon="-0.9479">
        <ele>63.594281</ele>
        <time>2022-12-22T11:03:02.573Z</time>
      </trkpt>
      <trkpt lat="45.74983" lon="-0.94795">
        <ele>63.523744</ele>
        <time>2022-12-22T11:03:05.574Z</time>
      </trkpt>
      <trkpt lat="45.74972" lon="-0.94799">
        <ele>63.454366</ele>
        <time>2022-12-22T11:03:08.562Z</time>
      </trkpt>
      <trkpt lat="45.74962" lon="-0.94803">
        <ele>63.395182</ele>
        <time>2022-12-22T11:03:11.574Z</time>
      </trkpt>
      <trkpt lat="45.74953" lon="-0.94807">
        <ele>63.335335</ele>
        <time>2022-12-22T11:03:14.562Z</time>
      </trkpt>
      <trkpt lat="45.74943" lon="-0.9481">
        <ele>63.27222</ele>
        <time>2022-12-22T11:03:17.599Z</time>
      </trkpt>
      <trkpt lat="45.74933" lon="-0.94815">
        <ele>63.208075</ele>
        <time>2022-12-22T11:03:20.570Z</time>
      </trkpt>
      <trkpt lat="45.74922" lon="-0.94819">
        <ele>63.139854</ele>
        <time>2022-12-22T11:03:23.553Z</time>
      </trkpt>
      <trkpt lat="45.74911" lon="-0.94824">
        <ele>63.068497</ele>
        <time>2022-12-22T11:03:26.575Z</time>
      </trkpt>
      <trkpt lat="45.74899" lon="-0.94829">
        <ele>62.994702</ele>
        <time>2022-12-22T11:03:29.566Z</time>
      </trkpt>
      <trkpt lat="45.74887" lon="-0.94834">
        <ele>62.921483</ele>
        <time>2022-12-22T11:03:32.571Z</time>
      </trkpt>
      <trkpt lat="45.74875" lon="-0.94838">
        <ele>62.848263</ele>
        <time>2022-12-22T11:03:35.576Z</time>
      </trkpt>
      <trkpt lat="45.74864" lon="-0.94843">
        <ele>62.775043</ele>
        <time>2022-12-22T11:03:38.549Z</time>
      </trkpt>
      <trkpt lat="45.74853" lon="-0.94847">
        <ele>62.708571</ele>
        <time>2022-12-22T11:03:41.563Z</time>
      </trkpt>
      <trkpt lat="45.74843" lon="-0.94851">
        <ele>62.643844</ele>
        <time>2022-12-22T11:03:44.574Z</time>
      </trkpt>
      <trkpt lat="45.74832" lon="-0.94856">
        <ele>62.573887</ele>
        <time>2022-12-22T11:03:47.554Z</time>
      </trkpt>
      <trkpt lat="45.7482" lon="-0.9486">
        <ele>62.643824</ele>
        <time>2022-12-22T11:03:50.578Z</time>
      </trkpt>
      <trkpt lat="45.74808" lon="-0.94866">
        <ele>62.932514</ele>
        <time>2022-12-22T11:03:53.570Z</time>
      </trkpt>
      <trkpt lat="45.74796" lon="-0.9487">
        <ele>63.219381</ele>
        <time>2022-12-22T11:03:56.574Z</time>
      </trkpt>
      <trkpt lat="45.74785" lon="-0.94876">
        <ele>63.496507</ele>
        <time>2022-12-22T11:03:59.575Z</time>
      </trkpt>
      <trkpt lat="45.74774" lon="-0.9488">
        <ele>63.755731</ele>
        <time>2022-12-22T11:04:02.576Z</time>
      </trkpt>
      <trkpt lat="45.74764" lon="-0.94884">
        <ele>63.99309</ele>
        <time>2022-12-22T11:04:05.558Z</time>
      </trkpt>
      <trkpt lat="45.74755" lon="-0.94888">
        <ele>64.221533</ele>
        <time>2022-12-22T11:04:08.572Z</time>
      </trkpt>
      <trkpt lat="45.74744" lon="-0.94892">
        <ele>64.466502</ele>
        <time>2022-12-22T11:04:11.572Z</time>
      </trkpt>
      <trkpt lat="45.74733" lon="-0.94896">
        <ele>64.729722</ele>
        <time>2022-12-22T11:04:14.574Z</time>
      </trkpt>
      <trkpt lat="45.74723" lon="-0.94901">
        <ele>64.985804</ele>
        <time>2022-12-22T11:04:17.546Z</time>
      </trkpt>
      <trkpt lat="45.74712" lon="-0.94906">
        <ele>65.257541</ele>
        <time>2022-12-22T11:04:21.577Z</time>
      </trkpt>
      <trkpt lat="45.74701" lon="-0.94911">
        <ele>65.515993</ele>
        <time>2022-12-22T11:04:25.564Z</time>
      </trkpt>
      <trkpt lat="45.74692" lon="-0.94915">
        <ele>65.746486</ele>
        <time>2022-12-22T11:04:29.570Z</time>
      </trkpt>
      <trkpt lat="45.74682" lon="-0.94919">
        <ele>65.971342</ele>
        <time>2022-12-22T11:04:33.569Z</time>
      </trkpt>
      <trkpt lat="45.74673" lon="-0.94923">
        <ele>66.191747</ele>
        <time>2022-12-22T11:04:37.598Z</time>
      </trkpt>
      <trkpt lat="45.74664" lon="-0.94926">
        <ele>66.40807</ele>
        <time>2022-12-22T11:04:41.563Z</time>
      </trkpt>
      <trkpt lat="45.74653" lon="-0.94929">
        <ele>66.669889</ele>
        <time>2022-12-22T11:04:46.565Z</time>
      </trkpt>
      <trkpt lat="45.74643" lon="-0.94931">
        <ele>66.666804</ele>
        <time>2022-12-22T11:04:51.577Z</time>
      </trkpt>
      <trkpt lat="45.74633" lon="-0.94934">
        <ele>66.629686</ele>
        <time>2022-12-22T11:04:56.570Z</time>
      </trkpt>
      <trkpt lat="45.74622" lon="-0.94934">
        <ele>66.587765</ele>
        <time>2022-12-22T11:05:01.626Z</time>
      </trkpt>
      <trkpt lat="45.74613" lon="-0.94933">
        <ele>66.550411</ele>
        <time>2022-12-22T11:05:05.568Z</time>
      </trkpt>
      <trkpt lat="45.74602" lon="-0.94932">
        <ele>66.507248</ele>
        <time>2022-12-22T11:05:09.564Z</time>
      </trkpt>
      <trkpt lat="45.7459" lon="-0.9493">
        <ele>66.462676</ele>
        <time>2022-12-22T11:05:13.620Z</time>
      </trkpt>
      <trkpt lat="45.74579" lon="-0.94929">
        <ele>66.41909</ele>
        <time>2022-12-22T11:05:17.557Z</time>
      </trkpt>
      <trkpt lat="45.74569" lon="-0.94927">
        <ele>66.380123</ele>
        <time>2022-12-22T11:05:20.567Z</time>
      </trkpt>
      <trkpt lat="45.74559" lon="-0.94924">
        <ele>66.340632</ele>
        <time>2022-12-22T11:05:23.563Z</time>
      </trkpt>
      <trkpt lat="45.74549" lon="-0.94922">
        <ele>66.299279</ele>
        <time>2022-12-22T11:05:26.574Z</time>
      </trkpt>
      <trkpt lat="45.74538" lon="-0.94918">
        <ele>66.254905</ele>
        <time>2022-12-22T11:05:29.576Z</time>
      </trkpt>
      <trkpt lat="45.74526" lon="-0.94915">
        <ele>66.210203</ele>
        <time>2022-12-22T11:05:32.572Z</time>
      </trkpt>
      <trkpt lat="45.74515" lon="-0.94912">
        <ele>66.165553</ele>
        <time>2022-12-22T11:05:35.573Z</time>
      </trkpt>
      <trkpt lat="45.74504" lon="-0.94909">
        <ele>66.120471</ele>
        <time>2022-12-22T11:05:38.576Z</time>
      </trkpt>
      <trkpt lat="45.74493" lon="-0.94906">
        <ele>66.078209</ele>
        <time>2022-12-22T11:05:41.577Z</time>
      </trkpt>
      <trkpt lat="45.74482" lon="-0.94903">
        <ele>66.034516</ele>
        <time>2022-12-22T11:05:44.569Z</time>
      </trkpt>
      <trkpt lat="45.7447" lon="-0.94901">
        <ele>65.985636</ele>
        <time>2022-12-22T11:05:47.550Z</time>
      </trkpt>
      <trkpt lat="45.74459" lon="-0.94898">
        <ele>65.930841</ele>
        <time>2022-12-22T11:05:50.563Z</time>
      </trkpt>
      <trkpt lat="45.74447" lon="-0.94894">
        <ele>65.873664</ele>
        <time>2022-12-22T11:05:53.577Z</time>
      </trkpt>
      <trkpt lat="45.74435" lon="-0.94891">
        <ele>65.816196</ele>
        <time>2022-12-22T11:05:56.553Z</time>
      </trkpt>
      <trkpt lat="45.74423" lon="-0.94889">
        <ele>65.760471</ele>
        <time>2022-12-22T11:05:59.568Z</time>
      </trkpt>
      <trkpt lat="45.74411" lon="-0.94888">
        <ele>65.704937</ele>
        <time>2022-12-22T11:06:02.573Z</time>
      </trkpt>
      <trkpt lat="45.74399" lon="-0.94887">
        <ele>65.648191</ele>
        <time>2022-12-22T11:06:05.575Z</time>
      </trkpt>
      <trkpt lat="45.74388" lon="-0.94886">
        <ele>65.592877</ele>
        <time>2022-12-22T11:06:08.573Z</time>
      </trkpt>
      <trkpt lat="45.74376" lon="-0.94886">
        <ele>65.538094</ele>
        <time>2022-12-22T11:06:11.574Z</time>
      </trkpt>
      <trkpt lat="45.74364" lon="-0.94886">
        <ele>65.482323</ele>
        <time>2022-12-22T11:06:14.562Z</time>
      </trkpt>
      <trkpt lat="45.74353" lon="-0.94888">
        <ele>65.426906</ele>
        <time>2022-12-22T11:06:17.547Z</time>
      </trkpt>
      <trkpt lat="45.74341" lon="-0.94889">
        <ele>65.373869</ele>
        <time>2022-12-22T11:06:20.569Z</time>
      </trkpt>
      <trkpt lat="45.7433" lon="-0.94891">
        <ele>65.32014</ele>
        <time>2022-12-22T11:06:23.576Z</time>
      </trkpt>
      <trkpt lat="45.7432" lon="-0.94893">
        <ele>65.269929</ele>
        <time>2022-12-22T11:06:26.572Z</time>
      </trkpt>
      <trkpt lat="45.74309" lon="-0.94895">
        <ele>65.219769</ele>
        <time>2022-12-22T11:06:29.543Z</time>
      </trkpt>
      <trkpt lat="45.74298" lon="-0.94898">
        <ele>65.166022</ele>
        <time>2022-12-22T11:06:33.573Z</time>
      </trkpt>
      <trkpt lat="45.74288" lon="-0.94901">
        <ele>65.110236</ele>
        <time>2022-12-22T11:06:36.631Z</time>
      </trkpt>
      <trkpt lat="45.74278" lon="-0.94904">
        <ele>65.052686</ele>
        <time>2022-12-22T11:06:39.572Z</time>
      </trkpt>
      <trkpt lat="45.74268" lon="-0.94908">
        <ele>64.996232</ele>
        <time>2022-12-22T11:06:42.558Z</time>
      </trkpt>
      <trkpt lat="45.74258" lon="-0.94911">
        <ele>64.938414</ele>
        <time>2022-12-22T11:06:45.572Z</time>
      </trkpt>
      <trkpt lat="45.74248" lon="-0.94915">
        <ele>64.878411</ele>
        <time>2022-12-22T11:06:48.563Z</time>
      </trkpt>
      <trkpt lat="45.74238" lon="-0.94919">
        <ele>64.821284</ele>
        <time>2022-12-22T11:06:51.552Z</time>
      </trkpt>
      <trkpt lat="45.74229" lon="-0.94922">
        <ele>64.767073</ele>
        <time>2022-12-22T11:06:54.565Z</time>
      </trkpt>
      <trkpt lat="45.74218" lon="-0.94926">
        <ele>64.703332</ele>
        <time>2022-12-22T11:06:58.632Z</time>
      </trkpt>
      <trkpt lat="45.74209" lon="-0.9493">
        <ele>64.651597</ele>
        <time>2022-12-22T11:07:01.569Z</time>
      </trkpt>
      <trkpt lat="45.74199" lon="-0.94933">
        <ele>64.597331</ele>
        <time>2022-12-22T11:07:04.620Z</time>
      </trkpt>
      <trkpt lat="45.7419" lon="-0.94937">
        <ele>64.542143</ele>
        <time>2022-12-22T11:07:07.554Z</time>
      </trkpt>
      <trkpt lat="45.7418" lon="-0.94941">
        <ele>64.485319</ele>
        <time>2022-12-22T11:07:10.617Z</time>
      </trkpt>
      <trkpt lat="45.7417" lon="-0.94944">
        <ele>64.429274</ele>
        <time>2022-12-22T11:07:13.547Z</time>
      </trkpt>
      <trkpt lat="45.7416" lon="-0.94948">
        <ele>64.367903</ele>
        <time>2022-12-22T11:07:16.629Z</time>
      </trkpt>
      <trkpt lat="45.74149" lon="-0.94952">
        <ele>64.305076</ele>
        <time>2022-12-22T11:07:19.576Z</time>
      </trkpt>
      <trkpt lat="45.74138" lon="-0.94956">
        <ele>64.238963</ele>
        <time>2022-12-22T11:07:22.624Z</time>
      </trkpt>
      <trkpt lat="45.74126" lon="-0.94961">
        <ele>64.170278</ele>
        <time>2022-12-22T11:07:25.560Z</time>
      </trkpt>
      <trkpt lat="45.74114" lon="-0.94965">
        <ele>64.086694</ele>
        <time>2022-12-22T11:07:28.572Z</time>
      </trkpt>
      <trkpt lat="45.74103" lon="-0.94969">
        <ele>63.994974</ele>
        <time>2022-12-22T11:07:31.562Z</time>
      </trkpt>
      <trkpt lat="45.74092" lon="-0.94973">
        <ele>63.901575</ele>
        <time>2022-12-22T11:07:34.559Z</time>
      </trkpt>
      <trkpt lat="45.74082" lon="-0.94976">
        <ele>63.824037</ele>
        <time>2022-12-22T11:07:37.554Z</time>
      </trkpt>
      <trkpt lat="45.74073" lon="-0.9498">
        <ele>63.74678</ele>
        <time>2022-12-22T11:07:40.564Z</time>
      </trkpt>
      <trkpt lat="45.74063" lon="-0.94984">
        <ele>63.660969</ele>
        <time>2022-12-22T11:07:43.572Z</time>
      </trkpt>
      <trkpt lat="45.74052" lon="-0.94989">
        <ele>63.572411</ele>
        <time>2022-12-22T11:07:46.544Z</time>
      </trkpt>
      <trkpt lat="45.74041" lon="-0.94993">
        <ele>63.480292</ele>
        <time>2022-12-22T11:07:49.574Z</time>
      </trkpt>
      <trkpt lat="45.74029" lon="-0.94997">
        <ele>63.387668</ele>
        <time>2022-12-22T11:07:52.561Z</time>
      </trkpt>
      <trkpt lat="45.74018" lon="-0.95001">
        <ele>63.294912</ele>
        <time>2022-12-22T11:07:55.573Z</time>
      </trkpt>
      <trkpt lat="45.74007" lon="-0.95005">
        <ele>63.201111</ele>
        <time>2022-12-22T11:07:58.582Z</time>
      </trkpt>
      <trkpt lat="45.73995" lon="-0.9501">
        <ele>63.105813</ele>
        <time>2022-12-22T11:08:01.576Z</time>
      </trkpt>
      <trkpt lat="45.73984" lon="-0.95014">
        <ele>63.009419</ele>
        <time>2022-12-22T11:08:04.571Z</time>
      </trkpt>
      <trkpt lat="45.73972" lon="-0.95019">
        <ele>62.914121</ele>
        <time>2022-12-22T11:08:07.641Z</time>
      </trkpt>
      <trkpt lat="45.73961" lon="-0.95023">
        <ele>62.821863</ele>
        <time>2022-12-22T11:08:10.576Z</time>
      </trkpt>
      <trkpt lat="45.73951" lon="-0.95027">
        <ele>62.739585</ele>
        <time>2022-12-22T11:08:13.624Z</time>
      </trkpt>
      <trkpt lat="45.73942" lon="-0.95031">
        <ele>62.653934</ele>
        <time>2022-12-22T11:08:16.575Z</time>
      </trkpt>
      <trkpt lat="45.73932" lon="-0.95036">
        <ele>62.557616</ele>
        <time>2022-12-22T11:08:19.633Z</time>
      </trkpt>
      <trkpt lat="45.73922" lon="-0.95041">
        <ele>62.452517</ele>
        <time>2022-12-22T11:08:22.576Z</time>
      </trkpt>
      <trkpt lat="45.73911" lon="-0.95046">
        <ele>62.342994</ele>
        <time>2022-12-22T11:08:25.612Z</time>
      </trkpt>
      <trkpt lat="45.739" lon="-0.95052">
        <ele>62.227608</ele>
        <time>2022-12-22T11:08:28.565Z</time>
      </trkpt>
      <trkpt lat="45.73888" lon="-0.95059">
        <ele>62.109075</ele>
        <time>2022-12-22T11:08:31.572Z</time>
      </trkpt>
      <trkpt lat="45.73877" lon="-0.95065">
        <ele>61.991577</ele>
        <time>2022-12-22T11:08:34.576Z</time>
      </trkpt>
      <trkpt lat="45.73866" lon="-0.95071">
        <ele>61.883612</ele>
        <time>2022-12-22T11:08:37.564Z</time>
      </trkpt>
      <trkpt lat="45.73856" lon="-0.95077">
        <ele>61.776818</ele>
        <time>2022-12-22T11:08:40.575Z</time>
      </trkpt>
      <trkpt lat="45.73845" lon="-0.95084">
        <ele>61.663452</ele>
        <time>2022-12-22T11:08:43.555Z</time>
      </trkpt>
      <trkpt lat="45.73833" lon="-0.95091">
        <ele>61.544264</ele>
        <time>2022-12-22T11:08:46.550Z</time>
      </trkpt>
      <trkpt lat="45.73821" lon="-0.95097">
        <ele>61.424359</ele>
        <time>2022-12-22T11:08:49.571Z</time>
      </trkpt>
      <trkpt lat="45.7381" lon="-0.95104">
        <ele>61.310012</ele>
        <time>2022-12-22T11:08:52.567Z</time>
      </trkpt>
      <trkpt lat="45.738" lon="-0.9511">
        <ele>61.201717</ele>
        <time>2022-12-22T11:08:55.574Z</time>
      </trkpt>
      <trkpt lat="45.7379" lon="-0.95116">
        <ele>61.096673</ele>
        <time>2022-12-22T11:08:58.574Z</time>
      </trkpt>
      <trkpt lat="45.73779" lon="-0.95122">
        <ele>60.968266</ele>
        <time>2022-12-22T11:09:01.577Z</time>
      </trkpt>
      <trkpt lat="45.73767" lon="-0.95129">
        <ele>60.729875</ele>
        <time>2022-12-22T11:09:04.575Z</time>
      </trkpt>
      <trkpt lat="45.73755" lon="-0.95136">
        <ele>60.480245</ele>
        <time>2022-12-22T11:09:07.571Z</time>
      </trkpt>
      <trkpt lat="45.73743" lon="-0.95143">
        <ele>60.242345</ele>
        <time>2022-12-22T11:09:10.571Z</time>
      </trkpt>
      <trkpt lat="45.73732" lon="-0.9515">
        <ele>60.019608</ele>
        <time>2022-12-22T11:09:13.574Z</time>
      </trkpt>
      <trkpt lat="45.73722" lon="-0.95157">
        <ele>59.798678</ele>
        <time>2022-12-22T11:09:16.577Z</time>
      </trkpt>
      <trkpt lat="45.7371" lon="-0.95164">
        <ele>59.559989</ele>
        <time>2022-12-22T11:09:19.574Z</time>
      </trkpt>
      <trkpt lat="45.73698" lon="-0.95172">
        <ele>59.319042</ele>
        <time>2022-12-22T11:09:22.577Z</time>
      </trkpt>
      <trkpt lat="45.73687" lon="-0.9518">
        <ele>59.075395</ele>
        <time>2022-12-22T11:09:25.562Z</time>
      </trkpt>
      <trkpt lat="45.73675" lon="-0.95188">
        <ele>58.833954</ele>
        <time>2022-12-22T11:09:28.572Z</time>
      </trkpt>
      <trkpt lat="45.73664" lon="-0.95197">
        <ele>58.592774</ele>
        <time>2022-12-22T11:09:31.578Z</time>
      </trkpt>
      <trkpt lat="45.73654" lon="-0.95205">
        <ele>58.367613</ele>
        <time>2022-12-22T11:09:34.573Z</time>
      </trkpt>
      <trkpt lat="45.73645" lon="-0.95213">
        <ele>58.17131</ele>
        <time>2022-12-22T11:09:37.556Z</time>
      </trkpt>
      <trkpt lat="45.73636" lon="-0.95221">
        <ele>57.983254</ele>
        <time>2022-12-22T11:09:40.573Z</time>
      </trkpt>
      <trkpt lat="45.73627" lon="-0.9523">
        <ele>57.771422</ele>
        <time>2022-12-22T11:09:43.576Z</time>
      </trkpt>
      <trkpt lat="45.73617" lon="-0.9524">
        <ele>57.488422</ele>
        <time>2022-12-22T11:09:46.568Z</time>
      </trkpt>
      <trkpt lat="45.73607" lon="-0.9525">
        <ele>57.042763</ele>
        <time>2022-12-22T11:09:49.573Z</time>
      </trkpt>
      <trkpt lat="45.73597" lon="-0.9526">
        <ele>56.605724</ele>
        <time>2022-12-22T11:09:52.607Z</time>
      </trkpt>
      <trkpt lat="45.73588" lon="-0.9527">
        <ele>56.192012</ele>
        <time>2022-12-22T11:09:55.576Z</time>
      </trkpt>
      <trkpt lat="45.73579" lon="-0.95278">
        <ele>55.815751</ele>
        <time>2022-12-22T11:09:58.653Z</time>
      </trkpt>
      <trkpt lat="45.73571" lon="-0.95286">
        <ele>55.481654</ele>
        <time>2022-12-22T11:10:01.571Z</time>
      </trkpt>
      <trkpt lat="45.73563" lon="-0.95294">
        <ele>55.127358</ele>
        <time>2022-12-22T11:10:04.634Z</time>
      </trkpt>
      <trkpt lat="45.73554" lon="-0.95304">
        <ele>54.732481</ele>
        <time>2022-12-22T11:10:07.552Z</time>
      </trkpt>
      <trkpt lat="45.73544" lon="-0.95313">
        <ele>54.305673</ele>
        <time>2022-12-22T11:10:10.631Z</time>
      </trkpt>
      <trkpt lat="45.73535" lon="-0.95324">
        <ele>53.870185</ele>
        <time>2022-12-22T11:10:13.563Z</time>
      </trkpt>
      <trkpt lat="45.73525" lon="-0.95333">
        <ele>53.453569</ele>
        <time>2022-12-22T11:10:16.612Z</time>
      </trkpt>
      <trkpt lat="45.73515" lon="-0.95344">
        <ele>53.02238</ele>
        <time>2022-12-22T11:10:19.560Z</time>
      </trkpt>
      <trkpt lat="45.73506" lon="-0.95353">
        <ele>52.618768</ele>
        <time>2022-12-22T11:10:22.610Z</time>
      </trkpt>
      <trkpt lat="45.73497" lon="-0.95362">
        <ele>52.210861</ele>
        <time>2022-12-22T11:10:25.564Z</time>
      </trkpt>
      <trkpt lat="45.73487" lon="-0.95371">
        <ele>51.807095</ele>
        <time>2022-12-22T11:10:28.638Z</time>
      </trkpt>
      <trkpt lat="45.73478" lon="-0.9538">
        <ele>51.423713</ele>
        <time>2022-12-22T11:10:31.561Z</time>
      </trkpt>
      <trkpt lat="45.7347" lon="-0.95388">
        <ele>51.189971</ele>
        <time>2022-12-22T11:10:34.577Z</time>
      </trkpt>
      <trkpt lat="45.73462" lon="-0.95396">
        <ele>51.242101</ele>
        <time>2022-12-22T11:10:37.555Z</time>
      </trkpt>
      <trkpt lat="45.73452" lon="-0.95405">
        <ele>51.299068</ele>
        <time>2022-12-22T11:10:40.560Z</time>
      </trkpt>
      <trkpt lat="45.73442" lon="-0.95414">
        <ele>51.357043</ele>
        <time>2022-12-22T11:10:43.575Z</time>
      </trkpt>
      <trkpt lat="45.73432" lon="-0.95424">
        <ele>51.415166</ele>
        <time>2022-12-22T11:10:46.573Z</time>
      </trkpt>
      <trkpt lat="45.73422" lon="-0.95433">
        <ele>51.474566</ele>
        <time>2022-12-22T11:10:49.568Z</time>
      </trkpt>
      <trkpt lat="45.73411" lon="-0.95442">
        <ele>51.536899</ele>
        <time>2022-12-22T11:10:52.553Z</time>
      </trkpt>
      <trkpt lat="45.73401" lon="-0.9545">
        <ele>51.593456</ele>
        <time>2022-12-22T11:10:55.572Z</time>
      </trkpt>
      <trkpt lat="45.73392" lon="-0.95457">
        <ele>51.6425</ele>
        <time>2022-12-22T11:10:58.567Z</time>
      </trkpt>
      <trkpt lat="45.73383" lon="-0.95463">
        <ele>51.690796</ele>
        <time>2022-12-22T11:11:01.575Z</time>
      </trkpt>
      <trkpt lat="45.73374" lon="-0.9547">
        <ele>51.742641</ele>
        <time>2022-12-22T11:11:04.576Z</time>
      </trkpt>
      <trkpt lat="45.73364" lon="-0.95477">
        <ele>51.79637</ele>
        <time>2022-12-22T11:11:07.550Z</time>
      </trkpt>
      <trkpt lat="45.73354" lon="-0.95485">
        <ele>51.850312</ele>
        <time>2022-12-22T11:11:10.579Z</time>
      </trkpt>
      <trkpt lat="45.73345" lon="-0.95492">
        <ele>51.903473</ele>
        <time>2022-12-22T11:11:13.551Z</time>
      </trkpt>
      <trkpt lat="45.73335" lon="-0.95499">
        <ele>51.953388</ele>
        <time>2022-12-22T11:11:16.572Z</time>
      </trkpt>
      <trkpt lat="45.73326" lon="-0.95507">
        <ele>52.006636</ele>
        <time>2022-12-22T11:11:20.575Z</time>
      </trkpt>
      <trkpt lat="45.73315" lon="-0.95513">
        <ele>52.081322</ele>
        <time>2022-12-22T11:11:24.566Z</time>
      </trkpt>
      <trkpt lat="45.73305" lon="-0.95521">
        <ele>52.322066</ele>
        <time>2022-12-22T11:11:28.581Z</time>
      </trkpt>
      <trkpt lat="45.73295" lon="-0.95527">
        <ele>52.553978</ele>
        <time>2022-12-22T11:11:32.574Z</time>
      </trkpt>
      <trkpt lat="45.73285" lon="-0.95534">
        <ele>52.790896</ele>
        <time>2022-12-22T11:11:36.582Z</time>
      </trkpt>
      <trkpt lat="45.73275" lon="-0.95541">
        <ele>53.024701</ele>
        <time>2022-12-22T11:11:40.575Z</time>
      </trkpt>
      <trkpt lat="45.73265" lon="-0.95548">
        <ele>53.253002</ele>
        <time>2022-12-22T11:11:44.634Z</time>
      </trkpt>
      <trkpt lat="45.73255" lon="-0.95555">
        <ele>53.478658</ele>
        <time>2022-12-22T11:11:48.584Z</time>
      </trkpt>
      <trkpt lat="45.73245" lon="-0.95563">
        <ele>53.709481</ele>
        <time>2022-12-22T11:11:52.577Z</time>
      </trkpt>
      <trkpt lat="45.73235" lon="-0.9557">
        <ele>53.943261</ele>
        <time>2022-12-22T11:11:56.615Z</time>
      </trkpt>
      <trkpt lat="45.73226" lon="-0.95577">
        <ele>54.168573</ele>
        <time>2022-12-22T11:12:00.570Z</time>
      </trkpt>
      <trkpt lat="45.73217" lon="-0.95585">
        <ele>54.3885</ele>
        <time>2022-12-22T11:12:04.567Z</time>
      </trkpt>
      <trkpt lat="45.73207" lon="-0.95593">
        <ele>54.620989</ele>
        <time>2022-12-22T11:12:08.623Z</time>
      </trkpt>
      <trkpt lat="45.73198" lon="-0.95603">
        <ele>54.855769</ele>
        <time>2022-12-22T11:12:12.573Z</time>
      </trkpt>
      <trkpt lat="45.73192" lon="-0.95617">
        <ele>55.093338</ele>
        <time>2022-12-22T11:12:16.576Z</time>
      </trkpt>
      <trkpt lat="45.73189" lon="-0.95633">
        <ele>55.332747</ele>
        <time>2022-12-22T11:12:20.625Z</time>
      </trkpt>
      <trkpt lat="45.73184" lon="-0.95643">
        <ele>55.52959</ele>
        <time>2022-12-22T11:12:24.573Z</time>
      </trkpt>
      <trkpt lat="45.73175" lon="-0.95651">
        <ele>55.749068</ele>
        <time>2022-12-22T11:12:28.565Z</time>
      </trkpt>
      <trkpt lat="45.73164" lon="-0.95651">
        <ele>55.770508</ele>
        <time>2022-12-22T11:12:32.564Z</time>
      </trkpt>
      <trkpt lat="45.73154" lon="-0.95651">
        <ele>55.731078</ele>
        <time>2022-12-22T11:12:36.571Z</time>
      </trkpt>
      <trkpt lat="45.73147" lon="-0.95663">
        <ele>55.685484</ele>
        <time>2022-12-22T11:12:41.576Z</time>
      </trkpt>
      <trkpt lat="45.73137" lon="-0.95674">
        <ele>55.637206</ele>
        <time>2022-12-22T11:12:45.553Z</time>
      </trkpt>
      <trkpt lat="45.73128" lon="-0.95684">
        <ele>55.590445</ele>
        <time>2022-12-22T11:12:49.627Z</time>
      </trkpt>
      <trkpt lat="45.73121" lon="-0.95693">
        <ele>55.552514</ele>
        <time>2022-12-22T11:12:52.573Z</time>
      </trkpt>
      <trkpt lat="45.73113" lon="-0.95703">
        <ele>55.507535</ele>
        <time>2022-12-22T11:12:55.628Z</time>
      </trkpt>
      <trkpt lat="45.73104" lon="-0.95715">
        <ele>55.459497</ele>
        <time>2022-12-22T11:12:58.577Z</time>
      </trkpt>
      <trkpt lat="45.73095" lon="-0.95726">
        <ele>55.411157</ele>
        <time>2022-12-22T11:13:01.630Z</time>
      </trkpt>
      <trkpt lat="45.73087" lon="-0.95736">
        <ele>55.367692</ele>
        <time>2022-12-22T11:13:04.577Z</time>
      </trkpt>
      <trkpt lat="45.7308" lon="-0.95745">
        <ele>55.32805</ele>
        <time>2022-12-22T11:13:07.610Z</time>
      </trkpt>
      <trkpt lat="45.73072" lon="-0.95755">
        <ele>55.284438</ele>
        <time>2022-12-22T11:13:10.574Z</time>
      </trkpt>
      <trkpt lat="45.73063" lon="-0.95767">
        <ele>55.237208</ele>
        <time>2022-12-22T11:13:13.609Z</time>
      </trkpt>
      <trkpt lat="45.73054" lon="-0.95779">
        <ele>55.186441</ele>
        <time>2022-12-22T11:13:16.574Z</time>
      </trkpt>
      <trkpt lat="45.73045" lon="-0.95791">
        <ele>55.134581</ele>
        <time>2022-12-22T11:13:19.620Z</time>
      </trkpt>
      <trkpt lat="45.73036" lon="-0.95803">
        <ele>55.08548</ele>
        <time>2022-12-22T11:13:22.569Z</time>
      </trkpt>
      <trkpt lat="45.73027" lon="-0.95815">
        <ele>54.972111</ele>
        <time>2022-12-22T11:13:25.635Z</time>
      </trkpt>
      <trkpt lat="45.73019" lon="-0.95826">
        <ele>54.847197</ele>
        <time>2022-12-22T11:13:28.567Z</time>
      </trkpt>
      <trkpt lat="45.73011" lon="-0.95837">
        <ele>54.730459</ele>
        <time>2022-12-22T11:13:31.576Z</time>
      </trkpt>
      <trkpt lat="45.73005" lon="-0.95847">
        <ele>54.625638</ele>
        <time>2022-12-22T11:13:34.579Z</time>
      </trkpt>
      <trkpt lat="45.72998" lon="-0.95857">
        <ele>54.519911</ele>
        <time>2022-12-22T11:13:37.548Z</time>
      </trkpt>
      <trkpt lat="45.7299" lon="-0.95868">
        <ele>54.40291</ele>
        <time>2022-12-22T11:13:40.576Z</time>
      </trkpt>
      <trkpt lat="45.72983" lon="-0.95879">
        <ele>54.28771</ele>
        <time>2022-12-22T11:13:43.575Z</time>
      </trkpt>
      <trkpt lat="45.72976" lon="-0.95888">
        <ele>54.18871</ele>
        <time>2022-12-22T11:13:46.574Z</time>
      </trkpt>
      <trkpt lat="45.72969" lon="-0.95899">
        <ele>54.069586</ele>
        <time>2022-12-22T11:13:50.576Z</time>
      </trkpt>
      <trkpt lat="45.72961" lon="-0.95911">
        <ele>53.948553</ele>
        <time>2022-12-22T11:13:55.546Z</time>
      </trkpt>
      <trkpt lat="45.72955" lon="-0.95923">
        <ele>53.836503</ele>
        <time>2022-12-22T11:14:00.541Z</time>
      </trkpt>
      <trkpt lat="45.72944" lon="-0.95923">
        <ele>53.717628</ele>
        <time>2022-12-22T11:16:03.579Z</time>
      </trkpt>
      <trkpt lat="45.72937" lon="-0.95933">
        <ele>53.606666</ele>
        <time>2022-12-22T11:16:06.624Z</time>
      </trkpt>
      <trkpt lat="45.72928" lon="-0.95945">
        <ele>53.476221</ele>
        <time>2022-12-22T11:16:09.555Z</time>
      </trkpt>
      <trkpt lat="45.7292" lon="-0.95957">
        <ele>53.347346</ele>
        <time>2022-12-22T11:16:12.555Z</time>
      </trkpt>
      <trkpt lat="45.72911" lon="-0.95968">
        <ele>53.220362</ele>
        <time>2022-12-22T11:16:15.573Z</time>
      </trkpt>
      <trkpt lat="45.72903" lon="-0.9598">
        <ele>53.127403</ele>
        <time>2022-12-22T11:16:18.576Z</time>
      </trkpt>
      <trkpt lat="45.72895" lon="-0.95992">
        <ele>53.235012</ele>
        <time>2022-12-22T11:16:21.577Z</time>
      </trkpt>
      <trkpt lat="45.72886" lon="-0.96004">
        <ele>53.345658</ele>
        <time>2022-12-22T11:16:24.574Z</time>
      </trkpt>
      <trkpt lat="45.72877" lon="-0.96017">
        <ele>53.456612</ele>
        <time>2022-12-22T11:16:27.555Z</time>
      </trkpt>
      <trkpt lat="45.72868" lon="-0.9603">
        <ele>53.572743</ele>
        <time>2022-12-22T11:16:30.576Z</time>
      </trkpt>
      <trkpt lat="45.72862" lon="-0.96039">
        <ele>53.65563</ele>
        <time>2022-12-22T11:16:32.564Z</time>
      </trkpt>
      <trkpt lat="45.72855" lon="-0.96048">
        <ele>53.738514</ele>
        <time>2022-12-22T11:16:34.571Z</time>
      </trkpt>
      <trkpt lat="45.72845" lon="-0.96061">
        <ele>53.862293</ele>
        <time>2022-12-22T11:16:37.553Z</time>
      </trkpt>
      <trkpt lat="45.72835" lon="-0.96073">
        <ele>53.980066</ele>
        <time>2022-12-22T11:16:40.629Z</time>
      </trkpt>
      <trkpt lat="45.72825" lon="-0.96085">
        <ele>54.097704</ele>
        <time>2022-12-22T11:16:43.568Z</time>
      </trkpt>
      <trkpt lat="45.72815" lon="-0.96097">
        <ele>54.214737</ele>
        <time>2022-12-22T11:16:46.649Z</time>
      </trkpt>
      <trkpt lat="45.72805" lon="-0.96109">
        <ele>54.340087</ele>
        <time>2022-12-22T11:16:49.575Z</time>
      </trkpt>
      <trkpt lat="45.72797" lon="-0.96117">
        <ele>54.424566</ele>
        <time>2022-12-22T11:16:51.560Z</time>
      </trkpt>
      <trkpt lat="45.72787" lon="-0.96129">
        <ele>54.541532</ele>
        <time>2022-12-22T11:16:54.570Z</time>
      </trkpt>
      <trkpt lat="45.72777" lon="-0.9614">
        <ele>54.656849</ele>
        <time>2022-12-22T11:16:57.589Z</time>
      </trkpt>
      <trkpt lat="45.72767" lon="-0.96152">
        <ele>54.749021</ele>
        <time>2022-12-22T11:17:00.571Z</time>
      </trkpt>
      <trkpt lat="45.72758" lon="-0.96163">
        <ele>54.767546</ele>
        <time>2022-12-22T11:17:03.569Z</time>
      </trkpt>
      <trkpt lat="45.72749" lon="-0.96173">
        <ele>54.78648</ele>
        <time>2022-12-22T11:17:06.573Z</time>
      </trkpt>
      <trkpt lat="45.72739" lon="-0.96184">
        <ele>54.805906</ele>
        <time>2022-12-22T11:17:09.619Z</time>
      </trkpt>
      <trkpt lat="45.7273" lon="-0.96194">
        <ele>54.825555</ele>
        <time>2022-12-22T11:17:12.567Z</time>
      </trkpt>
      <trkpt lat="45.7272" lon="-0.96204">
        <ele>54.845203</ele>
        <time>2022-12-22T11:17:15.653Z</time>
      </trkpt>
      <trkpt lat="45.72709" lon="-0.96214">
        <ele>54.864993</ele>
        <time>2022-12-22T11:17:18.577Z</time>
      </trkpt>
      <trkpt lat="45.72699" lon="-0.96224">
        <ele>54.884978</ele>
        <time>2022-12-22T11:17:21.631Z</time>
      </trkpt>
      <trkpt lat="45.72688" lon="-0.96233">
        <ele>54.904719</ele>
        <time>2022-12-22T11:17:24.576Z</time>
      </trkpt>
      <trkpt lat="45.72679" lon="-0.96242">
        <ele>54.922827</ele>
        <time>2022-12-22T11:17:27.584Z</time>
      </trkpt>
      <trkpt lat="45.72669" lon="-0.96249">
        <ele>54.93966</ele>
        <time>2022-12-22T11:17:30.575Z</time>
      </trkpt>
      <trkpt lat="45.7266" lon="-0.96256">
        <ele>54.957302</ele>
        <time>2022-12-22T11:17:33.569Z</time>
      </trkpt>
      <trkpt lat="45.7265" lon="-0.96265">
        <ele>54.976022</ele>
        <time>2022-12-22T11:17:36.577Z</time>
      </trkpt>
      <trkpt lat="45.72639" lon="-0.96274">
        <ele>54.996158</ele>
        <time>2022-12-22T11:17:39.575Z</time>
      </trkpt>
      <trkpt lat="45.72627" lon="-0.96282">
        <ele>55.016625</ele>
        <time>2022-12-22T11:17:42.574Z</time>
      </trkpt>
      <trkpt lat="45.72616" lon="-0.9629">
        <ele>55.050095</ele>
        <time>2022-12-22T11:17:45.577Z</time>
      </trkpt>
      <trkpt lat="45.72606" lon="-0.96299">
        <ele>55.124621</ele>
        <time>2022-12-22T11:17:48.558Z</time>
      </trkpt>
      <trkpt lat="45.72596" lon="-0.96306">
        <ele>55.195867</ele>
        <time>2022-12-22T11:17:51.580Z</time>
      </trkpt>
      <trkpt lat="45.72585" lon="-0.96315">
        <ele>55.274008</ele>
        <time>2022-12-22T11:17:54.578Z</time>
      </trkpt>
      <trkpt lat="45.72574" lon="-0.96323">
        <ele>55.351254</ele>
        <time>2022-12-22T11:17:57.560Z</time>
      </trkpt>
      <trkpt lat="45.72563" lon="-0.96331">
        <ele>55.425298</ele>
        <time>2022-12-22T11:18:00.576Z</time>
      </trkpt>
      <trkpt lat="45.72553" lon="-0.96339">
        <ele>55.49306</ele>
        <time>2022-12-22T11:18:03.580Z</time>
      </trkpt>
      <trkpt lat="45.72544" lon="-0.96346">
        <ele>55.557365</ele>
        <time>2022-12-22T11:18:06.574Z</time>
      </trkpt>
      <trkpt lat="45.72535" lon="-0.96353">
        <ele>55.620283</ele>
        <time>2022-12-22T11:18:09.556Z</time>
      </trkpt>
      <trkpt lat="45.72527" lon="-0.9636">
        <ele>55.683205</ele>
        <time>2022-12-22T11:18:12.577Z</time>
      </trkpt>
      <trkpt lat="45.72518" lon="-0.96367">
        <ele>55.746772</ele>
        <time>2022-12-22T11:18:15.579Z</time>
      </trkpt>
      <trkpt lat="45.72508" lon="-0.96374">
        <ele>55.813172</ele>
        <time>2022-12-22T11:18:18.582Z</time>
      </trkpt>
      <trkpt lat="45.72498" lon="-0.96381">
        <ele>55.880123</ele>
        <time>2022-12-22T11:18:21.574Z</time>
      </trkpt>
      <trkpt lat="45.72489" lon="-0.96388">
        <ele>55.946928</ele>
        <time>2022-12-22T11:18:24.628Z</time>
      </trkpt>
      <trkpt lat="45.72479" lon="-0.96396">
        <ele>56.017281</ele>
        <time>2022-12-22T11:18:27.543Z</time>
      </trkpt>
      <trkpt lat="45.72469" lon="-0.96404">
        <ele>56.087089</ele>
        <time>2022-12-22T11:18:30.565Z</time>
      </trkpt>
      <trkpt lat="45.7246" lon="-0.96412">
        <ele>56.138812</ele>
        <time>2022-12-22T11:18:33.542Z</time>
      </trkpt>
      <trkpt lat="45.7245" lon="-0.96419">
        <ele>56.085914</ele>
        <time>2022-12-22T11:18:36.571Z</time>
      </trkpt>
      <trkpt lat="45.72441" lon="-0.96426">
        <ele>56.033081</ele>
        <time>2022-12-22T11:18:39.560Z</time>
      </trkpt>
      <trkpt lat="45.72431" lon="-0.96433">
        <ele>55.979783</ele>
        <time>2022-12-22T11:18:42.563Z</time>
      </trkpt>
      <trkpt lat="45.72422" lon="-0.96439">
        <ele>55.928139</ele>
        <time>2022-12-22T11:18:45.575Z</time>
      </trkpt>
      <trkpt lat="45.72412" lon="-0.96447">
        <ele>55.872388</ele>
        <time>2022-12-22T11:18:48.576Z</time>
      </trkpt>
      <trkpt lat="45.72404" lon="-0.96454">
        <ele>55.823568</ele>
        <time>2022-12-22T11:18:51.570Z</time>
      </trkpt>
      <trkpt lat="45.72395" lon="-0.9646">
        <ele>55.773133</ele>
        <time>2022-12-22T11:18:54.575Z</time>
      </trkpt>
      <trkpt lat="45.72385" lon="-0.96468">
        <ele>55.718514</ele>
        <time>2022-12-22T11:18:57.555Z</time>
      </trkpt>
      <trkpt lat="45.72376" lon="-0.96476">
        <ele>55.662244</ele>
        <time>2022-12-22T11:19:00.576Z</time>
      </trkpt>
      <trkpt lat="45.72365" lon="-0.96484">
        <ele>55.604221</ele>
        <time>2022-12-22T11:19:03.553Z</time>
      </trkpt>
      <trkpt lat="45.72355" lon="-0.96493">
        <ele>55.543348</ele>
        <time>2022-12-22T11:19:06.574Z</time>
      </trkpt>
      <trkpt lat="45.72344" lon="-0.96502">
        <ele>55.479002</ele>
        <time>2022-12-22T11:19:09.568Z</time>
      </trkpt>
      <trkpt lat="45.72332" lon="-0.96511">
        <ele>55.413963</ele>
        <time>2022-12-22T11:19:12.573Z</time>
      </trkpt>
      <trkpt lat="45.72321" lon="-0.96521">
        <ele>55.347708</ele>
        <time>2022-12-22T11:19:15.569Z</time>
      </trkpt>
      <trkpt lat="45.72313" lon="-0.96528">
        <ele>55.30012</ele>
        <time>2022-12-22T11:19:17.572Z</time>
      </trkpt>
      <trkpt lat="45.72301" lon="-0.96537">
        <ele>55.247416</ele>
        <time>2022-12-22T11:19:20.577Z</time>
      </trkpt>
      <trkpt lat="45.7229" lon="-0.96545">
        <ele>55.253713</ele>
        <time>2022-12-22T11:19:23.574Z</time>
      </trkpt>
      <trkpt lat="45.72279" lon="-0.96554">
        <ele>55.260104</ele>
        <time>2022-12-22T11:19:26.581Z</time>
      </trkpt>
      <trkpt lat="45.72269" lon="-0.96562">
        <ele>55.266076</ele>
        <time>2022-12-22T11:19:29.577Z</time>
      </trkpt>
      <trkpt lat="45.72258" lon="-0.96571">
        <ele>55.2723</ele>
        <time>2022-12-22T11:19:32.577Z</time>
      </trkpt>
      <trkpt lat="45.72247" lon="-0.9658">
        <ele>55.278647</ele>
        <time>2022-12-22T11:19:35.553Z</time>
      </trkpt>
      <trkpt lat="45.72236" lon="-0.96589">
        <ele>55.285233</ele>
        <time>2022-12-22T11:19:38.574Z</time>
      </trkpt>
      <trkpt lat="45.72224" lon="-0.96598">
        <ele>55.291808</ele>
        <time>2022-12-22T11:19:41.575Z</time>
      </trkpt>
      <trkpt lat="45.72213" lon="-0.96607">
        <ele>55.298496</ele>
        <time>2022-12-22T11:19:44.622Z</time>
      </trkpt>
      <trkpt lat="45.72205" lon="-0.96614">
        <ele>55.303037</ele>
        <time>2022-12-22T11:19:46.560Z</time>
      </trkpt>
      <trkpt lat="45.72197" lon="-0.9662">
        <ele>55.307595</ele>
        <time>2022-12-22T11:19:48.576Z</time>
      </trkpt>
      <trkpt lat="45.72186" lon="-0.9663">
        <ele>55.314196</ele>
        <time>2022-12-22T11:19:51.578Z</time>
      </trkpt>
      <trkpt lat="45.72175" lon="-0.96639">
        <ele>55.320832</ele>
        <time>2022-12-22T11:19:54.576Z</time>
      </trkpt>
      <trkpt lat="45.72164" lon="-0.96648">
        <ele>55.327266</ele>
        <time>2022-12-22T11:19:57.553Z</time>
      </trkpt>
      <trkpt lat="45.72153" lon="-0.96658">
        <ele>55.333613</ele>
        <time>2022-12-22T11:20:00.571Z</time>
      </trkpt>
      <trkpt lat="45.72142" lon="-0.96667">
        <ele>55.294002</ele>
        <time>2022-12-22T11:20:03.574Z</time>
      </trkpt>
      <trkpt lat="45.72131" lon="-0.96675">
        <ele>55.19981</ele>
        <time>2022-12-22T11:20:06.574Z</time>
      </trkpt>
      <trkpt lat="45.72121" lon="-0.96684">
        <ele>55.109012</ele>
        <time>2022-12-22T11:20:09.571Z</time>
      </trkpt>
      <trkpt lat="45.7211" lon="-0.96692">
        <ele>55.014567</ele>
        <time>2022-12-22T11:20:12.577Z</time>
      </trkpt>
      <trkpt lat="45.72098" lon="-0.96701">
        <ele>54.91657</ele>
        <time>2022-12-22T11:20:15.568Z</time>
      </trkpt>
      <trkpt lat="45.72087" lon="-0.9671">
        <ele>54.818733</ele>
        <time>2022-12-22T11:20:18.578Z</time>
      </trkpt>
      <trkpt lat="45.72075" lon="-0.96719">
        <ele>54.721039</ele>
        <time>2022-12-22T11:20:21.578Z</time>
      </trkpt>
      <trkpt lat="45.72064" lon="-0.96729">
        <ele>54.623344</ele>
        <time>2022-12-22T11:20:24.577Z</time>
      </trkpt>
      <trkpt lat="45.72052" lon="-0.96738">
        <ele>54.523025</ele>
        <time>2022-12-22T11:20:27.571Z</time>
      </trkpt>
      <trkpt lat="45.72044" lon="-0.96745">
        <ele>54.453106</ele>
        <time>2022-12-22T11:20:29.574Z</time>
      </trkpt>
      <trkpt lat="45.72033" lon="-0.96754">
        <ele>54.352787</ele>
        <time>2022-12-22T11:20:32.575Z</time>
      </trkpt>
      <trkpt lat="45.72022" lon="-0.96762">
        <ele>54.258429</ele>
        <time>2022-12-22T11:20:35.563Z</time>
      </trkpt>
      <trkpt lat="45.7201" lon="-0.96771">
        <ele>54.163072</ele>
        <time>2022-12-22T11:20:38.567Z</time>
      </trkpt>
      <trkpt lat="45.71999" lon="-0.96779">
        <ele>54.0692</ele>
        <time>2022-12-22T11:20:41.576Z</time>
      </trkpt>
      <trkpt lat="45.71989" lon="-0.96788">
        <ele>53.983243</ele>
        <time>2022-12-22T11:20:44.569Z</time>
      </trkpt>
      <trkpt lat="45.71978" lon="-0.96797">
        <ele>53.962112</ele>
        <time>2022-12-22T11:20:47.553Z</time>
      </trkpt>
      <trkpt lat="45.71967" lon="-0.96806">
        <ele>53.940808</ele>
        <time>2022-12-22T11:20:50.566Z</time>
      </trkpt>
      <trkpt lat="45.71956" lon="-0.96815">
        <ele>53.918977</ele>
        <time>2022-12-22T11:20:53.575Z</time>
      </trkpt>
      <trkpt lat="45.71944" lon="-0.96824">
        <ele>53.897437</ele>
        <time>2022-12-22T11:20:56.574Z</time>
      </trkpt>
      <trkpt lat="45.71934" lon="-0.96833">
        <ele>53.876746</ele>
        <time>2022-12-22T11:20:59.575Z</time>
      </trkpt>
      <trkpt lat="45.71923" lon="-0.96842">
        <ele>53.855704</ele>
        <time>2022-12-22T11:21:02.572Z</time>
      </trkpt>
      <trkpt lat="45.71912" lon="-0.9685">
        <ele>53.835184</ele>
        <time>2022-12-22T11:21:05.576Z</time>
      </trkpt>
      <trkpt lat="45.71901" lon="-0.96859">
        <ele>53.814754</ele>
        <time>2022-12-22T11:21:08.577Z</time>
      </trkpt>
      <trkpt lat="45.71891" lon="-0.96867">
        <ele>53.79488</ele>
        <time>2022-12-22T11:21:11.575Z</time>
      </trkpt>
      <trkpt lat="45.71881" lon="-0.96875">
        <ele>53.775062</ele>
        <time>2022-12-22T11:21:14.574Z</time>
      </trkpt>
      <trkpt lat="45.7187" lon="-0.96883">
        <ele>53.754654</ele>
        <time>2022-12-22T11:21:17.549Z</time>
      </trkpt>
      <trkpt lat="45.71859" lon="-0.96892">
        <ele>53.733904</ele>
        <time>2022-12-22T11:21:20.576Z</time>
      </trkpt>
      <trkpt lat="45.71849" lon="-0.96901">
        <ele>53.713067</ele>
        <time>2022-12-22T11:21:23.565Z</time>
      </trkpt>
      <trkpt lat="45.71838" lon="-0.9691">
        <ele>53.692488</ele>
        <time>2022-12-22T11:21:26.578Z</time>
      </trkpt>
      <trkpt lat="45.71828" lon="-0.96918">
        <ele>53.719041</ele>
        <time>2022-12-22T11:21:29.578Z</time>
      </trkpt>
      <trkpt lat="45.71818" lon="-0.96926">
        <ele>53.790143</ele>
        <time>2022-12-22T11:21:32.578Z</time>
      </trkpt>
      <trkpt lat="45.71807" lon="-0.96935">
        <ele>53.8666</ele>
        <time>2022-12-22T11:21:35.576Z</time>
      </trkpt>
      <trkpt lat="45.71796" lon="-0.96944">
        <ele>53.944642</ele>
        <time>2022-12-22T11:21:38.575Z</time>
      </trkpt>
      <trkpt lat="45.71786" lon="-0.96952">
        <ele>54.017239</ele>
        <time>2022-12-22T11:21:41.568Z</time>
      </trkpt>
      <trkpt lat="45.71775" lon="-0.9696">
        <ele>54.091331</ele>
        <time>2022-12-22T11:21:44.571Z</time>
      </trkpt>
      <trkpt lat="45.71765" lon="-0.96969">
        <ele>54.166594</ele>
        <time>2022-12-22T11:21:47.554Z</time>
      </trkpt>
      <trkpt lat="45.71754" lon="-0.96977">
        <ele>54.241971</ele>
        <time>2022-12-22T11:21:50.577Z</time>
      </trkpt>
      <trkpt lat="45.71743" lon="-0.96986">
        <ele>54.31777</ele>
        <time>2022-12-22T11:21:53.579Z</time>
      </trkpt>
      <trkpt lat="45.71732" lon="-0.96994">
        <ele>54.39294</ele>
        <time>2022-12-22T11:21:56.575Z</time>
      </trkpt>
      <trkpt lat="45.71722" lon="-0.97003">
        <ele>54.469275</ele>
        <time>2022-12-22T11:21:59.576Z</time>
      </trkpt>
      <trkpt lat="45.71711" lon="-0.97011">
        <ele>54.542204</ele>
        <time>2022-12-22T11:22:02.571Z</time>
      </trkpt>
      <trkpt lat="45.71702" lon="-0.97019">
        <ele>54.610627</ele>
        <time>2022-12-22T11:22:05.574Z</time>
      </trkpt>
      <trkpt lat="45.71693" lon="-0.97026">
        <ele>54.669534</ele>
        <time>2022-12-22T11:22:08.574Z</time>
      </trkpt>
      <trkpt lat="45.71685" lon="-0.97032">
        <ele>54.727605</ele>
        <time>2022-12-22T11:22:11.570Z</time>
      </trkpt>
      <trkpt lat="45.71677" lon="-0.9704">
        <ele>54.788224</ele>
        <time>2022-12-22T11:22:14.557Z</time>
      </trkpt>
      <trkpt lat="45.71668" lon="-0.97048">
        <ele>54.849711</ele>
        <time>2022-12-22T11:22:17.556Z</time>
      </trkpt>
      <trkpt lat="45.71659" lon="-0.97055">
        <ele>54.909001</ele>
        <time>2022-12-22T11:22:20.576Z</time>
      </trkpt>
      <trkpt lat="45.71651" lon="-0.97063">
        <ele>54.969348</ele>
        <time>2022-12-22T11:22:23.575Z</time>
      </trkpt>
      <trkpt lat="45.71641" lon="-0.97072">
        <ele>55.03404</ele>
        <time>2022-12-22T11:22:26.569Z</time>
      </trkpt>
      <trkpt lat="45.71633" lon="-0.97081">
        <ele>55.098195</ele>
        <time>2022-12-22T11:22:29.574Z</time>
      </trkpt>
      <trkpt lat="45.71624" lon="-0.97091">
        <ele>55.161938</ele>
        <time>2022-12-22T11:22:32.576Z</time>
      </trkpt>
      <trkpt lat="45.71615" lon="-0.97101">
        <ele>55.227831</ele>
        <time>2022-12-22T11:22:35.572Z</time>
      </trkpt>
      <trkpt lat="45.71607" lon="-0.97111">
        <ele>55.293582</ele>
        <time>2022-12-22T11:22:38.559Z</time>
      </trkpt>
      <trkpt lat="45.71599" lon="-0.9712">
        <ele>55.352652</ele>
        <time>2022-12-22T11:22:41.575Z</time>
      </trkpt>
      <trkpt lat="45.71592" lon="-0.9713">
        <ele>55.408319</ele>
        <time>2022-12-22T11:22:44.564Z</time>
      </trkpt>
      <trkpt lat="45.71586" lon="-0.97139">
        <ele>55.464596</ele>
        <time>2022-12-22T11:22:47.552Z</time>
      </trkpt>
      <trkpt lat="45.71578" lon="-0.97149">
        <ele>55.524378</ele>
        <time>2022-12-22T11:22:50.566Z</time>
      </trkpt>
      <trkpt lat="45.71571" lon="-0.97159">
        <ele>55.584146</ele>
        <time>2022-12-22T11:22:53.645Z</time>
      </trkpt>
      <trkpt lat="45.71564" lon="-0.9717">
        <ele>55.64536</ele>
        <time>2022-12-22T11:22:56.578Z</time>
      </trkpt>
      <trkpt lat="45.71557" lon="-0.97179">
        <ele>55.700161</ele>
        <time>2022-12-22T11:22:59.631Z</time>
      </trkpt>
      <trkpt lat="45.7155" lon="-0.97188">
        <ele>55.754142</ele>
        <time>2022-12-22T11:23:02.568Z</time>
      </trkpt>
      <trkpt lat="45.71543" lon="-0.97197">
        <ele>55.810328</ele>
        <time>2022-12-22T11:23:05.598Z</time>
      </trkpt>
      <trkpt lat="45.71535" lon="-0.97206">
        <ele>55.76659</ele>
        <time>2022-12-22T11:23:08.569Z</time>
      </trkpt>
      <trkpt lat="45.71527" lon="-0.97214">
        <ele>55.493111</ele>
        <time>2022-12-22T11:23:11.628Z</time>
      </trkpt>
      <trkpt lat="45.71518" lon="-0.97222">
        <ele>55.212826</ele>
        <time>2022-12-22T11:23:14.574Z</time>
      </trkpt>
      <trkpt lat="45.71509" lon="-0.9723">
        <ele>54.92218</ele>
        <time>2022-12-22T11:23:17.546Z</time>
      </trkpt>
      <trkpt lat="45.715" lon="-0.97237">
        <ele>54.640449</ele>
        <time>2022-12-22T11:23:20.568Z</time>
      </trkpt>
      <trkpt lat="45.71491" lon="-0.97244">
        <ele>54.369736</ele>
        <time>2022-12-22T11:23:23.560Z</time>
      </trkpt>
      <trkpt lat="45.71482" lon="-0.9725">
        <ele>54.10316</ele>
        <time>2022-12-22T11:23:26.574Z</time>
      </trkpt>
      <trkpt lat="45.71473" lon="-0.97255">
        <ele>53.833878</ele>
        <time>2022-12-22T11:23:29.577Z</time>
      </trkpt>
      <trkpt lat="45.71463" lon="-0.9726">
        <ele>53.557802</ele>
        <time>2022-12-22T11:23:32.580Z</time>
      </trkpt>
      <trkpt lat="45.71453" lon="-0.97265">
        <ele>53.274253</ele>
        <time>2022-12-22T11:23:35.575Z</time>
      </trkpt>
      <trkpt lat="45.71443" lon="-0.9727">
        <ele>52.983382</ele>
        <time>2022-12-22T11:23:38.579Z</time>
      </trkpt>
      <trkpt lat="45.71433" lon="-0.97274">
        <ele>52.692998</ele>
        <time>2022-12-22T11:23:41.575Z</time>
      </trkpt>
      <trkpt lat="45.71422" lon="-0.97278">
        <ele>52.403546</ele>
        <time>2022-12-22T11:23:44.576Z</time>
      </trkpt>
      <trkpt lat="45.71412" lon="-0.9728">
        <ele>52.109743</ele>
        <time>2022-12-22T11:23:47.554Z</time>
      </trkpt>
      <trkpt lat="45.71401" lon="-0.97284">
        <ele>51.809201</ele>
        <time>2022-12-22T11:23:50.578Z</time>
      </trkpt>
      <trkpt lat="45.7139" lon="-0.97286">
        <ele>51.510409</ele>
        <time>2022-12-22T11:23:53.556Z</time>
      </trkpt>
      <trkpt lat="45.71379" lon="-0.97288">
        <ele>51.208453</ele>
        <time>2022-12-22T11:23:56.578Z</time>
      </trkpt>
      <trkpt lat="45.71368" lon="-0.97289">
        <ele>50.958528</ele>
        <time>2022-12-22T11:23:59.574Z</time>
      </trkpt>
      <trkpt lat="45.71357" lon="-0.97289">
        <ele>50.83145</ele>
        <time>2022-12-22T11:24:02.578Z</time>
      </trkpt>
      <trkpt lat="45.71347" lon="-0.97289">
        <ele>50.707948</ele>
        <time>2022-12-22T11:24:05.582Z</time>
      </trkpt>
      <trkpt lat="45.71336" lon="-0.97289">
        <ele>50.580851</ele>
        <time>2022-12-22T11:24:08.578Z</time>
      </trkpt>
      <trkpt lat="45.71325" lon="-0.97288">
        <ele>50.452513</ele>
        <time>2022-12-22T11:24:11.582Z</time>
      </trkpt>
      <trkpt lat="45.71314" lon="-0.97288">
        <ele>50.321874</ele>
        <time>2022-12-22T11:24:14.576Z</time>
      </trkpt>
      <trkpt lat="45.71303" lon="-0.97288">
        <ele>50.190005</ele>
        <time>2022-12-22T11:24:17.551Z</time>
      </trkpt>
      <trkpt lat="45.71292" lon="-0.97287">
        <ele>50.053389</ele>
        <time>2022-12-22T11:24:20.577Z</time>
      </trkpt>
      <trkpt lat="45.71281" lon="-0.97287">
        <ele>49.922773</ele>
        <time>2022-12-22T11:24:23.566Z</time>
      </trkpt>
      <trkpt lat="45.7127" lon="-0.97287">
        <ele>49.792092</ele>
        <time>2022-12-22T11:24:26.556Z</time>
      </trkpt>
      <trkpt lat="45.71259" lon="-0.97286">
        <ele>49.663754</ele>
        <time>2022-12-22T11:24:29.557Z</time>
      </trkpt>
      <trkpt lat="45.71248" lon="-0.97286">
        <ele>49.535489</ele>
        <time>2022-12-22T11:24:32.574Z</time>
      </trkpt>
      <trkpt lat="45.71238" lon="-0.97285">
        <ele>49.411953</ele>
        <time>2022-12-22T11:24:35.567Z</time>
      </trkpt>
      <trkpt lat="45.71228" lon="-0.97285">
        <ele>49.296726</ele>
        <time>2022-12-22T11:24:38.639Z</time>
      </trkpt>
      <trkpt lat="45.71218" lon="-0.97285">
        <ele>49.177973</ele>
        <time>2022-12-22T11:24:41.582Z</time>
      </trkpt>
      <trkpt lat="45.71208" lon="-0.97284">
        <ele>49.063833</ele>
        <time>2022-12-22T11:24:44.626Z</time>
      </trkpt>
      <trkpt lat="45.71199" lon="-0.97283">
        <ele>48.950879</ele>
        <time>2022-12-22T11:24:47.553Z</time>
      </trkpt>
      <trkpt lat="45.7119" lon="-0.97283">
        <ele>48.861398</ele>
        <time>2022-12-22T11:24:50.634Z</time>
      </trkpt>
      <trkpt lat="45.7118" lon="-0.97283">
        <ele>48.906352</ele>
        <time>2022-12-22T11:24:53.582Z</time>
      </trkpt>
      <trkpt lat="45.71171" lon="-0.97283">
        <ele>48.95088</ele>
        <time>2022-12-22T11:24:56.630Z</time>
      </trkpt>
      <trkpt lat="45.71161" lon="-0.97282">
        <ele>48.994447</ele>
        <time>2022-12-22T11:24:59.578Z</time>
      </trkpt>
      <trkpt lat="45.71152" lon="-0.97282">
        <ele>49.037558</ele>
        <time>2022-12-22T11:25:02.618Z</time>
      </trkpt>
      <trkpt lat="45.7114" lon="-0.97281">
        <ele>49.093305</ele>
        <time>2022-12-22T11:25:06.570Z</time>
      </trkpt>
      <trkpt lat="45.71131" lon="-0.97281">
        <ele>49.138768</ele>
        <time>2022-12-22T11:25:09.577Z</time>
      </trkpt>
      <trkpt lat="45.71121" lon="-0.9728">
        <ele>49.184662</ele>
        <time>2022-12-22T11:25:12.566Z</time>
      </trkpt>
      <trkpt lat="45.71111" lon="-0.9728">
        <ele>49.229616</ele>
        <time>2022-12-22T11:25:15.572Z</time>
      </trkpt>
      <trkpt lat="45.71101" lon="-0.9728">
        <ele>49.275066</ele>
        <time>2022-12-22T11:25:18.576Z</time>
      </trkpt>
      <trkpt lat="45.71091" lon="-0.97279">
        <ele>49.32191</ele>
        <time>2022-12-22T11:25:21.577Z</time>
      </trkpt>
      <trkpt lat="45.71081" lon="-0.97279">
        <ele>49.370181</ele>
        <time>2022-12-22T11:25:24.565Z</time>
      </trkpt>
      <trkpt lat="45.71071" lon="-0.97279">
        <ele>49.419349</ele>
        <time>2022-12-22T11:25:27.551Z</time>
      </trkpt>
      <trkpt lat="45.7106" lon="-0.97278">
        <ele>49.468555</ele>
        <time>2022-12-22T11:25:30.572Z</time>
      </trkpt>
      <trkpt lat="45.7105" lon="-0.97278">
        <ele>49.515877</ele>
        <time>2022-12-22T11:25:33.562Z</time>
      </trkpt>
      <trkpt lat="45.7104" lon="-0.97278">
        <ele>49.564125</ele>
        <time>2022-12-22T11:25:36.580Z</time>
      </trkpt>
      <trkpt lat="45.7103" lon="-0.97278">
        <ele>49.611448</ele>
        <time>2022-12-22T11:25:39.577Z</time>
      </trkpt>
      <trkpt lat="45.7102" lon="-0.97276">
        <ele>49.657944</ele>
        <time>2022-12-22T11:25:42.581Z</time>
      </trkpt>
      <trkpt lat="45.7101" lon="-0.97276">
        <ele>49.68915</ele>
        <time>2022-12-22T11:25:45.578Z</time>
      </trkpt>
      <trkpt lat="45.71" lon="-0.97275">
        <ele>49.632365</ele>
        <time>2022-12-22T11:25:48.578Z</time>
      </trkpt>
      <trkpt lat="45.7099" lon="-0.97275">
        <ele>49.57386</ele>
        <time>2022-12-22T11:25:51.557Z</time>
      </trkpt>
      <trkpt lat="45.70979" lon="-0.97275">
        <ele>49.515375</ele>
        <time>2022-12-22T11:25:54.575Z</time>
      </trkpt>
      <trkpt lat="45.70969" lon="-0.97274">
        <ele>49.458543</ele>
        <time>2022-12-22T11:25:57.550Z</time>
      </trkpt>
      <trkpt lat="45.7096" lon="-0.97274">
        <ele>49.404641</ele>
        <time>2022-12-22T11:26:00.573Z</time>
      </trkpt>
      <trkpt lat="45.70951" lon="-0.97273">
        <ele>49.350099</ele>
        <time>2022-12-22T11:26:03.576Z</time>
      </trkpt>
      <trkpt lat="45.70941" lon="-0.97273">
        <ele>49.293301</ele>
        <time>2022-12-22T11:26:06.574Z</time>
      </trkpt>
      <trkpt lat="45.70931" lon="-0.97272">
        <ele>49.237076</ele>
        <time>2022-12-22T11:26:09.559Z</time>
      </trkpt>
      <trkpt lat="45.70921" lon="-0.97272">
        <ele>49.180886</ele>
        <time>2022-12-22T11:26:12.576Z</time>
      </trkpt>
      <trkpt lat="45.70911" lon="-0.97272">
        <ele>49.122381</ele>
        <time>2022-12-22T11:26:15.573Z</time>
      </trkpt>
      <trkpt lat="45.709" lon="-0.97271">
        <ele>49.062145</ele>
        <time>2022-12-22T11:26:18.577Z</time>
      </trkpt>
      <trkpt lat="45.7089" lon="-0.97271">
        <ele>49.000175</ele>
        <time>2022-12-22T11:26:21.558Z</time>
      </trkpt>
      <trkpt lat="45.70879" lon="-0.9727">
        <ele>48.940511</ele>
        <time>2022-12-22T11:26:24.566Z</time>
      </trkpt>
      <trkpt lat="45.70869" lon="-0.9727">
        <ele>48.88086</ele>
        <time>2022-12-22T11:26:27.548Z</time>
      </trkpt>
      <trkpt lat="45.70858" lon="-0.97269">
        <ele>48.816623</ele>
        <time>2022-12-22T11:26:30.575Z</time>
      </trkpt>
      <trkpt lat="45.70847" lon="-0.97269">
        <ele>48.753542</ele>
        <time>2022-12-22T11:26:33.578Z</time>
      </trkpt>
      <trkpt lat="45.70835" lon="-0.97269">
        <ele>48.686454</ele>
        <time>2022-12-22T11:26:36.573Z</time>
      </trkpt>
      <trkpt lat="45.70823" lon="-0.9727">
        <ele>48.588517</ele>
        <time>2022-12-22T11:26:39.576Z</time>
      </trkpt>
      <trkpt lat="45.70811" lon="-0.9727">
        <ele>48.481261</ele>
        <time>2022-12-22T11:26:42.566Z</time>
      </trkpt>
      <trkpt lat="45.708" lon="-0.97271">
        <ele>48.375664</ele>
        <time>2022-12-22T11:26:45.576Z</time>
      </trkpt>
      <trkpt lat="45.70789" lon="-0.97272">
        <ele>48.272833</ele>
        <time>2022-12-22T11:26:48.654Z</time>
      </trkpt>
      <trkpt lat="45.70778" lon="-0.97274">
        <ele>48.174391</ele>
        <time>2022-12-22T11:26:51.558Z</time>
      </trkpt>
      <trkpt lat="45.70768" lon="-0.97276">
        <ele>48.074744</ele>
        <time>2022-12-22T11:26:54.626Z</time>
      </trkpt>
      <trkpt lat="45.70756" lon="-0.97278">
        <ele>47.97109</ele>
        <time>2022-12-22T11:26:57.555Z</time>
      </trkpt>
      <trkpt lat="45.70745" lon="-0.9728">
        <ele>47.867436</ele>
        <time>2022-12-22T11:27:00.577Z</time>
      </trkpt>
      <trkpt lat="45.70735" lon="-0.97283">
        <ele>47.767239</ele>
        <time>2022-12-22T11:27:03.574Z</time>
      </trkpt>
      <trkpt lat="45.70724" lon="-0.97286">
        <ele>47.666216</ele>
        <time>2022-12-22T11:27:06.573Z</time>
      </trkpt>
      <trkpt lat="45.70713" lon="-0.97289">
        <ele>47.564922</ele>
        <time>2022-12-22T11:27:09.560Z</time>
      </trkpt>
      <trkpt lat="45.70702" lon="-0.97293">
        <ele>47.461824</ele>
        <time>2022-12-22T11:27:12.575Z</time>
      </trkpt>
      <trkpt lat="45.70692" lon="-0.97297">
        <ele>47.36124</ele>
        <time>2022-12-22T11:27:15.576Z</time>
      </trkpt>
      <trkpt lat="45.70682" lon="-0.97302">
        <ele>47.26397</ele>
        <time>2022-12-22T11:27:18.550Z</time>
      </trkpt>
      <trkpt lat="45.70672" lon="-0.97308">
        <ele>47.166454</ele>
        <time>2022-12-22T11:27:21.578Z</time>
      </trkpt>
      <trkpt lat="45.70662" lon="-0.97313">
        <ele>47.068773</ele>
        <time>2022-12-22T11:27:24.576Z</time>
      </trkpt>
      <trkpt lat="45.70653" lon="-0.97318">
        <ele>47.070838</ele>
        <time>2022-12-22T11:27:27.559Z</time>
      </trkpt>
      <trkpt lat="45.70643" lon="-0.97324">
        <ele>47.293206</ele>
        <time>2022-12-22T11:27:30.559Z</time>
      </trkpt>
      <trkpt lat="45.70633" lon="-0.97331">
        <ele>47.519638</ele>
        <time>2022-12-22T11:27:33.574Z</time>
      </trkpt>
      <trkpt lat="45.70623" lon="-0.97339">
        <ele>47.753151</ele>
        <time>2022-12-22T11:27:36.574Z</time>
      </trkpt>
      <trkpt lat="45.70613" lon="-0.97346">
        <ele>47.979669</ele>
        <time>2022-12-22T11:27:39.572Z</time>
      </trkpt>
      <trkpt lat="45.70603" lon="-0.97353">
        <ele>48.201169</ele>
        <time>2022-12-22T11:27:42.578Z</time>
      </trkpt>
      <trkpt lat="45.70594" lon="-0.9736">
        <ele>48.419803</ele>
        <time>2022-12-22T11:27:45.577Z</time>
      </trkpt>
      <trkpt lat="45.70585" lon="-0.97367">
        <ele>48.636922</ele>
        <time>2022-12-22T11:27:48.570Z</time>
      </trkpt>
      <trkpt lat="45.70576" lon="-0.97375">
        <ele>48.842443</ele>
        <time>2022-12-22T11:27:51.576Z</time>
      </trkpt>
      <trkpt lat="45.70567" lon="-0.97383">
        <ele>49.055705</ele>
        <time>2022-12-22T11:27:54.580Z</time>
      </trkpt>
      <trkpt lat="45.70558" lon="-0.97391">
        <ele>49.280025</ele>
        <time>2022-12-22T11:27:57.558Z</time>
      </trkpt>
      <trkpt lat="45.70549" lon="-0.974">
        <ele>49.504346</ele>
        <time>2022-12-22T11:28:00.576Z</time>
      </trkpt>
      <trkpt lat="45.7054" lon="-0.9741">
        <ele>49.736988</ele>
        <time>2022-12-22T11:28:03.582Z</time>
      </trkpt>
      <trkpt lat="45.70531" lon="-0.97419">
        <ele>49.967955</ele>
        <time>2022-12-22T11:28:06.574Z</time>
      </trkpt>
      <trkpt lat="45.70522" lon="-0.97429">
        <ele>50.200713</ele>
        <time>2022-12-22T11:28:09.577Z</time>
      </trkpt>
      <trkpt lat="45.70513" lon="-0.97439">
        <ele>50.432013</ele>
        <time>2022-12-22T11:28:12.576Z</time>
      </trkpt>
      <trkpt lat="45.70505" lon="-0.9745">
        <ele>50.665468</ele>
        <time>2022-12-22T11:28:15.579Z</time>
      </trkpt>
      <trkpt lat="45.70496" lon="-0.97461">
        <ele>50.630501</ele>
        <time>2022-12-22T11:28:18.581Z</time>
      </trkpt>
      <trkpt lat="45.70488" lon="-0.97471">
        <ele>50.56008</ele>
        <time>2022-12-22T11:28:21.575Z</time>
      </trkpt>
      <trkpt lat="45.70481" lon="-0.97481">
        <ele>50.493908</ele>
        <time>2022-12-22T11:28:24.565Z</time>
      </trkpt>
      <trkpt lat="45.70474" lon="-0.97491">
        <ele>50.431284</ele>
        <time>2022-12-22T11:28:27.546Z</time>
      </trkpt>
      <trkpt lat="45.70467" lon="-0.97502">
        <ele>50.364325</ele>
        <time>2022-12-22T11:28:30.576Z</time>
      </trkpt>
      <trkpt lat="45.7046" lon="-0.97513">
        <ele>50.295575</ele>
        <time>2022-12-22T11:28:33.575Z</time>
      </trkpt>
      <trkpt lat="45.70453" lon="-0.97525">
        <ele>50.225876</ele>
        <time>2022-12-22T11:28:36.558Z</time>
      </trkpt>
      <trkpt lat="45.70447" lon="-0.97536">
        <ele>50.158408</ele>
        <time>2022-12-22T11:28:39.558Z</time>
      </trkpt>
      <trkpt lat="45.7044" lon="-0.97548">
        <ele>50.090764</ele>
        <time>2022-12-22T11:28:42.579Z</time>
      </trkpt>
      <trkpt lat="45.70435" lon="-0.97558">
        <ele>50.031805</ele>
        <time>2022-12-22T11:28:45.575Z</time>
      </trkpt>
      <trkpt lat="45.70429" lon="-0.9757">
        <ele>49.967991</ele>
        <time>2022-12-22T11:28:49.574Z</time>
      </trkpt>
      <trkpt lat="45.70422" lon="-0.97584">
        <ele>49.887761</ele>
        <time>2022-12-22T11:28:53.629Z</time>
      </trkpt>
      <trkpt lat="45.70417" lon="-0.97597">
        <ele>49.820932</ele>
        <time>2022-12-22T11:28:56.548Z</time>
      </trkpt>
      <trkpt lat="45.70412" lon="-0.97609">
        <ele>49.755537</ele>
        <time>2022-12-22T11:28:59.573Z</time>
      </trkpt>
      <trkpt lat="45.70407" lon="-0.97622">
        <ele>49.688783</ele>
        <time>2022-12-22T11:29:02.577Z</time>
      </trkpt>
      <trkpt lat="45.70402" lon="-0.97634">
        <ele>49.624876</ele>
        <time>2022-12-22T11:29:05.647Z</time>
      </trkpt>
      <trkpt lat="45.70397" lon="-0.97646">
        <ele>49.560261</ele>
        <time>2022-12-22T11:29:08.573Z</time>
      </trkpt>
      <trkpt lat="45.70393" lon="-0.97659">
        <ele>49.576146</ele>
        <time>2022-12-22T11:29:11.565Z</time>
      </trkpt>
      <trkpt lat="45.70389" lon="-0.97673">
        <ele>49.713068</ele>
        <time>2022-12-22T11:29:14.557Z</time>
      </trkpt>
      <trkpt lat="45.70385" lon="-0.97686">
        <ele>49.848919</ele>
        <time>2022-12-22T11:29:17.561Z</time>
      </trkpt>
      <trkpt lat="45.7038" lon="-0.977">
        <ele>49.993203</ele>
        <time>2022-12-22T11:29:20.571Z</time>
      </trkpt>
      <trkpt lat="45.70375" lon="-0.97715">
        <ele>50.144479</ele>
        <time>2022-12-22T11:29:23.553Z</time>
      </trkpt>
      <trkpt lat="45.70371" lon="-0.97729">
        <ele>50.291297</ele>
        <time>2022-12-22T11:29:26.571Z</time>
      </trkpt>
      <trkpt lat="45.70366" lon="-0.97743">
        <ele>50.435266</ele>
        <time>2022-12-22T11:29:29.573Z</time>
      </trkpt>
      <trkpt lat="45.70362" lon="-0.97756">
        <ele>50.564599</ele>
        <time>2022-12-22T11:29:32.577Z</time>
      </trkpt>
      <trkpt lat="45.70361" lon="-0.9777">
        <ele>50.695232</ele>
        <time>2022-12-22T11:29:36.573Z</time>
      </trkpt>
      <trkpt lat="45.70361" lon="-0.97783">
        <ele>50.815852</ele>
        <time>2022-12-22T11:29:39.577Z</time>
      </trkpt>
      <trkpt lat="45.70359" lon="-0.97796">
        <ele>50.94335</ele>
        <time>2022-12-22T11:29:42.574Z</time>
      </trkpt>
      <trkpt lat="45.70352" lon="-0.97806">
        <ele>51.070703</ele>
        <time>2022-12-22T11:29:45.575Z</time>
      </trkpt>
      <trkpt lat="45.70344" lon="-0.97816">
        <ele>51.213952</ele>
        <time>2022-12-22T11:29:49.577Z</time>
      </trkpt>
      <trkpt lat="45.7034" lon="-0.97829">
        <ele>51.344687</ele>
        <time>2022-12-22T11:29:52.642Z</time>
      </trkpt>
      <trkpt lat="45.70336" lon="-0.97844">
        <ele>51.491384</ele>
        <time>2022-12-22T11:29:55.575Z</time>
      </trkpt>
      <trkpt lat="45.70332" lon="-0.97858">
        <ele>51.637722</ele>
        <time>2022-12-22T11:29:58.630Z</time>
      </trkpt>
      <trkpt lat="45.70327" lon="-0.97874">
        <ele>51.795787</ele>
        <time>2022-12-22T11:30:01.576Z</time>
      </trkpt>
      <trkpt lat="45.70322" lon="-0.97889">
        <ele>51.920125</ele>
        <time>2022-12-22T11:30:04.554Z</time>
      </trkpt>
      <trkpt lat="45.70317" lon="-0.97906">
        <ele>51.911522</ele>
        <time>2022-12-22T11:30:07.553Z</time>
      </trkpt>
      <trkpt lat="45.70312" lon="-0.97921">
        <ele>51.903345</ele>
        <time>2022-12-22T11:30:10.578Z</time>
      </trkpt>
      <trkpt lat="45.70308" lon="-0.97936">
        <ele>51.89565</ele>
        <time>2022-12-22T11:30:13.578Z</time>
      </trkpt>
      <trkpt lat="45.70304" lon="-0.9795">
        <ele>51.888373</ele>
        <time>2022-12-22T11:30:16.563Z</time>
      </trkpt>
      <trkpt lat="45.703" lon="-0.97964">
        <ele>51.881361</ele>
        <time>2022-12-22T11:30:19.579Z</time>
      </trkpt>
      <trkpt lat="45.70296" lon="-0.97979">
        <ele>51.873337</ele>
        <time>2022-12-22T11:30:22.577Z</time>
      </trkpt>
      <trkpt lat="45.70291" lon="-0.97996">
        <ele>51.864601</ele>
        <time>2022-12-22T11:30:25.579Z</time>
      </trkpt>
      <trkpt lat="45.70285" lon="-0.98013">
        <ele>51.855302</ele>
        <time>2022-12-22T11:30:28.576Z</time>
      </trkpt>
      <trkpt lat="45.7028" lon="-0.98031">
        <ele>51.84581</ele>
        <time>2022-12-22T11:30:31.576Z</time>
      </trkpt>
      <trkpt lat="45.70276" lon="-0.98043">
        <ele>51.83947</ele>
        <time>2022-12-22T11:30:33.562Z</time>
      </trkpt>
      <trkpt lat="45.70271" lon="-0.9806">
        <ele>51.830458</ele>
        <time>2022-12-22T11:30:36.577Z</time>
      </trkpt>
      <trkpt lat="45.70267" lon="-0.98072">
        <ele>51.824159</ele>
        <time>2022-12-22T11:30:38.571Z</time>
      </trkpt>
      <trkpt lat="45.70262" lon="-0.9809">
        <ele>51.814728</ele>
        <time>2022-12-22T11:30:41.576Z</time>
      </trkpt>
      <trkpt lat="45.70257" lon="-0.98107">
        <ele>51.80584</ele>
        <time>2022-12-22T11:30:44.578Z</time>
      </trkpt>
      <trkpt lat="45.70253" lon="-0.9812">
        <ele>51.79934</ele>
        <time>2022-12-22T11:30:46.577Z</time>
      </trkpt>
      <trkpt lat="45.70249" lon="-0.98131">
        <ele>51.827777</ele>
        <time>2022-12-22T11:30:48.641Z</time>
      </trkpt>
      <trkpt lat="45.70246" lon="-0.98143">
        <ele>51.86856</ele>
        <time>2022-12-22T11:30:50.578Z</time>
      </trkpt>
      <trkpt lat="45.7024" lon="-0.98162">
        <ele>51.930047</ele>
        <time>2022-12-22T11:30:53.578Z</time>
      </trkpt>
      <trkpt lat="45.70235" lon="-0.98179">
        <ele>51.989285</ele>
        <time>2022-12-22T11:30:56.577Z</time>
      </trkpt>
      <trkpt lat="45.7023" lon="-0.98197">
        <ele>52.04676</ele>
        <time>2022-12-22T11:30:59.651Z</time>
      </trkpt>
      <trkpt lat="45.70226" lon="-0.98209">
        <ele>52.088005</ele>
        <time>2022-12-22T11:31:01.575Z</time>
      </trkpt>
      <trkpt lat="45.70221" lon="-0.98226">
        <ele>52.145591</ele>
        <time>2022-12-22T11:31:04.576Z</time>
      </trkpt>
      <trkpt lat="45.70216" lon="-0.98243">
        <ele>52.202493</ele>
        <time>2022-12-22T11:31:07.549Z</time>
      </trkpt>
      <trkpt lat="45.70211" lon="-0.9826">
        <ele>52.258027</ele>
        <time>2022-12-22T11:31:10.575Z</time>
      </trkpt>
      <trkpt lat="45.70206" lon="-0.98276">
        <ele>52.314383</ele>
        <time>2022-12-22T11:31:13.577Z</time>
      </trkpt>
      <trkpt lat="45.70201" lon="-0.98292">
        <ele>52.367669</ele>
        <time>2022-12-22T11:31:16.625Z</time>
      </trkpt>
      <trkpt lat="45.70196" lon="-0.98306">
        <ele>52.418153</ele>
        <time>2022-12-22T11:31:19.575Z</time>
      </trkpt>
      <trkpt lat="45.70191" lon="-0.9832">
        <ele>52.465558</ele>
        <time>2022-12-22T11:31:22.560Z</time>
      </trkpt>
      <trkpt lat="45.70186" lon="-0.98334">
        <ele>52.511937</ele>
        <time>2022-12-22T11:31:25.577Z</time>
      </trkpt>
      <trkpt lat="45.70181" lon="-0.98348">
        <ele>52.560964</ele>
        <time>2022-12-22T11:31:28.555Z</time>
      </trkpt>
      <trkpt lat="45.70176" lon="-0.98362">
        <ele>52.502593</ele>
        <time>2022-12-22T11:31:31.576Z</time>
      </trkpt>
      <trkpt lat="45.7017" lon="-0.98374">
        <ele>52.274131</ele>
        <time>2022-12-22T11:31:34.575Z</time>
      </trkpt>
      <trkpt lat="45.70165" lon="-0.98387">
        <ele>52.040245</ele>
        <time>2022-12-22T11:31:37.553Z</time>
      </trkpt>
      <trkpt lat="45.70159" lon="-0.98399">
        <ele>51.800372</ele>
        <time>2022-12-22T11:31:40.577Z</time>
      </trkpt>
      <trkpt lat="45.70154" lon="-0.98411">
        <ele>51.574714</ele>
        <time>2022-12-22T11:31:43.579Z</time>
      </trkpt>
      <trkpt lat="45.70148" lon="-0.98422">
        <ele>51.350442</ele>
        <time>2022-12-22T11:31:46.563Z</time>
      </trkpt>
      <trkpt lat="45.70142" lon="-0.98434">
        <ele>51.110455</ele>
        <time>2022-12-22T11:31:49.579Z</time>
      </trkpt>
      <trkpt lat="45.70135" lon="-0.98447">
        <ele>50.862547</ele>
        <time>2022-12-22T11:31:52.545Z</time>
      </trkpt>
      <trkpt lat="45.70128" lon="-0.98459">
        <ele>50.618416</ele>
        <time>2022-12-22T11:31:55.577Z</time>
      </trkpt>
      <trkpt lat="45.70122" lon="-0.98471">
        <ele>50.373925</ele>
        <time>2022-12-22T11:31:58.577Z</time>
      </trkpt>
      <trkpt lat="45.70115" lon="-0.98482">
        <ele>50.127462</ele>
        <time>2022-12-22T11:32:01.577Z</time>
      </trkpt>
      <trkpt lat="45.70108" lon="-0.98494">
        <ele>49.885174</ele>
        <time>2022-12-22T11:32:04.575Z</time>
      </trkpt>
      <trkpt lat="45.70102" lon="-0.98504">
        <ele>49.675539</ele>
        <time>2022-12-22T11:32:07.558Z</time>
      </trkpt>
      <trkpt lat="45.70095" lon="-0.98514">
        <ele>49.451315</ele>
        <time>2022-12-22T11:32:10.577Z</time>
      </trkpt>
      <trkpt lat="45.70088" lon="-0.98524">
        <ele>49.224563</ele>
        <time>2022-12-22T11:32:13.628Z</time>
      </trkpt>
      <trkpt lat="45.7008" lon="-0.98534">
        <ele>48.99123</ele>
        <time>2022-12-22T11:32:16.579Z</time>
      </trkpt>
      <trkpt lat="45.70072" lon="-0.98545">
        <ele>48.747966</ele>
        <time>2022-12-22T11:32:19.580Z</time>
      </trkpt>
      <trkpt lat="45.70065" lon="-0.98555">
        <ele>48.511883</ele>
        <time>2022-12-22T11:32:22.559Z</time>
      </trkpt>
      <trkpt lat="45.70056" lon="-0.98565">
        <ele>48.39251</ele>
        <time>2022-12-22T11:32:25.645Z</time>
      </trkpt>
      <trkpt lat="45.70048" lon="-0.98576">
        <ele>48.278054</ele>
        <time>2022-12-22T11:32:28.550Z</time>
      </trkpt>
      <trkpt lat="45.7004" lon="-0.98587">
        <ele>48.167796</ele>
        <time>2022-12-22T11:32:31.622Z</time>
      </trkpt>
      <trkpt lat="45.70032" lon="-0.98597">
        <ele>48.059487</ele>
        <time>2022-12-22T11:32:34.570Z</time>
      </trkpt>
      <trkpt lat="45.70024" lon="-0.98608">
        <ele>47.951877</ele>
        <time>2022-12-22T11:32:37.585Z</time>
      </trkpt>
      <trkpt lat="45.70016" lon="-0.98618">
        <ele>47.846429</ele>
        <time>2022-12-22T11:32:40.576Z</time>
      </trkpt>
      <trkpt lat="45.70009" lon="-0.98627">
        <ele>47.749985</ele>
        <time>2022-12-22T11:32:43.635Z</time>
      </trkpt>
      <trkpt lat="45.70002" lon="-0.98636">
        <ele>47.648194</ele>
        <time>2022-12-22T11:32:46.565Z</time>
      </trkpt>
      <trkpt lat="45.69994" lon="-0.98647">
        <ele>47.539365</ele>
        <time>2022-12-22T11:32:49.633Z</time>
      </trkpt>
      <trkpt lat="45.69986" lon="-0.98657">
        <ele>47.430257</ele>
        <time>2022-12-22T11:32:52.576Z</time>
      </trkpt>
      <trkpt lat="45.69978" lon="-0.98668">
        <ele>47.323646</ele>
        <time>2022-12-22T11:32:55.624Z</time>
      </trkpt>
      <trkpt lat="45.69971" lon="-0.98677">
        <ele>47.229902</ele>
        <time>2022-12-22T11:32:58.574Z</time>
      </trkpt>
      <trkpt lat="45.69962" lon="-0.98688">
        <ele>47.110379</ele>
        <time>2022-12-22T11:33:02.578Z</time>
      </trkpt>
      <trkpt lat="45.69956" lon="-0.98697">
        <ele>47.017851</ele>
        <time>2022-12-22T11:33:05.576Z</time>
      </trkpt>
      <trkpt lat="45.69949" lon="-0.98706">
        <ele>46.921589</ele>
        <time>2022-12-22T11:33:08.576Z</time>
      </trkpt>
      <trkpt lat="45.69942" lon="-0.98715">
        <ele>46.827581</ele>
        <time>2022-12-22T11:33:11.578Z</time>
      </trkpt>
      <trkpt lat="45.69935" lon="-0.98724">
        <ele>46.731881</ele>
        <time>2022-12-22T11:33:14.576Z</time>
      </trkpt>
      <trkpt lat="45.69928" lon="-0.98733">
        <ele>46.709875</ele>
        <time>2022-12-22T11:33:17.553Z</time>
      </trkpt>
      <trkpt lat="45.69919" lon="-0.98745">
        <ele>46.765653</ele>
        <time>2022-12-22T11:33:21.576Z</time>
      </trkpt>
      <trkpt lat="45.69912" lon="-0.98754">
        <ele>46.810723</ele>
        <time>2022-12-22T11:33:24.575Z</time>
      </trkpt>
      <trkpt lat="45.69905" lon="-0.98764">
        <ele>46.857138</ele>
        <time>2022-12-22T11:33:27.552Z</time>
      </trkpt>
      <trkpt lat="45.69897" lon="-0.98773">
        <ele>46.903795</ele>
        <time>2022-12-22T11:33:30.628Z</time>
      </trkpt>
      <trkpt lat="45.6989" lon="-0.98783">
        <ele>46.951268</ele>
        <time>2022-12-22T11:33:33.578Z</time>
      </trkpt>
      <trkpt lat="45.69883" lon="-0.98793">
        <ele>46.997573</ele>
        <time>2022-12-22T11:33:36.636Z</time>
      </trkpt>
      <trkpt lat="45.69877" lon="-0.98802">
        <ele>47.04011</ele>
        <time>2022-12-22T11:33:39.576Z</time>
      </trkpt>
      <trkpt lat="45.6987" lon="-0.98815">
        <ele>47.094745</ele>
        <time>2022-12-22T11:33:43.576Z</time>
      </trkpt>
      <trkpt lat="45.69862" lon="-0.98828">
        <ele>47.148779</ele>
        <time>2022-12-22T11:33:47.561Z</time>
      </trkpt>
      <trkpt lat="45.69855" lon="-0.9884">
        <ele>47.202098</ele>
        <time>2022-12-22T11:33:51.579Z</time>
      </trkpt>
      <trkpt lat="45.69848" lon="-0.98852">
        <ele>47.255023</ele>
        <time>2022-12-22T11:33:55.578Z</time>
      </trkpt>
      <trkpt lat="45.69842" lon="-0.98863">
        <ele>47.298928</ele>
        <time>2022-12-22T11:33:58.576Z</time>
      </trkpt>
      <trkpt lat="45.69837" lon="-0.98874">
        <ele>47.343702</ele>
        <time>2022-12-22T11:34:01.551Z</time>
      </trkpt>
      <trkpt lat="45.6983" lon="-0.98884">
        <ele>47.390139</ele>
        <time>2022-12-22T11:34:04.576Z</time>
      </trkpt>
      <trkpt lat="45.69824" lon="-0.98896">
        <ele>47.43648</ele>
        <time>2022-12-22T11:34:07.551Z</time>
      </trkpt>
      <trkpt lat="45.69818" lon="-0.98907">
        <ele>47.483728</ele>
        <time>2022-12-22T11:34:10.575Z</time>
      </trkpt>
      <trkpt lat="45.69812" lon="-0.98918">
        <ele>47.528731</ele>
        <time>2022-12-22T11:34:13.571Z</time>
      </trkpt>
      <trkpt lat="45.69805" lon="-0.98931">
        <ele>47.561835</ele>
        <time>2022-12-22T11:34:17.557Z</time>
      </trkpt>
      <trkpt lat="45.69799" lon="-0.98943">
        <ele>47.586012</ele>
        <time>2022-12-22T11:34:20.579Z</time>
      </trkpt>
      <trkpt lat="45.69793" lon="-0.98955">
        <ele>47.611307</ele>
        <time>2022-12-22T11:34:23.571Z</time>
      </trkpt>
      <trkpt lat="45.69787" lon="-0.98967">
        <ele>47.636186</ele>
        <time>2022-12-22T11:34:26.579Z</time>
      </trkpt>
      <trkpt lat="45.69781" lon="-0.98978">
        <ele>47.661201</ele>
        <time>2022-12-22T11:34:29.623Z</time>
      </trkpt>
      <trkpt lat="45.69775" lon="-0.98989">
        <ele>47.685004</ele>
        <time>2022-12-22T11:34:32.575Z</time>
      </trkpt>
      <trkpt lat="45.69768" lon="-0.99001">
        <ele>47.70979</ele>
        <time>2022-12-22T11:34:35.629Z</time>
      </trkpt>
      <trkpt lat="45.69762" lon="-0.99012">
        <ele>47.733846</ele>
        <time>2022-12-22T11:34:38.577Z</time>
      </trkpt>
      <trkpt lat="45.69755" lon="-0.99024">
        <ele>47.760472</ele>
        <time>2022-12-22T11:34:42.575Z</time>
      </trkpt>
      <trkpt lat="45.69749" lon="-0.99035">
        <ele>47.78416</ele>
        <time>2022-12-22T11:34:45.576Z</time>
      </trkpt>
      <trkpt lat="45.69742" lon="-0.99045">
        <ele>47.809005</ele>
        <time>2022-12-22T11:34:48.556Z</time>
      </trkpt>
      <trkpt lat="45.69734" lon="-0.99055">
        <ele>47.834165</ele>
        <time>2022-12-22T11:34:51.576Z</time>
      </trkpt>
      <trkpt lat="45.69726" lon="-0.99065">
        <ele>47.859198</ele>
        <time>2022-12-22T11:34:54.556Z</time>
      </trkpt>
      <trkpt lat="45.69718" lon="-0.99074">
        <ele>47.883398</ele>
        <time>2022-12-22T11:34:57.556Z</time>
      </trkpt>
      <trkpt lat="45.6971" lon="-0.99083">
        <ele>47.909739</ele>
        <time>2022-12-22T11:35:00.574Z</time>
      </trkpt>
      <trkpt lat="45.69701" lon="-0.9909">
        <ele>47.93333</ele>
        <time>2022-12-22T11:35:03.575Z</time>
      </trkpt>
      <trkpt lat="45.69691" lon="-0.991">
        <ele>47.962992</ele>
        <time>2022-12-22T11:35:07.555Z</time>
      </trkpt>
      <trkpt lat="45.69683" lon="-0.99106">
        <ele>47.970871</ele>
        <time>2022-12-22T11:35:10.574Z</time>
      </trkpt>
      <trkpt lat="45.69675" lon="-0.99113">
        <ele>47.965984</ele>
        <time>2022-12-22T11:35:13.567Z</time>
      </trkpt>
      <trkpt lat="45.69666" lon="-0.99121">
        <ele>47.960998</ele>
        <time>2022-12-22T11:35:16.575Z</time>
      </trkpt>
      <trkpt lat="45.69658" lon="-0.99128">
        <ele>47.955839</ele>
        <time>2022-12-22T11:35:19.568Z</time>
      </trkpt>
      <trkpt lat="45.69649" lon="-0.99136">
        <ele>47.950748</ele>
        <time>2022-12-22T11:35:22.576Z</time>
      </trkpt>
      <trkpt lat="45.69641" lon="-0.99143">
        <ele>47.945625</ele>
        <time>2022-12-22T11:35:25.579Z</time>
      </trkpt>
      <trkpt lat="45.69632" lon="-0.99151">
        <ele>47.940781</ele>
        <time>2022-12-22T11:35:28.578Z</time>
      </trkpt>
      <trkpt lat="45.69625" lon="-0.99157">
        <ele>47.93617</ele>
        <time>2022-12-22T11:35:31.577Z</time>
      </trkpt>
      <trkpt lat="45.69616" lon="-0.99164">
        <ele>47.931418</ele>
        <time>2022-12-22T11:35:34.628Z</time>
      </trkpt>
      <trkpt lat="45.69606" lon="-0.99172">
        <ele>47.925378</ele>
        <time>2022-12-22T11:35:38.576Z</time>
      </trkpt>
      <trkpt lat="45.69596" lon="-0.9918">
        <ele>47.919673</ele>
        <time>2022-12-22T11:35:42.576Z</time>
      </trkpt>
      <trkpt lat="45.69586" lon="-0.99188">
        <ele>47.91363</ele>
        <time>2022-12-22T11:35:46.624Z</time>
      </trkpt>
      <trkpt lat="45.69578" lon="-0.99195">
        <ele>47.908842</ele>
        <time>2022-12-22T11:35:49.577Z</time>
      </trkpt>
      <trkpt lat="45.69569" lon="-0.99202">
        <ele>47.903895</ele>
        <time>2022-12-22T11:35:52.650Z</time>
      </trkpt>
      <trkpt lat="45.69561" lon="-0.99209">
        <ele>47.898866</ele>
        <time>2022-12-22T11:35:55.577Z</time>
      </trkpt>
      <trkpt lat="45.69553" lon="-0.99217">
        <ele>47.893818</ele>
        <time>2022-12-22T11:35:58.629Z</time>
      </trkpt>
      <trkpt lat="45.69543" lon="-0.99224">
        <ele>47.888474</ele>
        <time>2022-12-22T11:36:01.573Z</time>
      </trkpt>
      <trkpt lat="45.69534" lon="-0.99232">
        <ele>47.883113</ele>
        <time>2022-12-22T11:36:04.658Z</time>
      </trkpt>
      <trkpt lat="45.69524" lon="-0.9924">
        <ele>47.866285</ele>
        <time>2022-12-22T11:36:07.567Z</time>
      </trkpt>
      <trkpt lat="45.69516" lon="-0.99248">
        <ele>47.848052</ele>
        <time>2022-12-22T11:36:10.629Z</time>
      </trkpt>
      <trkpt lat="45.69507" lon="-0.99256">
        <ele>47.830594</ele>
        <time>2022-12-22T11:36:13.581Z</time>
      </trkpt>
      <trkpt lat="45.69498" lon="-0.99264">
        <ele>47.812374</ele>
        <time>2022-12-22T11:36:16.624Z</time>
      </trkpt>
      <trkpt lat="45.69489" lon="-0.99273">
        <ele>47.794154</ele>
        <time>2022-12-22T11:36:19.574Z</time>
      </trkpt>
      <trkpt lat="45.69481" lon="-0.99281">
        <ele>47.776153</ele>
        <time>2022-12-22T11:36:22.650Z</time>
      </trkpt>
      <trkpt lat="45.69473" lon="-0.9929">
        <ele>47.759062</ele>
        <time>2022-12-22T11:36:25.576Z</time>
      </trkpt>
      <trkpt lat="45.69465" lon="-0.99298">
        <ele>47.742374</ele>
        <time>2022-12-22T11:36:28.596Z</time>
      </trkpt>
      <trkpt lat="45.69456" lon="-0.99308">
        <ele>47.722822</ele>
        <time>2022-12-22T11:36:32.576Z</time>
      </trkpt>
      <trkpt lat="45.69448" lon="-0.99318">
        <ele>47.704892</ele>
        <time>2022-12-22T11:36:36.576Z</time>
      </trkpt>
      <trkpt lat="45.6944" lon="-0.99328">
        <ele>47.686241</ele>
        <time>2022-12-22T11:36:40.575Z</time>
      </trkpt>
      <trkpt lat="45.69432" lon="-0.99337">
        <ele>47.66801</ele>
        <time>2022-12-22T11:36:44.570Z</time>
      </trkpt>
      <trkpt lat="45.69423" lon="-0.99347">
        <ele>47.648384</ele>
        <time>2022-12-22T11:36:48.569Z</time>
      </trkpt>
      <trkpt lat="45.69413" lon="-0.99357">
        <ele>47.627717</ele>
        <time>2022-12-22T11:36:52.574Z</time>
      </trkpt>
      <trkpt lat="45.69406" lon="-0.99365">
        <ele>47.611806</ele>
        <time>2022-12-22T11:36:55.576Z</time>
      </trkpt>
      <trkpt lat="45.69398" lon="-0.99374">
        <ele>47.595339</ele>
        <time>2022-12-22T11:36:58.574Z</time>
      </trkpt>
      <trkpt lat="45.6939" lon="-0.99382">
        <ele>47.578525</ele>
        <time>2022-12-22T11:37:01.576Z</time>
      </trkpt>
      <trkpt lat="45.69383" lon="-0.9939">
        <ele>47.547415</ele>
        <time>2022-12-22T11:37:04.572Z</time>
      </trkpt>
      <trkpt lat="45.69373" lon="-0.99399">
        <ele>47.499269</ele>
        <time>2022-12-22T11:37:08.575Z</time>
      </trkpt>
      <trkpt lat="45.69364" lon="-0.99408">
        <ele>47.455403</ele>
        <time>2022-12-22T11:37:12.570Z</time>
      </trkpt>
      <trkpt lat="45.69355" lon="-0.99418">
        <ele>47.405912</ele>
        <time>2022-12-22T11:37:16.574Z</time>
      </trkpt>
      <trkpt lat="45.69347" lon="-0.99425">
        <ele>47.367261</ele>
        <time>2022-12-22T11:37:19.574Z</time>
      </trkpt>
      <trkpt lat="45.69339" lon="-0.99432">
        <ele>47.32841</ele>
        <time>2022-12-22T11:37:22.569Z</time>
      </trkpt>
      <trkpt lat="45.69331" lon="-0.99439">
        <ele>47.287368</ele>
        <time>2022-12-22T11:37:25.573Z</time>
      </trkpt>
      <trkpt lat="45.69323" lon="-0.99447">
        <ele>47.247029</ele>
        <time>2022-12-22T11:37:28.576Z</time>
      </trkpt>
      <trkpt lat="45.69314" lon="-0.99454">
        <ele>47.206651</ele>
        <time>2022-12-22T11:37:31.577Z</time>
      </trkpt>
      <trkpt lat="45.69306" lon="-0.99462">
        <ele>47.165644</ele>
        <time>2022-12-22T11:37:34.574Z</time>
      </trkpt>
      <trkpt lat="45.69298" lon="-0.99469">
        <ele>47.12562</ele>
        <time>2022-12-22T11:37:37.551Z</time>
      </trkpt>
      <trkpt lat="45.69288" lon="-0.99477">
        <ele>47.076988</ele>
        <time>2022-12-22T11:37:41.576Z</time>
      </trkpt>
      <trkpt lat="45.69278" lon="-0.99486">
        <ele>47.02668</ele>
        <time>2022-12-22T11:37:45.623Z</time>
      </trkpt>
      <trkpt lat="45.6927" lon="-0.99493">
        <ele>46.987266</ele>
        <time>2022-12-22T11:37:48.553Z</time>
      </trkpt>
      <trkpt lat="45.69262" lon="-0.995">
        <ele>46.948925</ele>
        <time>2022-12-22T11:37:51.626Z</time>
      </trkpt>
      <trkpt lat="45.69254" lon="-0.99507">
        <ele>46.90936</ele>
        <time>2022-12-22T11:37:54.574Z</time>
      </trkpt>
      <trkpt lat="45.69246" lon="-0.99514">
        <ele>46.869644</ele>
        <time>2022-12-22T11:37:57.586Z</time>
      </trkpt>
      <trkpt lat="45.69237" lon="-0.99521">
        <ele>46.829069</ele>
        <time>2022-12-22T11:38:00.575Z</time>
      </trkpt>
      <trkpt lat="45.69229" lon="-0.99528">
        <ele>46.797129</ele>
        <time>2022-12-22T11:38:03.625Z</time>
      </trkpt>
      <trkpt lat="45.6922" lon="-0.99535">
        <ele>46.767861</ele>
        <time>2022-12-22T11:38:06.582Z</time>
      </trkpt>
      <trkpt lat="45.69211" lon="-0.99543">
        <ele>46.736053</ele>
        <time>2022-12-22T11:38:10.580Z</time>
      </trkpt>
      <trkpt lat="45.69201" lon="-0.99551">
        <ele>46.701135</ele>
        <time>2022-12-22T11:38:14.577Z</time>
      </trkpt>
      <trkpt lat="45.69193" lon="-0.99558">
        <ele>46.673013</ele>
        <time>2022-12-22T11:38:17.557Z</time>
      </trkpt>
      <trkpt lat="45.69184" lon="-0.99565">
        <ele>46.644424</ele>
        <time>2022-12-22T11:38:20.576Z</time>
      </trkpt>
      <trkpt lat="45.69176" lon="-0.99572">
        <ele>46.614953</ele>
        <time>2022-12-22T11:38:23.573Z</time>
      </trkpt>
      <trkpt lat="45.69167" lon="-0.99579">
        <ele>46.58474</ele>
        <time>2022-12-22T11:38:26.577Z</time>
      </trkpt>
      <trkpt lat="45.69159" lon="-0.99586">
        <ele>46.556347</ele>
        <time>2022-12-22T11:38:29.557Z</time>
      </trkpt>
      <trkpt lat="45.69151" lon="-0.99593">
        <ele>46.529154</ele>
        <time>2022-12-22T11:38:32.574Z</time>
      </trkpt>
      <trkpt lat="45.69142" lon="-0.99601">
        <ele>46.495584</ele>
        <time>2022-12-22T11:38:36.578Z</time>
      </trkpt>
      <trkpt lat="45.69132" lon="-0.9961">
        <ele>46.46187</ele>
        <time>2022-12-22T11:38:40.569Z</time>
      </trkpt>
      <trkpt lat="45.69122" lon="-0.99619">
        <ele>46.426051</ele>
        <time>2022-12-22T11:38:44.621Z</time>
      </trkpt>
      <trkpt lat="45.69114" lon="-0.99626">
        <ele>46.397464</ele>
        <time>2022-12-22T11:38:47.559Z</time>
      </trkpt>
      <trkpt lat="45.69105" lon="-0.99635">
        <ele>46.364843</ele>
        <time>2022-12-22T11:38:51.577Z</time>
      </trkpt>
      <trkpt lat="45.69096" lon="-0.99643">
        <ele>46.332664</ele>
        <time>2022-12-22T11:38:55.576Z</time>
      </trkpt>
      <trkpt lat="45.69086" lon="-0.99652">
        <ele>46.297606</ele>
        <time>2022-12-22T11:38:59.578Z</time>
      </trkpt>
      <trkpt lat="45.69076" lon="-0.99661">
        <ele>46.310397</ele>
        <time>2022-12-22T11:39:03.577Z</time>
      </trkpt>
      <trkpt lat="45.69068" lon="-0.99668">
        <ele>46.348904</ele>
        <time>2022-12-22T11:39:06.575Z</time>
      </trkpt>
      <trkpt lat="45.6906" lon="-0.99676">
        <ele>46.38859</ele>
        <time>2022-12-22T11:39:09.577Z</time>
      </trkpt>
      <trkpt lat="45.69052" lon="-0.99683">
        <ele>46.428276</ele>
        <time>2022-12-22T11:39:12.575Z</time>
      </trkpt>
      <trkpt lat="45.69044" lon="-0.99691">
        <ele>46.468656</ele>
        <time>2022-12-22T11:39:15.573Z</time>
      </trkpt>
      <trkpt lat="45.69036" lon="-0.99698">
        <ele>46.507041</ele>
        <time>2022-12-22T11:39:18.574Z</time>
      </trkpt>
      <trkpt lat="45.69028" lon="-0.99705">
        <ele>46.547657</ele>
        <time>2022-12-22T11:39:22.578Z</time>
      </trkpt>
      <trkpt lat="45.6902" lon="-0.99713">
        <ele>46.587182</ele>
        <time>2022-12-22T11:39:26.575Z</time>
      </trkpt>
      <trkpt lat="45.69011" lon="-0.99721">
        <ele>46.632679</ele>
        <time>2022-12-22T11:39:30.576Z</time>
      </trkpt>
      <trkpt lat="45.69001" lon="-0.9973">
        <ele>46.67983</ele>
        <time>2022-12-22T11:39:34.577Z</time>
      </trkpt>
      <trkpt lat="45.68992" lon="-0.99739">
        <ele>46.727128</ele>
        <time>2022-12-22T11:39:38.576Z</time>
      </trkpt>
      <trkpt lat="45.68983" lon="-0.99748">
        <ele>46.772823</ele>
        <time>2022-12-22T11:39:42.576Z</time>
      </trkpt>
      <trkpt lat="45.68975" lon="-0.99756">
        <ele>46.813036</ele>
        <time>2022-12-22T11:39:46.580Z</time>
      </trkpt>
      <trkpt lat="45.68969" lon="-0.99767">
        <ele>46.855446</ele>
        <time>2022-12-22T11:39:51.577Z</time>
      </trkpt>
      <trkpt lat="45.68953" lon="-0.99775">
        <ele>46.924048</ele>
        <time>2022-12-22T11:41:44.586Z</time>
      </trkpt>
      <trkpt lat="45.68945" lon="-0.99785">
        <ele>46.967386</ele>
        <time>2022-12-22T11:41:48.580Z</time>
      </trkpt>
      <trkpt lat="45.68937" lon="-0.99793">
        <ele>47.010446</ele>
        <time>2022-12-22T11:41:52.576Z</time>
      </trkpt>
      <trkpt lat="45.68929" lon="-0.998">
        <ele>47.210318</ele>
        <time>2022-12-22T11:41:56.573Z</time>
      </trkpt>
      <trkpt lat="45.6892" lon="-0.99809">
        <ele>47.638233</ele>
        <time>2022-12-22T11:42:01.578Z</time>
      </trkpt>
      <trkpt lat="45.68912" lon="-0.99816">
        <ele>48.028127</ele>
        <time>2022-12-22T11:42:06.580Z</time>
      </trkpt>
      <trkpt lat="45.68905" lon="-0.99824">
        <ele>48.427206</ele>
        <time>2022-12-22T11:42:11.584Z</time>
      </trkpt>
      <trkpt lat="45.68897" lon="-0.99831">
        <ele>48.807571</ele>
        <time>2022-12-22T11:42:16.579Z</time>
      </trkpt>
      <trkpt lat="45.68889" lon="-0.99838">
        <ele>49.196588</ele>
        <time>2022-12-22T11:42:21.629Z</time>
      </trkpt>
      <trkpt lat="45.68881" lon="-0.99845">
        <ele>49.595098</ele>
        <time>2022-12-22T11:42:26.579Z</time>
      </trkpt>
      <trkpt lat="45.68872" lon="-0.99851">
        <ele>49.983474</ele>
        <time>2022-12-22T11:42:31.574Z</time>
      </trkpt>
      <trkpt lat="45.68864" lon="-0.99857">
        <ele>50.373848</ele>
        <time>2022-12-22T11:42:36.576Z</time>
      </trkpt>
      <trkpt lat="45.68855" lon="-0.99864">
        <ele>50.808106</ele>
        <time>2022-12-22T11:42:42.575Z</time>
      </trkpt>
      <trkpt lat="45.68846" lon="-0.9987">
        <ele>51.227294</ele>
        <time>2022-12-22T11:42:47.568Z</time>
      </trkpt>
      <trkpt lat="45.68836" lon="-0.99876">
        <ele>51.650301</ele>
        <time>2022-12-22T11:42:52.578Z</time>
      </trkpt>
      <trkpt lat="45.68826" lon="-0.99882">
        <ele>52.105446</ele>
        <time>2022-12-22T11:42:57.566Z</time>
      </trkpt>
      <trkpt lat="45.68816" lon="-0.99888">
        <ele>52.549593</ele>
        <time>2022-12-22T11:43:02.576Z</time>
      </trkpt>
      <trkpt lat="45.68805" lon="-0.99892">
        <ele>53.020535</ele>
        <time>2022-12-22T11:43:07.597Z</time>
      </trkpt>
      <trkpt lat="45.68795" lon="-0.99896">
        <ele>53.481147</ele>
        <time>2022-12-22T11:43:11.592Z</time>
      </trkpt>
      <trkpt lat="45.68785" lon="-0.99901">
        <ele>53.918507</ele>
        <time>2022-12-22T11:43:15.578Z</time>
      </trkpt>
      <trkpt lat="45.68774" lon="-0.99904">
        <ele>54.378346</ele>
        <time>2022-12-22T11:43:19.564Z</time>
      </trkpt>
      <trkpt lat="45.68763" lon="-0.99907">
        <ele>54.547325</ele>
        <time>2022-12-22T11:43:23.578Z</time>
      </trkpt>
      <trkpt lat="45.68752" lon="-0.99909">
        <ele>54.598041</ele>
        <time>2022-12-22T11:43:27.556Z</time>
      </trkpt>
      <trkpt lat="45.68742" lon="-0.9991">
        <ele>54.639442</ele>
        <time>2022-12-22T11:43:30.583Z</time>
      </trkpt>
      <trkpt lat="45.68733" lon="-0.9991">
        <ele>54.680399</ele>
        <time>2022-12-22T11:43:33.576Z</time>
      </trkpt>
      <trkpt lat="45.68724" lon="-0.99911">
        <ele>54.721431</ele>
        <time>2022-12-22T11:43:36.578Z</time>
      </trkpt>
      <trkpt lat="45.68712" lon="-0.99913">
        <ele>54.773575</ele>
        <time>2022-12-22T11:43:40.628Z</time>
      </trkpt>
      <trkpt lat="45.68701" lon="-0.99912">
        <ele>54.824733</ele>
        <time>2022-12-22T11:43:44.578Z</time>
      </trkpt>
      <trkpt lat="45.68691" lon="-0.99911">
        <ele>54.866233</ele>
        <time>2022-12-22T11:43:47.565Z</time>
      </trkpt>
      <trkpt lat="45.68682" lon="-0.9991">
        <ele>54.906761</ele>
        <time>2022-12-22T11:43:50.578Z</time>
      </trkpt>
      <trkpt lat="45.68672" lon="-0.99909">
        <ele>54.950454</ele>
        <time>2022-12-22T11:43:53.583Z</time>
      </trkpt>
      <trkpt lat="45.68663" lon="-0.99908">
        <ele>54.994639</ele>
        <time>2022-12-22T11:43:56.561Z</time>
      </trkpt>
      <trkpt lat="45.68653" lon="-0.99906">
        <ele>55.037926</ele>
        <time>2022-12-22T11:43:59.556Z</time>
      </trkpt>
      <trkpt lat="45.68643" lon="-0.99904">
        <ele>55.082481</ele>
        <time>2022-12-22T11:44:02.552Z</time>
      </trkpt>
      <trkpt lat="45.68633" lon="-0.99901">
        <ele>55.126863</ele>
        <time>2022-12-22T11:44:05.577Z</time>
      </trkpt>
      <trkpt lat="45.68623" lon="-0.99898">
        <ele>55.172301</ele>
        <time>2022-12-22T11:44:08.558Z</time>
      </trkpt>
      <trkpt lat="45.68613" lon="-0.99895">
        <ele>55.217804</ele>
        <time>2022-12-22T11:44:11.556Z</time>
      </trkpt>
      <trkpt lat="45.68604" lon="-0.99892">
        <ele>55.260847</ele>
        <time>2022-12-22T11:44:14.572Z</time>
      </trkpt>
      <trkpt lat="45.68594" lon="-0.99888">
        <ele>55.304754</ele>
        <time>2022-12-22T11:44:17.561Z</time>
      </trkpt>
      <trkpt lat="45.68584" lon="-0.99885">
        <ele>55.341263</ele>
        <time>2022-12-22T11:44:20.573Z</time>
      </trkpt>
      <trkpt lat="45.68575" lon="-0.99882">
        <ele>55.375745</ele>
        <time>2022-12-22T11:44:23.578Z</time>
      </trkpt>
      <trkpt lat="45.68565" lon="-0.99879">
        <ele>55.410956</ele>
        <time>2022-12-22T11:44:26.578Z</time>
      </trkpt>
      <trkpt lat="45.68555" lon="-0.99875">
        <ele>55.446115</ele>
        <time>2022-12-22T11:44:29.558Z</time>
      </trkpt>
      <trkpt lat="45.68545" lon="-0.99872">
        <ele>55.482004</ele>
        <time>2022-12-22T11:44:32.627Z</time>
      </trkpt>
      <trkpt lat="45.68535" lon="-0.9987">
        <ele>55.517866</ele>
        <time>2022-12-22T11:44:35.559Z</time>
      </trkpt>
      <trkpt lat="45.68524" lon="-0.99868">
        <ele>55.553928</ele>
        <time>2022-12-22T11:44:38.648Z</time>
      </trkpt>
      <trkpt lat="45.68514" lon="-0.99866">
        <ele>55.590217</ele>
        <time>2022-12-22T11:44:41.575Z</time>
      </trkpt>
      <trkpt lat="45.68503" lon="-0.99864">
        <ele>55.62745</ele>
        <time>2022-12-22T11:44:44.626Z</time>
      </trkpt>
      <trkpt lat="45.68492" lon="-0.9986">
        <ele>55.666153</ele>
        <time>2022-12-22T11:44:47.549Z</time>
      </trkpt>
      <trkpt lat="45.68482" lon="-0.99857">
        <ele>55.702881</ele>
        <time>2022-12-22T11:44:50.572Z</time>
      </trkpt>
      <trkpt lat="45.68472" lon="-0.99854">
        <ele>55.7393</ele>
        <time>2022-12-22T11:44:53.576Z</time>
      </trkpt>
      <trkpt lat="45.68458" lon="-0.99851">
        <ele>55.789064</ele>
        <time>2022-12-22T11:44:57.561Z</time>
      </trkpt>
      <trkpt lat="45.68447" lon="-0.99848">
        <ele>55.827826</ele>
        <time>2022-12-22T11:45:00.572Z</time>
      </trkpt>
      <trkpt lat="45.68436" lon="-0.99845">
        <ele>55.867016</ele>
        <time>2022-12-22T11:45:03.579Z</time>
      </trkpt>
      <trkpt lat="45.68425" lon="-0.99843">
        <ele>55.904898</ele>
        <time>2022-12-22T11:45:06.567Z</time>
      </trkpt>
      <trkpt lat="45.68414" lon="-0.99841">
        <ele>55.93433</ele>
        <time>2022-12-22T11:45:09.576Z</time>
      </trkpt>
      <trkpt lat="45.68405" lon="-0.9984">
        <ele>55.925099</ele>
        <time>2022-12-22T11:45:12.573Z</time>
      </trkpt>
      <trkpt lat="45.68395" lon="-0.99843">
        <ele>55.916233</ele>
        <time>2022-12-22T11:45:15.579Z</time>
      </trkpt>
      <trkpt lat="45.68388" lon="-0.99851">
        <ele>55.907812</ele>
        <time>2022-12-22T11:45:18.567Z</time>
      </trkpt>
      <trkpt lat="45.68384" lon="-0.99862">
        <ele>55.89943</ele>
        <time>2022-12-22T11:45:21.578Z</time>
      </trkpt>
      <trkpt lat="45.68378" lon="-0.99873">
        <ele>55.890858</ele>
        <time>2022-12-22T11:45:24.576Z</time>
      </trkpt>
      <trkpt lat="45.68369" lon="-0.99882">
        <ele>55.880259</ele>
        <time>2022-12-22T11:45:28.559Z</time>
      </trkpt>
      <trkpt lat="45.68357" lon="-0.99884">
        <ele>55.869227</ele>
        <time>2022-12-22T11:45:32.565Z</time>
      </trkpt>
      <trkpt lat="45.68348" lon="-0.99879">
        <ele>55.860452</ele>
        <time>2022-12-22T11:45:35.581Z</time>
      </trkpt>
      <trkpt lat="45.6834" lon="-0.99872">
        <ele>55.851292</ele>
        <time>2022-12-22T11:45:38.577Z</time>
      </trkpt>
      <trkpt lat="45.68332" lon="-0.99863">
        <ele>55.841728</ele>
        <time>2022-12-22T11:45:41.582Z</time>
      </trkpt>
      <trkpt lat="45.68322" lon="-0.99855">
        <ele>55.831867</ele>
        <time>2022-12-22T11:45:44.578Z</time>
      </trkpt>
      <trkpt lat="45.68312" lon="-0.9985">
        <ele>55.821659</ele>
        <time>2022-12-22T11:45:47.569Z</time>
      </trkpt>
      <trkpt lat="45.68301" lon="-0.99848">
        <ele>55.811729</ele>
        <time>2022-12-22T11:45:50.577Z</time>
      </trkpt>
      <trkpt lat="45.6829" lon="-0.99845">
        <ele>55.801219</ele>
        <time>2022-12-22T11:45:53.578Z</time>
      </trkpt>
      <trkpt lat="45.6828" lon="-0.99843">
        <ele>55.791262</ele>
        <time>2022-12-22T11:45:56.576Z</time>
      </trkpt>
      <trkpt lat="45.68269" lon="-0.99842">
        <ele>55.781093</ele>
        <time>2022-12-22T11:45:59.639Z</time>
      </trkpt>
      <trkpt lat="45.68258" lon="-0.99841">
        <ele>55.77074</ele>
        <time>2022-12-22T11:46:02.578Z</time>
      </trkpt>
      <trkpt lat="45.68246" lon="-0.9984">
        <ele>55.697787</ele>
        <time>2022-12-22T11:46:05.630Z</time>
      </trkpt>
      <trkpt lat="45.68235" lon="-0.9984">
        <ele>55.607876</ele>
        <time>2022-12-22T11:46:08.577Z</time>
      </trkpt>
      <trkpt lat="45.68224" lon="-0.9984">
        <ele>55.517981</ele>
        <time>2022-12-22T11:46:11.557Z</time>
      </trkpt>
      <trkpt lat="45.68212" lon="-0.9984">
        <ele>55.428058</ele>
        <time>2022-12-22T11:46:14.578Z</time>
      </trkpt>
      <trkpt lat="45.68201" lon="-0.99841">
        <ele>55.334171</ele>
        <time>2022-12-22T11:46:17.566Z</time>
      </trkpt>
      <trkpt lat="45.68189" lon="-0.99841">
        <ele>55.242658</ele>
        <time>2022-12-22T11:46:20.580Z</time>
      </trkpt>
      <trkpt lat="45.68178" lon="-0.99841">
        <ele>55.153543</ele>
        <time>2022-12-22T11:46:23.561Z</time>
      </trkpt>
      <trkpt lat="45.68167" lon="-0.99842">
        <ele>55.063632</ele>
        <time>2022-12-22T11:46:26.552Z</time>
      </trkpt>
      <trkpt lat="45.68155" lon="-0.99842">
        <ele>54.970513</ele>
        <time>2022-12-22T11:46:29.576Z</time>
      </trkpt>
      <trkpt lat="45.68143" lon="-0.99842">
        <ele>54.875024</ele>
        <time>2022-12-22T11:46:32.577Z</time>
      </trkpt>
      <trkpt lat="45.68132" lon="-0.99843">
        <ele>54.78429</ele>
        <time>2022-12-22T11:46:35.580Z</time>
      </trkpt>
      <trkpt lat="45.68121" lon="-0.99844">
        <ele>54.698308</ele>
        <time>2022-12-22T11:46:38.640Z</time>
      </trkpt>
      <trkpt lat="45.68109" lon="-0.99844">
        <ele>54.606739</ele>
        <time>2022-12-22T11:46:41.576Z</time>
      </trkpt>
      <trkpt lat="45.68097" lon="-0.99845">
        <ele>54.508079</ele>
        <time>2022-12-22T11:46:44.573Z</time>
      </trkpt>
      <trkpt lat="45.68085" lon="-0.99845">
        <ele>54.410229</ele>
        <time>2022-12-22T11:46:47.562Z</time>
      </trkpt>
      <trkpt lat="45.68073" lon="-0.99845">
        <ele>54.32953</ele>
        <time>2022-12-22T11:46:50.581Z</time>
      </trkpt>
      <trkpt lat="45.6806" lon="-0.99845">
        <ele>54.294712</ele>
        <time>2022-12-22T11:46:53.565Z</time>
      </trkpt>
      <trkpt lat="45.68048" lon="-0.99845">
        <ele>54.260456</ele>
        <time>2022-12-22T11:46:56.579Z</time>
      </trkpt>
      <trkpt lat="45.68036" lon="-0.99845">
        <ele>54.225635</ele>
        <time>2022-12-22T11:46:59.590Z</time>
      </trkpt>
      <trkpt lat="45.68023" lon="-0.99845">
        <ele>54.190258</ele>
        <time>2022-12-22T11:47:02.576Z</time>
      </trkpt>
      <trkpt lat="45.6801" lon="-0.99846">
        <ele>54.155153</ele>
        <time>2022-12-22T11:47:05.560Z</time>
      </trkpt>
      <trkpt lat="45.67997" lon="-0.99846">
        <ele>54.118364</ele>
        <time>2022-12-22T11:47:08.639Z</time>
      </trkpt>
      <trkpt lat="45.67984" lon="-0.99846">
        <ele>54.081019</ele>
        <time>2022-12-22T11:47:11.580Z</time>
      </trkpt>
      <trkpt lat="45.67975" lon="-0.99846">
        <ele>54.054896</ele>
        <time>2022-12-22T11:47:13.580Z</time>
      </trkpt>
      <trkpt lat="45.67961" lon="-0.99846">
        <ele>54.01699</ele>
        <time>2022-12-22T11:47:16.558Z</time>
      </trkpt>
      <trkpt lat="45.67948" lon="-0.99847">
        <ele>53.979354</ele>
        <time>2022-12-22T11:47:19.634Z</time>
      </trkpt>
      <trkpt lat="45.67939" lon="-0.99847">
        <ele>53.954085</ele>
        <time>2022-12-22T11:47:21.571Z</time>
      </trkpt>
      <trkpt lat="45.67925" lon="-0.99846">
        <ele>53.916443</ele>
        <time>2022-12-22T11:47:24.579Z</time>
      </trkpt>
      <trkpt lat="45.67912" lon="-0.99846">
        <ele>53.878818</ele>
        <time>2022-12-22T11:47:27.568Z</time>
      </trkpt>
      <trkpt lat="45.67899" lon="-0.99845">
        <ele>53.841463</ele>
        <time>2022-12-22T11:47:30.578Z</time>
      </trkpt>
      <trkpt lat="45.67887" lon="-0.99846">
        <ele>53.903886</ele>
        <time>2022-12-22T11:47:33.578Z</time>
      </trkpt>
      <trkpt lat="45.67875" lon="-0.99845">
        <ele>54.005147</ele>
        <time>2022-12-22T11:47:36.574Z</time>
      </trkpt>
      <trkpt lat="45.67863" lon="-0.99846">
        <ele>54.109809</ele>
        <time>2022-12-22T11:47:39.561Z</time>
      </trkpt>
      <trkpt lat="45.6785" lon="-0.99846">
        <ele>54.216975</ele>
        <time>2022-12-22T11:47:42.581Z</time>
      </trkpt>
      <trkpt lat="45.67838" lon="-0.99846">
        <ele>54.321624</ele>
        <time>2022-12-22T11:47:45.579Z</time>
      </trkpt>
      <trkpt lat="45.67825" lon="-0.99847">
        <ele>54.42811</ele>
        <time>2022-12-22T11:47:48.588Z</time>
      </trkpt>
      <trkpt lat="45.67812" lon="-0.99847">
        <ele>54.536134</ele>
        <time>2022-12-22T11:47:51.578Z</time>
      </trkpt>
      <trkpt lat="45.678" lon="-0.99848">
        <ele>54.643315</ele>
        <time>2022-12-22T11:47:54.578Z</time>
      </trkpt>
      <trkpt lat="45.67788" lon="-0.99848">
        <ele>54.738684</ele>
        <time>2022-12-22T11:47:57.560Z</time>
      </trkpt>
      <trkpt lat="45.67779" lon="-0.99849">
        <ele>54.820893</ele>
        <time>2022-12-22T11:48:00.582Z</time>
      </trkpt>
      <trkpt lat="45.67769" lon="-0.99852">
        <ele>54.900532</ele>
        <time>2022-12-22T11:48:03.558Z</time>
      </trkpt>
      <trkpt lat="45.67759" lon="-0.99854">
        <ele>54.989995</ele>
        <time>2022-12-22T11:48:06.573Z</time>
      </trkpt>
      <trkpt lat="45.67748" lon="-0.99856">
        <ele>55.085003</ele>
        <time>2022-12-22T11:48:09.593Z</time>
      </trkpt>
      <trkpt lat="45.67736" lon="-0.99859">
        <ele>55.184914</ele>
        <time>2022-12-22T11:48:12.628Z</time>
      </trkpt>
      <trkpt lat="45.67725" lon="-0.99862">
        <ele>55.282233</ele>
        <time>2022-12-22T11:48:15.575Z</time>
      </trkpt>
      <trkpt lat="45.67714" lon="-0.99864">
        <ele>55.340227</ele>
        <time>2022-12-22T11:48:18.567Z</time>
      </trkpt>
      <trkpt lat="45.67705" lon="-0.99866">
        <ele>55.30342</ele>
        <time>2022-12-22T11:48:21.576Z</time>
      </trkpt>
      <trkpt lat="45.67694" lon="-0.99866">
        <ele>55.257953</ele>
        <time>2022-12-22T11:48:25.571Z</time>
      </trkpt>
      <trkpt lat="45.67684" lon="-0.99866">
        <ele>55.221234</ele>
        <time>2022-12-22T11:48:28.577Z</time>
      </trkpt>
      <trkpt lat="45.67675" lon="-0.99867">
        <ele>55.184873</ele>
        <time>2022-12-22T11:48:31.579Z</time>
      </trkpt>
      <trkpt lat="45.67663" lon="-0.99868">
        <ele>55.136479</ele>
        <time>2022-12-22T11:48:35.570Z</time>
      </trkpt>
      <trkpt lat="45.67654" lon="-0.99869">
        <ele>55.098964</ele>
        <time>2022-12-22T11:48:38.583Z</time>
      </trkpt>
      <trkpt lat="45.67645" lon="-0.9987">
        <ele>55.062827</ele>
        <time>2022-12-22T11:48:41.581Z</time>
      </trkpt>
      <trkpt lat="45.67635" lon="-0.99874">
        <ele>55.022286</ele>
        <time>2022-12-22T11:48:45.580Z</time>
      </trkpt>
      <trkpt lat="45.67625" lon="-0.99879">
        <ele>54.981261</ele>
        <time>2022-12-22T11:48:49.578Z</time>
      </trkpt>
      <trkpt lat="45.67616" lon="-0.99877">
        <ele>54.94439</ele>
        <time>2022-12-22T11:48:52.639Z</time>
      </trkpt>
      <trkpt lat="45.67608" lon="-0.99871">
        <ele>54.907423</ele>
        <time>2022-12-22T11:48:56.576Z</time>
      </trkpt>
      <trkpt lat="45.67599" lon="-0.99863">
        <ele>54.867153</ele>
        <time>2022-12-22T11:49:00.578Z</time>
      </trkpt>
      <trkpt lat="45.67588" lon="-0.99863">
        <ele>54.822085</ele>
        <time>2022-12-22T11:49:04.626Z</time>
      </trkpt>
      <trkpt lat="45.67576" lon="-0.99867">
        <ele>54.773458</ele>
        <time>2022-12-22T11:49:08.579Z</time>
      </trkpt>
      <trkpt lat="45.67567" lon="-0.9987">
        <ele>54.735107</ele>
        <time>2022-12-22T11:49:11.562Z</time>
      </trkpt>
      <trkpt lat="45.67557" lon="-0.99873">
        <ele>54.695731</ele>
        <time>2022-12-22T11:49:14.575Z</time>
      </trkpt>
      <trkpt lat="45.67547" lon="-0.99875">
        <ele>54.655637</ele>
        <time>2022-12-22T11:49:17.559Z</time>
      </trkpt>
      <trkpt lat="45.67537" lon="-0.99878">
        <ele>54.650745</ele>
        <time>2022-12-22T11:49:20.581Z</time>
      </trkpt>
      <trkpt lat="45.67527" lon="-0.99881">
        <ele>54.690158</ele>
        <time>2022-12-22T11:49:23.565Z</time>
      </trkpt>
      <trkpt lat="45.67517" lon="-0.99884">
        <ele>54.728021</ele>
        <time>2022-12-22T11:49:26.558Z</time>
      </trkpt>
      <trkpt lat="45.67508" lon="-0.99888">
        <ele>54.765286</ele>
        <time>2022-12-22T11:49:29.562Z</time>
      </trkpt>
      <trkpt lat="45.67498" lon="-0.99892">
        <ele>54.803085</ele>
        <time>2022-12-22T11:49:32.569Z</time>
      </trkpt>
      <trkpt lat="45.67488" lon="-0.99895">
        <ele>54.841559</ele>
        <time>2022-12-22T11:49:35.577Z</time>
      </trkpt>
      <trkpt lat="45.67479" lon="-0.99898">
        <ele>54.878688</ele>
        <time>2022-12-22T11:49:38.577Z</time>
      </trkpt>
      <trkpt lat="45.67469" lon="-0.99902">
        <ele>54.916169</ele>
        <time>2022-12-22T11:49:41.577Z</time>
      </trkpt>
      <trkpt lat="45.6746" lon="-0.99906">
        <ele>54.953363</ele>
        <time>2022-12-22T11:49:44.579Z</time>
      </trkpt>
      <trkpt lat="45.67449" lon="-0.9991">
        <ele>54.997055</ele>
        <time>2022-12-22T11:49:48.577Z</time>
      </trkpt>
      <trkpt lat="45.67439" lon="-0.99915">
        <ele>55.036791</ele>
        <time>2022-12-22T11:49:52.638Z</time>
      </trkpt>
      <trkpt lat="45.67428" lon="-0.9992">
        <ele>55.08068</ele>
        <time>2022-12-22T11:49:56.573Z</time>
      </trkpt>
      <trkpt lat="45.67417" lon="-0.99925">
        <ele>55.124085</ele>
        <time>2022-12-22T11:50:00.578Z</time>
      </trkpt>
      <trkpt lat="45.67405" lon="-0.99931">
        <ele>55.169093</ele>
        <time>2022-12-22T11:50:04.578Z</time>
      </trkpt>
      <trkpt lat="45.67397" lon="-0.99935">
        <ele>55.203573</ele>
        <time>2022-12-22T11:50:07.563Z</time>
      </trkpt>
      <trkpt lat="45.67388" lon="-0.99939">
        <ele>55.23841</ele>
        <time>2022-12-22T11:50:10.565Z</time>
      </trkpt>
      <trkpt lat="45.67377" lon="-0.99945">
        <ele>55.283768</ele>
        <time>2022-12-22T11:50:14.576Z</time>
      </trkpt>
      <trkpt lat="45.67368" lon="-0.9995">
        <ele>55.33721</ele>
        <time>2022-12-22T11:50:17.560Z</time>
      </trkpt>
      <trkpt lat="45.67358" lon="-0.99957">
        <ele>55.584635</ele>
        <time>2022-12-22T11:50:21.637Z</time>
      </trkpt>
      <trkpt lat="45.67349" lon="-0.99962">
        <ele>55.802632</ele>
        <time>2022-12-22T11:50:25.576Z</time>
      </trkpt>
      <trkpt lat="45.67339" lon="-0.99968">
        <ele>56.027346</ele>
        <time>2022-12-22T11:50:29.576Z</time>
      </trkpt>
      <trkpt lat="45.6733" lon="-0.99974">
        <ele>56.248863</ele>
        <time>2022-12-22T11:50:33.577Z</time>
      </trkpt>
      <trkpt lat="45.6732" lon="-0.99981">
        <ele>56.487202</ele>
        <time>2022-12-22T11:50:37.559Z</time>
      </trkpt>
      <trkpt lat="45.67309" lon="-0.99987">
        <ele>56.731662</ele>
        <time>2022-12-22T11:50:41.573Z</time>
      </trkpt>
      <trkpt lat="45.67299" lon="-0.99994">
        <ele>56.981597</ele>
        <time>2022-12-22T11:50:45.581Z</time>
      </trkpt>
      <trkpt lat="45.6729" lon="-1">
        <ele>57.177206</ele>
        <time>2022-12-22T11:50:48.563Z</time>
      </trkpt>
      <trkpt lat="45.67282" lon="-1.00006">
        <ele>57.372137</ele>
        <time>2022-12-22T11:50:51.562Z</time>
      </trkpt>
      <trkpt lat="45.67274" lon="-1.00012">
        <ele>57.575456</ele>
        <time>2022-12-22T11:50:54.575Z</time>
      </trkpt>
      <trkpt lat="45.67266" lon="-1.00018">
        <ele>57.775584</ele>
        <time>2022-12-22T11:50:57.563Z</time>
      </trkpt>
      <trkpt lat="45.67257" lon="-1.00024">
        <ele>57.979564</ele>
        <time>2022-12-22T11:51:00.581Z</time>
      </trkpt>
      <trkpt lat="45.67248" lon="-1.00031">
        <ele>58.19552</ele>
        <time>2022-12-22T11:51:03.580Z</time>
      </trkpt>
      <trkpt lat="45.6724" lon="-1.00038">
        <ele>58.409592</ele>
        <time>2022-12-22T11:51:06.577Z</time>
      </trkpt>
      <trkpt lat="45.6723" lon="-1.00045">
        <ele>58.647926</ele>
        <time>2022-12-22T11:51:10.578Z</time>
      </trkpt>
      <trkpt lat="45.67222" lon="-1.00052">
        <ele>58.845563</ele>
        <time>2022-12-22T11:51:13.567Z</time>
      </trkpt>
      <trkpt lat="45.67213" lon="-1.00059">
        <ele>59.059998</ele>
        <time>2022-12-22T11:51:16.574Z</time>
      </trkpt>
      <trkpt lat="45.67205" lon="-1.00067">
        <ele>59.143365</ele>
        <time>2022-12-22T11:51:19.579Z</time>
      </trkpt>
      <trkpt lat="45.67196" lon="-1.00073">
        <ele>59.049818</ele>
        <time>2022-12-22T11:51:22.580Z</time>
      </trkpt>
      <trkpt lat="45.67188" lon="-1.0008">
        <ele>58.956756</ele>
        <time>2022-12-22T11:51:25.579Z</time>
      </trkpt>
      <trkpt lat="45.6718" lon="-1.00087">
        <ele>58.864394</ele>
        <time>2022-12-22T11:51:28.580Z</time>
      </trkpt>
      <trkpt lat="45.67172" lon="-1.00095">
        <ele>58.770154</ele>
        <time>2022-12-22T11:51:31.582Z</time>
      </trkpt>
      <trkpt lat="45.67163" lon="-1.00102">
        <ele>58.671556</ele>
        <time>2022-12-22T11:51:34.577Z</time>
      </trkpt>
      <trkpt lat="45.67154" lon="-1.0011">
        <ele>58.571964</ele>
        <time>2022-12-22T11:51:37.558Z</time>
      </trkpt>
      <trkpt lat="45.67146" lon="-1.00119">
        <ele>58.471655</ele>
        <time>2022-12-22T11:51:40.578Z</time>
      </trkpt>
      <trkpt lat="45.67138" lon="-1.00126">
        <ele>58.384129</ele>
        <time>2022-12-22T11:51:43.564Z</time>
      </trkpt>
      <trkpt lat="45.67128" lon="-1.00136">
        <ele>58.26573</ele>
        <time>2022-12-22T11:51:47.561Z</time>
      </trkpt>
      <trkpt lat="45.6712" lon="-1.00144">
        <ele>58.169347</ele>
        <time>2022-12-22T11:51:50.578Z</time>
      </trkpt>
      <trkpt lat="45.67112" lon="-1.00152">
        <ele>58.07337</ele>
        <time>2022-12-22T11:51:53.586Z</time>
      </trkpt>
      <trkpt lat="45.67102" lon="-1.00162">
        <ele>57.961259</ele>
        <time>2022-12-22T11:51:57.555Z</time>
      </trkpt>
      <trkpt lat="45.67094" lon="-1.00172">
        <ele>57.856739</ele>
        <time>2022-12-22T11:52:01.562Z</time>
      </trkpt>
      <trkpt lat="45.67086" lon="-1.0018">
        <ele>57.764667</ele>
        <time>2022-12-22T11:52:04.578Z</time>
      </trkpt>
      <trkpt lat="45.67078" lon="-1.00188">
        <ele>57.667504</ele>
        <time>2022-12-22T11:52:07.562Z</time>
      </trkpt>
      <trkpt lat="45.6707" lon="-1.00197">
        <ele>57.568226</ele>
        <time>2022-12-22T11:52:10.572Z</time>
      </trkpt>
      <trkpt lat="45.67063" lon="-1.00207">
        <ele>57.469439</ele>
        <time>2022-12-22T11:52:13.582Z</time>
      </trkpt>
      <trkpt lat="45.67054" lon="-1.00216">
        <ele>57.403631</ele>
        <time>2022-12-22T11:52:16.556Z</time>
      </trkpt>
      <trkpt lat="45.67047" lon="-1.00226">
        <ele>57.349315</ele>
        <time>2022-12-22T11:52:19.577Z</time>
      </trkpt>
      <trkpt lat="45.67039" lon="-1.00236">
        <ele>57.294151</ele>
        <time>2022-12-22T11:52:22.577Z</time>
      </trkpt>
      <trkpt lat="45.67031" lon="-1.00246">
        <ele>57.2387</ele>
        <time>2022-12-22T11:52:25.564Z</time>
      </trkpt>
      <trkpt lat="45.67024" lon="-1.00256">
        <ele>57.182502</ele>
        <time>2022-12-22T11:52:28.570Z</time>
      </trkpt>
      <trkpt lat="45.67016" lon="-1.00266">
        <ele>57.126573</ele>
        <time>2022-12-22T11:52:31.577Z</time>
      </trkpt>
      <trkpt lat="45.67008" lon="-1.00277">
        <ele>57.069488</ele>
        <time>2022-12-22T11:52:34.576Z</time>
      </trkpt>
      <trkpt lat="45.67" lon="-1.00288">
        <ele>57.011635</ele>
        <time>2022-12-22T11:52:37.561Z</time>
      </trkpt>
      <trkpt lat="45.66992" lon="-1.00299">
        <ele>56.95211</ele>
        <time>2022-12-22T11:52:40.577Z</time>
      </trkpt>
      <trkpt lat="45.66985" lon="-1.00311">
        <ele>56.892104</ele>
        <time>2022-12-22T11:52:43.578Z</time>
      </trkpt>
      <trkpt lat="45.66977" lon="-1.00322">
        <ele>56.832273</ele>
        <time>2022-12-22T11:52:46.581Z</time>
      </trkpt>
      <trkpt lat="45.66969" lon="-1.00334">
        <ele>56.772629</ele>
        <time>2022-12-22T11:52:49.577Z</time>
      </trkpt>
      <trkpt lat="45.66962" lon="-1.00346">
        <ele>56.713801</ele>
        <time>2022-12-22T11:52:52.579Z</time>
      </trkpt>
      <trkpt lat="45.66954" lon="-1.00357">
        <ele>56.656964</ele>
        <time>2022-12-22T11:52:55.578Z</time>
      </trkpt>
      <trkpt lat="45.66948" lon="-1.00366">
        <ele>56.609013</ele>
        <time>2022-12-22T11:52:58.581Z</time>
      </trkpt>
      <trkpt lat="45.6694" lon="-1.0038">
        <ele>56.543853</ele>
        <time>2022-12-22T11:53:02.578Z</time>
      </trkpt>
      <trkpt lat="45.66934" lon="-1.00391">
        <ele>56.489168</ele>
        <time>2022-12-22T11:53:05.649Z</time>
      </trkpt>
      <trkpt lat="45.66927" lon="-1.00403">
        <ele>56.641332</ele>
        <time>2022-12-22T11:53:08.578Z</time>
      </trkpt>
      <trkpt lat="45.66921" lon="-1.00414">
        <ele>56.797138</ele>
        <time>2022-12-22T11:53:11.638Z</time>
      </trkpt>
      <trkpt lat="45.66915" lon="-1.00426">
        <ele>56.950715</ele>
        <time>2022-12-22T11:53:14.580Z</time>
      </trkpt>
      <trkpt lat="45.66908" lon="-1.00438">
        <ele>57.10881</ele>
        <time>2022-12-22T11:53:17.556Z</time>
      </trkpt>
      <trkpt lat="45.66902" lon="-1.0045">
        <ele>57.263427</ele>
        <time>2022-12-22T11:53:20.578Z</time>
      </trkpt>
      <trkpt lat="45.66896" lon="-1.00461">
        <ele>57.412016</ele>
        <time>2022-12-22T11:53:23.573Z</time>
      </trkpt>
      <trkpt lat="45.6689" lon="-1.00472">
        <ele>57.547649</ele>
        <time>2022-12-22T11:53:26.577Z</time>
      </trkpt>
      <trkpt lat="45.66885" lon="-1.00482">
        <ele>57.683282</ele>
        <time>2022-12-22T11:53:29.579Z</time>
      </trkpt>
      <trkpt lat="45.66879" lon="-1.00493">
        <ele>57.824121</ele>
        <time>2022-12-22T11:53:32.576Z</time>
      </trkpt>
      <trkpt lat="45.66874" lon="-1.00504">
        <ele>57.963161</ele>
        <time>2022-12-22T11:53:35.576Z</time>
      </trkpt>
      <trkpt lat="45.66869" lon="-1.00515">
        <ele>58.1005</ele>
        <time>2022-12-22T11:53:38.566Z</time>
      </trkpt>
      <trkpt lat="45.66863" lon="-1.00526">
        <ele>58.240428</ele>
        <time>2022-12-22T11:53:41.581Z</time>
      </trkpt>
      <trkpt lat="45.66858" lon="-1.00537">
        <ele>58.37607</ele>
        <time>2022-12-22T11:53:44.576Z</time>
      </trkpt>
      <trkpt lat="45.66852" lon="-1.0055">
        <ele>58.54249</ele>
        <time>2022-12-22T11:53:48.583Z</time>
      </trkpt>
      <trkpt lat="45.66846" lon="-1.00564">
        <ele>58.705547</ele>
        <time>2022-12-22T11:53:52.637Z</time>
      </trkpt>
      <trkpt lat="45.66841" lon="-1.00574">
        <ele>58.842029</ele>
        <time>2022-12-22T11:53:55.579Z</time>
      </trkpt>
      <trkpt lat="45.66836" lon="-1.00586">
        <ele>58.986208</ele>
        <time>2022-12-22T11:53:58.639Z</time>
      </trkpt>
      <trkpt lat="45.6683" lon="-1.00598">
        <ele>59.132989</ele>
        <time>2022-12-22T11:54:01.580Z</time>
      </trkpt>
      <trkpt lat="45.66825" lon="-1.00609">
        <ele>59.161184</ele>
        <time>2022-12-22T11:54:04.574Z</time>
      </trkpt>
      <trkpt lat="45.66819" lon="-1.00621">
        <ele>59.153891</ele>
        <time>2022-12-22T11:54:07.564Z</time>
      </trkpt>
      <trkpt lat="45.66814" lon="-1.00634">
        <ele>59.146583</ele>
        <time>2022-12-22T11:54:10.562Z</time>
      </trkpt>
      <trkpt lat="45.66809" lon="-1.00646">
        <ele>59.139327</ele>
        <time>2022-12-22T11:54:13.579Z</time>
      </trkpt>
      <trkpt lat="45.66804" lon="-1.00658">
        <ele>59.132254</ele>
        <time>2022-12-22T11:54:16.574Z</time>
      </trkpt>
      <trkpt lat="45.66799" lon="-1.00669">
        <ele>59.125373</ele>
        <time>2022-12-22T11:54:19.594Z</time>
      </trkpt>
      <trkpt lat="45.66794" lon="-1.00681">
        <ele>59.11832</ele>
        <time>2022-12-22T11:54:22.579Z</time>
      </trkpt>
      <trkpt lat="45.66788" lon="-1.00693">
        <ele>59.111189</ele>
        <time>2022-12-22T11:54:25.578Z</time>
      </trkpt>
      <trkpt lat="45.66782" lon="-1.00707">
        <ele>59.102634</ele>
        <time>2022-12-22T11:54:29.573Z</time>
      </trkpt>
      <trkpt lat="45.66777" lon="-1.00719">
        <ele>59.095374</ele>
        <time>2022-12-22T11:54:32.576Z</time>
      </trkpt>
      <trkpt lat="45.66771" lon="-1.00731">
        <ele>59.088039</ele>
        <time>2022-12-22T11:54:35.574Z</time>
      </trkpt>
      <trkpt lat="45.66766" lon="-1.00743">
        <ele>59.080703</ele>
        <time>2022-12-22T11:54:38.631Z</time>
      </trkpt>
      <trkpt lat="45.6676" lon="-1.00755">
        <ele>59.073447</ele>
        <time>2022-12-22T11:54:41.578Z</time>
      </trkpt>
      <trkpt lat="45.66755" lon="-1.00767">
        <ele>59.066192</ele>
        <time>2022-12-22T11:54:44.634Z</time>
      </trkpt>
      <trkpt lat="45.6675" lon="-1.00778">
        <ele>59.059438</ele>
        <time>2022-12-22T11:54:47.562Z</time>
      </trkpt>
      <trkpt lat="45.66744" lon="-1.00792">
        <ele>59.050926</ele>
        <time>2022-12-22T11:54:51.589Z</time>
      </trkpt>
      <trkpt lat="45.66738" lon="-1.00803">
        <ele>59.0443</ele>
        <time>2022-12-22T11:54:54.579Z</time>
      </trkpt>
      <trkpt lat="45.66733" lon="-1.00814">
        <ele>59.037629</ele>
        <time>2022-12-22T11:54:57.558Z</time>
      </trkpt>
      <trkpt lat="45.66729" lon="-1.00825">
        <ele>58.990482</ele>
        <time>2022-12-22T11:55:00.578Z</time>
      </trkpt>
      <trkpt lat="45.66722" lon="-1.00839">
        <ele>58.907746</ele>
        <time>2022-12-22T11:55:04.576Z</time>
      </trkpt>
      <trkpt lat="45.66717" lon="-1.0085">
        <ele>58.845565</ele>
        <time>2022-12-22T11:55:07.558Z</time>
      </trkpt>
      <trkpt lat="45.66712" lon="-1.00861">
        <ele>58.782565</ele>
        <time>2022-12-22T11:55:10.581Z</time>
      </trkpt>
      <trkpt lat="45.66707" lon="-1.00873">
        <ele>58.718047</ele>
        <time>2022-12-22T11:55:13.589Z</time>
      </trkpt>
      <trkpt lat="45.66702" lon="-1.00884">
        <ele>58.653951</ele>
        <time>2022-12-22T11:55:16.581Z</time>
      </trkpt>
      <trkpt lat="45.66698" lon="-1.00895">
        <ele>58.590835</ele>
        <time>2022-12-22T11:55:19.590Z</time>
      </trkpt>
      <trkpt lat="45.66692" lon="-1.00907">
        <ele>58.524691</ele>
        <time>2022-12-22T11:55:22.583Z</time>
      </trkpt>
      <trkpt lat="45.66687" lon="-1.00918">
        <ele>58.46014</ele>
        <time>2022-12-22T11:55:25.580Z</time>
      </trkpt>
      <trkpt lat="45.66683" lon="-1.0093">
        <ele>58.39697</ele>
        <time>2022-12-22T11:55:28.583Z</time>
      </trkpt>
      <trkpt lat="45.66679" lon="-1.00941">
        <ele>58.334447</ele>
        <time>2022-12-22T11:55:31.577Z</time>
      </trkpt>
      <trkpt lat="45.66674" lon="-1.00952">
        <ele>58.269164</ele>
        <time>2022-12-22T11:55:34.581Z</time>
      </trkpt>
      <trkpt lat="45.66668" lon="-1.00965">
        <ele>58.195048</ele>
        <time>2022-12-22T11:55:38.643Z</time>
      </trkpt>
      <trkpt lat="45.66662" lon="-1.00979">
        <ele>58.114275</ele>
        <time>2022-12-22T11:55:42.584Z</time>
      </trkpt>
      <trkpt lat="45.66657" lon="-1.0099">
        <ele>58.052151</ele>
        <time>2022-12-22T11:55:45.570Z</time>
      </trkpt>
      <trkpt lat="45.66652" lon="-1.01001">
        <ele>57.988439</ele>
        <time>2022-12-22T11:55:48.568Z</time>
      </trkpt>
      <trkpt lat="45.66647" lon="-1.01012">
        <ele>57.925107</ele>
        <time>2022-12-22T11:55:51.577Z</time>
      </trkpt>
      <trkpt lat="45.66642" lon="-1.01023">
        <ele>57.862054</ele>
        <time>2022-12-22T11:55:54.574Z</time>
      </trkpt>
      <trkpt lat="45.66636" lon="-1.01038">
        <ele>57.802349</ele>
        <time>2022-12-22T11:55:58.581Z</time>
      </trkpt>
      <trkpt lat="45.66631" lon="-1.01049">
        <ele>57.845527</ele>
        <time>2022-12-22T11:56:01.576Z</time>
      </trkpt>
      <trkpt lat="45.66625" lon="-1.01062">
        <ele>57.901578</ele>
        <time>2022-12-22T11:56:05.576Z</time>
      </trkpt>
      <trkpt lat="45.66619" lon="-1.01076">
        <ele>57.954725</ele>
        <time>2022-12-22T11:56:09.577Z</time>
      </trkpt>
      <trkpt lat="45.66612" lon="-1.01089">
        <ele>58.01002</ele>
        <time>2022-12-22T11:56:14.581Z</time>
      </trkpt>
      <trkpt lat="45.66605" lon="-1.01102">
        <ele>58.06552</ele>
        <time>2022-12-22T11:56:18.636Z</time>
      </trkpt>
      <trkpt lat="45.66599" lon="-1.01116">
        <ele>58.121839</ele>
        <time>2022-12-22T11:56:22.581Z</time>
      </trkpt>
      <trkpt lat="45.66593" lon="-1.01128">
        <ele>58.16664</ele>
        <time>2022-12-22T11:56:25.582Z</time>
      </trkpt>
      <trkpt lat="45.66588" lon="-1.01139">
        <ele>58.213631</ele>
        <time>2022-12-22T11:56:28.564Z</time>
      </trkpt>
      <trkpt lat="45.66582" lon="-1.01151">
        <ele>58.261706</ele>
        <time>2022-12-22T11:56:31.577Z</time>
      </trkpt>
      <trkpt lat="45.66577" lon="-1.01162">
        <ele>58.306507</ele>
        <time>2022-12-22T11:56:34.577Z</time>
      </trkpt>
      <trkpt lat="45.6657" lon="-1.01176">
        <ele>58.363371</ele>
        <time>2022-12-22T11:56:38.576Z</time>
      </trkpt>
      <trkpt lat="45.66565" lon="-1.01187">
        <ele>58.408735</ele>
        <time>2022-12-22T11:56:41.580Z</time>
      </trkpt>
      <trkpt lat="45.6656" lon="-1.012">
        <ele>58.456878</ele>
        <time>2022-12-22T11:56:44.582Z</time>
      </trkpt>
      <trkpt lat="45.66554" lon="-1.01212">
        <ele>58.505238</ele>
        <time>2022-12-22T11:56:47.568Z</time>
      </trkpt>
      <trkpt lat="45.66551" lon="-1.01225">
        <ele>58.551907</ele>
        <time>2022-12-22T11:56:50.578Z</time>
      </trkpt>
      <trkpt lat="45.66554" lon="-1.01238">
        <ele>58.598001</ele>
        <time>2022-12-22T11:56:54.632Z</time>
      </trkpt>
      <trkpt lat="45.66552" lon="-1.01257">
        <ele>58.67455</ele>
        <time>2022-12-22T11:57:40.590Z</time>
      </trkpt>
      <trkpt lat="45.66544" lon="-1.01267">
        <ele>58.864222</ele>
        <time>2022-12-22T11:57:44.572Z</time>
      </trkpt>
      <trkpt lat="45.66536" lon="-1.01272">
        <ele>59.025312</ele>
        <time>2022-12-22T11:57:47.591Z</time>
      </trkpt>
      <trkpt lat="45.66526" lon="-1.01276">
        <ele>59.193015</ele>
        <time>2022-12-22T11:57:50.576Z</time>
      </trkpt>
      <trkpt lat="45.66518" lon="-1.01283">
        <ele>59.368297</ele>
        <time>2022-12-22T11:57:53.597Z</time>
      </trkpt>
      <trkpt lat="45.66512" lon="-1.01293">
        <ele>59.526172</ele>
        <time>2022-12-22T11:57:56.584Z</time>
      </trkpt>
      <trkpt lat="45.66506" lon="-1.01306">
        <ele>59.713264</ele>
        <time>2022-12-22T11:58:00.581Z</time>
      </trkpt>
      <trkpt lat="45.66501" lon="-1.01317">
        <ele>59.882214</ele>
        <time>2022-12-22T11:58:04.581Z</time>
      </trkpt>
      <trkpt lat="45.66494" lon="-1.01329">
        <ele>60.074362</ele>
        <time>2022-12-22T11:58:08.579Z</time>
      </trkpt>
      <trkpt lat="45.66488" lon="-1.01341">
        <ele>60.257568</ele>
        <time>2022-12-22T11:58:12.578Z</time>
      </trkpt>
      <trkpt lat="45.66482" lon="-1.01352">
        <ele>60.433416</ele>
        <time>2022-12-22T11:58:16.578Z</time>
      </trkpt>
      <trkpt lat="45.66476" lon="-1.01363">
        <ele>60.606456</ele>
        <time>2022-12-22T11:58:20.576Z</time>
      </trkpt>
      <trkpt lat="45.66469" lon="-1.01373">
        <ele>60.77194</ele>
        <time>2022-12-22T11:58:24.586Z</time>
      </trkpt>
      <trkpt lat="45.66463" lon="-1.01383">
        <ele>60.949463</ele>
        <time>2022-12-22T11:58:28.577Z</time>
      </trkpt>
      <trkpt lat="45.66455" lon="-1.01394">
        <ele>61.135725</ele>
        <time>2022-12-22T11:58:32.578Z</time>
      </trkpt>
      <trkpt lat="45.66448" lon="-1.01406">
        <ele>61.328592</ele>
        <time>2022-12-22T11:58:37.557Z</time>
      </trkpt>
      <trkpt lat="45.66441" lon="-1.01415">
        <ele>61.495091</ele>
        <time>2022-12-22T11:58:41.563Z</time>
      </trkpt>
      <trkpt lat="45.66434" lon="-1.01424">
        <ele>61.659589</ele>
        <time>2022-12-22T11:58:45.590Z</time>
      </trkpt>
      <trkpt lat="45.66427" lon="-1.01433">
        <ele>61.826506</ele>
        <time>2022-12-22T11:58:49.575Z</time>
      </trkpt>
      <trkpt lat="45.6642" lon="-1.01442">
        <ele>61.924766</ele>
        <time>2022-12-22T11:58:53.580Z</time>
      </trkpt>
      <trkpt lat="45.66413" lon="-1.01452">
        <ele>62.022142</ele>
        <time>2022-12-22T11:58:57.554Z</time>
      </trkpt>
      <trkpt lat="45.66407" lon="-1.01461">
        <ele>62.116297</ele>
        <time>2022-12-22T11:59:01.567Z</time>
      </trkpt>
      <trkpt lat="45.66399" lon="-1.01469">
        <ele>62.215069</ele>
        <time>2022-12-22T11:59:05.578Z</time>
      </trkpt>
      <trkpt lat="45.66392" lon="-1.01478">
        <ele>62.31567</ele>
        <time>2022-12-22T11:59:09.578Z</time>
      </trkpt>
      <trkpt lat="45.66385" lon="-1.01488">
        <ele>62.416275</ele>
        <time>2022-12-22T11:59:13.581Z</time>
      </trkpt>
      <trkpt lat="45.66377" lon="-1.01497">
        <ele>62.516766</ele>
        <time>2022-12-22T11:59:17.590Z</time>
      </trkpt>
      <trkpt lat="45.6637" lon="-1.01505">
        <ele>62.613244</ele>
        <time>2022-12-22T11:59:21.579Z</time>
      </trkpt>
      <trkpt lat="45.66363" lon="-1.01514">
        <ele>62.707015</ele>
        <time>2022-12-22T11:59:25.581Z</time>
      </trkpt>
      <trkpt lat="45.66355" lon="-1.01524">
        <ele>62.820347</ele>
        <time>2022-12-22T11:59:30.577Z</time>
      </trkpt>
      <trkpt lat="45.66347" lon="-1.01533">
        <ele>62.927879</ele>
        <time>2022-12-22T11:59:35.561Z</time>
      </trkpt>
      <trkpt lat="45.66338" lon="-1.01543">
        <ele>63.040879</ele>
        <time>2022-12-22T11:59:40.624Z</time>
      </trkpt>
      <trkpt lat="45.6633" lon="-1.01553">
        <ele>63.154557</ele>
        <time>2022-12-22T11:59:45.594Z</time>
      </trkpt>
      <trkpt lat="45.6632" lon="-1.01562">
        <ele>63.270154</ele>
        <time>2022-12-22T11:59:50.582Z</time>
      </trkpt>
      <trkpt lat="45.66312" lon="-1.01572">
        <ele>63.381611</ele>
        <time>2022-12-22T11:59:55.581Z</time>
      </trkpt>
      <trkpt lat="45.66304" lon="-1.01581">
        <ele>63.490275</ele>
        <time>2022-12-22T12:00:00.575Z</time>
      </trkpt>
      <trkpt lat="45.66295" lon="-1.01591">
        <ele>63.603152</ele>
        <time>2022-12-22T12:00:05.576Z</time>
      </trkpt>
      <trkpt lat="45.66287" lon="-1.01599">
        <ele>63.744027</ele>
        <time>2022-12-22T12:00:10.577Z</time>
      </trkpt>
      <trkpt lat="45.66279" lon="-1.01608">
        <ele>64.115537</ele>
        <time>2022-12-22T12:00:15.638Z</time>
      </trkpt>
      <trkpt lat="45.66272" lon="-1.01618">
        <ele>64.477769</ele>
        <time>2022-12-22T12:00:20.580Z</time>
      </trkpt>
      <trkpt lat="45.66265" lon="-1.01626">
        <ele>64.806188</ele>
        <time>2022-12-22T12:00:25.577Z</time>
      </trkpt>
      <trkpt lat="45.66257" lon="-1.01635">
        <ele>65.151413</ele>
        <time>2022-12-22T12:00:30.577Z</time>
      </trkpt>
      <trkpt lat="45.6625" lon="-1.01643">
        <ele>65.488167</ele>
        <time>2022-12-22T12:00:35.580Z</time>
      </trkpt>
      <trkpt lat="45.66243" lon="-1.01652">
        <ele>65.829153</ele>
        <time>2022-12-22T12:00:40.580Z</time>
      </trkpt>
      <trkpt lat="45.66235" lon="-1.0166">
        <ele>66.169997</ele>
        <time>2022-12-22T12:00:45.580Z</time>
      </trkpt>
      <trkpt lat="45.66228" lon="-1.01669">
        <ele>66.523496</ele>
        <time>2022-12-22T12:00:50.576Z</time>
      </trkpt>
      <trkpt lat="45.6622" lon="-1.01677">
        <ele>66.855398</ele>
        <time>2022-12-22T12:00:55.581Z</time>
      </trkpt>
      <trkpt lat="45.66213" lon="-1.01686">
        <ele>67.199698</ele>
        <time>2022-12-22T12:01:00.581Z</time>
      </trkpt>
      <trkpt lat="45.66205" lon="-1.01694">
        <ele>67.53592</ele>
        <time>2022-12-22T12:01:05.632Z</time>
      </trkpt>
      <trkpt lat="45.66198" lon="-1.01702">
        <ele>67.871956</ele>
        <time>2022-12-22T12:01:10.579Z</time>
      </trkpt>
      <trkpt lat="45.6619" lon="-1.01709">
        <ele>68.195924</ele>
        <time>2022-12-22T12:01:15.580Z</time>
      </trkpt>
      <trkpt lat="45.66183" lon="-1.01718">
        <ele>68.54115</ele>
        <time>2022-12-22T12:01:20.578Z</time>
      </trkpt>
      <trkpt lat="45.66175" lon="-1.01727">
        <ele>68.887552</ele>
        <time>2022-12-22T12:01:25.580Z</time>
      </trkpt>
      <trkpt lat="45.66168" lon="-1.01734">
        <ele>69.231088</ele>
        <time>2022-12-22T12:01:30.577Z</time>
      </trkpt>
      <trkpt lat="45.6616" lon="-1.01744">
        <ele>69.58515</ele>
        <time>2022-12-22T12:01:35.646Z</time>
      </trkpt>
      <trkpt lat="45.66153" lon="-1.01753">
        <ele>69.927642</ele>
        <time>2022-12-22T12:01:40.579Z</time>
      </trkpt>
      <trkpt lat="45.66148" lon="-1.01764">
        <ele>70.226309</ele>
        <time>2022-12-22T12:01:45.576Z</time>
      </trkpt>
      <trkpt lat="45.66144" lon="-1.01777">
        <ele>70.462459</ele>
        <time>2022-12-22T12:01:50.561Z</time>
      </trkpt>
      <trkpt lat="45.66141" lon="-1.0179">
        <ele>70.703205</ele>
        <time>2022-12-22T12:01:55.577Z</time>
      </trkpt>
      <trkpt lat="45.66135" lon="-1.018">
        <ele>70.933913</ele>
        <time>2022-12-22T12:02:00.586Z</time>
      </trkpt>
      <trkpt lat="45.66125" lon="-1.01799">
        <ele>71.18554</ele>
        <time>2022-12-22T12:02:06.582Z</time>
      </trkpt>
      <trkpt lat="45.66114" lon="-1.018">
        <ele>71.445383</ele>
        <time>2022-12-22T12:02:11.582Z</time>
      </trkpt>
      <trkpt lat="45.66105" lon="-1.01809">
        <ele>71.716536</ele>
        <time>2022-12-22T12:02:16.579Z</time>
      </trkpt>
      <trkpt lat="45.66095" lon="-1.01818">
        <ele>71.992385</ele>
        <time>2022-12-22T12:02:21.634Z</time>
      </trkpt>
      <trkpt lat="45.66086" lon="-1.01827">
        <ele>72.266095</ele>
        <time>2022-12-22T12:02:26.574Z</time>
      </trkpt>
      <trkpt lat="45.66078" lon="-1.01836">
        <ele>72.515806</ele>
        <time>2022-12-22T12:02:31.579Z</time>
      </trkpt>
      <trkpt lat="45.6607" lon="-1.01845">
        <ele>72.779621</ele>
        <time>2022-12-22T12:02:36.579Z</time>
      </trkpt>
      <trkpt lat="45.66062" lon="-1.01854">
        <ele>73.017667</ele>
        <time>2022-12-22T12:02:40.584Z</time>
      </trkpt>
      <trkpt lat="45.66055" lon="-1.01862">
        <ele>73.2585</ele>
        <time>2022-12-22T12:02:44.573Z</time>
      </trkpt>
      <trkpt lat="45.66047" lon="-1.01871">
        <ele>73.500634</ele>
        <time>2022-12-22T12:02:48.578Z</time>
      </trkpt>
      <trkpt lat="45.66038" lon="-1.01881">
        <ele>73.768505</ele>
        <time>2022-12-22T12:02:53.577Z</time>
      </trkpt>
      <trkpt lat="45.66031" lon="-1.01889">
        <ele>73.999268</ele>
        <time>2022-12-22T12:02:57.563Z</time>
      </trkpt>
      <trkpt lat="45.66024" lon="-1.01898">
        <ele>74.235726</ele>
        <time>2022-12-22T12:03:01.648Z</time>
      </trkpt>
      <trkpt lat="45.66015" lon="-1.01908">
        <ele>74.507038</ele>
        <time>2022-12-22T12:03:05.581Z</time>
      </trkpt>
      <trkpt lat="45.66007" lon="-1.01918">
        <ele>74.595934</ele>
        <time>2022-12-22T12:03:09.583Z</time>
      </trkpt>
      <trkpt lat="45.65998" lon="-1.01928">
        <ele>74.611932</ele>
        <time>2022-12-22T12:03:13.650Z</time>
      </trkpt>
      <trkpt lat="45.65991" lon="-1.01937">
        <ele>74.625441</ele>
        <time>2022-12-22T12:03:16.581Z</time>
      </trkpt>
      <trkpt lat="45.65983" lon="-1.01946">
        <ele>74.639793</ele>
        <time>2022-12-22T12:03:19.648Z</time>
      </trkpt>
      <trkpt lat="45.65975" lon="-1.01954">
        <ele>74.653559</ele>
        <time>2022-12-22T12:03:22.582Z</time>
      </trkpt>
      <trkpt lat="45.65968" lon="-1.01963">
        <ele>74.666655</ele>
        <time>2022-12-22T12:03:25.628Z</time>
      </trkpt>
      <trkpt lat="45.6596" lon="-1.01972">
        <ele>74.682117</ele>
        <time>2022-12-22T12:03:28.582Z</time>
      </trkpt>
      <trkpt lat="45.65952" lon="-1.01982">
        <ele>74.696845</ele>
        <time>2022-12-22T12:03:31.627Z</time>
      </trkpt>
      <trkpt lat="45.65943" lon="-1.01991">
        <ele>74.71278</ele>
        <time>2022-12-22T12:03:34.580Z</time>
      </trkpt>
      <trkpt lat="45.65934" lon="-1.02002">
        <ele>74.729252</ele>
        <time>2022-12-22T12:03:37.594Z</time>
      </trkpt>
      <trkpt lat="45.65926" lon="-1.02012">
        <ele>74.744936</ele>
        <time>2022-12-22T12:03:40.581Z</time>
      </trkpt>
      <trkpt lat="45.65917" lon="-1.02022">
        <ele>74.761395</ele>
        <time>2022-12-22T12:03:43.569Z</time>
      </trkpt>
      <trkpt lat="45.65909" lon="-1.02032">
        <ele>74.776821</ele>
        <time>2022-12-22T12:03:46.587Z</time>
      </trkpt>
      <trkpt lat="45.65901" lon="-1.02042">
        <ele>74.792137</ele>
        <time>2022-12-22T12:03:49.570Z</time>
      </trkpt>
      <trkpt lat="45.65892" lon="-1.02053">
        <ele>74.808865</ele>
        <time>2022-12-22T12:03:52.577Z</time>
      </trkpt>
      <trkpt lat="45.65882" lon="-1.02063">
        <ele>74.825611</ele>
        <time>2022-12-22T12:03:55.562Z</time>
      </trkpt>
      <trkpt lat="45.65874" lon="-1.02072">
        <ele>74.84095</ele>
        <time>2022-12-22T12:03:58.578Z</time>
      </trkpt>
      <trkpt lat="45.65866" lon="-1.02082">
        <ele>74.790029</ele>
        <time>2022-12-22T12:04:01.579Z</time>
      </trkpt>
      <trkpt lat="45.65858" lon="-1.02093">
        <ele>74.730555</ele>
        <time>2022-12-22T12:04:04.581Z</time>
      </trkpt>
      <trkpt lat="45.65849" lon="-1.02103">
        <ele>74.672373</ele>
        <time>2022-12-22T12:04:07.567Z</time>
      </trkpt>
      <trkpt lat="45.65841" lon="-1.02113">
        <ele>74.615328</ele>
        <time>2022-12-22T12:04:10.575Z</time>
      </trkpt>
      <trkpt lat="45.65831" lon="-1.02123">
        <ele>74.549187</ele>
        <time>2022-12-22T12:04:14.579Z</time>
      </trkpt>
      <trkpt lat="45.65823" lon="-1.02132">
        <ele>74.494731</ele>
        <time>2022-12-22T12:04:17.565Z</time>
      </trkpt>
      <trkpt lat="45.65814" lon="-1.02142">
        <ele>74.43481</ele>
        <time>2022-12-22T12:04:20.580Z</time>
      </trkpt>
      <trkpt lat="45.65805" lon="-1.02152">
        <ele>74.372555</ele>
        <time>2022-12-22T12:04:23.578Z</time>
      </trkpt>
      <trkpt lat="45.65796" lon="-1.02162">
        <ele>74.315463</ele>
        <time>2022-12-22T12:04:26.577Z</time>
      </trkpt>
      <trkpt lat="45.65788" lon="-1.02171">
        <ele>74.258633</ele>
        <time>2022-12-22T12:04:29.555Z</time>
      </trkpt>
      <trkpt lat="45.65779" lon="-1.0218">
        <ele>74.201822</ele>
        <time>2022-12-22T12:04:32.577Z</time>
      </trkpt>
      <trkpt lat="45.6577" lon="-1.0219">
        <ele>74.139141</ele>
        <time>2022-12-22T12:04:35.580Z</time>
      </trkpt>
      <trkpt lat="45.6576" lon="-1.022">
        <ele>74.074483</ele>
        <time>2022-12-22T12:04:38.582Z</time>
      </trkpt>
      <trkpt lat="45.65751" lon="-1.02211">
        <ele>74.011124</ele>
        <time>2022-12-22T12:04:41.582Z</time>
      </trkpt>
      <trkpt lat="45.65741" lon="-1.02221">
        <ele>73.947157</ele>
        <time>2022-12-22T12:04:44.578Z</time>
      </trkpt>
      <trkpt lat="45.65731" lon="-1.0223">
        <ele>73.883829</ele>
        <time>2022-12-22T12:04:47.561Z</time>
      </trkpt>
      <trkpt lat="45.65722" lon="-1.02239">
        <ele>73.832626</ele>
        <time>2022-12-22T12:04:50.580Z</time>
      </trkpt>
      <trkpt lat="45.65715" lon="-1.02248">
        <ele>73.788577</ele>
        <time>2022-12-22T12:04:53.584Z</time>
      </trkpt>
      <trkpt lat="45.6571" lon="-1.02259">
        <ele>73.745654</ele>
        <time>2022-12-22T12:04:56.582Z</time>
      </trkpt>
      <trkpt lat="45.65699" lon="-1.02267">
        <ele>73.690445</ele>
        <time>2022-12-22T12:04:59.578Z</time>
      </trkpt>
      <trkpt lat="45.65688" lon="-1.02274">
        <ele>73.633193</ele>
        <time>2022-12-22T12:05:02.581Z</time>
      </trkpt>
      <trkpt lat="45.65677" lon="-1.02279">
        <ele>73.578099</ele>
        <time>2022-12-22T12:05:05.576Z</time>
      </trkpt>
      <trkpt lat="45.65666" lon="-1.02284">
        <ele>73.525658</ele>
        <time>2022-12-22T12:05:08.582Z</time>
      </trkpt>
      <trkpt lat="45.65656" lon="-1.02289">
        <ele>73.474201</ele>
        <time>2022-12-22T12:05:11.582Z</time>
      </trkpt>
      <trkpt lat="45.65645" lon="-1.02292">
        <ele>73.424653</ele>
        <time>2022-12-22T12:05:14.581Z</time>
      </trkpt>
      <trkpt lat="45.65633" lon="-1.02294">
        <ele>73.36833</ele>
        <time>2022-12-22T12:05:17.565Z</time>
      </trkpt>
      <trkpt lat="45.65621" lon="-1.02296">
        <ele>73.311194</ele>
        <time>2022-12-22T12:05:20.578Z</time>
      </trkpt>
      <trkpt lat="45.6561" lon="-1.02297">
        <ele>73.260577</ele>
        <time>2022-12-22T12:05:23.582Z</time>
      </trkpt>
      <trkpt lat="45.65599" lon="-1.02299">
        <ele>73.209404</ele>
        <time>2022-12-22T12:05:26.578Z</time>
      </trkpt>
      <trkpt lat="45.65588" lon="-1.023">
        <ele>73.154664</ele>
        <time>2022-12-22T12:05:29.584Z</time>
      </trkpt>
      <trkpt lat="45.65575" lon="-1.02301">
        <ele>73.096661</ele>
        <time>2022-12-22T12:05:32.580Z</time>
      </trkpt>
      <trkpt lat="45.65563" lon="-1.02301">
        <ele>73.04028</ele>
        <time>2022-12-22T12:05:35.580Z</time>
      </trkpt>
      <trkpt lat="45.65552" lon="-1.02302">
        <ele>73.002636</ele>
        <time>2022-12-22T12:05:38.581Z</time>
      </trkpt>
      <trkpt lat="45.65542" lon="-1.02303">
        <ele>72.968961</ele>
        <time>2022-12-22T12:05:41.577Z</time>
      </trkpt>
      <trkpt lat="45.6553" lon="-1.02305">
        <ele>72.930804</ele>
        <time>2022-12-22T12:05:44.578Z</time>
      </trkpt>
      <trkpt lat="45.65518" lon="-1.02305">
        <ele>72.891155</ele>
        <time>2022-12-22T12:05:47.567Z</time>
      </trkpt>
      <trkpt lat="45.65506" lon="-1.02306">
        <ele>72.849858</ele>
        <time>2022-12-22T12:05:50.578Z</time>
      </trkpt>
      <trkpt lat="45.65493" lon="-1.02306">
        <ele>72.807576</ele>
        <time>2022-12-22T12:05:53.575Z</time>
      </trkpt>
      <trkpt lat="45.65481" lon="-1.02306">
        <ele>72.76795</ele>
        <time>2022-12-22T12:05:56.571Z</time>
      </trkpt>
      <trkpt lat="45.65471" lon="-1.02307">
        <ele>72.732988</ele>
        <time>2022-12-22T12:05:59.577Z</time>
      </trkpt>
      <trkpt lat="45.65461" lon="-1.02308">
        <ele>72.698875</ele>
        <time>2022-12-22T12:06:02.578Z</time>
      </trkpt>
      <trkpt lat="45.65449" lon="-1.02311">
        <ele>72.661064</ele>
        <time>2022-12-22T12:06:05.578Z</time>
      </trkpt>
      <trkpt lat="45.65438" lon="-1.02313">
        <ele>72.621716</ele>
        <time>2022-12-22T12:06:08.578Z</time>
      </trkpt>
      <trkpt lat="45.65426" lon="-1.02316">
        <ele>72.581162</ele>
        <time>2022-12-22T12:06:11.584Z</time>
      </trkpt>
      <trkpt lat="45.65413" lon="-1.0232">
        <ele>72.537444</ele>
        <time>2022-12-22T12:06:14.580Z</time>
      </trkpt>
      <trkpt lat="45.65401" lon="-1.02322">
        <ele>72.49904</ele>
        <time>2022-12-22T12:06:17.608Z</time>
      </trkpt>
      <trkpt lat="45.65391" lon="-1.02324">
        <ele>72.46418</ele>
        <time>2022-12-22T12:06:20.582Z</time>
      </trkpt>
      <trkpt lat="45.6538" lon="-1.02328">
        <ele>72.370845</ele>
        <time>2022-12-22T12:06:24.581Z</time>
      </trkpt>
      <trkpt lat="45.6537" lon="-1.02329">
        <ele>72.212856</ele>
        <time>2022-12-22T12:06:28.564Z</time>
      </trkpt>
      <trkpt lat="45.65362" lon="-1.02339">
        <ele>72.059495</ele>
        <time>2022-12-22T12:06:32.579Z</time>
      </trkpt>
      <trkpt lat="45.65353" lon="-1.02347">
        <ele>71.905796</ele>
        <time>2022-12-22T12:06:37.564Z</time>
      </trkpt>
      <trkpt lat="45.65343" lon="-1.02347">
        <ele>71.754331</ele>
        <time>2022-12-22T12:06:42.578Z</time>
      </trkpt>
      <trkpt lat="45.65336" lon="-1.02336">
        <ele>71.608207</ele>
        <time>2022-12-22T12:06:46.630Z</time>
      </trkpt>
      <trkpt lat="45.65325" lon="-1.02328">
        <ele>71.431017</ele>
        <time>2022-12-22T12:06:50.580Z</time>
      </trkpt>
      <trkpt lat="45.65315" lon="-1.0233">
        <ele>71.270888</ele>
        <time>2022-12-22T12:06:53.579Z</time>
      </trkpt>
      <trkpt lat="45.65303" lon="-1.02334">
        <ele>71.101635</ele>
        <time>2022-12-22T12:06:56.580Z</time>
      </trkpt>
      <trkpt lat="45.65292" lon="-1.02338">
        <ele>70.92569</ele>
        <time>2022-12-22T12:06:59.566Z</time>
      </trkpt>
      <trkpt lat="45.6528" lon="-1.02342">
        <ele>70.7495</ele>
        <time>2022-12-22T12:07:02.577Z</time>
      </trkpt>
      <trkpt lat="45.6527" lon="-1.02347">
        <ele>70.593396</ele>
        <time>2022-12-22T12:07:05.577Z</time>
      </trkpt>
      <trkpt lat="45.65259" lon="-1.02352">
        <ele>70.427704</ele>
        <time>2022-12-22T12:07:08.577Z</time>
      </trkpt>
      <trkpt lat="45.65248" lon="-1.02356">
        <ele>70.250822</ele>
        <time>2022-12-22T12:07:11.581Z</time>
      </trkpt>
      <trkpt lat="45.65236" lon="-1.02359">
        <ele>70.073624</ele>
        <time>2022-12-22T12:07:14.577Z</time>
      </trkpt>
      <trkpt lat="45.65226" lon="-1.02363">
        <ele>69.918641</ele>
        <time>2022-12-22T12:07:17.568Z</time>
      </trkpt>
      <trkpt lat="45.65217" lon="-1.02367">
        <ele>69.795194</ele>
        <time>2022-12-22T12:07:20.562Z</time>
      </trkpt>
      <trkpt lat="45.65207" lon="-1.0237">
        <ele>69.759709</ele>
        <time>2022-12-22T12:07:23.581Z</time>
      </trkpt>
      <trkpt lat="45.65196" lon="-1.02374">
        <ele>69.719174</ele>
        <time>2022-12-22T12:07:26.579Z</time>
      </trkpt>
      <trkpt lat="45.65184" lon="-1.02378">
        <ele>69.678114</ele>
        <time>2022-12-22T12:07:29.580Z</time>
      </trkpt>
      <trkpt lat="45.65174" lon="-1.02383">
        <ele>69.638511</ele>
        <time>2022-12-22T12:07:32.579Z</time>
      </trkpt>
      <trkpt lat="45.65164" lon="-1.02388">
        <ele>69.601892</ele>
        <time>2022-12-22T12:07:35.579Z</time>
      </trkpt>
      <trkpt lat="45.65153" lon="-1.02393">
        <ele>69.563184</ele>
        <time>2022-12-22T12:07:38.580Z</time>
      </trkpt>
      <trkpt lat="45.65142" lon="-1.02397">
        <ele>69.521055</ele>
        <time>2022-12-22T12:07:42.589Z</time>
      </trkpt>
      <trkpt lat="45.65131" lon="-1.02402">
        <ele>69.482682</ele>
        <time>2022-12-22T12:07:45.637Z</time>
      </trkpt>
      <trkpt lat="45.65119" lon="-1.02407">
        <ele>69.438434</ele>
        <time>2022-12-22T12:07:48.583Z</time>
      </trkpt>
      <trkpt lat="45.65107" lon="-1.02413">
        <ele>69.393443</ele>
        <time>2022-12-22T12:07:51.650Z</time>
      </trkpt>
      <trkpt lat="45.65095" lon="-1.02419">
        <ele>69.347649</ele>
        <time>2022-12-22T12:07:54.579Z</time>
      </trkpt>
      <trkpt lat="45.65082" lon="-1.02425">
        <ele>69.301094</ele>
        <time>2022-12-22T12:07:57.598Z</time>
      </trkpt>
      <trkpt lat="45.65073" lon="-1.02429">
        <ele>69.268744</ele>
        <time>2022-12-22T12:07:59.567Z</time>
      </trkpt>
      <trkpt lat="45.65065" lon="-1.02433">
        <ele>69.236873</ele>
        <time>2022-12-22T12:08:01.580Z</time>
      </trkpt>
      <trkpt lat="45.65052" lon="-1.02438">
        <ele>69.19095</ele>
        <time>2022-12-22T12:08:04.578Z</time>
      </trkpt>
      <trkpt lat="45.6504" lon="-1.02443">
        <ele>69.074747</ele>
        <time>2022-12-22T12:08:07.576Z</time>
      </trkpt>
      <trkpt lat="45.65029" lon="-1.02449">
        <ele>68.871355</ele>
        <time>2022-12-22T12:08:10.580Z</time>
      </trkpt>
      <trkpt lat="45.65017" lon="-1.02453">
        <ele>68.66407</ele>
        <time>2022-12-22T12:08:13.578Z</time>
      </trkpt>
      <trkpt lat="45.65006" lon="-1.02458">
        <ele>68.473601</ele>
        <time>2022-12-22T12:08:16.585Z</time>
      </trkpt>
      <trkpt lat="45.64995" lon="-1.0246">
        <ele>68.293468</ele>
        <time>2022-12-22T12:08:19.570Z</time>
      </trkpt>
      <trkpt lat="45.64984" lon="-1.02461">
        <ele>68.103168</ele>
        <time>2022-12-22T12:08:22.590Z</time>
      </trkpt>
      <trkpt lat="45.64972" lon="-1.02461">
        <ele>67.900049</ele>
        <time>2022-12-22T12:08:25.580Z</time>
      </trkpt>
      <trkpt lat="45.64959" lon="-1.02461">
        <ele>67.683547</ele>
        <time>2022-12-22T12:08:28.568Z</time>
      </trkpt>
      <trkpt lat="45.64946" lon="-1.02459">
        <ele>67.477708</ele>
        <time>2022-12-22T12:08:31.575Z</time>
      </trkpt>
      <trkpt lat="45.64934" lon="-1.02457">
        <ele>67.279119</ele>
        <time>2022-12-22T12:08:34.582Z</time>
      </trkpt>
      <trkpt lat="45.64923" lon="-1.02454">
        <ele>67.090581</ele>
        <time>2022-12-22T12:08:37.570Z</time>
      </trkpt>
      <trkpt lat="45.64913" lon="-1.02454">
        <ele>66.913924</ele>
        <time>2022-12-22T12:08:40.578Z</time>
      </trkpt>
      <trkpt lat="45.64905" lon="-1.0246">
        <ele>66.759828</ele>
        <time>2022-12-22T12:08:43.579Z</time>
      </trkpt>
      <trkpt lat="45.64895" lon="-1.02465">
        <ele>66.596754</ele>
        <time>2022-12-22T12:08:46.582Z</time>
      </trkpt>
      <trkpt lat="45.64887" lon="-1.02459">
        <ele>66.434939</ele>
        <time>2022-12-22T12:08:50.626Z</time>
      </trkpt>
      <trkpt lat="45.64879" lon="-1.02451">
        <ele>66.27556</ele>
        <time>2022-12-22T12:08:53.590Z</time>
      </trkpt>
      <trkpt lat="45.64867" lon="-1.02447">
        <ele>66.131206</ele>
        <time>2022-12-22T12:08:56.649Z</time>
      </trkpt>
      <trkpt lat="45.64853" lon="-1.02445">
        <ele>66.037999</ele>
        <time>2022-12-22T12:08:59.585Z</time>
      </trkpt>
      <trkpt lat="45.64844" lon="-1.02443">
        <ele>65.973661</ele>
        <time>2022-12-22T12:09:01.582Z</time>
      </trkpt>
      <trkpt lat="45.64831" lon="-1.02439">
        <ele>65.882459</ele>
        <time>2022-12-22T12:09:04.578Z</time>
      </trkpt>
      <trkpt lat="45.64819" lon="-1.02438">
        <ele>65.796012</ele>
        <time>2022-12-22T12:09:07.566Z</time>
      </trkpt>
      <trkpt lat="45.64807" lon="-1.02438">
        <ele>65.713954</ele>
        <time>2022-12-22T12:09:10.579Z</time>
      </trkpt>
      <trkpt lat="45.64795" lon="-1.02439">
        <ele>65.628894</ele>
        <time>2022-12-22T12:09:13.579Z</time>
      </trkpt>
      <trkpt lat="45.64782" lon="-1.0244">
        <ele>65.538423</ele>
        <time>2022-12-22T12:09:16.581Z</time>
      </trkpt>
      <trkpt lat="45.64772" lon="-1.02441">
        <ele>65.471531</ele>
        <time>2022-12-22T12:09:18.580Z</time>
      </trkpt>
      <trkpt lat="45.64763" lon="-1.02441">
        <ele>65.40472</ele>
        <time>2022-12-22T12:09:20.580Z</time>
      </trkpt>
      <trkpt lat="45.64753" lon="-1.02441">
        <ele>65.337276</ele>
        <time>2022-12-22T12:09:22.578Z</time>
      </trkpt>
      <trkpt lat="45.64743" lon="-1.02442">
        <ele>65.269095</ele>
        <time>2022-12-22T12:09:24.582Z</time>
      </trkpt>
      <trkpt lat="45.64734" lon="-1.02442">
        <ele>65.205061</ele>
        <time>2022-12-22T12:09:26.583Z</time>
      </trkpt>
      <trkpt lat="45.64725" lon="-1.02442">
        <ele>65.141087</ele>
        <time>2022-12-22T12:09:28.583Z</time>
      </trkpt>
      <trkpt lat="45.64712" lon="-1.02443">
        <ele>65.052624</ele>
        <time>2022-12-22T12:09:31.654Z</time>
      </trkpt>
      <trkpt lat="45.647" lon="-1.02443">
        <ele>64.968488</ele>
        <time>2022-12-22T12:09:34.580Z</time>
      </trkpt>
      <trkpt lat="45.64688" lon="-1.02445">
        <ele>64.871113</ele>
        <time>2022-12-22T12:09:37.589Z</time>
      </trkpt>
      <trkpt lat="45.64676" lon="-1.02445">
        <ele>64.756882</ele>
        <time>2022-12-22T12:09:40.592Z</time>
      </trkpt>
      <trkpt lat="45.64663" lon="-1.02446">
        <ele>64.634215</ele>
        <time>2022-12-22T12:09:43.635Z</time>
      </trkpt>
      <trkpt lat="45.64649" lon="-1.02446">
        <ele>64.511596</ele>
        <time>2022-12-22T12:09:46.589Z</time>
      </trkpt>
      <trkpt lat="45.64637" lon="-1.02447">
        <ele>64.395473</ele>
        <time>2022-12-22T12:09:49.650Z</time>
      </trkpt>
      <trkpt lat="45.64626" lon="-1.02448">
        <ele>64.296023</ele>
        <time>2022-12-22T12:09:52.583Z</time>
      </trkpt>
      <trkpt lat="45.64615" lon="-1.02448">
        <ele>64.191008</ele>
        <time>2022-12-22T12:09:55.652Z</time>
      </trkpt>
      <trkpt lat="45.64603" lon="-1.0245">
        <ele>64.081605</ele>
        <time>2022-12-22T12:09:58.581Z</time>
      </trkpt>
      <trkpt lat="45.64591" lon="-1.02453">
        <ele>63.965426</ele>
        <time>2022-12-22T12:10:01.638Z</time>
      </trkpt>
      <trkpt lat="45.64579" lon="-1.02454">
        <ele>63.852895</ele>
        <time>2022-12-22T12:10:04.580Z</time>
      </trkpt>
      <trkpt lat="45.64568" lon="-1.02455">
        <ele>63.750237</ele>
        <time>2022-12-22T12:10:07.592Z</time>
      </trkpt>
      <trkpt lat="45.64556" lon="-1.02458">
        <ele>63.643252</ele>
        <time>2022-12-22T12:10:10.580Z</time>
      </trkpt>
      <trkpt lat="45.64543" lon="-1.0246">
        <ele>63.522632</ele>
        <time>2022-12-22T12:10:13.654Z</time>
      </trkpt>
      <trkpt lat="45.64531" lon="-1.02462">
        <ele>63.411141</ele>
        <time>2022-12-22T12:10:16.581Z</time>
      </trkpt>
      <trkpt lat="45.64521" lon="-1.02463">
        <ele>63.310565</ele>
        <time>2022-12-22T12:10:19.637Z</time>
      </trkpt>
      <trkpt lat="45.64511" lon="-1.02465">
        <ele>63.292688</ele>
        <time>2022-12-22T12:10:22.582Z</time>
      </trkpt>
      <trkpt lat="45.64501" lon="-1.02467">
        <ele>63.401045</ele>
        <time>2022-12-22T12:10:25.651Z</time>
      </trkpt>
      <trkpt lat="45.64491" lon="-1.02469">
        <ele>63.504538</ele>
        <time>2022-12-22T12:10:28.563Z</time>
      </trkpt>
      <trkpt lat="45.64482" lon="-1.0247">
        <ele>63.608753</ele>
        <time>2022-12-22T12:10:31.567Z</time>
      </trkpt>
      <trkpt lat="45.64469" lon="-1.02471">
        <ele>63.739971</ele>
        <time>2022-12-22T12:10:34.579Z</time>
      </trkpt>
      <trkpt lat="45.64456" lon="-1.02474">
        <ele>63.88166</ele>
        <time>2022-12-22T12:10:37.563Z</time>
      </trkpt>
      <trkpt lat="45.64443" lon="-1.02476">
        <ele>64.024493</ele>
        <time>2022-12-22T12:10:40.581Z</time>
      </trkpt>
      <trkpt lat="45.64431" lon="-1.02478">
        <ele>64.152127</ele>
        <time>2022-12-22T12:10:43.584Z</time>
      </trkpt>
      <trkpt lat="45.6442" lon="-1.0248">
        <ele>64.280661</ele>
        <time>2022-12-22T12:10:46.582Z</time>
      </trkpt>
      <trkpt lat="45.64408" lon="-1.02481">
        <ele>64.410048</ele>
        <time>2022-12-22T12:10:49.583Z</time>
      </trkpt>
      <trkpt lat="45.64396" lon="-1.02482">
        <ele>64.537924</ele>
        <time>2022-12-22T12:10:52.583Z</time>
      </trkpt>
      <trkpt lat="45.64384" lon="-1.02482">
        <ele>64.660377</ele>
        <time>2022-12-22T12:10:55.581Z</time>
      </trkpt>
      <trkpt lat="45.64374" lon="-1.02482">
        <ele>64.775319</ele>
        <time>2022-12-22T12:10:58.581Z</time>
      </trkpt>
      <trkpt lat="45.64363" lon="-1.02481">
        <ele>64.891334</ele>
        <time>2022-12-22T12:11:01.580Z</time>
      </trkpt>
      <trkpt lat="45.64351" lon="-1.02482">
        <ele>65.01272</ele>
        <time>2022-12-22T12:11:04.578Z</time>
      </trkpt>
      <trkpt lat="45.6434" lon="-1.02482">
        <ele>65.136247</ele>
        <time>2022-12-22T12:11:07.572Z</time>
      </trkpt>
      <trkpt lat="45.64329" lon="-1.02482">
        <ele>65.226392</ele>
        <time>2022-12-22T12:11:10.580Z</time>
      </trkpt>
      <trkpt lat="45.64317" lon="-1.02481">
        <ele>65.296939</ele>
        <time>2022-12-22T12:11:13.582Z</time>
      </trkpt>
      <trkpt lat="45.64305" lon="-1.02481">
        <ele>65.365677</ele>
        <time>2022-12-22T12:11:16.580Z</time>
      </trkpt>
      <trkpt lat="45.64295" lon="-1.0248">
        <ele>65.428019</ele>
        <time>2022-12-22T12:11:19.586Z</time>
      </trkpt>
      <trkpt lat="45.64284" lon="-1.0248">
        <ele>65.495567</ele>
        <time>2022-12-22T12:11:23.631Z</time>
      </trkpt>
      <trkpt lat="45.64275" lon="-1.0248">
        <ele>65.549831</ele>
        <time>2022-12-22T12:11:26.579Z</time>
      </trkpt>
      <trkpt lat="45.64263" lon="-1.0248">
        <ele>65.620986</ele>
        <time>2022-12-22T12:11:30.579Z</time>
      </trkpt>
      <trkpt lat="45.64252" lon="-1.0248">
        <ele>65.690323</ele>
        <time>2022-12-22T12:11:34.582Z</time>
      </trkpt>
      <trkpt lat="45.64242" lon="-1.0248">
        <ele>65.746396</ele>
        <time>2022-12-22T12:11:37.564Z</time>
      </trkpt>
      <trkpt lat="45.64233" lon="-1.02479">
        <ele>65.8007</ele>
        <time>2022-12-22T12:11:40.584Z</time>
      </trkpt>
      <trkpt lat="45.64224" lon="-1.02479">
        <ele>65.856194</ele>
        <time>2022-12-22T12:11:43.579Z</time>
      </trkpt>
      <trkpt lat="45.64214" lon="-1.02479">
        <ele>65.914677</ele>
        <time>2022-12-22T12:11:46.593Z</time>
      </trkpt>
      <trkpt lat="45.64204" lon="-1.02478">
        <ele>65.979841</ele>
        <time>2022-12-22T12:11:49.584Z</time>
      </trkpt>
      <trkpt lat="45.64193" lon="-1.02478">
        <ele>66.04683</ele>
        <time>2022-12-22T12:11:52.583Z</time>
      </trkpt>
      <trkpt lat="45.64182" lon="-1.02478">
        <ele>66.111947</ele>
        <time>2022-12-22T12:11:55.585Z</time>
      </trkpt>
      <trkpt lat="45.64171" lon="-1.02478">
        <ele>66.177111</ele>
        <time>2022-12-22T12:11:58.655Z</time>
      </trkpt>
      <trkpt lat="45.6416" lon="-1.02479">
        <ele>66.242362</ele>
        <time>2022-12-22T12:12:01.591Z</time>
      </trkpt>
      <trkpt lat="45.64149" lon="-1.0248">
        <ele>66.092655</ele>
        <time>2022-12-22T12:12:04.635Z</time>
      </trkpt>
      <trkpt lat="45.64139" lon="-1.02481">
        <ele>65.804238</ele>
        <time>2022-12-22T12:12:07.572Z</time>
      </trkpt>
      <trkpt lat="45.64127" lon="-1.02482">
        <ele>65.4882</ele>
        <time>2022-12-22T12:12:10.605Z</time>
      </trkpt>
      <trkpt lat="45.64115" lon="-1.02483">
        <ele>65.156482</ele>
        <time>2022-12-22T12:12:13.585Z</time>
      </trkpt>
      <trkpt lat="45.64103" lon="-1.02486">
        <ele>64.819587</ele>
        <time>2022-12-22T12:12:16.635Z</time>
      </trkpt>
      <trkpt lat="45.64091" lon="-1.02489">
        <ele>64.491708</ele>
        <time>2022-12-22T12:12:19.581Z</time>
      </trkpt>
      <trkpt lat="45.64079" lon="-1.02492">
        <ele>64.156773</ele>
        <time>2022-12-22T12:12:22.635Z</time>
      </trkpt>
      <trkpt lat="45.64065" lon="-1.02496">
        <ele>63.792134</ele>
        <time>2022-12-22T12:12:25.582Z</time>
      </trkpt>
      <trkpt lat="45.64056" lon="-1.02498">
        <ele>63.543809</ele>
        <time>2022-12-22T12:12:27.575Z</time>
      </trkpt>
      <trkpt lat="45.64047" lon="-1.025">
        <ele>63.28808</ele>
        <time>2022-12-22T12:12:29.583Z</time>
      </trkpt>
      <trkpt lat="45.64038" lon="-1.02502">
        <ele>63.033658</ele>
        <time>2022-12-22T12:12:31.579Z</time>
      </trkpt>
      <trkpt lat="45.64028" lon="-1.02504">
        <ele>62.768955</ele>
        <time>2022-12-22T12:12:33.580Z</time>
      </trkpt>
      <trkpt lat="45.64018" lon="-1.02506">
        <ele>62.494429</ele>
        <time>2022-12-22T12:12:35.589Z</time>
      </trkpt>
      <trkpt lat="45.64008" lon="-1.02508">
        <ele>62.210321</ele>
        <time>2022-12-22T12:12:37.573Z</time>
      </trkpt>
      <trkpt lat="45.63997" lon="-1.0251">
        <ele>61.917462</ele>
        <time>2022-12-22T12:12:39.641Z</time>
      </trkpt>
      <trkpt lat="45.63986" lon="-1.0251">
        <ele>61.629551</ele>
        <time>2022-12-22T12:12:41.584Z</time>
      </trkpt>
      <trkpt lat="45.63977" lon="-1.02511">
        <ele>61.394101</ele>
        <time>2022-12-22T12:12:43.581Z</time>
      </trkpt>
      <trkpt lat="45.63968" lon="-1.02516">
        <ele>61.513449</ele>
        <time>2022-12-22T12:12:45.594Z</time>
      </trkpt>
      <trkpt lat="45.6396" lon="-1.0253">
        <ele>61.676036</ele>
        <time>2022-12-22T12:12:48.580Z</time>
      </trkpt>
      <trkpt lat="45.63954" lon="-1.02546">
        <ele>61.829005</ele>
        <time>2022-12-22T12:12:51.586Z</time>
      </trkpt>
      <trkpt lat="45.63946" lon="-1.02559">
        <ele>61.986739</ele>
        <time>2022-12-22T12:12:54.580Z</time>
      </trkpt>
      <trkpt lat="45.63935" lon="-1.02567">
        <ele>62.138579</ele>
        <time>2022-12-22T12:12:57.565Z</time>
      </trkpt>
      <trkpt lat="45.63925" lon="-1.02572">
        <ele>62.27355</ele>
        <time>2022-12-22T12:13:00.584Z</time>
      </trkpt>
      <trkpt lat="45.63915" lon="-1.02574">
        <ele>62.398115</ele>
        <time>2022-12-22T12:13:03.581Z</time>
      </trkpt>
      <trkpt lat="45.63907" lon="-1.0258">
        <ele>62.518596</ele>
        <time>2022-12-22T12:13:06.578Z</time>
      </trkpt>
      <trkpt lat="45.639" lon="-1.02592">
        <ele>62.659076</ele>
        <time>2022-12-22T12:13:09.592Z</time>
      </trkpt>
      <trkpt lat="45.63894" lon="-1.02607">
        <ele>62.809214</ele>
        <time>2022-12-22T12:13:12.581Z</time>
      </trkpt>
      <trkpt lat="45.63888" lon="-1.02621">
        <ele>62.953483</ele>
        <time>2022-12-22T12:13:15.586Z</time>
      </trkpt>
      <trkpt lat="45.63883" lon="-1.02635">
        <ele>63.093122</ele>
        <time>2022-12-22T12:13:18.581Z</time>
      </trkpt>
      <trkpt lat="45.63877" lon="-1.02649">
        <ele>63.237266</ele>
        <time>2022-12-22T12:13:21.581Z</time>
      </trkpt>
      <trkpt lat="45.6387" lon="-1.02661">
        <ele>63.375836</ele>
        <time>2022-12-22T12:13:25.579Z</time>
      </trkpt>
      <trkpt lat="45.63863" lon="-1.02674">
        <ele>63.518301</ele>
        <time>2022-12-22T12:13:29.579Z</time>
      </trkpt>
      <trkpt lat="45.63857" lon="-1.02684">
        <ele>63.641689</ele>
        <time>2022-12-22T12:13:32.644Z</time>
      </trkpt>
      <trkpt lat="45.6385" lon="-1.02695">
        <ele>63.849593</ele>
        <time>2022-12-22T12:13:35.580Z</time>
      </trkpt>
      <trkpt lat="45.63844" lon="-1.02706">
        <ele>64.072537</ele>
        <time>2022-12-22T12:13:38.624Z</time>
      </trkpt>
      <trkpt lat="45.63837" lon="-1.02717">
        <ele>64.309095</ele>
        <time>2022-12-22T12:13:42.590Z</time>
      </trkpt>
      <trkpt lat="45.6383" lon="-1.02729">
        <ele>64.545863</ele>
        <time>2022-12-22T12:13:46.596Z</time>
      </trkpt>
      <trkpt lat="45.63822" lon="-1.02741">
        <ele>64.802096</ele>
        <time>2022-12-22T12:13:50.629Z</time>
      </trkpt>
      <trkpt lat="45.63814" lon="-1.02751">
        <ele>65.044372</ele>
        <time>2022-12-22T12:13:54.586Z</time>
      </trkpt>
      <trkpt lat="45.63806" lon="-1.0276">
        <ele>65.26646</ele>
        <time>2022-12-22T12:13:58.574Z</time>
      </trkpt>
      <trkpt lat="45.63799" lon="-1.02768">
        <ele>65.467853</ele>
        <time>2022-12-22T12:14:01.563Z</time>
      </trkpt>
      <trkpt lat="45.63792" lon="-1.02777">
        <ele>65.679349</ele>
        <time>2022-12-22T12:14:04.593Z</time>
      </trkpt>
      <trkpt lat="45.63785" lon="-1.02785">
        <ele>65.881495</ele>
        <time>2022-12-22T12:14:07.624Z</time>
      </trkpt>
      <trkpt lat="45.63776" lon="-1.02794">
        <ele>66.129532</ele>
        <time>2022-12-22T12:14:11.561Z</time>
      </trkpt>
      <trkpt lat="45.63768" lon="-1.02801">
        <ele>66.336665</ele>
        <time>2022-12-22T12:14:14.587Z</time>
      </trkpt>
      <trkpt lat="45.63759" lon="-1.02809">
        <ele>66.569294</ele>
        <time>2022-12-22T12:14:17.562Z</time>
      </trkpt>
      <trkpt lat="45.6375" lon="-1.02816">
        <ele>66.790715</ele>
        <time>2022-12-22T12:14:20.579Z</time>
      </trkpt>
      <trkpt lat="45.63741" lon="-1.02823">
        <ele>67.024136</ele>
        <time>2022-12-22T12:14:23.583Z</time>
      </trkpt>
      <trkpt lat="45.63731" lon="-1.0283">
        <ele>67.256614</ele>
        <time>2022-12-22T12:14:26.578Z</time>
      </trkpt>
      <trkpt lat="45.63723" lon="-1.02835">
        <ele>67.464226</ele>
        <time>2022-12-22T12:14:29.580Z</time>
      </trkpt>
      <trkpt lat="45.63714" lon="-1.02841">
        <ele>67.670337</ele>
        <time>2022-12-22T12:14:32.580Z</time>
      </trkpt>
      <trkpt lat="45.63704" lon="-1.02846">
        <ele>67.755573</ele>
        <time>2022-12-22T12:14:36.585Z</time>
      </trkpt>
      <trkpt lat="45.63694" lon="-1.02851">
        <ele>67.830987</ele>
        <time>2022-12-22T12:14:39.647Z</time>
      </trkpt>
      <trkpt lat="45.63684" lon="-1.02856">
        <ele>67.91074</ele>
        <time>2022-12-22T12:14:42.588Z</time>
      </trkpt>
      <trkpt lat="45.63675" lon="-1.02858">
        <ele>67.980663</ele>
        <time>2022-12-22T12:14:45.646Z</time>
      </trkpt>
      <trkpt lat="45.63666" lon="-1.02863">
        <ele>68.04964</ele>
        <time>2022-12-22T12:14:48.583Z</time>
      </trkpt>
      <trkpt lat="45.63658" lon="-1.0287">
        <ele>68.123392</ele>
        <time>2022-12-22T12:14:51.584Z</time>
      </trkpt>
      <trkpt lat="45.63648" lon="-1.02876">
        <ele>68.205267</ele>
        <time>2022-12-22T12:14:54.581Z</time>
      </trkpt>
      <trkpt lat="45.63637" lon="-1.02878">
        <ele>68.290737</ele>
        <time>2022-12-22T12:14:57.566Z</time>
      </trkpt>
      <trkpt lat="45.63625" lon="-1.02876">
        <ele>68.37871</ele>
        <time>2022-12-22T12:15:00.580Z</time>
      </trkpt>
      <trkpt lat="45.63614" lon="-1.02874">
        <ele>68.460969</ele>
        <time>2022-12-22T12:15:03.579Z</time>
      </trkpt>
      <trkpt lat="45.63603" lon="-1.02876">
        <ele>68.545632</ele>
        <time>2022-12-22T12:15:06.578Z</time>
      </trkpt>
      <trkpt lat="45.63592" lon="-1.0288">
        <ele>68.630285</ele>
        <time>2022-12-22T12:15:09.563Z</time>
      </trkpt>
      <trkpt lat="45.63582" lon="-1.02882">
        <ele>68.705897</ele>
        <time>2022-12-22T12:15:12.587Z</time>
      </trkpt>
      <trkpt lat="45.63571" lon="-1.02884">
        <ele>68.786522</ele>
        <time>2022-12-22T12:15:15.591Z</time>
      </trkpt>
      <trkpt lat="45.6356" lon="-1.02885">
        <ele>68.87082</ele>
        <time>2022-12-22T12:15:18.583Z</time>
      </trkpt>
      <trkpt lat="45.63549" lon="-1.02887">
        <ele>68.956419</ele>
        <time>2022-12-22T12:15:21.569Z</time>
      </trkpt>
      <trkpt lat="45.63537" lon="-1.02889">
        <ele>69.005842</ele>
        <time>2022-12-22T12:15:24.581Z</time>
      </trkpt>
      <trkpt lat="45.63526" lon="-1.02891">
        <ele>68.969905</ele>
        <time>2022-12-22T12:15:27.569Z</time>
      </trkpt>
      <trkpt lat="45.63515" lon="-1.02894">
        <ele>68.935761</ele>
        <time>2022-12-22T12:15:30.585Z</time>
      </trkpt>
      <trkpt lat="45.63505" lon="-1.02897">
        <ele>68.905642</ele>
        <time>2022-12-22T12:15:33.584Z</time>
      </trkpt>
      <trkpt lat="45.63496" lon="-1.02899">
        <ele>68.877225</ele>
        <time>2022-12-22T12:15:37.561Z</time>
      </trkpt>
      <trkpt lat="45.63486" lon="-1.02903">
        <ele>68.843624</ele>
        <time>2022-12-22T12:15:44.581Z</time>
      </trkpt>
      <trkpt lat="45.63474" lon="-1.02908">
        <ele>68.806526</ele>
        <time>2022-12-22T12:15:48.581Z</time>
      </trkpt>
      <trkpt lat="45.63463" lon="-1.0291">
        <ele>68.77218</ele>
        <time>2022-12-22T12:15:51.581Z</time>
      </trkpt>
      <trkpt lat="45.63451" lon="-1.02913">
        <ele>68.736003</ele>
        <time>2022-12-22T12:15:54.582Z</time>
      </trkpt>
      <trkpt lat="45.6344" lon="-1.02915">
        <ele>68.700742</ele>
        <time>2022-12-22T12:15:57.575Z</time>
      </trkpt>
      <trkpt lat="45.6343" lon="-1.02917">
        <ele>68.670054</ele>
        <time>2022-12-22T12:16:00.579Z</time>
      </trkpt>
      <trkpt lat="45.63419" lon="-1.0292">
        <ele>68.635945</ele>
        <time>2022-12-22T12:16:03.587Z</time>
      </trkpt>
      <trkpt lat="45.63408" lon="-1.02923">
        <ele>68.60039</ele>
        <time>2022-12-22T12:16:06.578Z</time>
      </trkpt>
      <trkpt lat="45.63397" lon="-1.0293">
        <ele>68.563</ele>
        <time>2022-12-22T12:16:09.561Z</time>
      </trkpt>
      <trkpt lat="45.63386" lon="-1.02938">
        <ele>68.52638</ele>
        <time>2022-12-22T12:16:12.584Z</time>
      </trkpt>
      <trkpt lat="45.63378" lon="-1.02946">
        <ele>68.494831</ele>
        <time>2022-12-22T12:16:15.582Z</time>
      </trkpt>
      <trkpt lat="45.63369" lon="-1.02955">
        <ele>68.455513</ele>
        <time>2022-12-22T12:16:19.583Z</time>
      </trkpt>
      <trkpt lat="45.63361" lon="-1.02965">
        <ele>68.04957</ele>
        <time>2022-12-22T12:16:23.568Z</time>
      </trkpt>
      <trkpt lat="45.63352" lon="-1.02975">
        <ele>67.661108</ele>
        <time>2022-12-22T12:16:26.592Z</time>
      </trkpt>
      <trkpt lat="45.63344" lon="-1.02986">
        <ele>67.245694</ele>
        <time>2022-12-22T12:16:29.591Z</time>
      </trkpt>
      <trkpt lat="45.63336" lon="-1.02998">
        <ele>66.824007</ele>
        <time>2022-12-22T12:16:32.579Z</time>
      </trkpt>
      <trkpt lat="45.63327" lon="-1.03011">
        <ele>66.372117</ele>
        <time>2022-12-22T12:16:35.582Z</time>
      </trkpt>
      <trkpt lat="45.6332" lon="-1.0302">
        <ele>66.046427</ele>
        <time>2022-12-22T12:16:37.572Z</time>
      </trkpt>
      <trkpt lat="45.63313" lon="-1.03028">
        <ele>65.714133</ele>
        <time>2022-12-22T12:16:39.636Z</time>
      </trkpt>
      <trkpt lat="45.63303" lon="-1.03042">
        <ele>65.217238</ele>
        <time>2022-12-22T12:16:42.581Z</time>
      </trkpt>
      <trkpt lat="45.63297" lon="-1.03051">
        <ele>64.891807</ele>
        <time>2022-12-22T12:16:44.580Z</time>
      </trkpt>
      <trkpt lat="45.6329" lon="-1.03061">
        <ele>64.561518</ele>
        <time>2022-12-22T12:16:46.578Z</time>
      </trkpt>
      <trkpt lat="45.63282" lon="-1.03074">
        <ele>64.109269</ele>
        <time>2022-12-22T12:16:49.583Z</time>
      </trkpt>
      <trkpt lat="45.63276" lon="-1.03085">
        <ele>63.761949</ele>
        <time>2022-12-22T12:16:51.638Z</time>
      </trkpt>
      <trkpt lat="45.63269" lon="-1.03095">
        <ele>63.422711</ele>
        <time>2022-12-22T12:16:53.583Z</time>
      </trkpt>
      <trkpt lat="45.6326" lon="-1.03108">
        <ele>62.952524</ele>
        <time>2022-12-22T12:16:56.588Z</time>
      </trkpt>
      <trkpt lat="45.63251" lon="-1.03121">
        <ele>62.497227</ele>
        <time>2022-12-22T12:16:59.569Z</time>
      </trkpt>
      <trkpt lat="45.63241" lon="-1.03133">
        <ele>62.02889</ele>
        <time>2022-12-22T12:17:02.586Z</time>
      </trkpt>
      <trkpt lat="45.63233" lon="-1.03143">
        <ele>61.823882</ele>
        <time>2022-12-22T12:17:05.579Z</time>
      </trkpt>
      <trkpt lat="45.63225" lon="-1.0315">
        <ele>61.667595</ele>
        <time>2022-12-22T12:17:08.582Z</time>
      </trkpt>
      <trkpt lat="45.63217" lon="-1.03159">
        <ele>61.488129</ele>
        <time>2022-12-22T12:17:13.569Z</time>
      </trkpt>
      <trkpt lat="45.63198" lon="-1.03182">
        <ele>61.064972</ele>
        <time>2022-12-22T12:17:59.639Z</time>
      </trkpt>
      <trkpt lat="45.63197" lon="-1.032">
        <ele>60.849523</ele>
        <time>2022-12-22T12:18:02.581Z</time>
      </trkpt>
      <trkpt lat="45.63199" lon="-1.03217">
        <ele>60.640573</ele>
        <time>2022-12-22T12:18:05.580Z</time>
      </trkpt>
      <trkpt lat="45.63202" lon="-1.03235">
        <ele>60.418407</ele>
        <time>2022-12-22T12:18:08.586Z</time>
      </trkpt>
      <trkpt lat="45.63204" lon="-1.03253">
        <ele>60.194025</ele>
        <time>2022-12-22T12:18:11.587Z</time>
      </trkpt>
      <trkpt lat="45.63204" lon="-1.03272">
        <ele>59.974751</ele>
        <time>2022-12-22T12:18:14.590Z</time>
      </trkpt>
      <trkpt lat="45.63203" lon="-1.03289">
        <ele>59.760123</ele>
        <time>2022-12-22T12:18:17.570Z</time>
      </trkpt>
      <trkpt lat="45.63203" lon="-1.03309">
        <ele>59.52759</ele>
        <time>2022-12-22T12:18:20.564Z</time>
      </trkpt>
      <trkpt lat="45.63203" lon="-1.03327">
        <ele>59.303258</ele>
        <time>2022-12-22T12:18:23.565Z</time>
      </trkpt>
      <trkpt lat="45.63203" lon="-1.03345">
        <ele>59.085182</ele>
        <time>2022-12-22T12:18:26.587Z</time>
      </trkpt>
      <trkpt lat="45.63202" lon="-1.03363">
        <ele>58.922276</ele>
        <time>2022-12-22T12:18:29.573Z</time>
      </trkpt>
      <trkpt lat="45.63202" lon="-1.03379">
        <ele>59.134106</ele>
        <time>2022-12-22T12:18:32.568Z</time>
      </trkpt>
      <trkpt lat="45.63202" lon="-1.03395">
        <ele>59.353887</ele>
        <time>2022-12-22T12:18:35.582Z</time>
      </trkpt>
      <trkpt lat="45.63202" lon="-1.03411">
        <ele>59.565725</ele>
        <time>2022-12-22T12:18:38.581Z</time>
      </trkpt>
      <trkpt lat="45.63202" lon="-1.03426">
        <ele>59.761676</ele>
        <time>2022-12-22T12:18:41.581Z</time>
      </trkpt>
      <trkpt lat="45.63203" lon="-1.03443">
        <ele>59.985933</ele>
        <time>2022-12-22T12:18:45.642Z</time>
      </trkpt>
      <trkpt lat="45.63203" lon="-1.03459">
        <ele>60.204456</ele>
        <time>2022-12-22T12:18:49.570Z</time>
      </trkpt>
      <trkpt lat="45.63203" lon="-1.03475">
        <ele>60.41301</ele>
        <time>2022-12-22T12:18:53.582Z</time>
      </trkpt>
      <trkpt lat="45.63201" lon="-1.0349">
        <ele>60.60838</ele>
        <time>2022-12-22T12:18:57.600Z</time>
      </trkpt>
      <trkpt lat="45.63199" lon="-1.03505">
        <ele>60.816477</ele>
        <time>2022-12-22T12:19:01.593Z</time>
      </trkpt>
      <trkpt lat="45.63195" lon="-1.0352">
        <ele>61.025187</ele>
        <time>2022-12-22T12:19:05.583Z</time>
      </trkpt>
      <trkpt lat="45.63191" lon="-1.03535">
        <ele>61.235946</ele>
        <time>2022-12-22T12:19:09.632Z</time>
      </trkpt>
      <trkpt lat="45.63186" lon="-1.03548">
        <ele>61.431749</ele>
        <time>2022-12-22T12:19:13.586Z</time>
      </trkpt>
      <trkpt lat="45.6318" lon="-1.03562">
        <ele>61.650273</ele>
        <time>2022-12-22T12:19:17.579Z</time>
      </trkpt>
      <trkpt lat="45.63174" lon="-1.03575">
        <ele>61.855384</ele>
        <time>2022-12-22T12:19:21.652Z</time>
      </trkpt>
      <trkpt lat="45.63166" lon="-1.03587">
        <ele>62.069456</ele>
        <time>2022-12-22T12:19:25.568Z</time>
      </trkpt>
      <trkpt lat="45.6316" lon="-1.03596">
        <ele>62.248092</ele>
        <time>2022-12-22T12:19:28.593Z</time>
      </trkpt>
      <trkpt lat="45.63153" lon="-1.03607">
        <ele>62.326476</ele>
        <time>2022-12-22T12:19:31.592Z</time>
      </trkpt>
      <trkpt lat="45.63146" lon="-1.03617">
        <ele>62.357687</ele>
        <time>2022-12-22T12:19:34.571Z</time>
      </trkpt>
      <trkpt lat="45.63139" lon="-1.03628">
        <ele>62.388687</ele>
        <time>2022-12-22T12:19:37.571Z</time>
      </trkpt>
      <trkpt lat="45.63132" lon="-1.03639">
        <ele>62.420666</ele>
        <time>2022-12-22T12:19:40.574Z</time>
      </trkpt>
      <trkpt lat="45.63125" lon="-1.03649">
        <ele>62.452836</ele>
        <time>2022-12-22T12:19:43.592Z</time>
      </trkpt>
      <trkpt lat="45.63118" lon="-1.03661">
        <ele>62.485718</ele>
        <time>2022-12-22T12:19:46.587Z</time>
      </trkpt>
      <trkpt lat="45.63112" lon="-1.03672">
        <ele>62.517532</ele>
        <time>2022-12-22T12:19:49.566Z</time>
      </trkpt>
      <trkpt lat="45.63105" lon="-1.03682">
        <ele>62.54976</ele>
        <time>2022-12-22T12:19:52.594Z</time>
      </trkpt>
      <trkpt lat="45.63097" lon="-1.03695">
        <ele>62.585351</ele>
        <time>2022-12-22T12:19:55.566Z</time>
      </trkpt>
      <trkpt lat="45.63089" lon="-1.03707">
        <ele>62.622259</ele>
        <time>2022-12-22T12:19:58.591Z</time>
      </trkpt>
      <trkpt lat="45.63082" lon="-1.0372">
        <ele>62.658714</ele>
        <time>2022-12-22T12:20:01.582Z</time>
      </trkpt>
      <trkpt lat="45.63075" lon="-1.03732">
        <ele>62.692765</ele>
        <time>2022-12-22T12:20:04.569Z</time>
      </trkpt>
      <trkpt lat="45.63068" lon="-1.03743">
        <ele>62.724141</ele>
        <time>2022-12-22T12:20:07.577Z</time>
      </trkpt>
      <trkpt lat="45.63062" lon="-1.03754">
        <ele>62.753912</ele>
        <time>2022-12-22T12:20:10.581Z</time>
      </trkpt>
      <trkpt lat="45.63055" lon="-1.03764">
        <ele>62.785236</ele>
        <time>2022-12-22T12:20:13.584Z</time>
      </trkpt>
      <trkpt lat="45.63048" lon="-1.03775">
        <ele>62.817995</ele>
        <time>2022-12-22T12:20:16.580Z</time>
      </trkpt>
      <trkpt lat="45.6304" lon="-1.03786">
        <ele>62.852314</ele>
        <time>2022-12-22T12:20:19.581Z</time>
      </trkpt>
      <trkpt lat="45.63033" lon="-1.03797">
        <ele>62.901578</ele>
        <time>2022-12-22T12:20:22.592Z</time>
      </trkpt>
      <trkpt lat="45.63025" lon="-1.03807">
        <ele>62.958801</ele>
        <time>2022-12-22T12:20:25.581Z</time>
      </trkpt>
      <trkpt lat="45.63017" lon="-1.03819">
        <ele>63.020153</ele>
        <time>2022-12-22T12:20:28.566Z</time>
      </trkpt>
      <trkpt lat="45.63009" lon="-1.03831">
        <ele>63.083265</ele>
        <time>2022-12-22T12:20:31.579Z</time>
      </trkpt>
      <trkpt lat="45.63001" lon="-1.03843">
        <ele>63.146272</ele>
        <time>2022-12-22T12:20:34.582Z</time>
      </trkpt>
      <trkpt lat="45.62992" lon="-1.03854">
        <ele>63.210725</ele>
        <time>2022-12-22T12:20:37.572Z</time>
      </trkpt>
      <trkpt lat="45.62984" lon="-1.03865">
        <ele>63.271503</ele>
        <time>2022-12-22T12:20:40.581Z</time>
      </trkpt>
      <trkpt lat="45.62976" lon="-1.03878">
        <ele>63.340104</ele>
        <time>2022-12-22T12:20:43.583Z</time>
      </trkpt>
      <trkpt lat="45.62967" lon="-1.03891">
        <ele>63.409192</ele>
        <time>2022-12-22T12:20:46.585Z</time>
      </trkpt>
      <trkpt lat="45.62958" lon="-1.03903">
        <ele>63.474435</ele>
        <time>2022-12-22T12:20:49.578Z</time>
      </trkpt>
      <trkpt lat="45.62951" lon="-1.03913">
        <ele>63.53127</ele>
        <time>2022-12-22T12:20:52.580Z</time>
      </trkpt>
      <trkpt lat="45.62943" lon="-1.03924">
        <ele>63.589298</ele>
        <time>2022-12-22T12:20:55.587Z</time>
      </trkpt>
      <trkpt lat="45.62936" lon="-1.03936">
        <ele>63.650658</ele>
        <time>2022-12-22T12:20:58.579Z</time>
      </trkpt>
      <trkpt lat="45.62928" lon="-1.03948">
        <ele>63.711585</ele>
        <time>2022-12-22T12:21:01.648Z</time>
      </trkpt>
      <trkpt lat="45.62922" lon="-1.0396">
        <ele>63.768853</ele>
        <time>2022-12-22T12:21:04.579Z</time>
      </trkpt>
      <trkpt lat="45.62915" lon="-1.03972">
        <ele>63.830008</ele>
        <time>2022-12-22T12:21:07.608Z</time>
      </trkpt>
      <trkpt lat="45.62908" lon="-1.03985">
        <ele>63.879085</ele>
        <time>2022-12-22T12:21:10.584Z</time>
      </trkpt>
      <trkpt lat="45.629" lon="-1.03998">
        <ele>63.924993</ele>
        <time>2022-12-22T12:21:13.595Z</time>
      </trkpt>
      <trkpt lat="45.62893" lon="-1.04011">
        <ele>63.972163</ele>
        <time>2022-12-22T12:21:16.580Z</time>
      </trkpt>
      <trkpt lat="45.62886" lon="-1.04025">
        <ele>64.020449</ele>
        <time>2022-12-22T12:21:19.618Z</time>
      </trkpt>
      <trkpt lat="45.62879" lon="-1.0404">
        <ele>64.069425</ele>
        <time>2022-12-22T12:21:22.585Z</time>
      </trkpt>
      <trkpt lat="45.62873" lon="-1.04054">
        <ele>64.117261</ele>
        <time>2022-12-22T12:21:25.653Z</time>
      </trkpt>
      <trkpt lat="45.62866" lon="-1.04068">
        <ele>64.16556</ele>
        <time>2022-12-22T12:21:28.584Z</time>
      </trkpt>
      <trkpt lat="45.6286" lon="-1.04082">
        <ele>64.211835</ele>
        <time>2022-12-22T12:21:31.583Z</time>
      </trkpt>
      <trkpt lat="45.62854" lon="-1.04096">
        <ele>64.258346</ele>
        <time>2022-12-22T12:21:34.578Z</time>
      </trkpt>
      <trkpt lat="45.62848" lon="-1.04109">
        <ele>64.300937</ele>
        <time>2022-12-22T12:21:37.570Z</time>
      </trkpt>
      <trkpt lat="45.62841" lon="-1.04123">
        <ele>64.346252</ele>
        <time>2022-12-22T12:21:40.591Z</time>
      </trkpt>
      <trkpt lat="45.62835" lon="-1.04136">
        <ele>64.392021</ele>
        <time>2022-12-22T12:21:43.567Z</time>
      </trkpt>
      <trkpt lat="45.62829" lon="-1.0415">
        <ele>64.437356</ele>
        <time>2022-12-22T12:21:46.581Z</time>
      </trkpt>
      <trkpt lat="45.62822" lon="-1.04164">
        <ele>64.485238</ele>
        <time>2022-12-22T12:21:49.559Z</time>
      </trkpt>
      <trkpt lat="45.62816" lon="-1.04179">
        <ele>64.533786</ele>
        <time>2022-12-22T12:21:52.579Z</time>
      </trkpt>
      <trkpt lat="45.6281" lon="-1.04192">
        <ele>64.545349</ele>
        <time>2022-12-22T12:21:55.587Z</time>
      </trkpt>
      <trkpt lat="45.62802" lon="-1.04206">
        <ele>64.480882</ele>
        <time>2022-12-22T12:21:58.582Z</time>
      </trkpt>
      <trkpt lat="45.62795" lon="-1.04221">
        <ele>64.414614</ele>
        <time>2022-12-22T12:22:01.584Z</time>
      </trkpt>
      <trkpt lat="45.62788" lon="-1.04235">
        <ele>64.351247</ele>
        <time>2022-12-22T12:22:04.582Z</time>
      </trkpt>
      <trkpt lat="45.62782" lon="-1.04248">
        <ele>64.294566</ele>
        <time>2022-12-22T12:22:07.577Z</time>
      </trkpt>
      <trkpt lat="45.62775" lon="-1.0426">
        <ele>64.238672</ele>
        <time>2022-12-22T12:22:10.565Z</time>
      </trkpt>
      <trkpt lat="45.62766" lon="-1.04271">
        <ele>64.177428</ele>
        <time>2022-12-22T12:22:13.583Z</time>
      </trkpt>
      <trkpt lat="45.62757" lon="-1.04281">
        <ele>64.115496</ele>
        <time>2022-12-22T12:22:16.579Z</time>
      </trkpt>
      <trkpt lat="45.62747" lon="-1.04292">
        <ele>64.052002</ele>
        <time>2022-12-22T12:22:19.567Z</time>
      </trkpt>
      <trkpt lat="45.62738" lon="-1.04303">
        <ele>63.987686</ele>
        <time>2022-12-22T12:22:22.587Z</time>
      </trkpt>
      <trkpt lat="45.62728" lon="-1.04313">
        <ele>63.925125</ele>
        <time>2022-12-22T12:22:25.585Z</time>
      </trkpt>
      <trkpt lat="45.62718" lon="-1.04322">
        <ele>63.86012</ele>
        <time>2022-12-22T12:22:28.587Z</time>
      </trkpt>
      <trkpt lat="45.62708" lon="-1.0433">
        <ele>63.800345</ele>
        <time>2022-12-22T12:22:31.583Z</time>
      </trkpt>
      <trkpt lat="45.62699" lon="-1.04338">
        <ele>63.745662</ele>
        <time>2022-12-22T12:22:34.580Z</time>
      </trkpt>
      <trkpt lat="45.6269" lon="-1.04347">
        <ele>63.688828</ele>
        <time>2022-12-22T12:22:37.570Z</time>
      </trkpt>
      <trkpt lat="45.6268" lon="-1.04356">
        <ele>63.629209</ele>
        <time>2022-12-22T12:22:40.635Z</time>
      </trkpt>
      <trkpt lat="45.6267" lon="-1.04365">
        <ele>63.704116</ele>
        <time>2022-12-22T12:22:43.584Z</time>
      </trkpt>
      <trkpt lat="45.62659" lon="-1.04374">
        <ele>63.79622</ele>
        <time>2022-12-22T12:22:46.648Z</time>
      </trkpt>
      <trkpt lat="45.62649" lon="-1.04383">
        <ele>63.883622</ele>
        <time>2022-12-22T12:22:49.592Z</time>
      </trkpt>
      <trkpt lat="45.6264" lon="-1.0439">
        <ele>63.95852</ele>
        <time>2022-12-22T12:22:52.648Z</time>
      </trkpt>
      <trkpt lat="45.62632" lon="-1.04397">
        <ele>64.028866</ele>
        <time>2022-12-22T12:22:55.581Z</time>
      </trkpt>
      <trkpt lat="45.62624" lon="-1.04405">
        <ele>64.101838</ele>
        <time>2022-12-22T12:22:58.611Z</time>
      </trkpt>
      <trkpt lat="45.62616" lon="-1.04413">
        <ele>64.175131</ele>
        <time>2022-12-22T12:23:01.593Z</time>
      </trkpt>
      <trkpt lat="45.62607" lon="-1.0442">
        <ele>64.247727</ele>
        <time>2022-12-22T12:23:04.597Z</time>
      </trkpt>
      <trkpt lat="45.62598" lon="-1.04426">
        <ele>64.323144</ele>
        <time>2022-12-22T12:23:07.567Z</time>
      </trkpt>
      <trkpt lat="45.62587" lon="-1.0443">
        <ele>64.404995</ele>
        <time>2022-12-22T12:23:11.581Z</time>
      </trkpt>
      <trkpt lat="45.62577" lon="-1.04432">
        <ele>64.482618</ele>
        <time>2022-12-22T12:23:15.625Z</time>
      </trkpt>
      <trkpt lat="45.62565" lon="-1.04436">
        <ele>64.572674</ele>
        <time>2022-12-22T12:23:19.566Z</time>
      </trkpt>
      <trkpt lat="45.62555" lon="-1.0444">
        <ele>64.650223</ele>
        <time>2022-12-22T12:23:22.590Z</time>
      </trkpt>
      <trkpt lat="45.62545" lon="-1.04443">
        <ele>64.728868</ele>
        <time>2022-12-22T12:23:25.586Z</time>
      </trkpt>
      <trkpt lat="45.62534" lon="-1.04447">
        <ele>64.81169</ele>
        <time>2022-12-22T12:23:28.580Z</time>
      </trkpt>
      <trkpt lat="45.62524" lon="-1.04451">
        <ele>64.886321</ele>
        <time>2022-12-22T12:23:31.593Z</time>
      </trkpt>
      <trkpt lat="45.62515" lon="-1.04452">
        <ele>64.954222</ele>
        <time>2022-12-22T12:23:34.592Z</time>
      </trkpt>
      <trkpt lat="45.62503" lon="-1.04454">
        <ele>64.518272</ele>
        <time>2022-12-22T12:23:38.591Z</time>
      </trkpt>
      <trkpt lat="45.62492" lon="-1.04457">
        <ele>64.100008</ele>
        <time>2022-12-22T12:23:41.588Z</time>
      </trkpt>
      <trkpt lat="45.62481" lon="-1.04462">
        <ele>63.653453</ele>
        <time>2022-12-22T12:23:44.589Z</time>
      </trkpt>
      <trkpt lat="45.62469" lon="-1.04468">
        <ele>63.208396</ele>
        <time>2022-12-22T12:23:47.571Z</time>
      </trkpt>
      <trkpt lat="45.62458" lon="-1.04474">
        <ele>62.759823</ele>
        <time>2022-12-22T12:23:50.587Z</time>
      </trkpt>
      <trkpt lat="45.62448" lon="-1.04481">
        <ele>62.331936</ele>
        <time>2022-12-22T12:23:53.585Z</time>
      </trkpt>
      <trkpt lat="45.62438" lon="-1.04488">
        <ele>61.927306</ele>
        <time>2022-12-22T12:23:56.593Z</time>
      </trkpt>
      <trkpt lat="45.6243" lon="-1.04495">
        <ele>61.57727</ele>
        <time>2022-12-22T12:23:59.589Z</time>
      </trkpt>
      <trkpt lat="45.62422" lon="-1.04504">
        <ele>61.204906</ele>
        <time>2022-12-22T12:24:03.604Z</time>
      </trkpt>
      <trkpt lat="45.62413" lon="-1.04509">
        <ele>60.834816</ele>
        <time>2022-12-22T12:24:06.589Z</time>
      </trkpt>
      <trkpt lat="45.62402" lon="-1.04516">
        <ele>60.384396</ele>
        <time>2022-12-22T12:24:09.632Z</time>
      </trkpt>
      <trkpt lat="45.62391" lon="-1.04526">
        <ele>59.902729</ele>
        <time>2022-12-22T12:24:12.581Z</time>
      </trkpt>
      <trkpt lat="45.6238" lon="-1.04536">
        <ele>59.424163</ele>
        <time>2022-12-22T12:24:15.637Z</time>
      </trkpt>
      <trkpt lat="45.6237" lon="-1.04546">
        <ele>58.965193</ele>
        <time>2022-12-22T12:24:18.581Z</time>
      </trkpt>
      <trkpt lat="45.6236" lon="-1.04555">
        <ele>58.537998</ele>
        <time>2022-12-22T12:24:21.631Z</time>
      </trkpt>
      <trkpt lat="45.62352" lon="-1.04563">
        <ele>58.148075</ele>
        <time>2022-12-22T12:24:24.564Z</time>
      </trkpt>
      <trkpt lat="45.62344" lon="-1.0457">
        <ele>57.767324</ele>
        <time>2022-12-22T12:24:27.628Z</time>
      </trkpt>
      <trkpt lat="45.62335" lon="-1.04577">
        <ele>57.3396</ele>
        <time>2022-12-22T12:24:30.590Z</time>
      </trkpt>
      <trkpt lat="45.62326" lon="-1.04587">
        <ele>56.854381</ele>
        <time>2022-12-22T12:24:33.572Z</time>
      </trkpt>
      <trkpt lat="45.62318" lon="-1.04594">
        <ele>56.478</ele>
        <time>2022-12-22T12:24:35.590Z</time>
      </trkpt>
      <trkpt lat="45.62307" lon="-1.04605">
        <ele>55.907624</ele>
        <time>2022-12-22T12:24:38.645Z</time>
      </trkpt>
      <trkpt lat="45.62294" lon="-1.04616">
        <ele>55.286306</ele>
        <time>2022-12-22T12:24:41.584Z</time>
      </trkpt>
      <trkpt lat="45.62286" lon="-1.04624">
        <ele>54.874192</ele>
        <time>2022-12-22T12:24:43.582Z</time>
      </trkpt>
      <trkpt lat="45.62278" lon="-1.04631">
        <ele>54.461773</ele>
        <time>2022-12-22T12:24:45.591Z</time>
      </trkpt>
      <trkpt lat="45.62269" lon="-1.04638">
        <ele>54.055547</ele>
        <time>2022-12-22T12:24:47.567Z</time>
      </trkpt>
      <trkpt lat="45.62261" lon="-1.04645">
        <ele>53.658892</ele>
        <time>2022-12-22T12:24:49.580Z</time>
      </trkpt>
      <trkpt lat="45.62253" lon="-1.04654">
        <ele>53.221235</ele>
        <time>2022-12-22T12:24:51.591Z</time>
      </trkpt>
      <trkpt lat="45.62245" lon="-1.04661">
        <ele>52.81858</ele>
        <time>2022-12-22T12:24:53.583Z</time>
      </trkpt>
      <trkpt lat="45.62234" lon="-1.04672">
        <ele>52.294308</ele>
        <time>2022-12-22T12:24:56.644Z</time>
      </trkpt>
      <trkpt lat="45.62227" lon="-1.04679">
        <ele>51.900714</ele>
        <time>2022-12-22T12:24:59.586Z</time>
      </trkpt>
      <trkpt lat="45.62216" lon="-1.04686">
        <ele>51.424596</ele>
        <time>2022-12-22T12:25:03.584Z</time>
      </trkpt>
      <trkpt lat="45.62205" lon="-1.04678">
        <ele>50.923354</ele>
        <time>2022-12-22T12:25:07.565Z</time>
      </trkpt>
      <trkpt lat="45.622" lon="-1.04662">
        <ele>50.864258</ele>
        <time>2022-12-22T12:25:10.583Z</time>
      </trkpt>
      <trkpt lat="45.62198" lon="-1.04649">
        <ele>51.013299</ele>
        <time>2022-12-22T12:25:12.584Z</time>
      </trkpt>
      <trkpt lat="45.62192" lon="-1.04633">
        <ele>51.209185</ele>
        <time>2022-12-22T12:25:15.583Z</time>
      </trkpt>
      <trkpt lat="45.62186" lon="-1.04622">
        <ele>51.36543</ele>
        <time>2022-12-22T12:25:18.589Z</time>
      </trkpt>
      <trkpt lat="45.62175" lon="-1.04617">
        <ele>51.545132</ele>
        <time>2022-12-22T12:25:22.583Z</time>
      </trkpt>
      <trkpt lat="45.62164" lon="-1.04617">
        <ele>51.728361</ele>
        <time>2022-12-22T12:25:26.582Z</time>
      </trkpt>
      <trkpt lat="45.62152" lon="-1.04621">
        <ele>51.913836</ele>
        <time>2022-12-22T12:25:30.585Z</time>
      </trkpt>
      <trkpt lat="45.62141" lon="-1.04624">
        <ele>52.097943</ele>
        <time>2022-12-22T12:25:34.589Z</time>
      </trkpt>
      <trkpt lat="45.6213" lon="-1.04618">
        <ele>52.280234</ele>
        <time>2022-12-22T12:25:38.571Z</time>
      </trkpt>
      <trkpt lat="45.62121" lon="-1.0461">
        <ele>52.454031</ele>
        <time>2022-12-22T12:25:42.594Z</time>
      </trkpt>
      <trkpt lat="45.62112" lon="-1.04603">
        <ele>52.622382</ele>
        <time>2022-12-22T12:25:46.585Z</time>
      </trkpt>
      <trkpt lat="45.62102" lon="-1.046">
        <ele>52.789003</ele>
        <time>2022-12-22T12:25:50.585Z</time>
      </trkpt>
      <trkpt lat="45.62091" lon="-1.04598">
        <ele>52.956348</ele>
        <time>2022-12-22T12:25:54.583Z</time>
      </trkpt>
      <trkpt lat="45.6208" lon="-1.04594">
        <ele>53.131484</ele>
        <time>2022-12-22T12:25:58.583Z</time>
      </trkpt>
      <trkpt lat="45.6207" lon="-1.04588">
        <ele>53.30517</ele>
        <time>2022-12-22T12:26:02.588Z</time>
      </trkpt>
      <trkpt lat="45.62064" lon="-1.04579">
        <ele>53.451679</ele>
        <time>2022-12-22T12:26:05.584Z</time>
      </trkpt>
      <trkpt lat="45.6206" lon="-1.04566">
        <ele>53.608032</ele>
        <time>2022-12-22T12:26:08.590Z</time>
      </trkpt>
      <trkpt lat="45.62058" lon="-1.04552">
        <ele>53.694988</ele>
        <time>2022-12-22T12:26:11.591Z</time>
      </trkpt>
      <trkpt lat="45.62055" lon="-1.04535">
        <ele>53.800085</ele>
        <time>2022-12-22T12:26:15.593Z</time>
      </trkpt>
      <trkpt lat="45.62052" lon="-1.0452">
        <ele>53.891341</ele>
        <time>2022-12-22T12:26:18.583Z</time>
      </trkpt>
      <trkpt lat="45.62048" lon="-1.04504">
        <ele>53.996271</ele>
        <time>2022-12-22T12:26:21.582Z</time>
      </trkpt>
      <trkpt lat="45.62044" lon="-1.04488">
        <ele>54.102462</ele>
        <time>2022-12-22T12:26:24.577Z</time>
      </trkpt>
      <trkpt lat="45.62041" lon="-1.04471">
        <ele>54.206228</ele>
        <time>2022-12-22T12:26:27.578Z</time>
      </trkpt>
      <trkpt lat="45.62041" lon="-1.04456">
        <ele>54.297943</ele>
        <time>2022-12-22T12:26:30.584Z</time>
      </trkpt>
      <trkpt lat="45.62047" lon="-1.04442">
        <ele>54.397094</ele>
        <time>2022-12-22T12:26:33.582Z</time>
      </trkpt>
      <trkpt lat="45.62057" lon="-1.04433">
        <ele>54.500971</ele>
        <time>2022-12-22T12:26:36.651Z</time>
      </trkpt>
      <trkpt lat="45.62065" lon="-1.0442">
        <ele>54.60343</ele>
        <time>2022-12-22T12:26:39.592Z</time>
      </trkpt>
      <trkpt lat="45.62068" lon="-1.04407">
        <ele>54.688576</ele>
        <time>2022-12-22T12:26:42.642Z</time>
      </trkpt>
      <trkpt lat="45.62068" lon="-1.04393">
        <ele>54.77668</ele>
        <time>2022-12-22T12:26:45.590Z</time>
      </trkpt>
      <trkpt lat="45.62063" lon="-1.04377">
        <ele>54.880402</ele>
        <time>2022-12-22T12:26:48.644Z</time>
      </trkpt>
      <trkpt lat="45.62056" lon="-1.04362">
        <ele>54.988915</ele>
        <time>2022-12-22T12:26:51.593Z</time>
      </trkpt>
      <trkpt lat="45.62049" lon="-1.04349">
        <ele>55.087067</ele>
        <time>2022-12-22T12:26:54.647Z</time>
      </trkpt>
      <trkpt lat="45.62043" lon="-1.04338">
        <ele>55.175114</ele>
        <time>2022-12-22T12:26:57.579Z</time>
      </trkpt>
      <trkpt lat="45.62037" lon="-1.04325">
        <ele>55.335894</ele>
        <time>2022-12-22T12:27:01.588Z</time>
      </trkpt>
      <trkpt lat="45.62031" lon="-1.04314">
        <ele>55.467788</ele>
        <time>2022-12-22T12:27:04.581Z</time>
      </trkpt>
      <trkpt lat="45.62027" lon="-1.043">
        <ele>55.62585</ele>
        <time>2022-12-22T12:27:08.581Z</time>
      </trkpt>
      <trkpt lat="45.62031" lon="-1.04287">
        <ele>55.762627</ele>
        <time>2022-12-22T12:27:11.564Z</time>
      </trkpt>
      <trkpt lat="45.62039" lon="-1.04279">
        <ele>55.907239</ele>
        <time>2022-12-22T12:27:14.594Z</time>
      </trkpt>
      <trkpt lat="45.62047" lon="-1.04273">
        <ele>56.035368</ele>
        <time>2022-12-22T12:27:17.573Z</time>
      </trkpt>
      <trkpt lat="45.62055" lon="-1.04265">
        <ele>56.171522</ele>
        <time>2022-12-22T12:27:20.589Z</time>
      </trkpt>
      <trkpt lat="45.62063" lon="-1.04257">
        <ele>56.311532</ele>
        <time>2022-12-22T12:27:23.635Z</time>
      </trkpt>
      <trkpt lat="45.62068" lon="-1.04244">
        <ele>56.457009</ele>
        <time>2022-12-22T12:27:27.570Z</time>
      </trkpt>
      <trkpt lat="45.62062" lon="-1.04231">
        <ele>56.605371</ele>
        <time>2022-12-22T12:27:31.566Z</time>
      </trkpt>
      <trkpt lat="45.62055" lon="-1.04224">
        <ele>56.734509</ele>
        <time>2022-12-22T12:27:34.581Z</time>
      </trkpt>
      <trkpt lat="45.62045" lon="-1.04215">
        <ele>56.894308</ele>
        <time>2022-12-22T12:27:38.582Z</time>
      </trkpt>
      <trkpt lat="45.62036" lon="-1.04206">
        <ele>57.054002</ele>
        <time>2022-12-22T12:27:42.588Z</time>
      </trkpt>
      <trkpt lat="45.62027" lon="-1.04196">
        <ele>57.214845</ele>
        <time>2022-12-22T12:27:46.585Z</time>
      </trkpt>
      <trkpt lat="45.62018" lon="-1.04185">
        <ele>57.376976</ele>
        <time>2022-12-22T12:27:50.576Z</time>
      </trkpt>
      <trkpt lat="45.62013" lon="-1.04173">
        <ele>57.519892</ele>
        <time>2022-12-22T12:27:54.588Z</time>
      </trkpt>
      <trkpt lat="45.62009" lon="-1.0416">
        <ele>57.666608</ele>
        <time>2022-12-22T12:27:58.667Z</time>
      </trkpt>
      <trkpt lat="45.62006" lon="-1.04145">
        <ele>57.849609</ele>
        <time>2022-12-22T12:28:02.583Z</time>
      </trkpt>
      <trkpt lat="45.62004" lon="-1.04131">
        <ele>58.034969</ele>
        <time>2022-12-22T12:28:06.585Z</time>
      </trkpt>
      <trkpt lat="45.62002" lon="-1.04118">
        <ele>58.204759</ele>
        <time>2022-12-22T12:28:10.656Z</time>
      </trkpt>
      <trkpt lat="45.62" lon="-1.04105">
        <ele>58.376687</ele>
        <time>2022-12-22T12:28:15.588Z</time>
      </trkpt>
      <trkpt lat="45.61998" lon="-1.04092">
        <ele>58.555971</ele>
        <time>2022-12-22T12:28:20.579Z</time>
      </trkpt>
      <trkpt lat="45.61997" lon="-1.04077">
        <ele>58.746596</ele>
        <time>2022-12-22T12:28:26.581Z</time>
      </trkpt>
      <trkpt lat="45.61995" lon="-1.04064">
        <ele>58.923597</ele>
        <time>2022-12-22T12:28:31.582Z</time>
      </trkpt>
      <trkpt lat="45.61993" lon="-1.04051">
        <ele>59.098447</ele>
        <time>2022-12-22T12:28:36.584Z</time>
      </trkpt>
      <trkpt lat="45.61992" lon="-1.04036">
        <ele>59.291905</ele>
        <time>2022-12-22T12:28:41.586Z</time>
      </trkpt>
      <trkpt lat="45.61992" lon="-1.04022">
        <ele>59.468122</ele>
        <time>2022-12-22T12:28:45.583Z</time>
      </trkpt>
      <trkpt lat="45.6199" lon="-1.04005">
        <ele>59.689511</ele>
        <time>2022-12-22T12:28:49.569Z</time>
      </trkpt>
      <trkpt lat="45.61989" lon="-1.03991">
        <ele>59.879265</ele>
        <time>2022-12-22T12:28:52.588Z</time>
      </trkpt>
      <trkpt lat="45.61987" lon="-1.03974">
        <ele>60.090637</ele>
        <time>2022-12-22T12:28:55.644Z</time>
      </trkpt>
      <trkpt lat="45.61985" lon="-1.03957">
        <ele>60.317691</ele>
        <time>2022-12-22T12:28:58.584Z</time>
      </trkpt>
      <trkpt lat="45.61981" lon="-1.0394">
        <ele>60.551354</ele>
        <time>2022-12-22T12:29:01.651Z</time>
      </trkpt>
      <trkpt lat="45.61978" lon="-1.03923">
        <ele>60.771987</ele>
        <time>2022-12-22T12:29:04.592Z</time>
      </trkpt>
      <trkpt lat="45.61976" lon="-1.03906">
        <ele>60.994196</ele>
        <time>2022-12-22T12:29:07.599Z</time>
      </trkpt>
      <trkpt lat="45.61974" lon="-1.03891">
        <ele>60.834639</ele>
        <time>2022-12-22T12:29:10.583Z</time>
      </trkpt>
      <trkpt lat="45.61972" lon="-1.03876">
        <ele>60.574021</ele>
        <time>2022-12-22T12:29:13.651Z</time>
      </trkpt>
      <trkpt lat="45.61969" lon="-1.03859">
        <ele>60.28314</ele>
        <time>2022-12-22T12:29:16.582Z</time>
      </trkpt>
      <trkpt lat="45.61966" lon="-1.03846">
        <ele>60.067687</ele>
        <time>2022-12-22T12:29:18.583Z</time>
      </trkpt>
      <trkpt lat="45.6196" lon="-1.03829">
        <ele>59.748542</ele>
        <time>2022-12-22T12:29:21.588Z</time>
      </trkpt>
      <trkpt lat="45.61954" lon="-1.03812">
        <ele>59.430318</ele>
        <time>2022-12-22T12:29:24.586Z</time>
      </trkpt>
      <trkpt lat="45.61949" lon="-1.03796">
        <ele>59.13595</ele>
        <time>2022-12-22T12:29:27.563Z</time>
      </trkpt>
      <trkpt lat="45.61944" lon="-1.0378">
        <ele>58.843515</ele>
        <time>2022-12-22T12:29:30.588Z</time>
      </trkpt>
      <trkpt lat="45.61939" lon="-1.03764">
        <ele>58.558696</ele>
        <time>2022-12-22T12:29:33.584Z</time>
      </trkpt>
      <trkpt lat="45.61933" lon="-1.0375">
        <ele>58.288066</ele>
        <time>2022-12-22T12:29:36.586Z</time>
      </trkpt>
      <trkpt lat="45.61923" lon="-1.03745">
        <ele>58.026824</ele>
        <time>2022-12-22T12:29:39.585Z</time>
      </trkpt>
      <trkpt lat="45.61912" lon="-1.0375">
        <ele>57.751154</ele>
        <time>2022-12-22T12:29:42.587Z</time>
      </trkpt>
      <trkpt lat="45.619" lon="-1.03756">
        <ele>57.452922</ele>
        <time>2022-12-22T12:29:45.594Z</time>
      </trkpt>
      <trkpt lat="45.61888" lon="-1.0376">
        <ele>57.152044</ele>
        <time>2022-12-22T12:29:48.592Z</time>
      </trkpt>
      <trkpt lat="45.61876" lon="-1.03764">
        <ele>56.867056</ele>
        <time>2022-12-22T12:29:51.596Z</time>
      </trkpt>
      <trkpt lat="45.61865" lon="-1.03768">
        <ele>56.59853</ele>
        <time>2022-12-22T12:29:54.593Z</time>
      </trkpt>
      <trkpt lat="45.61853" lon="-1.03771">
        <ele>56.304573</ele>
        <time>2022-12-22T12:29:57.575Z</time>
      </trkpt>
      <trkpt lat="45.61841" lon="-1.03774">
        <ele>56.009959</ele>
        <time>2022-12-22T12:30:00.591Z</time>
      </trkpt>
      <trkpt lat="45.6183" lon="-1.03778">
        <ele>55.730836</ele>
        <time>2022-12-22T12:30:03.586Z</time>
      </trkpt>
      <trkpt lat="45.61819" lon="-1.03781">
        <ele>55.461476</ele>
        <time>2022-12-22T12:30:06.581Z</time>
      </trkpt>
      <trkpt lat="45.6181" lon="-1.0378">
        <ele>55.243986</ele>
        <time>2022-12-22T12:30:09.571Z</time>
      </trkpt>
      <trkpt lat="45.61803" lon="-1.03772">
        <ele>55.025391</ele>
        <time>2022-12-22T12:30:12.582Z</time>
      </trkpt>
      <trkpt lat="45.61802" lon="-1.03755">
        <ele>54.735833</ele>
        <time>2022-12-22T12:30:15.571Z</time>
      </trkpt>
      <trkpt lat="45.61802" lon="-1.03734">
        <ele>54.383191</ele>
        <time>2022-12-22T12:30:18.593Z</time>
      </trkpt>
      <trkpt lat="45.61801" lon="-1.0372">
        <ele>54.148354</ele>
        <time>2022-12-22T12:30:20.586Z</time>
      </trkpt>
      <trkpt lat="45.618" lon="-1.03707">
        <ele>53.923512</ele>
        <time>2022-12-22T12:30:22.592Z</time>
      </trkpt>
      <trkpt lat="45.618" lon="-1.03693">
        <ele>53.691094</ele>
        <time>2022-12-22T12:30:24.593Z</time>
      </trkpt>
      <trkpt lat="45.61802" lon="-1.0368">
        <ele>53.468905</ele>
        <time>2022-12-22T12:30:26.580Z</time>
      </trkpt>
      <trkpt lat="45.61806" lon="-1.03668">
        <ele>53.235363</ele>
        <time>2022-12-22T12:30:28.566Z</time>
      </trkpt>
      <trkpt lat="45.61811" lon="-1.03656">
        <ele>53.007464</ele>
        <time>2022-12-22T12:30:30.592Z</time>
      </trkpt>
      <trkpt lat="45.61822" lon="-1.03644">
        <ele>52.685411</ele>
        <time>2022-12-22T12:30:33.584Z</time>
      </trkpt>
      <trkpt lat="45.61833" lon="-1.03634">
        <ele>52.455297</ele>
        <time>2022-12-22T12:30:36.638Z</time>
      </trkpt>
      <trkpt lat="45.61842" lon="-1.03628">
        <ele>52.553656</ele>
        <time>2022-12-22T12:30:38.597Z</time>
      </trkpt>
      <trkpt lat="45.61853" lon="-1.0362">
        <ele>52.690538</ele>
        <time>2022-12-22T12:30:41.582Z</time>
      </trkpt>
      <trkpt lat="45.61864" lon="-1.0361">
        <ele>52.820449</ele>
        <time>2022-12-22T12:30:44.589Z</time>
      </trkpt>
      <trkpt lat="45.61876" lon="-1.03603">
        <ele>52.958254</ele>
        <time>2022-12-22T12:30:47.624Z</time>
      </trkpt>
      <trkpt lat="45.61888" lon="-1.03593">
        <ele>53.099157</ele>
        <time>2022-12-22T12:30:50.590Z</time>
      </trkpt>
      <trkpt lat="45.61898" lon="-1.03585">
        <ele>53.222175</ele>
        <time>2022-12-22T12:30:53.632Z</time>
      </trkpt>
      <trkpt lat="45.61908" lon="-1.03576">
        <ele>53.342328</ele>
        <time>2022-12-22T12:30:56.590Z</time>
      </trkpt>
      <trkpt lat="45.61917" lon="-1.03569">
        <ele>53.45019</ele>
        <time>2022-12-22T12:30:59.646Z</time>
      </trkpt>
      <trkpt lat="45.61926" lon="-1.03562">
        <ele>53.550485</ele>
        <time>2022-12-22T12:31:02.594Z</time>
      </trkpt>
      <trkpt lat="45.61936" lon="-1.03556">
        <ele>53.669536</ele>
        <time>2022-12-22T12:31:06.581Z</time>
      </trkpt>
      <trkpt lat="45.61944" lon="-1.03548">
        <ele>53.771967</ele>
        <time>2022-12-22T12:31:10.593Z</time>
      </trkpt>
      <trkpt lat="45.61953" lon="-1.03539">
        <ele>53.885465</ele>
        <time>2022-12-22T12:31:15.585Z</time>
      </trkpt>
      <trkpt lat="45.61961" lon="-1.03533">
        <ele>53.98211</ele>
        <time>2022-12-22T12:31:18.595Z</time>
      </trkpt>
      <trkpt lat="45.6197" lon="-1.03527">
        <ele>54.079549</ele>
        <time>2022-12-22T12:31:21.632Z</time>
      </trkpt>
      <trkpt lat="45.61977" lon="-1.03519">
        <ele>54.176141</ele>
        <time>2022-12-22T12:31:24.596Z</time>
      </trkpt>
      <trkpt lat="45.61983" lon="-1.03508">
        <ele>54.278299</ele>
        <time>2022-12-22T12:31:27.601Z</time>
      </trkpt>
      <trkpt lat="45.61989" lon="-1.03496">
        <ele>54.246795</ele>
        <time>2022-12-22T12:31:30.583Z</time>
      </trkpt>
      <trkpt lat="45.61994" lon="-1.03484">
        <ele>54.185574</ele>
        <time>2022-12-22T12:31:33.645Z</time>
      </trkpt>
      <trkpt lat="45.61999" lon="-1.0347">
        <ele>54.120562</ele>
        <time>2022-12-22T12:31:36.588Z</time>
      </trkpt>
      <trkpt lat="45.61997" lon="-1.03454">
        <ele>54.04848</ele>
        <time>2022-12-22T12:31:40.583Z</time>
      </trkpt>
      <trkpt lat="45.61994" lon="-1.03441">
        <ele>53.988659</ele>
        <time>2022-12-22T12:31:43.591Z</time>
      </trkpt>
      <trkpt lat="45.61992" lon="-1.03427">
        <ele>53.928007</ele>
        <time>2022-12-22T12:31:46.579Z</time>
      </trkpt>
      <trkpt lat="45.61987" lon="-1.03414">
        <ele>53.864068</ele>
        <time>2022-12-22T12:31:49.569Z</time>
      </trkpt>
      <trkpt lat="45.61982" lon="-1.03401">
        <ele>53.801087</ele>
        <time>2022-12-22T12:31:52.586Z</time>
      </trkpt>
      <trkpt lat="45.61977" lon="-1.03389">
        <ele>53.739921</ele>
        <time>2022-12-22T12:31:55.596Z</time>
      </trkpt>
      <trkpt lat="45.61972" lon="-1.03378">
        <ele>53.682662</ele>
        <time>2022-12-22T12:31:58.596Z</time>
      </trkpt>
      <trkpt lat="45.61968" lon="-1.03366">
        <ele>53.625787</ele>
        <time>2022-12-22T12:32:16.593Z</time>
      </trkpt>
      <trkpt lat="45.61969" lon="-1.03353">
        <ele>53.568093</ele>
        <time>2022-12-22T12:32:21.572Z</time>
      </trkpt>
      <trkpt lat="45.61964" lon="-1.03341">
        <ele>53.509717</ele>
        <time>2022-12-22T12:32:24.586Z</time>
      </trkpt>
      <trkpt lat="45.61958" lon="-1.03327">
        <ele>53.440265</ele>
        <time>2022-12-22T12:32:27.577Z</time>
      </trkpt>
      <trkpt lat="45.61952" lon="-1.03312">
        <ele>53.364433</ele>
        <time>2022-12-22T12:32:30.575Z</time>
      </trkpt>
      <trkpt lat="45.61946" lon="-1.03297">
        <ele>53.288807</ele>
        <time>2022-12-22T12:32:33.582Z</time>
      </trkpt>
      <trkpt lat="45.6194" lon="-1.03283">
        <ele>53.218984</ele>
        <time>2022-12-22T12:32:36.581Z</time>
      </trkpt>
      <trkpt lat="45.61934" lon="-1.03271">
        <ele>53.089401</ele>
        <time>2022-12-22T12:32:39.589Z</time>
      </trkpt>
      <trkpt lat="45.61928" lon="-1.03261">
        <ele>52.891611</ele>
        <time>2022-12-22T12:32:42.583Z</time>
      </trkpt>
      <trkpt lat="45.61922" lon="-1.03248">
        <ele>52.663283</ele>
        <time>2022-12-22T12:32:46.590Z</time>
      </trkpt>
      <trkpt lat="45.61917" lon="-1.03237">
        <ele>52.474214</ele>
        <time>2022-12-22T12:32:49.566Z</time>
      </trkpt>
      <trkpt lat="45.6191" lon="-1.03222">
        <ele>52.223986</ele>
        <time>2022-12-22T12:32:52.642Z</time>
      </trkpt>
      <trkpt lat="45.61904" lon="-1.03207">
        <ele>51.971265</ele>
        <time>2022-12-22T12:32:55.580Z</time>
      </trkpt>
      <trkpt lat="45.61899" lon="-1.03194">
        <ele>51.752253</ele>
        <time>2022-12-22T12:32:58.641Z</time>
      </trkpt>
      <trkpt lat="45.61891" lon="-1.03182">
        <ele>51.509315</ele>
        <time>2022-12-22T12:33:02.593Z</time>
      </trkpt>
      <trkpt lat="45.61881" lon="-1.03178">
        <ele>51.293451</ele>
        <time>2022-12-22T12:33:05.570Z</time>
      </trkpt>
      <trkpt lat="45.61869" lon="-1.03182">
        <ele>51.046658</ele>
        <time>2022-12-22T12:33:08.580Z</time>
      </trkpt>
      <trkpt lat="45.61857" lon="-1.0319">
        <ele>50.770212</ele>
        <time>2022-12-22T12:33:11.592Z</time>
      </trkpt>
      <trkpt lat="45.61849" lon="-1.03195">
        <ele>50.580297</ele>
        <time>2022-12-22T12:33:13.592Z</time>
      </trkpt>
      <trkpt lat="45.61837" lon="-1.03198">
        <ele>50.324568</ele>
        <time>2022-12-22T12:33:16.593Z</time>
      </trkpt>
      <trkpt lat="45.61828" lon="-1.03194">
        <ele>50.131096</ele>
        <time>2022-12-22T12:33:19.568Z</time>
      </trkpt>
      <trkpt lat="45.6182" lon="-1.03187">
        <ele>49.931537</ele>
        <time>2022-12-22T12:33:23.591Z</time>
      </trkpt>
      <trkpt lat="45.61812" lon="-1.0318">
        <ele>49.7355</ele>
        <time>2022-12-22T12:33:27.595Z</time>
      </trkpt>
      <trkpt lat="45.61803" lon="-1.03173">
        <ele>49.525237</ele>
        <time>2022-12-22T12:33:33.595Z</time>
      </trkpt>
      <trkpt lat="45.61797" lon="-1.03167">
        <ele>49.446567</ele>
        <time>2022-12-22T12:34:17.177Z</time>
      </trkpt>
      <trkpt lat="45.5675" lon="-1.06456">
        <ele>43.162869</ele>
        <time>2022-12-22T13:42:26.864Z</time>
      </trkpt>
      <trkpt lat="45.56766" lon="-1.06451">
        <ele>43.587581</ele>
        <time>2022-12-22T13:42:54.571Z</time>
      </trkpt>
      <trkpt lat="45.56776" lon="-1.06446">
        <ele>43.871239</ele>
        <time>2022-12-22T13:42:59.572Z</time>
      </trkpt>
      <trkpt lat="45.56786" lon="-1.06441">
        <ele>44.179774</ele>
        <time>2022-12-22T13:43:04.588Z</time>
      </trkpt>
      <trkpt lat="45.56793" lon="-1.06432">
        <ele>44.470323</ele>
        <time>2022-12-22T13:43:07.575Z</time>
      </trkpt>
      <trkpt lat="45.56799" lon="-1.06419">
        <ele>44.788979</ele>
        <time>2022-12-22T13:43:10.575Z</time>
      </trkpt>
      <trkpt lat="45.56804" lon="-1.06406">
        <ele>45.097148</ele>
        <time>2022-12-22T13:43:13.590Z</time>
      </trkpt>
      <trkpt lat="45.5681" lon="-1.06393">
        <ele>45.413294</ele>
        <time>2022-12-22T13:43:16.593Z</time>
      </trkpt>
      <trkpt lat="45.56815" lon="-1.06381">
        <ele>45.714944</ele>
        <time>2022-12-22T13:43:19.597Z</time>
      </trkpt>
      <trkpt lat="45.56819" lon="-1.06369">
        <ele>45.995194</ele>
        <time>2022-12-22T13:43:22.594Z</time>
      </trkpt>
      <trkpt lat="45.56825" lon="-1.06354">
        <ele>46.349809</ele>
        <time>2022-12-22T13:43:26.594Z</time>
      </trkpt>
      <trkpt lat="45.56831" lon="-1.06344">
        <ele>46.635749</ele>
        <time>2022-12-22T13:43:29.595Z</time>
      </trkpt>
      <trkpt lat="45.56837" lon="-1.06331">
        <ele>46.950686</ele>
        <time>2022-12-22T13:43:32.569Z</time>
      </trkpt>
      <trkpt lat="45.56842" lon="-1.06319">
        <ele>47.262105</ele>
        <time>2022-12-22T13:43:35.593Z</time>
      </trkpt>
      <trkpt lat="45.56848" lon="-1.06308">
        <ele>47.546045</ele>
        <time>2022-12-22T13:43:38.594Z</time>
      </trkpt>
      <trkpt lat="45.56857" lon="-1.06298">
        <ele>47.882594</ele>
        <time>2022-12-22T13:43:42.593Z</time>
      </trkpt>
      <trkpt lat="45.56866" lon="-1.06287">
        <ele>48.244346</ele>
        <time>2022-12-22T13:43:46.592Z</time>
      </trkpt>
      <trkpt lat="45.56875" lon="-1.06279">
        <ele>48.556373</ele>
        <time>2022-12-22T13:43:50.596Z</time>
      </trkpt>
      <trkpt lat="45.56883" lon="-1.06271">
        <ele>48.846795</ele>
        <time>2022-12-22T13:43:53.583Z</time>
      </trkpt>
      <trkpt lat="45.56891" lon="-1.06264">
        <ele>49.144664</ele>
        <time>2022-12-22T13:43:56.577Z</time>
      </trkpt>
      <trkpt lat="45.56902" lon="-1.06261">
        <ele>49.183689</ele>
        <time>2022-12-22T13:43:59.577Z</time>
      </trkpt>
      <trkpt lat="45.56912" lon="-1.06264">
        <ele>49.170548</ele>
        <time>2022-12-22T13:44:02.569Z</time>
      </trkpt>
      <trkpt lat="45.5692" lon="-1.0627">
        <ele>49.158332</ele>
        <time>2022-12-22T13:44:05.576Z</time>
      </trkpt>
      <trkpt lat="45.56926" lon="-1.0628">
        <ele>49.145279</ele>
        <time>2022-12-22T13:44:08.584Z</time>
      </trkpt>
      <trkpt lat="45.56928" lon="-1.06293">
        <ele>49.132162</ele>
        <time>2022-12-22T13:44:11.572Z</time>
      </trkpt>
      <trkpt lat="45.5693" lon="-1.06307">
        <ele>49.118436</ele>
        <time>2022-12-22T13:44:14.591Z</time>
      </trkpt>
      <trkpt lat="45.5693" lon="-1.06321">
        <ele>49.105095</ele>
        <time>2022-12-22T13:44:17.578Z</time>
      </trkpt>
      <trkpt lat="45.56925" lon="-1.06333">
        <ele>49.092298</ele>
        <time>2022-12-22T13:44:20.593Z</time>
      </trkpt>
      <trkpt lat="45.56916" lon="-1.06343">
        <ele>49.076445</ele>
        <time>2022-12-22T13:44:24.571Z</time>
      </trkpt>
      <trkpt lat="45.56909" lon="-1.06352">
        <ele>49.063529</ele>
        <time>2022-12-22T13:44:27.595Z</time>
      </trkpt>
      <trkpt lat="45.56901" lon="-1.0636">
        <ele>49.050405</ele>
        <time>2022-12-22T13:44:30.597Z</time>
      </trkpt>
      <trkpt lat="45.56893" lon="-1.06368">
        <ele>49.037781</ele>
        <time>2022-12-22T13:44:33.566Z</time>
      </trkpt>
      <trkpt lat="45.56885" lon="-1.06379">
        <ele>49.022402</ele>
        <time>2022-12-22T13:44:37.596Z</time>
      </trkpt>
      <trkpt lat="45.56876" lon="-1.06389">
        <ele>49.00675</ele>
        <time>2022-12-22T13:44:41.601Z</time>
      </trkpt>
      <trkpt lat="45.56868" lon="-1.06397">
        <ele>48.993572</ele>
        <time>2022-12-22T13:44:44.595Z</time>
      </trkpt>
      <trkpt lat="45.56858" lon="-1.06406">
        <ele>48.977319</ele>
        <time>2022-12-22T13:44:48.570Z</time>
      </trkpt>
      <trkpt lat="45.5685" lon="-1.06412">
        <ele>48.96452</ele>
        <time>2022-12-22T13:44:51.592Z</time>
      </trkpt>
      <trkpt lat="45.56842" lon="-1.06419">
        <ele>48.951631</ele>
        <time>2022-12-22T13:44:54.596Z</time>
      </trkpt>
      <trkpt lat="45.56834" lon="-1.06425">
        <ele>48.973816</ele>
        <time>2022-12-22T13:44:57.595Z</time>
      </trkpt>
      <trkpt lat="45.56826" lon="-1.06431">
        <ele>48.998347</ele>
        <time>2022-12-22T13:45:00.588Z</time>
      </trkpt>
      <trkpt lat="45.56817" lon="-1.06437">
        <ele>49.024586</ele>
        <time>2022-12-22T13:45:03.591Z</time>
      </trkpt>
      <trkpt lat="45.56808" lon="-1.06443">
        <ele>49.050908</ele>
        <time>2022-12-22T13:45:06.593Z</time>
      </trkpt>
      <trkpt lat="45.56799" lon="-1.06449">
        <ele>49.077483</ele>
        <time>2022-12-22T13:45:09.592Z</time>
      </trkpt>
      <trkpt lat="45.56791" lon="-1.06455">
        <ele>49.103662</ele>
        <time>2022-12-22T13:45:12.598Z</time>
      </trkpt>
      <trkpt lat="45.56783" lon="-1.06463">
        <ele>49.129387</ele>
        <time>2022-12-22T13:45:15.594Z</time>
      </trkpt>
      <trkpt lat="45.56775" lon="-1.0647">
        <ele>49.15567</ele>
        <time>2022-12-22T13:45:18.581Z</time>
      </trkpt>
      <trkpt lat="45.56766" lon="-1.0648">
        <ele>49.186933</ele>
        <time>2022-12-22T13:45:22.588Z</time>
      </trkpt>
      <trkpt lat="45.56756" lon="-1.06488">
        <ele>49.218072</ele>
        <time>2022-12-22T13:45:26.590Z</time>
      </trkpt>
      <trkpt lat="45.56746" lon="-1.06497">
        <ele>49.248513</ele>
        <time>2022-12-22T13:45:30.599Z</time>
      </trkpt>
      <trkpt lat="45.56738" lon="-1.06503">
        <ele>49.273353</ele>
        <time>2022-12-22T13:45:33.597Z</time>
      </trkpt>
      <trkpt lat="45.5673" lon="-1.06509">
        <ele>49.299104</ele>
        <time>2022-12-22T13:45:36.594Z</time>
      </trkpt>
      <trkpt lat="45.56721" lon="-1.06515">
        <ele>49.325016</ele>
        <time>2022-12-22T13:45:39.570Z</time>
      </trkpt>
      <trkpt lat="45.56711" lon="-1.0652">
        <ele>49.355298</ele>
        <time>2022-12-22T13:45:43.594Z</time>
      </trkpt>
      <trkpt lat="45.567" lon="-1.06526">
        <ele>49.385836</ele>
        <time>2022-12-22T13:45:47.594Z</time>
      </trkpt>
      <trkpt lat="45.5669" lon="-1.06531">
        <ele>49.41671</ele>
        <time>2022-12-22T13:45:51.593Z</time>
      </trkpt>
      <trkpt lat="45.56681" lon="-1.06535">
        <ele>49.442203</ele>
        <time>2022-12-22T13:45:54.595Z</time>
      </trkpt>
      <trkpt lat="45.5667" lon="-1.06541">
        <ele>49.500542</ele>
        <time>2022-12-22T13:45:58.591Z</time>
      </trkpt>
      <trkpt lat="45.56662" lon="-1.06547">
        <ele>49.545624</ele>
        <time>2022-12-22T13:46:01.574Z</time>
      </trkpt>
      <trkpt lat="45.56654" lon="-1.06553">
        <ele>49.591907</ele>
        <time>2022-12-22T13:46:04.582Z</time>
      </trkpt>
      <trkpt lat="45.56645" lon="-1.06559">
        <ele>49.639676</ele>
        <time>2022-12-22T13:46:07.587Z</time>
      </trkpt>
      <trkpt lat="45.56636" lon="-1.06565">
        <ele>49.686847</ele>
        <time>2022-12-22T13:46:10.587Z</time>
      </trkpt>
      <trkpt lat="45.56627" lon="-1.0657">
        <ele>49.735519</ele>
        <time>2022-12-22T13:46:13.595Z</time>
      </trkpt>
      <trkpt lat="45.56619" lon="-1.06576">
        <ele>49.782092</ele>
        <time>2022-12-22T13:46:16.603Z</time>
      </trkpt>
      <trkpt lat="45.5661" lon="-1.06583">
        <ele>49.831384</ele>
        <time>2022-12-22T13:46:19.575Z</time>
      </trkpt>
      <trkpt lat="45.56601" lon="-1.06588">
        <ele>49.878901</ele>
        <time>2022-12-22T13:46:22.585Z</time>
      </trkpt>
      <trkpt lat="45.56593" lon="-1.06594">
        <ele>49.927288</ele>
        <time>2022-12-22T13:46:25.588Z</time>
      </trkpt>
      <trkpt lat="45.56584" lon="-1.06599">
        <ele>49.975723</ele>
        <time>2022-12-22T13:46:28.596Z</time>
      </trkpt>
      <trkpt lat="45.56575" lon="-1.06606">
        <ele>50.023253</ele>
        <time>2022-12-22T13:46:31.573Z</time>
      </trkpt>
      <trkpt lat="45.56567" lon="-1.06612">
        <ele>50.070297</ele>
        <time>2022-12-22T13:46:34.575Z</time>
      </trkpt>
      <trkpt lat="45.56558" lon="-1.06617">
        <ele>50.119062</ele>
        <time>2022-12-22T13:46:37.590Z</time>
      </trkpt>
      <trkpt lat="45.5655" lon="-1.06623">
        <ele>50.164019</ele>
        <time>2022-12-22T13:46:40.594Z</time>
      </trkpt>
      <trkpt lat="45.56539" lon="-1.0663">
        <ele>50.223247</ele>
        <time>2022-12-22T13:46:44.569Z</time>
      </trkpt>
      <trkpt lat="45.5653" lon="-1.06636">
        <ele>50.271016</ele>
        <time>2022-12-22T13:46:48.593Z</time>
      </trkpt>
      <trkpt lat="45.56522" lon="-1.06642">
        <ele>50.318484</ele>
        <time>2022-12-22T13:46:51.588Z</time>
      </trkpt>
      <trkpt lat="45.56512" lon="-1.06649">
        <ele>50.290366</ele>
        <time>2022-12-22T13:46:55.596Z</time>
      </trkpt>
      <trkpt lat="45.56502" lon="-1.06658">
        <ele>50.226633</ele>
        <time>2022-12-22T13:46:58.596Z</time>
      </trkpt>
      <trkpt lat="45.56493" lon="-1.06664">
        <ele>50.168363</ele>
        <time>2022-12-22T13:47:01.574Z</time>
      </trkpt>
      <trkpt lat="45.56485" lon="-1.0667">
        <ele>50.114101</ele>
        <time>2022-12-22T13:47:04.572Z</time>
      </trkpt>
      <trkpt lat="45.56475" lon="-1.06677">
        <ele>50.052782</ele>
        <time>2022-12-22T13:47:07.596Z</time>
      </trkpt>
      <trkpt lat="45.56465" lon="-1.06684">
        <ele>49.988871</ele>
        <time>2022-12-22T13:47:10.591Z</time>
      </trkpt>
      <trkpt lat="45.56455" lon="-1.0669">
        <ele>49.928409</ele>
        <time>2022-12-22T13:47:13.593Z</time>
      </trkpt>
      <trkpt lat="45.56446" lon="-1.06697">
        <ele>49.86774</ele>
        <time>2022-12-22T13:47:16.578Z</time>
      </trkpt>
      <trkpt lat="45.56436" lon="-1.06705">
        <ele>49.801756</ele>
        <time>2022-12-22T13:47:19.575Z</time>
      </trkpt>
      <trkpt lat="45.56426" lon="-1.06712">
        <ele>49.738176</ele>
        <time>2022-12-22T13:47:22.596Z</time>
      </trkpt>
      <trkpt lat="45.56416" lon="-1.06719">
        <ele>49.674086</ele>
        <time>2022-12-22T13:47:25.573Z</time>
      </trkpt>
      <trkpt lat="45.56406" lon="-1.06724">
        <ele>49.613579</ele>
        <time>2022-12-22T13:47:28.571Z</time>
      </trkpt>
      <trkpt lat="45.56396" lon="-1.06733">
        <ele>49.545382</ele>
        <time>2022-12-22T13:47:32.572Z</time>
      </trkpt>
      <trkpt lat="45.56387" lon="-1.0674">
        <ele>49.488624</ele>
        <time>2022-12-22T13:47:35.569Z</time>
      </trkpt>
      <trkpt lat="45.56378" lon="-1.06747">
        <ele>49.428321</ele>
        <time>2022-12-22T13:47:38.598Z</time>
      </trkpt>
      <trkpt lat="45.56368" lon="-1.06753">
        <ele>49.371292</ele>
        <time>2022-12-22T13:47:41.570Z</time>
      </trkpt>
      <trkpt lat="45.56359" lon="-1.0676">
        <ele>49.308071</ele>
        <time>2022-12-22T13:47:44.596Z</time>
      </trkpt>
      <trkpt lat="45.56348" lon="-1.06767">
        <ele>49.142398</ele>
        <time>2022-12-22T13:47:47.593Z</time>
      </trkpt>
      <trkpt lat="45.56339" lon="-1.06773">
        <ele>48.997752</ele>
        <time>2022-12-22T13:47:50.608Z</time>
      </trkpt>
      <trkpt lat="45.5633" lon="-1.06779">
        <ele>48.859062</ele>
        <time>2022-12-22T13:47:53.595Z</time>
      </trkpt>
      <trkpt lat="45.56321" lon="-1.06785">
        <ele>48.717787</ele>
        <time>2022-12-22T13:47:56.596Z</time>
      </trkpt>
      <trkpt lat="45.56313" lon="-1.06792">
        <ele>48.590474</ele>
        <time>2022-12-22T13:47:59.601Z</time>
      </trkpt>
      <trkpt lat="45.56303" lon="-1.06799">
        <ele>48.429544</ele>
        <time>2022-12-22T13:48:03.599Z</time>
      </trkpt>
      <trkpt lat="45.56292" lon="-1.06806">
        <ele>48.264394</ele>
        <time>2022-12-22T13:48:06.589Z</time>
      </trkpt>
      <trkpt lat="45.56282" lon="-1.06813">
        <ele>48.1014</ele>
        <time>2022-12-22T13:48:09.593Z</time>
      </trkpt>
      <trkpt lat="45.56272" lon="-1.06819">
        <ele>47.944436</ele>
        <time>2022-12-22T13:48:12.595Z</time>
      </trkpt>
      <trkpt lat="45.56262" lon="-1.06822">
        <ele>47.806963</ele>
        <time>2022-12-22T13:48:15.592Z</time>
      </trkpt>
      <trkpt lat="45.56252" lon="-1.06824">
        <ele>47.657762</ele>
        <time>2022-12-22T13:48:18.589Z</time>
      </trkpt>
      <trkpt lat="45.56241" lon="-1.06826">
        <ele>47.500554</ele>
        <time>2022-12-22T13:48:21.593Z</time>
      </trkpt>
      <trkpt lat="45.5623" lon="-1.06827">
        <ele>47.341459</ele>
        <time>2022-12-22T13:48:24.596Z</time>
      </trkpt>
      <trkpt lat="45.56218" lon="-1.06827">
        <ele>47.176955</ele>
        <time>2022-12-22T13:48:27.570Z</time>
      </trkpt>
      <trkpt lat="45.56206" lon="-1.06824">
        <ele>47.011729</ele>
        <time>2022-12-22T13:48:30.585Z</time>
      </trkpt>
      <trkpt lat="45.56195" lon="-1.06822">
        <ele>46.846503</ele>
        <time>2022-12-22T13:48:33.592Z</time>
      </trkpt>
      <trkpt lat="45.56184" lon="-1.06818">
        <ele>46.743329</ele>
        <time>2022-12-22T13:48:36.592Z</time>
      </trkpt>
      <trkpt lat="45.56173" lon="-1.06812">
        <ele>46.715368</ele>
        <time>2022-12-22T13:48:39.590Z</time>
      </trkpt>
      <trkpt lat="45.56162" lon="-1.06806">
        <ele>46.687499</ele>
        <time>2022-12-22T13:48:42.570Z</time>
      </trkpt>
      <trkpt lat="45.56151" lon="-1.06799">
        <ele>46.659004</ele>
        <time>2022-12-22T13:48:45.592Z</time>
      </trkpt>
      <trkpt lat="45.56141" lon="-1.06792">
        <ele>46.630369</ele>
        <time>2022-12-22T13:48:48.583Z</time>
      </trkpt>
      <trkpt lat="45.5613" lon="-1.06786">
        <ele>46.602832</ele>
        <time>2022-12-22T13:48:51.593Z</time>
      </trkpt>
      <trkpt lat="45.5612" lon="-1.06778">
        <ele>46.575429</ele>
        <time>2022-12-22T13:48:54.593Z</time>
      </trkpt>
      <trkpt lat="45.56111" lon="-1.06772">
        <ele>46.549432</ele>
        <time>2022-12-22T13:48:57.596Z</time>
      </trkpt>
      <trkpt lat="45.56101" lon="-1.06765">
        <ele>46.523727</ele>
        <time>2022-12-22T13:49:00.596Z</time>
      </trkpt>
      <trkpt lat="45.56092" lon="-1.0676">
        <ele>46.498396</ele>
        <time>2022-12-22T13:49:03.593Z</time>
      </trkpt>
      <trkpt lat="45.56082" lon="-1.06756">
        <ele>46.47322</ele>
        <time>2022-12-22T13:49:06.595Z</time>
      </trkpt>
      <trkpt lat="45.56072" lon="-1.06752">
        <ele>46.448248</ele>
        <time>2022-12-22T13:49:09.589Z</time>
      </trkpt>
      <trkpt lat="45.56062" lon="-1.0675">
        <ele>46.423439</ele>
        <time>2022-12-22T13:49:12.592Z</time>
      </trkpt>
      <trkpt lat="45.56051" lon="-1.06748">
        <ele>46.397593</ele>
        <time>2022-12-22T13:49:15.597Z</time>
      </trkpt>
      <trkpt lat="45.5604" lon="-1.06747">
        <ele>46.37048</ele>
        <time>2022-12-22T13:49:18.595Z</time>
      </trkpt>
      <trkpt lat="45.5603" lon="-1.06744">
        <ele>46.345141</ele>
        <time>2022-12-22T13:49:21.588Z</time>
      </trkpt>
      <trkpt lat="45.56019" lon="-1.06743">
        <ele>46.319466</ele>
        <time>2022-12-22T13:49:24.591Z</time>
      </trkpt>
      <trkpt lat="45.56009" lon="-1.06743">
        <ele>46.370007</ele>
        <time>2022-12-22T13:49:27.579Z</time>
      </trkpt>
      <trkpt lat="45.55998" lon="-1.06742">
        <ele>46.421452</ele>
        <time>2022-12-22T13:49:30.592Z</time>
      </trkpt>
      <trkpt lat="45.55988" lon="-1.06741">
        <ele>46.471505</ele>
        <time>2022-12-22T13:49:33.593Z</time>
      </trkpt>
      <trkpt lat="45.55978" lon="-1.06741">
        <ele>46.524966</ele>
        <time>2022-12-22T13:49:36.584Z</time>
      </trkpt>
      <trkpt lat="45.55967" lon="-1.06739">
        <ele>46.579096</ele>
        <time>2022-12-22T13:49:39.595Z</time>
      </trkpt>
      <trkpt lat="45.55956" lon="-1.06739">
        <ele>46.636095</ele>
        <time>2022-12-22T13:49:42.596Z</time>
      </trkpt>
      <trkpt lat="45.55946" lon="-1.06738">
        <ele>46.687569</ele>
        <time>2022-12-22T13:49:45.597Z</time>
      </trkpt>
      <trkpt lat="45.55936" lon="-1.06738">
        <ele>46.735461</ele>
        <time>2022-12-22T13:49:48.595Z</time>
      </trkpt>
      <trkpt lat="45.55926" lon="-1.06737">
        <ele>46.785967</ele>
        <time>2022-12-22T13:49:51.595Z</time>
      </trkpt>
      <trkpt lat="45.55916" lon="-1.06737">
        <ele>46.836883</ele>
        <time>2022-12-22T13:49:54.572Z</time>
      </trkpt>
      <trkpt lat="45.55905" lon="-1.0674">
        <ele>46.891353</ele>
        <time>2022-12-22T13:49:58.592Z</time>
      </trkpt>
      <trkpt lat="45.55896" lon="-1.06746">
        <ele>46.944175</ele>
        <time>2022-12-22T13:50:03.592Z</time>
      </trkpt>
      <trkpt lat="45.55885" lon="-1.06751">
        <ele>46.999747</ele>
        <time>2022-12-22T13:50:07.578Z</time>
      </trkpt>
      <trkpt lat="45.55876" lon="-1.06752">
        <ele>47.04671</ele>
        <time>2022-12-22T13:50:10.575Z</time>
      </trkpt>
      <trkpt lat="45.55866" lon="-1.0675">
        <ele>47.095286</ele>
        <time>2022-12-22T13:50:13.578Z</time>
      </trkpt>
      <trkpt lat="45.55856" lon="-1.06747">
        <ele>47.146866</ele>
        <time>2022-12-22T13:50:16.594Z</time>
      </trkpt>
      <trkpt lat="45.55847" lon="-1.06745">
        <ele>47.195559</ele>
        <time>2022-12-22T13:50:19.596Z</time>
      </trkpt>
      <trkpt lat="45.55837" lon="-1.06742">
        <ele>47.220091</ele>
        <time>2022-12-22T13:50:22.597Z</time>
      </trkpt>
      <trkpt lat="45.55826" lon="-1.0674">
        <ele>47.20742</ele>
        <time>2022-12-22T13:50:25.596Z</time>
      </trkpt>
      <trkpt lat="45.55816" lon="-1.06736">
        <ele>47.195442</ele>
        <time>2022-12-22T13:50:28.588Z</time>
      </trkpt>
      <trkpt lat="45.55807" lon="-1.06735">
        <ele>47.183695</ele>
        <time>2022-12-22T13:50:31.596Z</time>
      </trkpt>
      <trkpt lat="45.55796" lon="-1.06734">
        <ele>47.171061</ele>
        <time>2022-12-22T13:50:34.590Z</time>
      </trkpt>
      <trkpt lat="45.55785" lon="-1.06732">
        <ele>47.158064</ele>
        <time>2022-12-22T13:50:37.599Z</time>
      </trkpt>
      <trkpt lat="45.55775" lon="-1.06732">
        <ele>47.146044</ele>
        <time>2022-12-22T13:50:40.566Z</time>
      </trkpt>
      <trkpt lat="45.55765" lon="-1.06731">
        <ele>47.135017</ele>
        <time>2022-12-22T13:50:43.570Z</time>
      </trkpt>
      <trkpt lat="45.55755" lon="-1.06729">
        <ele>47.122431</ele>
        <time>2022-12-22T13:50:47.598Z</time>
      </trkpt>
      <trkpt lat="45.55745" lon="-1.06728">
        <ele>47.111325</ele>
        <time>2022-12-22T13:50:50.591Z</time>
      </trkpt>
      <trkpt lat="45.55735" lon="-1.06729">
        <ele>47.099039</ele>
        <time>2022-12-22T13:50:53.578Z</time>
      </trkpt>
      <trkpt lat="45.55724" lon="-1.06728">
        <ele>47.086195</ele>
        <time>2022-12-22T13:50:56.595Z</time>
      </trkpt>
      <trkpt lat="45.55713" lon="-1.06729">
        <ele>47.073352</ele>
        <time>2022-12-22T13:50:59.587Z</time>
      </trkpt>
      <trkpt lat="45.55701" lon="-1.06728">
        <ele>47.059559</ele>
        <time>2022-12-22T13:51:02.596Z</time>
      </trkpt>
      <trkpt lat="45.5569" lon="-1.06728">
        <ele>47.045772</ele>
        <time>2022-12-22T13:51:05.594Z</time>
      </trkpt>
      <trkpt lat="45.55679" lon="-1.06727">
        <ele>47.033031</ele>
        <time>2022-12-22T13:51:08.583Z</time>
      </trkpt>
      <trkpt lat="45.55669" lon="-1.06726">
        <ele>47.021787</ele>
        <time>2022-12-22T13:51:11.595Z</time>
      </trkpt>
      <trkpt lat="45.55659" lon="-1.06726">
        <ele>46.995141</ele>
        <time>2022-12-22T13:51:14.571Z</time>
      </trkpt>
      <trkpt lat="45.55649" lon="-1.06724">
        <ele>46.925687</ele>
        <time>2022-12-22T13:51:17.573Z</time>
      </trkpt>
      <trkpt lat="45.55638" lon="-1.06722">
        <ele>46.85191</ele>
        <time>2022-12-22T13:51:20.597Z</time>
      </trkpt>
      <trkpt lat="45.55627" lon="-1.0672">
        <ele>46.778021</ele>
        <time>2022-12-22T13:51:23.597Z</time>
      </trkpt>
      <trkpt lat="45.55617" lon="-1.06716">
        <ele>46.713225</ele>
        <time>2022-12-22T13:51:26.597Z</time>
      </trkpt>
      <trkpt lat="45.55608" lon="-1.06713">
        <ele>46.649067</ele>
        <time>2022-12-22T13:51:29.595Z</time>
      </trkpt>
      <trkpt lat="45.55598" lon="-1.06709">
        <ele>46.581042</ele>
        <time>2022-12-22T13:51:32.598Z</time>
      </trkpt>
      <trkpt lat="45.55587" lon="-1.06705">
        <ele>46.51175</ele>
        <time>2022-12-22T13:51:35.596Z</time>
      </trkpt>
      <trkpt lat="45.55576" lon="-1.06701">
        <ele>46.435645</ele>
        <time>2022-12-22T13:51:39.591Z</time>
      </trkpt>
      <trkpt lat="45.55567" lon="-1.06696">
        <ele>46.372917</ele>
        <time>2022-12-22T13:51:42.599Z</time>
      </trkpt>
      <trkpt lat="45.55557" lon="-1.06691">
        <ele>46.303127</ele>
        <time>2022-12-22T13:51:45.599Z</time>
      </trkpt>
      <trkpt lat="45.55547" lon="-1.06684">
        <ele>46.226642</ele>
        <time>2022-12-22T13:51:48.595Z</time>
      </trkpt>
      <trkpt lat="45.55536" lon="-1.06678">
        <ele>46.149372</ele>
        <time>2022-12-22T13:51:51.598Z</time>
      </trkpt>
      <trkpt lat="45.55525" lon="-1.06674">
        <ele>46.074885</ele>
        <time>2022-12-22T13:51:54.595Z</time>
      </trkpt>
      <trkpt lat="45.55514" lon="-1.06671">
        <ele>46.004431</ele>
        <time>2022-12-22T13:51:57.595Z</time>
      </trkpt>
      <trkpt lat="45.55504" lon="-1.06668">
        <ele>45.935371</ele>
        <time>2022-12-22T13:52:00.596Z</time>
      </trkpt>
      <trkpt lat="45.55493" lon="-1.06666">
        <ele>45.863132</ele>
        <time>2022-12-22T13:52:03.595Z</time>
      </trkpt>
      <trkpt lat="45.55482" lon="-1.06664">
        <ele>45.859868</ele>
        <time>2022-12-22T13:52:06.596Z</time>
      </trkpt>
      <trkpt lat="45.55471" lon="-1.06663">
        <ele>45.906412</ele>
        <time>2022-12-22T13:52:09.587Z</time>
      </trkpt>
      <trkpt lat="45.5546" lon="-1.06659">
        <ele>45.955449</ele>
        <time>2022-12-22T13:52:12.572Z</time>
      </trkpt>
      <trkpt lat="45.55448" lon="-1.06653">
        <ele>46.006348</ele>
        <time>2022-12-22T13:52:15.598Z</time>
      </trkpt>
      <trkpt lat="45.55438" lon="-1.06648">
        <ele>46.052983</ele>
        <time>2022-12-22T13:52:18.595Z</time>
      </trkpt>
      <trkpt lat="45.55428" lon="-1.06642">
        <ele>46.096774</ele>
        <time>2022-12-22T13:52:21.599Z</time>
      </trkpt>
      <trkpt lat="45.55419" lon="-1.06636">
        <ele>46.140637</ele>
        <time>2022-12-22T13:52:24.597Z</time>
      </trkpt>
      <trkpt lat="45.55409" lon="-1.0663">
        <ele>46.187492</ele>
        <time>2022-12-22T13:52:27.596Z</time>
      </trkpt>
      <trkpt lat="45.55398" lon="-1.06624">
        <ele>46.236297</ele>
        <time>2022-12-22T13:52:30.586Z</time>
      </trkpt>
      <trkpt lat="45.55387" lon="-1.06619">
        <ele>46.281818</ele>
        <time>2022-12-22T13:52:33.568Z</time>
      </trkpt>
      <trkpt lat="45.55377" lon="-1.06614">
        <ele>46.328255</ele>
        <time>2022-12-22T13:52:36.593Z</time>
      </trkpt>
      <trkpt lat="45.55367" lon="-1.06608">
        <ele>46.37511</ele>
        <time>2022-12-22T13:52:39.594Z</time>
      </trkpt>
      <trkpt lat="45.55357" lon="-1.06601">
        <ele>46.421999</ele>
        <time>2022-12-22T13:52:42.595Z</time>
      </trkpt>
      <trkpt lat="45.55348" lon="-1.06592">
        <ele>46.4678</ele>
        <time>2022-12-22T13:52:45.588Z</time>
      </trkpt>
      <trkpt lat="45.55339" lon="-1.06582">
        <ele>46.514958</ele>
        <time>2022-12-22T13:52:48.595Z</time>
      </trkpt>
      <trkpt lat="45.5533" lon="-1.06572">
        <ele>46.562883</ele>
        <time>2022-12-22T13:52:51.593Z</time>
      </trkpt>
      <trkpt lat="45.55322" lon="-1.06564">
        <ele>46.607782</ele>
        <time>2022-12-22T13:52:54.586Z</time>
      </trkpt>
      <trkpt lat="45.55312" lon="-1.06554">
        <ele>46.666578</ele>
        <time>2022-12-22T13:52:58.572Z</time>
      </trkpt>
      <trkpt lat="45.55303" lon="-1.0655">
        <ele>46.712373</ele>
        <time>2022-12-22T13:53:01.574Z</time>
      </trkpt>
      <trkpt lat="45.55293" lon="-1.0655">
        <ele>46.761364</ele>
        <time>2022-12-22T13:53:04.575Z</time>
      </trkpt>
      <trkpt lat="45.55283" lon="-1.06553">
        <ele>46.813184</ele>
        <time>2022-12-22T13:53:07.577Z</time>
      </trkpt>
      <trkpt lat="45.55274" lon="-1.06557">
        <ele>46.86097</ele>
        <time>2022-12-22T13:53:10.580Z</time>
      </trkpt>
      <trkpt lat="45.55263" lon="-1.06558">
        <ele>46.917422</ele>
        <time>2022-12-22T13:53:14.570Z</time>
      </trkpt>
      <trkpt lat="45.55255" lon="-1.06552">
        <ele>46.961946</ele>
        <time>2022-12-22T13:53:17.577Z</time>
      </trkpt>
      <trkpt lat="45.55247" lon="-1.06542">
        <ele>47.012589</ele>
        <time>2022-12-22T13:53:20.577Z</time>
      </trkpt>
      <trkpt lat="45.5524" lon="-1.0653">
        <ele>47.066303</ele>
        <time>2022-12-22T13:53:23.598Z</time>
      </trkpt>
      <trkpt lat="45.55235" lon="-1.06516">
        <ele>47.120769</ele>
        <time>2022-12-22T13:53:26.578Z</time>
      </trkpt>
      <trkpt lat="45.55229" lon="-1.06502">
        <ele>47.177865</ele>
        <time>2022-12-22T13:53:29.595Z</time>
      </trkpt>
      <trkpt lat="45.55223" lon="-1.06488">
        <ele>47.235776</ele>
        <time>2022-12-22T13:53:32.597Z</time>
      </trkpt>
      <trkpt lat="45.55217" lon="-1.06473">
        <ele>47.294597</ele>
        <time>2022-12-22T13:53:35.577Z</time>
      </trkpt>
      <trkpt lat="45.55212" lon="-1.06458">
        <ele>47.35303</ele>
        <time>2022-12-22T13:53:38.597Z</time>
      </trkpt>
      <trkpt lat="45.55207" lon="-1.06444">
        <ele>47.407549</ele>
        <time>2022-12-22T13:53:41.596Z</time>
      </trkpt>
      <trkpt lat="45.55203" lon="-1.0643">
        <ele>47.459293</ele>
        <time>2022-12-22T13:53:44.595Z</time>
      </trkpt>
      <trkpt lat="45.55198" lon="-1.06416">
        <ele>47.493146</ele>
        <time>2022-12-22T13:53:47.594Z</time>
      </trkpt>
      <trkpt lat="45.55194" lon="-1.064">
        <ele>47.514663</ele>
        <time>2022-12-22T13:53:50.571Z</time>
      </trkpt>
      <trkpt lat="45.5519" lon="-1.06384">
        <ele>47.537024</ele>
        <time>2022-12-22T13:53:53.598Z</time>
      </trkpt>
      <trkpt lat="45.55187" lon="-1.06368">
        <ele>47.557457</ele>
        <time>2022-12-22T13:53:56.572Z</time>
      </trkpt>
      <trkpt lat="45.55185" lon="-1.06356">
        <ele>47.574467</ele>
        <time>2022-12-22T13:53:59.596Z</time>
      </trkpt>
      <trkpt lat="45.55182" lon="-1.06343">
        <ele>47.592314</ele>
        <time>2022-12-22T13:54:03.574Z</time>
      </trkpt>
      <trkpt lat="45.55181" lon="-1.06329">
        <ele>47.609505</ele>
        <time>2022-12-22T13:54:09.596Z</time>
      </trkpt>
      <trkpt lat="45.55178" lon="-1.06314">
        <ele>47.630537</ele>
        <time>2022-12-22T13:54:14.576Z</time>
      </trkpt>
      <trkpt lat="45.55175" lon="-1.06297">
        <ele>47.652736</ele>
        <time>2022-12-22T13:54:18.598Z</time>
      </trkpt>
      <trkpt lat="45.55171" lon="-1.06283">
        <ele>47.672839</ele>
        <time>2022-12-22T13:54:21.597Z</time>
      </trkpt>
      <trkpt lat="45.55166" lon="-1.06267">
        <ele>47.694592</ele>
        <time>2022-12-22T13:54:24.594Z</time>
      </trkpt>
      <trkpt lat="45.5516" lon="-1.06252">
        <ele>47.717022</ele>
        <time>2022-12-22T13:54:27.592Z</time>
      </trkpt>
      <trkpt lat="45.55153" lon="-1.06238">
        <ele>47.739546</ele>
        <time>2022-12-22T13:54:30.596Z</time>
      </trkpt>
      <trkpt lat="45.55145" lon="-1.06224">
        <ele>47.762737</ele>
        <time>2022-12-22T13:54:33.591Z</time>
      </trkpt>
      <trkpt lat="45.55137" lon="-1.0621">
        <ele>47.7859</ele>
        <time>2022-12-22T13:54:36.595Z</time>
      </trkpt>
      <trkpt lat="45.55129" lon="-1.06197">
        <ele>47.809235</ele>
        <time>2022-12-22T13:54:39.573Z</time>
      </trkpt>
      <trkpt lat="45.5512" lon="-1.06183">
        <ele>47.822736</ele>
        <time>2022-12-22T13:54:42.596Z</time>
      </trkpt>
      <trkpt lat="45.55112" lon="-1.0617">
        <ele>47.834355</ele>
        <time>2022-12-22T13:54:45.593Z</time>
      </trkpt>
      <trkpt lat="45.55104" lon="-1.06158">
        <ele>47.844837</ele>
        <time>2022-12-22T13:54:48.570Z</time>
      </trkpt>
      <trkpt lat="45.55097" lon="-1.06148">
        <ele>47.854713</ele>
        <time>2022-12-22T13:54:51.588Z</time>
      </trkpt>
      <trkpt lat="45.55089" lon="-1.06138">
        <ele>47.86466</ele>
        <time>2022-12-22T13:54:54.591Z</time>
      </trkpt>
      <trkpt lat="45.55079" lon="-1.0613">
        <ele>47.8752</ele>
        <time>2022-12-22T13:54:57.570Z</time>
      </trkpt>
      <trkpt lat="45.55069" lon="-1.06122">
        <ele>47.8863</ele>
        <time>2022-12-22T13:55:00.591Z</time>
      </trkpt>
      <trkpt lat="45.55058" lon="-1.06115">
        <ele>47.897417</ele>
        <time>2022-12-22T13:55:03.581Z</time>
      </trkpt>
      <trkpt lat="45.55047" lon="-1.06109">
        <ele>47.908149</ele>
        <time>2022-12-22T13:55:06.580Z</time>
      </trkpt>
      <trkpt lat="45.55037" lon="-1.06104">
        <ele>47.918517</ele>
        <time>2022-12-22T13:55:09.597Z</time>
      </trkpt>
      <trkpt lat="45.55026" lon="-1.06098">
        <ele>47.929767</ele>
        <time>2022-12-22T13:55:12.598Z</time>
      </trkpt>
      <trkpt lat="45.55014" lon="-1.06094">
        <ele>47.941366</ele>
        <time>2022-12-22T13:55:15.570Z</time>
      </trkpt>
      <trkpt lat="45.55002" lon="-1.06089">
        <ele>47.953126</ele>
        <time>2022-12-22T13:55:18.584Z</time>
      </trkpt>
      <trkpt lat="45.54989" lon="-1.06084">
        <ele>47.96529</ele>
        <time>2022-12-22T13:55:21.586Z</time>
      </trkpt>
      <trkpt lat="45.54977" lon="-1.0608">
        <ele>47.977588</ele>
        <time>2022-12-22T13:55:24.590Z</time>
      </trkpt>
      <trkpt lat="45.54968" lon="-1.06077">
        <ele>47.991736</ele>
        <time>2022-12-22T13:55:26.594Z</time>
      </trkpt>
      <trkpt lat="45.54956" lon="-1.06073">
        <ele>48.01679</ele>
        <time>2022-12-22T13:55:29.592Z</time>
      </trkpt>
      <trkpt lat="45.54946" lon="-1.0607">
        <ele>48.035574</ele>
        <time>2022-12-22T13:55:32.591Z</time>
      </trkpt>
      <trkpt lat="45.54936" lon="-1.06066">
        <ele>48.057467</ele>
        <time>2022-12-22T13:55:37.574Z</time>
      </trkpt>
      <trkpt lat="45.54925" lon="-1.06062">
        <ele>48.080566</ele>
        <time>2022-12-22T13:55:42.569Z</time>
      </trkpt>
      <trkpt lat="45.54916" lon="-1.06059">
        <ele>48.099123</ele>
        <time>2022-12-22T13:55:45.593Z</time>
      </trkpt>
      <trkpt lat="45.54907" lon="-1.06055">
        <ele>48.117259</ele>
        <time>2022-12-22T13:55:48.594Z</time>
      </trkpt>
      <trkpt lat="45.54896" lon="-1.06051">
        <ele>48.14006</ele>
        <time>2022-12-22T13:55:52.580Z</time>
      </trkpt>
      <trkpt lat="45.54886" lon="-1.06048">
        <ele>48.160223</ele>
        <time>2022-12-22T13:55:56.594Z</time>
      </trkpt>
      <trkpt lat="45.54877" lon="-1.06047">
        <ele>48.180265</ele>
        <time>2022-12-22T13:56:01.597Z</time>
      </trkpt>
      <trkpt lat="45.54866" lon="-1.06045">
        <ele>48.202224</ele>
        <time>2022-12-22T13:56:06.597Z</time>
      </trkpt>
      <trkpt lat="45.54854" lon="-1.06045">
        <ele>48.226</ele>
        <time>2022-12-22T13:56:10.594Z</time>
      </trkpt>
      <trkpt lat="45.54843" lon="-1.06046">
        <ele>48.248036</ele>
        <time>2022-12-22T13:56:13.592Z</time>
      </trkpt>
      <trkpt lat="45.5483" lon="-1.0605">
        <ele>48.274756</ele>
        <time>2022-12-22T13:56:16.574Z</time>
      </trkpt>
      <trkpt lat="45.54822" lon="-1.06056">
        <ele>48.293678</ele>
        <time>2022-12-22T13:56:18.580Z</time>
      </trkpt>
      <trkpt lat="45.54815" lon="-1.06064">
        <ele>48.311899</ele>
        <time>2022-12-22T13:56:20.572Z</time>
      </trkpt>
      <trkpt lat="45.54805" lon="-1.06076">
        <ele>48.337454</ele>
        <time>2022-12-22T13:56:23.589Z</time>
      </trkpt>
      <trkpt lat="45.54797" lon="-1.06086">
        <ele>48.318723</ele>
        <time>2022-12-22T13:56:26.595Z</time>
      </trkpt>
      <trkpt lat="45.54789" lon="-1.06096">
        <ele>48.284072</ele>
        <time>2022-12-22T13:56:29.597Z</time>
      </trkpt>
      <trkpt lat="45.5478" lon="-1.06106">
        <ele>48.248169</ele>
        <time>2022-12-22T13:56:32.596Z</time>
      </trkpt>
      <trkpt lat="45.54771" lon="-1.06113">
        <ele>48.214506</ele>
        <time>2022-12-22T13:56:35.568Z</time>
      </trkpt>
      <trkpt lat="45.54761" lon="-1.06113">
        <ele>48.181092</ele>
        <time>2022-12-22T13:56:38.575Z</time>
      </trkpt>
      <trkpt lat="45.54751" lon="-1.06107">
        <ele>48.14571</ele>
        <time>2022-12-22T13:56:41.571Z</time>
      </trkpt>
      <trkpt lat="45.54741" lon="-1.06101">
        <ele>48.110987</ele>
        <time>2022-12-22T13:56:44.576Z</time>
      </trkpt>
      <trkpt lat="45.54731" lon="-1.06095">
        <ele>48.074489</ele>
        <time>2022-12-22T13:56:47.595Z</time>
      </trkpt>
      <trkpt lat="45.54721" lon="-1.0609">
        <ele>48.038575</ele>
        <time>2022-12-22T13:56:50.600Z</time>
      </trkpt>
      <trkpt lat="45.5471" lon="-1.06085">
        <ele>48.002966</ele>
        <time>2022-12-22T13:56:53.592Z</time>
      </trkpt>
      <trkpt lat="45.54702" lon="-1.0608">
        <ele>47.972438</ele>
        <time>2022-12-22T13:56:56.588Z</time>
      </trkpt>
      <trkpt lat="45.54691" lon="-1.06075">
        <ele>47.93642</ele>
        <time>2022-12-22T13:57:00.565Z</time>
      </trkpt>
      <trkpt lat="45.54681" lon="-1.06072">
        <ele>47.901656</ele>
        <time>2022-12-22T13:57:04.594Z</time>
      </trkpt>
      <trkpt lat="45.5467" lon="-1.06072">
        <ele>47.864979</ele>
        <time>2022-12-22T13:57:08.582Z</time>
      </trkpt>
      <trkpt lat="45.54658" lon="-1.06075">
        <ele>47.827838</ele>
        <time>2022-12-22T13:57:12.572Z</time>
      </trkpt>
      <trkpt lat="45.54649" lon="-1.06085">
        <ele>47.790131</ele>
        <time>2022-12-22T13:57:16.572Z</time>
      </trkpt>
      <trkpt lat="45.54644" lon="-1.06096">
        <ele>47.759713</ele>
        <time>2022-12-22T13:57:19.581Z</time>
      </trkpt>
      <trkpt lat="45.54639" lon="-1.06107">
        <ele>47.818416</ele>
        <time>2022-12-22T13:57:22.606Z</time>
      </trkpt>
      <trkpt lat="45.54633" lon="-1.06118">
        <ele>47.89327</ele>
        <time>2022-12-22T13:57:25.597Z</time>
      </trkpt>
      <trkpt lat="45.54628" lon="-1.0613">
        <ele>47.969098</ele>
        <time>2022-12-22T13:57:28.586Z</time>
      </trkpt>
      <trkpt lat="45.54623" lon="-1.06141">
        <ele>48.042162</ele>
        <time>2022-12-22T13:57:31.595Z</time>
      </trkpt>
      <trkpt lat="45.54618" lon="-1.06155">
        <ele>48.127914</ele>
        <time>2022-12-22T13:57:35.596Z</time>
      </trkpt>
      <trkpt lat="45.54612" lon="-1.06169">
        <ele>48.216799</ele>
        <time>2022-12-22T13:57:40.598Z</time>
      </trkpt>
      <trkpt lat="45.54606" lon="-1.06181">
        <ele>48.297508</ele>
        <time>2022-12-22T13:57:44.586Z</time>
      </trkpt>
      <trkpt lat="45.546" lon="-1.06194">
        <ele>48.384919</ele>
        <time>2022-12-22T13:57:48.579Z</time>
      </trkpt>
      <trkpt lat="45.54593" lon="-1.06207">
        <ele>48.473668</ele>
        <time>2022-12-22T13:57:52.585Z</time>
      </trkpt>
      <trkpt lat="45.54587" lon="-1.06221">
        <ele>48.565155</ele>
        <time>2022-12-22T13:57:56.593Z</time>
      </trkpt>
      <trkpt lat="45.5458" lon="-1.06234">
        <ele>48.649948</ele>
        <time>2022-12-22T13:58:00.587Z</time>
      </trkpt>
      <trkpt lat="45.54575" lon="-1.06245">
        <ele>48.725253</ele>
        <time>2022-12-22T13:58:04.588Z</time>
      </trkpt>
      <trkpt lat="45.54569" lon="-1.06255">
        <ele>48.797951</ele>
        <time>2022-12-22T13:58:09.568Z</time>
      </trkpt>
      <trkpt lat="45.54569" lon="-1.0627">
        <ele>48.878974</ele>
        <time>2022-12-22T13:58:14.575Z</time>
      </trkpt>
      <trkpt lat="45.54567" lon="-1.06284">
        <ele>48.955717</ele>
        <time>2022-12-22T13:58:19.572Z</time>
      </trkpt>
      <trkpt lat="45.54561" lon="-1.06296">
        <ele>49.032815</ele>
        <time>2022-12-22T13:58:25.567Z</time>
      </trkpt>
      <trkpt lat="45.54568" lon="-1.06283">
        <ele>49.118567</ele>
        <time>2022-12-22T13:59:13.578Z</time>
      </trkpt>
      <trkpt lat="45.54567" lon="-1.06269">
        <ele>49.111381</ele>
        <time>2022-12-22T13:59:17.575Z</time>
      </trkpt>
      <trkpt lat="45.54561" lon="-1.06258">
        <ele>49.010283</ele>
        <time>2022-12-22T13:59:20.579Z</time>
      </trkpt>
      <trkpt lat="45.54554" lon="-1.06248">
        <ele>48.907175</ele>
        <time>2022-12-22T13:59:23.596Z</time>
      </trkpt>
      <trkpt lat="45.54546" lon="-1.06239">
        <ele>48.805518</ele>
        <time>2022-12-22T13:59:26.593Z</time>
      </trkpt>
      <trkpt lat="45.54539" lon="-1.06231">
        <ele>48.713125</ele>
        <time>2022-12-22T13:59:29.575Z</time>
      </trkpt>
      <trkpt lat="45.5453" lon="-1.06221">
        <ele>48.597543</ele>
        <time>2022-12-22T13:59:33.571Z</time>
      </trkpt>
      <trkpt lat="45.54521" lon="-1.06214">
        <ele>48.495701</ele>
        <time>2022-12-22T13:59:37.571Z</time>
      </trkpt>
      <trkpt lat="45.54512" lon="-1.06206">
        <ele>48.387479</ele>
        <time>2022-12-22T13:59:41.594Z</time>
      </trkpt>
      <trkpt lat="45.54502" lon="-1.062">
        <ele>48.276671</ele>
        <time>2022-12-22T13:59:45.600Z</time>
      </trkpt>
      <trkpt lat="45.54494" lon="-1.06195">
        <ele>48.181967</ele>
        <time>2022-12-22T13:59:49.593Z</time>
      </trkpt>
      <trkpt lat="45.54485" lon="-1.0619">
        <ele>48.085477</ele>
        <time>2022-12-22T13:59:55.576Z</time>
      </trkpt>
      <trkpt lat="45.54491" lon="-1.062">
        <ele>47.986813</ele>
        <time>2022-12-22T14:52:13.594Z</time>
      </trkpt>
      <trkpt lat="45.545" lon="-1.06207">
        <ele>47.889942</ele>
        <time>2022-12-22T14:52:21.597Z</time>
      </trkpt>
      <trkpt lat="45.54508" lon="-1.06213">
        <ele>47.791777</ele>
        <time>2022-12-22T14:52:29.579Z</time>
      </trkpt>
      <trkpt lat="45.54516" lon="-1.0622">
        <ele>47.695552</ele>
        <time>2022-12-22T14:52:37.599Z</time>
      </trkpt>
      <trkpt lat="45.54523" lon="-1.06229">
        <ele>47.60057</ele>
        <time>2022-12-22T14:52:44.597Z</time>
      </trkpt>
      <trkpt lat="45.5453" lon="-1.06238">
        <ele>47.500681</ele>
        <time>2022-12-22T14:52:52.595Z</time>
      </trkpt>
      <trkpt lat="45.54538" lon="-1.06245">
        <ele>47.406651</ele>
        <time>2022-12-22T14:53:00.596Z</time>
      </trkpt>
      <trkpt lat="45.54546" lon="-1.06253">
        <ele>47.329881</ele>
        <time>2022-12-22T14:53:08.597Z</time>
      </trkpt>
      <trkpt lat="45.54553" lon="-1.06263">
        <ele>47.381486</ele>
        <time>2022-12-22T14:53:16.596Z</time>
      </trkpt>
      <trkpt lat="45.54559" lon="-1.06271">
        <ele>47.430865</ele>
        <time>2022-12-22T14:53:23.586Z</time>
      </trkpt>
      <trkpt lat="45.54568" lon="-1.06276">
        <ele>47.48164</ele>
        <time>2022-12-22T14:53:39.600Z</time>
      </trkpt>
      <trkpt lat="45.5457" lon="-1.06291">
        <ele>47.537295</ele>
        <time>2022-12-22T14:53:48.598Z</time>
      </trkpt>
      <trkpt lat="45.54571" lon="-1.06304">
        <ele>47.588436</ele>
        <time>2022-12-22T14:53:58.598Z</time>
      </trkpt>
      <trkpt lat="45.5457" lon="-1.0629">
        <ele>47.640335</ele>
        <time>2022-12-22T14:54:29.596Z</time>
      </trkpt>
      <trkpt lat="45.54569" lon="-1.06276">
        <ele>47.695399</ele>
        <time>2022-12-22T14:54:38.595Z</time>
      </trkpt>
      <trkpt lat="45.54567" lon="-1.06263">
        <ele>47.747981</ele>
        <time>2022-12-22T14:54:46.597Z</time>
      </trkpt>
      <trkpt lat="45.5456" lon="-1.06253">
        <ele>47.801167</ele>
        <time>2022-12-22T14:54:53.584Z</time>
      </trkpt>
      <trkpt lat="45.54553" lon="-1.06242">
        <ele>47.856428</ele>
        <time>2022-12-22T14:55:01.596Z</time>
      </trkpt>
      <trkpt lat="45.54544" lon="-1.06236">
        <ele>47.911897</ele>
        <time>2022-12-22T14:55:08.596Z</time>
      </trkpt>
      <trkpt lat="45.54536" lon="-1.06226">
        <ele>47.968547</ele>
        <time>2022-12-22T14:55:16.596Z</time>
      </trkpt>
      <trkpt lat="45.54527" lon="-1.06221">
        <ele>48.022577</ele>
        <time>2022-12-22T14:55:22.598Z</time>
      </trkpt>
      <trkpt lat="45.54519" lon="-1.06216">
        <ele>48.071495</ele>
        <time>2022-12-22T14:55:29.586Z</time>
      </trkpt>
      <trkpt lat="45.54511" lon="-1.06209">
        <ele>48.121226</ele>
        <time>2022-12-22T14:55:36.596Z</time>
      </trkpt>
      <trkpt lat="45.54503" lon="-1.06204">
        <ele>48.170418</ele>
        <time>2022-12-22T14:55:43.596Z</time>
      </trkpt>
      <trkpt lat="45.54494" lon="-1.062">
        <ele>48.222158</ele>
        <time>2022-12-22T14:55:51.590Z</time>
      </trkpt>
      <trkpt lat="45.54485" lon="-1.06195">
        <ele>48.273124</ele>
        <time>2022-12-22T14:56:06.595Z</time>
      </trkpt>
      <trkpt lat="45.54494" lon="-1.06198">
        <ele>48.314772</ele>
        <time>2022-12-22T14:57:01.581Z</time>
      </trkpt>
      <trkpt lat="45.54503" lon="-1.06204">
        <ele>48.346178</ele>
        <time>2022-12-22T14:57:10.579Z</time>
      </trkpt>
      <trkpt lat="45.54512" lon="-1.06211">
        <ele>48.37831</ele>
        <time>2022-12-22T14:57:17.600Z</time>
      </trkpt>
      <trkpt lat="45.54521" lon="-1.06216">
        <ele>48.409937</ele>
        <time>2022-12-22T14:57:24.595Z</time>
      </trkpt>
      <trkpt lat="45.54529" lon="-1.06225">
        <ele>48.442379</ele>
        <time>2022-12-22T14:57:32.594Z</time>
      </trkpt>
      <trkpt lat="45.54538" lon="-1.06232">
        <ele>48.475139</ele>
        <time>2022-12-22T14:57:39.599Z</time>
      </trkpt>
      <trkpt lat="45.54546" lon="-1.06241">
        <ele>48.506531</ele>
        <time>2022-12-22T14:57:46.597Z</time>
      </trkpt>
      <trkpt lat="45.54554" lon="-1.06249">
        <ele>48.538701</ele>
        <time>2022-12-22T14:57:53.598Z</time>
      </trkpt>
      <trkpt lat="45.54563" lon="-1.06255">
        <ele>48.571977</ele>
        <time>2022-12-22T14:58:00.595Z</time>
      </trkpt>
      <trkpt lat="45.54569" lon="-1.06265">
        <ele>48.601978</ele>
        <time>2022-12-22T14:58:07.597Z</time>
      </trkpt>
      <trkpt lat="45.54571" lon="-1.06278">
        <ele>48.631227</ele>
        <time>2022-12-22T14:58:16.596Z</time>
      </trkpt>
      <trkpt lat="45.54572" lon="-1.06291">
        <ele>48.660159</ele>
        <time>2022-12-22T14:58:22.596Z</time>
      </trkpt>
      <trkpt lat="45.54564" lon="-1.06297">
        <ele>48.689468</ele>
        <time>2022-12-22T14:58:40.575Z</time>
      </trkpt>
      <trkpt lat="45.54565" lon="-1.06307">
        <ele>48.713117</ele>
        <time>2022-12-22T15:00:10.724Z</time>
      </trkpt>
      <trkpt lat="45.54483" lon="-1.06184">
        <ele>48.283519</ele>
        <time>2022-12-22T15:40:24.687Z</time>
      </trkpt>
      <trkpt lat="45.54489" lon="-1.06195">
        <ele>48.19789</ele>
        <time>2022-12-22T15:41:43.660Z</time>
      </trkpt>
      <trkpt lat="45.54498" lon="-1.06201">
        <ele>48.103196</ele>
        <time>2022-12-22T15:41:49.590Z</time>
      </trkpt>
      <trkpt lat="45.54507" lon="-1.06205">
        <ele>48.020852</ele>
        <time>2022-12-22T15:41:53.611Z</time>
      </trkpt>
      <trkpt lat="45.54517" lon="-1.06211">
        <ele>47.929888</ele>
        <time>2022-12-22T15:41:57.608Z</time>
      </trkpt>
      <trkpt lat="45.54526" lon="-1.06219">
        <ele>47.832005</ele>
        <time>2022-12-22T15:42:01.609Z</time>
      </trkpt>
      <trkpt lat="45.54534" lon="-1.06226">
        <ele>47.746698</ele>
        <time>2022-12-22T15:42:05.598Z</time>
      </trkpt>
      <trkpt lat="45.54543" lon="-1.06235">
        <ele>47.653962</ele>
        <time>2022-12-22T15:42:09.598Z</time>
      </trkpt>
      <trkpt lat="45.54551" lon="-1.06243">
        <ele>47.56226</ele>
        <time>2022-12-22T15:42:13.598Z</time>
      </trkpt>
      <trkpt lat="45.54559" lon="-1.06254">
        <ele>47.468758</ele>
        <time>2022-12-22T15:42:18.599Z</time>
      </trkpt>
      <trkpt lat="45.54563" lon="-1.06266">
        <ele>47.385892</ele>
        <time>2022-12-22T15:42:24.615Z</time>
      </trkpt>
      <trkpt lat="45.54558" lon="-1.06277">
        <ele>47.29947</ele>
        <time>2022-12-22T15:42:29.597Z</time>
      </trkpt>
      <trkpt lat="45.5455" lon="-1.06287">
        <ele>47.139767</ele>
        <time>2022-12-22T15:42:33.609Z</time>
      </trkpt>
      <trkpt lat="45.54542" lon="-1.06298">
        <ele>46.96126</ele>
        <time>2022-12-22T15:42:37.595Z</time>
      </trkpt>
      <trkpt lat="45.54535" lon="-1.06309">
        <ele>46.781856</ele>
        <time>2022-12-22T15:42:41.609Z</time>
      </trkpt>
      <trkpt lat="45.54528" lon="-1.06321">
        <ele>46.595009</ele>
        <time>2022-12-22T15:42:45.614Z</time>
      </trkpt>
      <trkpt lat="45.54519" lon="-1.0633">
        <ele>46.422305</ele>
        <time>2022-12-22T15:42:49.609Z</time>
      </trkpt>
      <trkpt lat="45.54511" lon="-1.06339">
        <ele>46.240961</ele>
        <time>2022-12-22T15:42:53.604Z</time>
      </trkpt>
      <trkpt lat="45.54503" lon="-1.06347">
        <ele>46.07847</ele>
        <time>2022-12-22T15:42:57.591Z</time>
      </trkpt>
      <trkpt lat="45.54494" lon="-1.06338">
        <ele>45.899202</ele>
        <time>2022-12-22T15:43:01.615Z</time>
      </trkpt>
      <trkpt lat="45.54485" lon="-1.06327">
        <ele>45.712917</ele>
        <time>2022-12-22T15:43:05.605Z</time>
      </trkpt>
      <trkpt lat="45.54477" lon="-1.06319">
        <ele>45.545824</ele>
        <time>2022-12-22T15:43:09.591Z</time>
      </trkpt>
      <trkpt lat="45.5446" lon="-1.06298">
        <ele>45.166633</ele>
        <time>2022-12-22T15:43:44.595Z</time>
      </trkpt>
      <trkpt lat="45.54453" lon="-1.0629">
        <ele>45.014257</ele>
        <time>2022-12-22T15:43:47.591Z</time>
      </trkpt>
      <trkpt lat="45.54443" lon="-1.06279">
        <ele>44.814509</ele>
        <time>2022-12-22T15:43:51.601Z</time>
      </trkpt>
      <trkpt lat="45.54438" lon="-1.06266">
        <ele>44.639556</ele>
        <time>2022-12-22T15:43:55.596Z</time>
      </trkpt>
      <trkpt lat="45.54444" lon="-1.06253">
        <ele>44.452787</ele>
        <time>2022-12-22T15:43:59.596Z</time>
      </trkpt>
      <trkpt lat="45.54444" lon="-1.0624">
        <ele>44.299688</ele>
        <time>2022-12-22T15:44:03.597Z</time>
      </trkpt>
      <trkpt lat="45.54436" lon="-1.06228">
        <ele>44.226936</ele>
        <time>2022-12-22T15:44:07.589Z</time>
      </trkpt>
      <trkpt lat="45.54428" lon="-1.06218">
        <ele>44.175736</ele>
        <time>2022-12-22T15:44:10.598Z</time>
      </trkpt>
      <trkpt lat="45.54421" lon="-1.06209">
        <ele>44.126003</ele>
        <time>2022-12-22T15:44:13.620Z</time>
      </trkpt>
      <trkpt lat="45.54413" lon="-1.062">
        <ele>44.072646</ele>
        <time>2022-12-22T15:44:16.610Z</time>
      </trkpt>
      <trkpt lat="45.54404" lon="-1.06189">
        <ele>44.014192</ele>
        <time>2022-12-22T15:44:19.586Z</time>
      </trkpt>
      <trkpt lat="45.54396" lon="-1.0618">
        <ele>43.957731</ele>
        <time>2022-12-22T15:44:22.621Z</time>
      </trkpt>
      <trkpt lat="45.54387" lon="-1.06172">
        <ele>43.903813</ele>
        <time>2022-12-22T15:44:25.602Z</time>
      </trkpt>
      <trkpt lat="45.54379" lon="-1.06163">
        <ele>43.853913</ele>
        <time>2022-12-22T15:44:28.594Z</time>
      </trkpt>
      <trkpt lat="45.54375" lon="-1.06149">
        <ele>43.795799</ele>
        <time>2022-12-22T15:44:33.595Z</time>
      </trkpt>
      <trkpt lat="45.54374" lon="-1.06135">
        <ele>43.745847</ele>
        <time>2022-12-22T15:44:37.604Z</time>
      </trkpt>
      <trkpt lat="45.54375" lon="-1.06122">
        <ele>43.698833</ele>
        <time>2022-12-22T15:44:42.600Z</time>
      </trkpt>
      <trkpt lat="45.54376" lon="-1.06108">
        <ele>43.646001</ele>
        <time>2022-12-22T15:44:46.589Z</time>
      </trkpt>
      <trkpt lat="45.54381" lon="-1.06119">
        <ele>43.598968</ele>
        <time>2022-12-22T15:45:31.626Z</time>
      </trkpt>
      <trkpt lat="45.54388" lon="-1.06126">
        <ele>43.55151</ele>
        <time>2022-12-22T15:45:35.602Z</time>
      </trkpt>
      <trkpt lat="45.54398" lon="-1.06133">
        <ele>43.494966</ele>
        <time>2022-12-22T15:45:39.588Z</time>
      </trkpt>
      <trkpt lat="45.54407" lon="-1.06139">
        <ele>43.442635</ele>
        <time>2022-12-22T15:45:42.592Z</time>
      </trkpt>
      <trkpt lat="45.54417" lon="-1.06147">
        <ele>43.384248</ele>
        <time>2022-12-22T15:45:45.620Z</time>
      </trkpt>
      <trkpt lat="45.54428" lon="-1.06153">
        <ele>43.417071</ele>
        <time>2022-12-22T15:45:48.620Z</time>
      </trkpt>
      <trkpt lat="45.54439" lon="-1.0616">
        <ele>43.554362</ele>
        <time>2022-12-22T15:45:51.606Z</time>
      </trkpt>
      <trkpt lat="45.5445" lon="-1.06167">
        <ele>43.689239</ele>
        <time>2022-12-22T15:45:54.605Z</time>
      </trkpt>
      <trkpt lat="45.54459" lon="-1.06173">
        <ele>43.805864</ele>
        <time>2022-12-22T15:45:57.612Z</time>
      </trkpt>
      <trkpt lat="45.54468" lon="-1.0618">
        <ele>43.922167</ele>
        <time>2022-12-22T15:46:01.599Z</time>
      </trkpt>
      <trkpt lat="45.54479" lon="-1.06188">
        <ele>44.056054</ele>
        <time>2022-12-22T15:46:05.614Z</time>
      </trkpt>
      <trkpt lat="45.54487" lon="-1.06194">
        <ele>44.164446</ele>
        <time>2022-12-22T15:46:08.591Z</time>
      </trkpt>
      <trkpt lat="45.54496" lon="-1.062">
        <ele>44.276647</ele>
        <time>2022-12-22T15:46:11.606Z</time>
      </trkpt>
      <trkpt lat="45.54507" lon="-1.06207">
        <ele>44.412265</ele>
        <time>2022-12-22T15:46:14.591Z</time>
      </trkpt>
      <trkpt lat="45.54518" lon="-1.06215">
        <ele>44.552923</ele>
        <time>2022-12-22T15:46:17.597Z</time>
      </trkpt>
      <trkpt lat="45.54528" lon="-1.06224">
        <ele>44.682644</ele>
        <time>2022-12-22T15:46:20.603Z</time>
      </trkpt>
      <trkpt lat="45.54537" lon="-1.06234">
        <ele>44.81178</ele>
        <time>2022-12-22T15:46:23.592Z</time>
      </trkpt>
      <trkpt lat="45.54546" lon="-1.06243">
        <ele>44.93489</ele>
        <time>2022-12-22T15:46:26.619Z</time>
      </trkpt>
      <trkpt lat="45.54555" lon="-1.06253">
        <ele>45.064101</ele>
        <time>2022-12-22T15:46:30.602Z</time>
      </trkpt>
      <trkpt lat="45.54563" lon="-1.06262">
        <ele>45.1817</ele>
        <time>2022-12-22T15:46:35.594Z</time>
      </trkpt>
      <trkpt lat="45.5457" lon="-1.06252">
        <ele>45.286127</ele>
        <time>2022-12-22T15:46:39.587Z</time>
      </trkpt>
      <trkpt lat="45.54576" lon="-1.0624">
        <ele>45.38461</ele>
        <time>2022-12-22T15:46:42.597Z</time>
      </trkpt>
      <trkpt lat="45.54582" lon="-1.06228">
        <ele>45.386773</ele>
        <time>2022-12-22T15:46:45.593Z</time>
      </trkpt>
      <trkpt lat="45.54589" lon="-1.06215">
        <ele>45.389007</ele>
        <time>2022-12-22T15:46:48.588Z</time>
      </trkpt>
      <trkpt lat="45.54595" lon="-1.06203">
        <ele>45.391301</ele>
        <time>2022-12-22T15:46:51.592Z</time>
      </trkpt>
      <trkpt lat="45.54602" lon="-1.0619">
        <ele>45.393619</ele>
        <time>2022-12-22T15:46:54.606Z</time>
      </trkpt>
      <trkpt lat="45.54609" lon="-1.06176">
        <ele>45.396108</ele>
        <time>2022-12-22T15:46:57.600Z</time>
      </trkpt>
      <trkpt lat="45.54614" lon="-1.06162">
        <ele>45.39833</ele>
        <time>2022-12-22T15:47:00.604Z</time>
      </trkpt>
      <trkpt lat="45.54619" lon="-1.06151">
        <ele>45.400273</ele>
        <time>2022-12-22T15:47:04.595Z</time>
      </trkpt>
      <trkpt lat="45.54626" lon="-1.06134">
        <ele>45.403063</ele>
        <time>2022-12-22T15:47:28.594Z</time>
      </trkpt>
      <trkpt lat="45.5463" lon="-1.06123">
        <ele>45.404956</ele>
        <time>2022-12-22T15:47:31.589Z</time>
      </trkpt>
      <trkpt lat="45.54637" lon="-1.0611">
        <ele>45.407261</ele>
        <time>2022-12-22T15:47:34.604Z</time>
      </trkpt>
      <trkpt lat="45.54643" lon="-1.06098">
        <ele>45.409507</ele>
        <time>2022-12-22T15:47:37.592Z</time>
      </trkpt>
      <trkpt lat="45.54648" lon="-1.06085">
        <ele>45.411631</ele>
        <time>2022-12-22T15:47:40.601Z</time>
      </trkpt>
      <trkpt lat="45.54656" lon="-1.06073">
        <ele>45.41401</ele>
        <time>2022-12-22T15:47:44.612Z</time>
      </trkpt>
      <trkpt lat="45.54668" lon="-1.06068">
        <ele>45.416545</ele>
        <time>2022-12-22T15:47:48.589Z</time>
      </trkpt>
      <trkpt lat="45.54679" lon="-1.06069">
        <ele>45.418869</ele>
        <time>2022-12-22T15:47:51.619Z</time>
      </trkpt>
      <trkpt lat="45.54692" lon="-1.06073">
        <ele>45.425356</ele>
        <time>2022-12-22T15:47:54.590Z</time>
      </trkpt>
      <trkpt lat="45.54704" lon="-1.06079">
        <ele>45.517588</ele>
        <time>2022-12-22T15:47:57.612Z</time>
      </trkpt>
      <trkpt lat="45.54716" lon="-1.06086">
        <ele>45.610821</ele>
        <time>2022-12-22T15:48:00.593Z</time>
      </trkpt>
      <trkpt lat="45.54727" lon="-1.06094">
        <ele>45.70006</ele>
        <time>2022-12-22T15:48:03.598Z</time>
      </trkpt>
      <trkpt lat="45.54738" lon="-1.06098">
        <ele>45.786491</ele>
        <time>2022-12-22T15:48:06.618Z</time>
      </trkpt>
      <trkpt lat="45.54749" lon="-1.06104">
        <ele>45.867407</ele>
        <time>2022-12-22T15:48:09.618Z</time>
      </trkpt>
      <trkpt lat="45.54759" lon="-1.0611">
        <ele>45.944895</ele>
        <time>2022-12-22T15:48:12.604Z</time>
      </trkpt>
      <trkpt lat="45.5477" lon="-1.06113">
        <ele>46.029139</ele>
        <time>2022-12-22T15:48:15.615Z</time>
      </trkpt>
      <trkpt lat="45.54782" lon="-1.06104">
        <ele>46.122148</ele>
        <time>2022-12-22T15:48:18.608Z</time>
      </trkpt>
      <trkpt lat="45.54791" lon="-1.06091">
        <ele>46.220215</ele>
        <time>2022-12-22T15:48:21.618Z</time>
      </trkpt>
      <trkpt lat="45.54801" lon="-1.06078">
        <ele>46.316182</ele>
        <time>2022-12-22T15:48:24.618Z</time>
      </trkpt>
      <trkpt lat="45.54809" lon="-1.0607">
        <ele>46.384018</ele>
        <time>2022-12-22T15:48:26.594Z</time>
      </trkpt>
      <trkpt lat="45.54818" lon="-1.06059">
        <ele>46.474509</ele>
        <time>2022-12-22T15:48:29.598Z</time>
      </trkpt>
      <trkpt lat="45.54828" lon="-1.0605">
        <ele>46.554237</ele>
        <time>2022-12-22T15:48:32.605Z</time>
      </trkpt>
      <trkpt lat="45.54838" lon="-1.06044">
        <ele>46.632291</ele>
        <time>2022-12-22T15:48:35.589Z</time>
      </trkpt>
      <trkpt lat="45.54848" lon="-1.06042">
        <ele>46.707497</ele>
        <time>2022-12-22T15:48:38.613Z</time>
      </trkpt>
      <trkpt lat="45.54858" lon="-1.06041">
        <ele>46.650417</ele>
        <time>2022-12-22T15:48:41.599Z</time>
      </trkpt>
      <trkpt lat="45.54867" lon="-1.06042">
        <ele>46.567236</ele>
        <time>2022-12-22T15:48:44.589Z</time>
      </trkpt>
      <trkpt lat="45.54877" lon="-1.06043">
        <ele>46.485485</ele>
        <time>2022-12-22T15:48:47.609Z</time>
      </trkpt>
      <trkpt lat="45.54886" lon="-1.06045">
        <ele>46.404399</ele>
        <time>2022-12-22T15:48:50.595Z</time>
      </trkpt>
      <trkpt lat="45.54896" lon="-1.06048">
        <ele>46.317264</ele>
        <time>2022-12-22T15:48:54.597Z</time>
      </trkpt>
      <trkpt lat="45.54907" lon="-1.06052">
        <ele>46.215714</ele>
        <time>2022-12-22T15:48:58.599Z</time>
      </trkpt>
      <trkpt lat="45.54919" lon="-1.06057">
        <ele>46.107478</ele>
        <time>2022-12-22T15:49:01.611Z</time>
      </trkpt>
      <trkpt lat="45.54932" lon="-1.06061">
        <ele>45.991542</ele>
        <time>2022-12-22T15:49:04.589Z</time>
      </trkpt>
      <trkpt lat="45.54941" lon="-1.06064">
        <ele>45.913139</ele>
        <time>2022-12-22T15:49:06.595Z</time>
      </trkpt>
      <trkpt lat="45.54952" lon="-1.06067">
        <ele>45.819939</ele>
        <time>2022-12-22T15:49:08.609Z</time>
      </trkpt>
      <trkpt lat="45.54963" lon="-1.06072">
        <ele>45.716394</ele>
        <time>2022-12-22T15:49:10.583Z</time>
      </trkpt>
      <trkpt lat="45.54974" lon="-1.06075">
        <ele>45.623059</ele>
        <time>2022-12-22T15:49:12.605Z</time>
      </trkpt>
      <trkpt lat="45.54984" lon="-1.06078">
        <ele>45.535696</ele>
        <time>2022-12-22T15:49:14.599Z</time>
      </trkpt>
      <trkpt lat="45.54993" lon="-1.06081">
        <ele>45.452595</ele>
        <time>2022-12-22T15:49:16.598Z</time>
      </trkpt>
      <trkpt lat="45.55005" lon="-1.06085">
        <ele>45.341119</ele>
        <time>2022-12-22T15:49:19.586Z</time>
      </trkpt>
      <trkpt lat="45.55018" lon="-1.0609">
        <ele>45.230078</ele>
        <time>2022-12-22T15:49:22.591Z</time>
      </trkpt>
      <trkpt lat="45.5503" lon="-1.06095">
        <ele>45.171415</ele>
        <time>2022-12-22T15:49:25.605Z</time>
      </trkpt>
      <trkpt lat="45.55042" lon="-1.06101">
        <ele>45.194037</ele>
        <time>2022-12-22T15:49:28.594Z</time>
      </trkpt>
      <trkpt lat="45.55054" lon="-1.06108">
        <ele>45.216586</ele>
        <time>2022-12-22T15:49:31.593Z</time>
      </trkpt>
      <trkpt lat="45.55066" lon="-1.06115">
        <ele>45.240005</ele>
        <time>2022-12-22T15:49:34.591Z</time>
      </trkpt>
      <trkpt lat="45.55075" lon="-1.06121">
        <ele>45.257269</ele>
        <time>2022-12-22T15:49:36.588Z</time>
      </trkpt>
      <trkpt lat="45.55083" lon="-1.06127">
        <ele>45.274426</ele>
        <time>2022-12-22T15:49:38.606Z</time>
      </trkpt>
      <trkpt lat="45.55094" lon="-1.06139">
        <ele>45.298364</ele>
        <time>2022-12-22T15:49:41.587Z</time>
      </trkpt>
      <trkpt lat="45.55104" lon="-1.06152">
        <ele>45.322653</ele>
        <time>2022-12-22T15:49:44.584Z</time>
      </trkpt>
      <trkpt lat="45.55113" lon="-1.06165">
        <ele>45.346019</ele>
        <time>2022-12-22T15:49:47.595Z</time>
      </trkpt>
      <trkpt lat="45.55121" lon="-1.06179">
        <ele>45.3689</ele>
        <time>2022-12-22T15:49:50.618Z</time>
      </trkpt>
      <trkpt lat="45.5513" lon="-1.06192">
        <ele>45.391809</ele>
        <time>2022-12-22T15:49:53.607Z</time>
      </trkpt>
      <trkpt lat="45.55138" lon="-1.06206">
        <ele>45.414394</ele>
        <time>2022-12-22T15:49:56.592Z</time>
      </trkpt>
      <trkpt lat="45.55146" lon="-1.06221">
        <ele>45.438404</ele>
        <time>2022-12-22T15:49:59.612Z</time>
      </trkpt>
      <trkpt lat="45.55154" lon="-1.06237">
        <ele>45.462053</ele>
        <time>2022-12-22T15:50:02.587Z</time>
      </trkpt>
      <trkpt lat="45.55161" lon="-1.06252">
        <ele>45.482908</ele>
        <time>2022-12-22T15:50:05.592Z</time>
      </trkpt>
      <trkpt lat="45.55167" lon="-1.06265">
        <ele>45.403936</ele>
        <time>2022-12-22T15:50:08.589Z</time>
      </trkpt>
      <trkpt lat="45.55171" lon="-1.06277">
        <ele>45.335696</ele>
        <time>2022-12-22T15:50:11.591Z</time>
      </trkpt>
      <trkpt lat="45.55175" lon="-1.06293">
        <ele>45.251</ele>
        <time>2022-12-22T15:50:15.600Z</time>
      </trkpt>
      <trkpt lat="45.55177" lon="-1.06306">
        <ele>45.186071</ele>
        <time>2022-12-22T15:50:18.584Z</time>
      </trkpt>
      <trkpt lat="45.55179" lon="-1.06319">
        <ele>45.119512</ele>
        <time>2022-12-22T15:50:21.592Z</time>
      </trkpt>
      <trkpt lat="45.55181" lon="-1.06334">
        <ele>45.039264</ele>
        <time>2022-12-22T15:50:25.592Z</time>
      </trkpt>
      <trkpt lat="45.55184" lon="-1.06347">
        <ele>44.972047</ele>
        <time>2022-12-22T15:50:30.605Z</time>
      </trkpt>
      <trkpt lat="45.55186" lon="-1.0636">
        <ele>44.906103</ele>
        <time>2022-12-22T15:50:33.592Z</time>
      </trkpt>
      <trkpt lat="45.55189" lon="-1.06376">
        <ele>44.820757</ele>
        <time>2022-12-22T15:50:36.595Z</time>
      </trkpt>
      <trkpt lat="45.55192" lon="-1.0639">
        <ele>44.751615</ele>
        <time>2022-12-22T15:50:38.588Z</time>
      </trkpt>
      <trkpt lat="45.55195" lon="-1.06403">
        <ele>44.680167</ele>
        <time>2022-12-22T15:50:40.593Z</time>
      </trkpt>
      <trkpt lat="45.55199" lon="-1.06416">
        <ele>44.610601</ele>
        <time>2022-12-22T15:50:42.619Z</time>
      </trkpt>
      <trkpt lat="45.55202" lon="-1.06429">
        <ele>44.538858</ele>
        <time>2022-12-22T15:50:44.610Z</time>
      </trkpt>
      <trkpt lat="45.55206" lon="-1.06442">
        <ele>44.467841</ele>
        <time>2022-12-22T15:50:46.605Z</time>
      </trkpt>
      <trkpt lat="45.55212" lon="-1.06458">
        <ele>44.378178</ele>
        <time>2022-12-22T15:50:49.618Z</time>
      </trkpt>
      <trkpt lat="45.55218" lon="-1.06473">
        <ele>44.293381</ele>
        <time>2022-12-22T15:50:52.603Z</time>
      </trkpt>
      <trkpt lat="45.55224" lon="-1.06488">
        <ele>44.208501</ele>
        <time>2022-12-22T15:50:55.613Z</time>
      </trkpt>
      <trkpt lat="45.5523" lon="-1.06503">
        <ele>44.225611</ele>
        <time>2022-12-22T15:50:58.617Z</time>
      </trkpt>
      <trkpt lat="45.55236" lon="-1.06519">
        <ele>44.259441</ele>
        <time>2022-12-22T15:51:01.603Z</time>
      </trkpt>
      <trkpt lat="45.55242" lon="-1.06533">
        <ele>44.291168</ele>
        <time>2022-12-22T15:51:04.610Z</time>
      </trkpt>
      <trkpt lat="45.55249" lon="-1.06545">
        <ele>44.318869</ele>
        <time>2022-12-22T15:51:07.599Z</time>
      </trkpt>
      <trkpt lat="45.55256" lon="-1.06556">
        <ele>44.347586</ele>
        <time>2022-12-22T15:51:11.615Z</time>
      </trkpt>
      <trkpt lat="45.5526" lon="-1.06569">
        <ele>44.373777</ele>
        <time>2022-12-22T15:51:16.619Z</time>
      </trkpt>
      <trkpt lat="45.55253" lon="-1.06582">
        <ele>44.404837</ele>
        <time>2022-12-22T15:51:20.596Z</time>
      </trkpt>
      <trkpt lat="45.55247" lon="-1.06592">
        <ele>44.430788</ele>
        <time>2022-12-22T15:51:23.598Z</time>
      </trkpt>
      <trkpt lat="45.5524" lon="-1.06602">
        <ele>44.456854</ele>
        <time>2022-12-22T15:51:26.586Z</time>
      </trkpt>
      <trkpt lat="45.55232" lon="-1.06613">
        <ele>44.48594</ele>
        <time>2022-12-22T15:51:29.594Z</time>
      </trkpt>
      <trkpt lat="45.55225" lon="-1.06625">
        <ele>44.515569</ele>
        <time>2022-12-22T15:51:32.597Z</time>
      </trkpt>
      <trkpt lat="45.55217" lon="-1.06637">
        <ele>44.547226</ele>
        <time>2022-12-22T15:51:35.599Z</time>
      </trkpt>
      <trkpt lat="45.55209" lon="-1.0665">
        <ele>44.580026</ele>
        <time>2022-12-22T15:51:38.601Z</time>
      </trkpt>
      <trkpt lat="45.55201" lon="-1.06663">
        <ele>44.613144</ele>
        <time>2022-12-22T15:51:41.596Z</time>
      </trkpt>
      <trkpt lat="45.55193" lon="-1.06675">
        <ele>44.643971</ele>
        <time>2022-12-22T15:51:44.597Z</time>
      </trkpt>
      <trkpt lat="45.55186" lon="-1.06686">
        <ele>44.671688</ele>
        <time>2022-12-22T15:51:47.588Z</time>
      </trkpt>
      <trkpt lat="45.55178" lon="-1.06696">
        <ele>44.653721</ele>
        <time>2022-12-22T15:51:50.589Z</time>
      </trkpt>
      <trkpt lat="45.55169" lon="-1.06702">
        <ele>44.621478</ele>
        <time>2022-12-22T15:51:53.589Z</time>
      </trkpt>
      <trkpt lat="45.55159" lon="-1.06703">
        <ele>44.588784</ele>
        <time>2022-12-22T15:51:56.583Z</time>
      </trkpt>
      <trkpt lat="45.55148" lon="-1.06699">
        <ele>44.552034</ele>
        <time>2022-12-22T15:51:59.583Z</time>
      </trkpt>
      <trkpt lat="45.55137" lon="-1.06693">
        <ele>44.514742</ele>
        <time>2022-12-22T15:52:02.592Z</time>
      </trkpt>
      <trkpt lat="45.55126" lon="-1.06688">
        <ele>44.474447</ele>
        <time>2022-12-22T15:52:05.595Z</time>
      </trkpt>
      <trkpt lat="45.55114" lon="-1.06684">
        <ele>44.434677</ele>
        <time>2022-12-22T15:52:08.588Z</time>
      </trkpt>
      <trkpt lat="45.55103" lon="-1.06682">
        <ele>44.398697</ele>
        <time>2022-12-22T15:52:11.585Z</time>
      </trkpt>
      <trkpt lat="45.55093" lon="-1.06678">
        <ele>44.364493</ele>
        <time>2022-12-22T15:52:14.588Z</time>
      </trkpt>
      <trkpt lat="45.55081" lon="-1.06675">
        <ele>44.325635</ele>
        <time>2022-12-22T15:52:18.598Z</time>
      </trkpt>
      <trkpt lat="45.55073" lon="-1.06671">
        <ele>44.296338</ele>
        <time>2022-12-22T15:52:21.607Z</time>
      </trkpt>
      <trkpt lat="45.55064" lon="-1.06665">
        <ele>44.264888</ele>
        <time>2022-12-22T15:52:24.596Z</time>
      </trkpt>
      <trkpt lat="45.55055" lon="-1.06658">
        <ele>44.231267</ele>
        <time>2022-12-22T15:52:27.599Z</time>
      </trkpt>
      <trkpt lat="45.55046" lon="-1.06652">
        <ele>44.198537</ele>
        <time>2022-12-22T15:52:30.595Z</time>
      </trkpt>
      <trkpt lat="45.55036" lon="-1.06643">
        <ele>44.160213</ele>
        <time>2022-12-22T15:52:34.615Z</time>
      </trkpt>
      <trkpt lat="45.55026" lon="-1.06635">
        <ele>44.123404</ele>
        <time>2022-12-22T15:52:38.596Z</time>
      </trkpt>
      <trkpt lat="45.55016" lon="-1.0663">
        <ele>44.10425</ele>
        <time>2022-12-22T15:52:42.609Z</time>
      </trkpt>
      <trkpt lat="45.55006" lon="-1.06631">
        <ele>44.252911</ele>
        <time>2022-12-22T15:52:46.590Z</time>
      </trkpt>
      <trkpt lat="45.54996" lon="-1.06636">
        <ele>44.416466</ele>
        <time>2022-12-22T15:52:50.596Z</time>
      </trkpt>
      <trkpt lat="45.54987" lon="-1.06645">
        <ele>44.58196</ele>
        <time>2022-12-22T15:52:54.619Z</time>
      </trkpt>
      <trkpt lat="45.54978" lon="-1.06656">
        <ele>44.749038</ele>
        <time>2022-12-22T15:52:58.610Z</time>
      </trkpt>
      <trkpt lat="45.54969" lon="-1.06666">
        <ele>44.92501</ele>
        <time>2022-12-22T15:53:02.609Z</time>
      </trkpt>
      <trkpt lat="45.54961" lon="-1.06675">
        <ele>45.068835</ele>
        <time>2022-12-22T15:53:05.612Z</time>
      </trkpt>
      <trkpt lat="45.54954" lon="-1.06682">
        <ele>45.207754</ele>
        <time>2022-12-22T15:53:08.584Z</time>
      </trkpt>
      <trkpt lat="45.54946" lon="-1.06692">
        <ele>45.35656</ele>
        <time>2022-12-22T15:53:11.598Z</time>
      </trkpt>
      <trkpt lat="45.54938" lon="-1.067">
        <ele>45.501657</ele>
        <time>2022-12-22T15:53:14.594Z</time>
      </trkpt>
      <trkpt lat="45.54931" lon="-1.06711">
        <ele>45.662198</ele>
        <time>2022-12-22T15:53:17.618Z</time>
      </trkpt>
      <trkpt lat="45.54922" lon="-1.06723">
        <ele>45.846037</ele>
        <time>2022-12-22T15:53:20.593Z</time>
      </trkpt>
      <trkpt lat="45.54914" lon="-1.06737">
        <ele>46.032922</ele>
        <time>2022-12-22T15:53:23.616Z</time>
      </trkpt>
      <trkpt lat="45.54908" lon="-1.06751">
        <ele>46.194116</ele>
        <time>2022-12-22T15:53:26.619Z</time>
      </trkpt>
      <trkpt lat="45.54904" lon="-1.06765">
        <ele>46.35281</ele>
        <time>2022-12-22T15:53:29.608Z</time>
      </trkpt>
      <trkpt lat="45.549" lon="-1.0678">
        <ele>46.522811</ele>
        <time>2022-12-22T15:53:32.603Z</time>
      </trkpt>
      <trkpt lat="45.54897" lon="-1.06796">
        <ele>46.69938</ele>
        <time>2022-12-22T15:53:35.590Z</time>
      </trkpt>
      <trkpt lat="45.54893" lon="-1.06812">
        <ele>46.679281</ele>
        <time>2022-12-22T15:53:38.589Z</time>
      </trkpt>
      <trkpt lat="45.5489" lon="-1.06827">
        <ele>46.564635</ele>
        <time>2022-12-22T15:53:41.593Z</time>
      </trkpt>
      <trkpt lat="45.54887" lon="-1.06841">
        <ele>46.459153</ele>
        <time>2022-12-22T15:53:44.619Z</time>
      </trkpt>
      <trkpt lat="45.54883" lon="-1.06854">
        <ele>46.349296</ele>
        <time>2022-12-22T15:53:47.619Z</time>
      </trkpt>
      <trkpt lat="45.54875" lon="-1.06863">
        <ele>46.241353</ele>
        <time>2022-12-22T15:53:50.613Z</time>
      </trkpt>
      <trkpt lat="45.54866" lon="-1.06866">
        <ele>46.141158</ele>
        <time>2022-12-22T15:53:53.590Z</time>
      </trkpt>
      <trkpt lat="45.54856" lon="-1.06862">
        <ele>46.034159</ele>
        <time>2022-12-22T15:53:56.619Z</time>
      </trkpt>
      <trkpt lat="45.54848" lon="-1.06854">
        <ele>45.931592</ele>
        <time>2022-12-22T15:53:59.594Z</time>
      </trkpt>
      <trkpt lat="45.5484" lon="-1.06845">
        <ele>45.826844</ele>
        <time>2022-12-22T15:54:02.593Z</time>
      </trkpt>
      <trkpt lat="45.54833" lon="-1.06836">
        <ele>45.725382</ele>
        <time>2022-12-22T15:54:05.617Z</time>
      </trkpt>
      <trkpt lat="45.54826" lon="-1.06827">
        <ele>45.618049</ele>
        <time>2022-12-22T15:54:08.598Z</time>
      </trkpt>
      <trkpt lat="45.54818" lon="-1.06815">
        <ele>45.499744</ele>
        <time>2022-12-22T15:54:11.616Z</time>
      </trkpt>
      <trkpt lat="45.5481" lon="-1.06805">
        <ele>45.38827</ele>
        <time>2022-12-22T15:54:14.591Z</time>
      </trkpt>
      <trkpt lat="45.54802" lon="-1.06798">
        <ele>45.283009</ele>
        <time>2022-12-22T15:54:17.614Z</time>
      </trkpt>
      <trkpt lat="45.54793" lon="-1.06794">
        <ele>45.18647</ele>
        <time>2022-12-22T15:54:20.619Z</time>
      </trkpt>
      <trkpt lat="45.54783" lon="-1.06796">
        <ele>45.075146</ele>
        <time>2022-12-22T15:54:24.607Z</time>
      </trkpt>
      <trkpt lat="45.54774" lon="-1.06804">
        <ele>44.968179</ele>
        <time>2022-12-22T15:54:27.618Z</time>
      </trkpt>
      <trkpt lat="45.54766" lon="-1.06812">
        <ele>44.860389</ele>
        <time>2022-12-22T15:54:30.619Z</time>
      </trkpt>
      <trkpt lat="45.54759" lon="-1.06822">
        <ele>45.318988</ele>
        <time>2022-12-22T15:54:33.618Z</time>
      </trkpt>
      <trkpt lat="45.54752" lon="-1.06832">
        <ele>45.805078</ele>
        <time>2022-12-22T15:54:36.609Z</time>
      </trkpt>
      <trkpt lat="45.54745" lon="-1.06844">
        <ele>46.380599</ele>
        <time>2022-12-22T15:54:40.606Z</time>
      </trkpt>
      <trkpt lat="45.54739" lon="-1.06858">
        <ele>46.967616</ele>
        <time>2022-12-22T15:54:44.619Z</time>
      </trkpt>
      <trkpt lat="45.54735" lon="-1.06873">
        <ele>47.53993</ele>
        <time>2022-12-22T15:54:48.620Z</time>
      </trkpt>
      <trkpt lat="45.54732" lon="-1.06889">
        <ele>48.141587</ele>
        <time>2022-12-22T15:54:52.589Z</time>
      </trkpt>
      <trkpt lat="45.5473" lon="-1.06905">
        <ele>48.705954</ele>
        <time>2022-12-22T15:54:56.586Z</time>
      </trkpt>
      <trkpt lat="45.5473" lon="-1.0692">
        <ele>49.258306</ele>
        <time>2022-12-22T15:55:00.618Z</time>
      </trkpt>
      <trkpt lat="45.54731" lon="-1.06936">
        <ele>49.83187</ele>
        <time>2022-12-22T15:55:04.589Z</time>
      </trkpt>
      <trkpt lat="45.54733" lon="-1.06951">
        <ele>50.390089</ele>
        <time>2022-12-22T15:55:08.611Z</time>
      </trkpt>
      <trkpt lat="45.54734" lon="-1.06965">
        <ele>50.8966</ele>
        <time>2022-12-22T15:55:12.592Z</time>
      </trkpt>
      <trkpt lat="45.54736" lon="-1.0698">
        <ele>51.440039</ele>
        <time>2022-12-22T15:55:16.582Z</time>
      </trkpt>
      <trkpt lat="45.54737" lon="-1.06995">
        <ele>51.984225</ele>
        <time>2022-12-22T15:55:20.598Z</time>
      </trkpt>
      <trkpt lat="45.54739" lon="-1.07009">
        <ele>52.471059</ele>
        <time>2022-12-22T15:55:24.618Z</time>
      </trkpt>
      <trkpt lat="45.5474" lon="-1.07022">
        <ele>52.949141</ele>
        <time>2022-12-22T15:55:28.588Z</time>
      </trkpt>
      <trkpt lat="45.54742" lon="-1.07035">
        <ele>53.414601</ele>
        <time>2022-12-22T15:55:32.590Z</time>
      </trkpt>
      <trkpt lat="45.54745" lon="-1.07048">
        <ele>53.906393</ele>
        <time>2022-12-22T15:55:37.605Z</time>
      </trkpt>
      <trkpt lat="45.54746" lon="-1.07062">
        <ele>54.189066</ele>
        <time>2022-12-22T15:55:41.605Z</time>
      </trkpt>
      <trkpt lat="45.54748" lon="-1.07076">
        <ele>54.379932</ele>
        <time>2022-12-22T15:55:45.583Z</time>
      </trkpt>
      <trkpt lat="45.54748" lon="-1.07091">
        <ele>54.573913</ele>
        <time>2022-12-22T15:55:49.593Z</time>
      </trkpt>
      <trkpt lat="45.54749" lon="-1.07106">
        <ele>54.769203</ele>
        <time>2022-12-22T15:55:53.607Z</time>
      </trkpt>
      <trkpt lat="45.54751" lon="-1.07121">
        <ele>54.975447</ele>
        <time>2022-12-22T15:55:57.618Z</time>
      </trkpt>
      <trkpt lat="45.54752" lon="-1.07138">
        <ele>55.193334</ele>
        <time>2022-12-22T15:56:01.619Z</time>
      </trkpt>
      <trkpt lat="45.54753" lon="-1.07151">
        <ele>55.365912</ele>
        <time>2022-12-22T15:56:04.608Z</time>
      </trkpt>
      <trkpt lat="45.54752" lon="-1.07164">
        <ele>55.5369</ele>
        <time>2022-12-22T15:56:07.604Z</time>
      </trkpt>
      <trkpt lat="45.54751" lon="-1.07179">
        <ele>55.740214</ele>
        <time>2022-12-22T15:56:11.619Z</time>
      </trkpt>
      <trkpt lat="45.54747" lon="-1.07204">
        <ele>56.070923</ele>
        <time>2022-12-22T15:56:57.618Z</time>
      </trkpt>
      <trkpt lat="45.54745" lon="-1.07217">
        <ele>56.252447</ele>
        <time>2022-12-22T15:57:00.615Z</time>
      </trkpt>
      <trkpt lat="45.54743" lon="-1.07233">
        <ele>56.463859</ele>
        <time>2022-12-22T15:57:03.589Z</time>
      </trkpt>
      <trkpt lat="45.54741" lon="-1.07249">
        <ele>56.680231</ele>
        <time>2022-12-22T15:57:06.615Z</time>
      </trkpt>
      <trkpt lat="45.54741" lon="-1.07267">
        <ele>56.9182</ele>
        <time>2022-12-22T15:57:09.602Z</time>
      </trkpt>
      <trkpt lat="45.54741" lon="-1.07285">
        <ele>57.150889</ele>
        <time>2022-12-22T15:57:12.615Z</time>
      </trkpt>
      <trkpt lat="45.54741" lon="-1.07304">
        <ele>57.399353</ele>
        <time>2022-12-22T15:57:15.589Z</time>
      </trkpt>
      <trkpt lat="45.54739" lon="-1.07321">
        <ele>56.93728</ele>
        <time>2022-12-22T15:57:18.585Z</time>
      </trkpt>
      <trkpt lat="45.54737" lon="-1.0734">
        <ele>56.305168</ele>
        <time>2022-12-22T15:57:21.617Z</time>
      </trkpt>
      <trkpt lat="45.54735" lon="-1.07358">
        <ele>55.666005</ele>
        <time>2022-12-22T15:57:24.604Z</time>
      </trkpt>
      <trkpt lat="45.54732" lon="-1.07376">
        <ele>55.057175</ele>
        <time>2022-12-22T15:57:27.587Z</time>
      </trkpt>
      <trkpt lat="45.5473" lon="-1.07389">
        <ele>54.60866</ele>
        <time>2022-12-22T15:57:29.590Z</time>
      </trkpt>
      <trkpt lat="45.54728" lon="-1.07402">
        <ele>54.16455</ele>
        <time>2022-12-22T15:57:31.588Z</time>
      </trkpt>
      <trkpt lat="45.54724" lon="-1.0742">
        <ele>53.540831</ele>
        <time>2022-12-22T15:57:34.595Z</time>
      </trkpt>
      <trkpt lat="45.54722" lon="-1.07437">
        <ele>52.929668</ele>
        <time>2022-12-22T15:57:37.585Z</time>
      </trkpt>
      <trkpt lat="45.54719" lon="-1.07455">
        <ele>52.32413</ele>
        <time>2022-12-22T15:57:40.588Z</time>
      </trkpt>
      <trkpt lat="45.54716" lon="-1.07473">
        <ele>51.699055</ele>
        <time>2022-12-22T15:57:43.591Z</time>
      </trkpt>
      <trkpt lat="45.54713" lon="-1.07491">
        <ele>51.064077</ele>
        <time>2022-12-22T15:57:46.592Z</time>
      </trkpt>
      <trkpt lat="45.54711" lon="-1.07505">
        <ele>50.61466</ele>
        <time>2022-12-22T15:57:48.595Z</time>
      </trkpt>
      <trkpt lat="45.54708" lon="-1.07522">
        <ele>50.008133</ele>
        <time>2022-12-22T15:57:51.616Z</time>
      </trkpt>
      <trkpt lat="45.54705" lon="-1.0754">
        <ele>49.381967</ele>
        <time>2022-12-22T15:57:54.615Z</time>
      </trkpt>
      <trkpt lat="45.54703" lon="-1.07553">
        <ele>48.935</ele>
        <time>2022-12-22T15:57:56.604Z</time>
      </trkpt>
      <trkpt lat="45.547" lon="-1.07565">
        <ele>48.822723</ele>
        <time>2022-12-22T15:57:58.594Z</time>
      </trkpt>
      <trkpt lat="45.54698" lon="-1.07579">
        <ele>48.873925</ele>
        <time>2022-12-22T15:58:00.595Z</time>
      </trkpt>
      <trkpt lat="45.54696" lon="-1.07592">
        <ele>48.924389</ele>
        <time>2022-12-22T15:58:02.618Z</time>
      </trkpt>
      <trkpt lat="45.54694" lon="-1.07605">
        <ele>48.976341</ele>
        <time>2022-12-22T15:58:04.614Z</time>
      </trkpt>
      <trkpt lat="45.54691" lon="-1.07623">
        <ele>49.046455</ele>
        <time>2022-12-22T15:58:07.615Z</time>
      </trkpt>
      <trkpt lat="45.54688" lon="-1.07641">
        <ele>49.117057</ele>
        <time>2022-12-22T15:58:10.592Z</time>
      </trkpt>
      <trkpt lat="45.54685" lon="-1.07658">
        <ele>49.183504</ele>
        <time>2022-12-22T15:58:13.594Z</time>
      </trkpt>
      <trkpt lat="45.54683" lon="-1.07673">
        <ele>49.24107</ele>
        <time>2022-12-22T15:58:16.621Z</time>
      </trkpt>
      <trkpt lat="45.54681" lon="-1.07687">
        <ele>49.294604</ele>
        <time>2022-12-22T15:58:19.619Z</time>
      </trkpt>
      <trkpt lat="45.54678" lon="-1.077">
        <ele>49.346544</ele>
        <time>2022-12-22T15:58:22.619Z</time>
      </trkpt>
      <trkpt lat="45.54677" lon="-1.07714">
        <ele>49.398898</ele>
        <time>2022-12-22T15:58:25.588Z</time>
      </trkpt>
      <trkpt lat="45.54674" lon="-1.07728">
        <ele>49.454698</ele>
        <time>2022-12-22T15:58:28.591Z</time>
      </trkpt>
      <trkpt lat="45.54672" lon="-1.07744">
        <ele>49.51479</ele>
        <time>2022-12-22T15:58:31.611Z</time>
      </trkpt>
      <trkpt lat="45.5467" lon="-1.0776">
        <ele>49.576314</ele>
        <time>2022-12-22T15:58:34.600Z</time>
      </trkpt>
      <trkpt lat="45.54667" lon="-1.07775">
        <ele>49.637706</ele>
        <time>2022-12-22T15:58:37.617Z</time>
      </trkpt>
      <trkpt lat="45.54665" lon="-1.07792">
        <ele>49.701343</ele>
        <time>2022-12-22T15:58:40.597Z</time>
      </trkpt>
      <trkpt lat="45.54663" lon="-1.07809">
        <ele>49.760956</ele>
        <time>2022-12-22T15:58:43.607Z</time>
      </trkpt>
      <trkpt lat="45.5466" lon="-1.07825">
        <ele>49.754245</ele>
        <time>2022-12-22T15:58:46.606Z</time>
      </trkpt>
      <trkpt lat="45.54658" lon="-1.07842">
        <ele>49.747541</ele>
        <time>2022-12-22T15:58:49.601Z</time>
      </trkpt>
      <trkpt lat="45.54655" lon="-1.07858">
        <ele>49.741168</ele>
        <time>2022-12-22T15:58:52.613Z</time>
      </trkpt>
      <trkpt lat="45.54653" lon="-1.07874">
        <ele>49.734797</ele>
        <time>2022-12-22T15:58:55.597Z</time>
      </trkpt>
      <trkpt lat="45.54651" lon="-1.07891">
        <ele>49.728153</ele>
        <time>2022-12-22T15:58:58.619Z</time>
      </trkpt>
      <trkpt lat="45.54649" lon="-1.07907">
        <ele>49.721519</ele>
        <time>2022-12-22T15:59:01.593Z</time>
      </trkpt>
      <trkpt lat="45.54647" lon="-1.07924">
        <ele>49.71476</ele>
        <time>2022-12-22T15:59:04.592Z</time>
      </trkpt>
      <trkpt lat="45.54645" lon="-1.07942">
        <ele>49.707692</ele>
        <time>2022-12-22T15:59:07.618Z</time>
      </trkpt>
      <trkpt lat="45.54642" lon="-1.07959">
        <ele>49.700817</ele>
        <time>2022-12-22T15:59:10.596Z</time>
      </trkpt>
      <trkpt lat="45.5464" lon="-1.07975">
        <ele>49.694381</ele>
        <time>2022-12-22T15:59:13.592Z</time>
      </trkpt>
      <trkpt lat="45.54637" lon="-1.0799">
        <ele>49.688263</ele>
        <time>2022-12-22T15:59:16.619Z</time>
      </trkpt>
      <trkpt lat="45.54635" lon="-1.08006">
        <ele>49.682065</ele>
        <time>2022-12-22T15:59:19.598Z</time>
      </trkpt>
      <trkpt lat="45.54633" lon="-1.08021">
        <ele>49.675768</ele>
        <time>2022-12-22T15:59:22.633Z</time>
      </trkpt>
      <trkpt lat="45.5463" lon="-1.08038">
        <ele>49.669191</ele>
        <time>2022-12-22T15:59:25.616Z</time>
      </trkpt>
      <trkpt lat="45.54628" lon="-1.08054">
        <ele>49.662716</ele>
        <time>2022-12-22T15:59:28.610Z</time>
      </trkpt>
      <trkpt lat="45.54625" lon="-1.0807">
        <ele>49.647053</ele>
        <time>2022-12-22T15:59:31.620Z</time>
      </trkpt>
      <trkpt lat="45.54621" lon="-1.08087">
        <ele>49.626199</ele>
        <time>2022-12-22T15:59:34.598Z</time>
      </trkpt>
      <trkpt lat="45.54618" lon="-1.08104">
        <ele>49.605416</ele>
        <time>2022-12-22T15:59:37.601Z</time>
      </trkpt>
      <trkpt lat="45.54616" lon="-1.08119">
        <ele>49.586722</ele>
        <time>2022-12-22T15:59:40.618Z</time>
      </trkpt>
      <trkpt lat="45.54614" lon="-1.08136">
        <ele>49.566783</ele>
        <time>2022-12-22T15:59:43.617Z</time>
      </trkpt>
      <trkpt lat="45.54611" lon="-1.08152">
        <ele>49.547241</ele>
        <time>2022-12-22T15:59:46.595Z</time>
      </trkpt>
      <trkpt lat="45.54609" lon="-1.08169">
        <ele>49.526039</ele>
        <time>2022-12-22T15:59:49.615Z</time>
      </trkpt>
      <trkpt lat="45.54607" lon="-1.08187">
        <ele>49.504961</ele>
        <time>2022-12-22T15:59:52.618Z</time>
      </trkpt>
      <trkpt lat="45.54605" lon="-1.08204">
        <ele>49.484104</ele>
        <time>2022-12-22T15:59:55.590Z</time>
      </trkpt>
      <trkpt lat="45.54603" lon="-1.08221">
        <ele>49.463899</ele>
        <time>2022-12-22T15:59:58.594Z</time>
      </trkpt>
      <trkpt lat="45.54601" lon="-1.08235">
        <ele>49.446651</ele>
        <time>2022-12-22T16:00:01.602Z</time>
      </trkpt>
      <trkpt lat="45.54599" lon="-1.0825">
        <ele>49.428788</ele>
        <time>2022-12-22T16:00:04.619Z</time>
      </trkpt>
      <trkpt lat="45.54597" lon="-1.08267">
        <ele>49.408324</ele>
        <time>2022-12-22T16:00:07.593Z</time>
      </trkpt>
      <trkpt lat="45.54595" lon="-1.08285">
        <ele>49.387301</ele>
        <time>2022-12-22T16:00:10.617Z</time>
      </trkpt>
      <trkpt lat="45.54593" lon="-1.08303">
        <ele>49.365375</ele>
        <time>2022-12-22T16:00:13.594Z</time>
      </trkpt>
      <trkpt lat="45.5459" lon="-1.08321">
        <ele>49.349661</ele>
        <time>2022-12-22T16:00:16.591Z</time>
      </trkpt>
      <trkpt lat="45.54588" lon="-1.08339">
        <ele>49.339167</ele>
        <time>2022-12-22T16:00:19.603Z</time>
      </trkpt>
      <trkpt lat="45.54586" lon="-1.08357">
        <ele>49.32853</ele>
        <time>2022-12-22T16:00:22.612Z</time>
      </trkpt>
      <trkpt lat="45.54584" lon="-1.08375">
        <ele>49.317737</ele>
        <time>2022-12-22T16:00:25.604Z</time>
      </trkpt>
      <trkpt lat="45.54581" lon="-1.08393">
        <ele>49.307539</ele>
        <time>2022-12-22T16:00:28.598Z</time>
      </trkpt>
      <trkpt lat="45.54579" lon="-1.08409">
        <ele>49.29824</ele>
        <time>2022-12-22T16:00:31.601Z</time>
      </trkpt>
      <trkpt lat="45.54577" lon="-1.08425">
        <ele>49.288614</ele>
        <time>2022-12-22T16:00:34.599Z</time>
      </trkpt>
      <trkpt lat="45.54575" lon="-1.08442">
        <ele>49.278618</ele>
        <time>2022-12-22T16:00:37.601Z</time>
      </trkpt>
      <trkpt lat="45.54574" lon="-1.08459">
        <ele>49.26894</ele>
        <time>2022-12-22T16:00:40.600Z</time>
      </trkpt>
      <trkpt lat="45.54571" lon="-1.08476">
        <ele>49.258596</ele>
        <time>2022-12-22T16:00:43.619Z</time>
      </trkpt>
      <trkpt lat="45.54568" lon="-1.08494">
        <ele>49.248047</ele>
        <time>2022-12-22T16:00:46.595Z</time>
      </trkpt>
      <trkpt lat="45.54566" lon="-1.08512">
        <ele>49.23708</ele>
        <time>2022-12-22T16:00:49.598Z</time>
      </trkpt>
      <trkpt lat="45.54564" lon="-1.0853">
        <ele>49.226827</ele>
        <time>2022-12-22T16:00:52.619Z</time>
      </trkpt>
      <trkpt lat="45.54561" lon="-1.08546">
        <ele>49.21731</ele>
        <time>2022-12-22T16:00:55.609Z</time>
      </trkpt>
      <trkpt lat="45.54559" lon="-1.0856">
        <ele>49.208901</ele>
        <time>2022-12-22T16:00:58.596Z</time>
      </trkpt>
      <trkpt lat="45.54556" lon="-1.08575">
        <ele>49.22848</ele>
        <time>2022-12-22T16:01:01.601Z</time>
      </trkpt>
      <trkpt lat="45.54554" lon="-1.0859">
        <ele>49.255627</ele>
        <time>2022-12-22T16:01:04.596Z</time>
      </trkpt>
      <trkpt lat="45.54551" lon="-1.08605">
        <ele>49.284093</ele>
        <time>2022-12-22T16:01:07.607Z</time>
      </trkpt>
      <trkpt lat="45.54547" lon="-1.08621">
        <ele>49.313829</ele>
        <time>2022-12-22T16:01:10.600Z</time>
      </trkpt>
      <trkpt lat="45.54544" lon="-1.08638">
        <ele>49.345901</ele>
        <time>2022-12-22T16:01:13.619Z</time>
      </trkpt>
      <trkpt lat="45.54541" lon="-1.08656">
        <ele>49.378175</ele>
        <time>2022-12-22T16:01:16.593Z</time>
      </trkpt>
      <trkpt lat="45.54537" lon="-1.08673">
        <ele>49.410106</ele>
        <time>2022-12-22T16:01:19.597Z</time>
      </trkpt>
      <trkpt lat="45.54534" lon="-1.08689">
        <ele>49.440769</ele>
        <time>2022-12-22T16:01:22.609Z</time>
      </trkpt>
      <trkpt lat="45.54531" lon="-1.08705">
        <ele>49.47017</ele>
        <time>2022-12-22T16:01:25.598Z</time>
      </trkpt>
      <trkpt lat="45.54528" lon="-1.08721">
        <ele>49.4986</ele>
        <time>2022-12-22T16:01:28.618Z</time>
      </trkpt>
      <trkpt lat="45.54525" lon="-1.08736">
        <ele>49.527823</ele>
        <time>2022-12-22T16:01:31.591Z</time>
      </trkpt>
      <trkpt lat="45.54522" lon="-1.08752">
        <ele>49.556561</ele>
        <time>2022-12-22T16:01:34.618Z</time>
      </trkpt>
      <trkpt lat="45.54519" lon="-1.08767">
        <ele>49.585058</ele>
        <time>2022-12-22T16:01:37.601Z</time>
      </trkpt>
      <trkpt lat="45.54516" lon="-1.08783">
        <ele>49.613866</ele>
        <time>2022-12-22T16:01:40.605Z</time>
      </trkpt>
      <trkpt lat="45.54512" lon="-1.08797">
        <ele>49.640121</ele>
        <time>2022-12-22T16:01:43.606Z</time>
      </trkpt>
      <trkpt lat="45.54509" lon="-1.08811">
        <ele>49.663933</ele>
        <time>2022-12-22T16:01:46.592Z</time>
      </trkpt>
      <trkpt lat="45.54507" lon="-1.08825">
        <ele>49.645299</ele>
        <time>2022-12-22T16:01:49.590Z</time>
      </trkpt>
      <trkpt lat="45.54504" lon="-1.0884">
        <ele>49.625197</ele>
        <time>2022-12-22T16:01:52.601Z</time>
      </trkpt>
      <trkpt lat="45.54501" lon="-1.08855">
        <ele>49.605419</ele>
        <time>2022-12-22T16:01:55.605Z</time>
      </trkpt>
      <trkpt lat="45.54497" lon="-1.08869">
        <ele>49.585579</ele>
        <time>2022-12-22T16:01:58.617Z</time>
      </trkpt>
      <trkpt lat="45.54494" lon="-1.08883">
        <ele>49.5663</ele>
        <time>2022-12-22T16:02:01.605Z</time>
      </trkpt>
      <trkpt lat="45.5449" lon="-1.08897">
        <ele>49.546654</ele>
        <time>2022-12-22T16:02:04.599Z</time>
      </trkpt>
      <trkpt lat="45.54487" lon="-1.08912">
        <ele>49.526277</ele>
        <time>2022-12-22T16:02:07.597Z</time>
      </trkpt>
      <trkpt lat="45.54483" lon="-1.08928">
        <ele>49.504253</ele>
        <time>2022-12-22T16:02:10.592Z</time>
      </trkpt>
      <trkpt lat="45.54479" lon="-1.08945">
        <ele>49.482168</ele>
        <time>2022-12-22T16:02:13.618Z</time>
      </trkpt>
      <trkpt lat="45.54475" lon="-1.0896">
        <ele>49.461181</ele>
        <time>2022-12-22T16:02:16.586Z</time>
      </trkpt>
      <trkpt lat="45.54471" lon="-1.08975">
        <ele>49.439987</ele>
        <time>2022-12-22T16:02:19.600Z</time>
      </trkpt>
      <trkpt lat="45.54467" lon="-1.0899">
        <ele>49.419531</ele>
        <time>2022-12-22T16:02:22.590Z</time>
      </trkpt>
      <trkpt lat="45.54462" lon="-1.09005">
        <ele>49.397703</ele>
        <time>2022-12-22T16:02:25.595Z</time>
      </trkpt>
      <trkpt lat="45.54457" lon="-1.09021">
        <ele>49.374962</ele>
        <time>2022-12-22T16:02:28.603Z</time>
      </trkpt>
      <trkpt lat="45.54452" lon="-1.09037">
        <ele>49.352471</ele>
        <time>2022-12-22T16:02:31.598Z</time>
      </trkpt>
      <trkpt lat="45.54447" lon="-1.09053">
        <ele>49.322565</ele>
        <time>2022-12-22T16:02:34.617Z</time>
      </trkpt>
      <trkpt lat="45.54441" lon="-1.09067">
        <ele>49.255628</ele>
        <time>2022-12-22T16:02:37.600Z</time>
      </trkpt>
      <trkpt lat="45.54437" lon="-1.09081">
        <ele>49.188121</ele>
        <time>2022-12-22T16:02:40.595Z</time>
      </trkpt>
      <trkpt lat="45.54432" lon="-1.09095">
        <ele>49.119472</ele>
        <time>2022-12-22T16:02:43.592Z</time>
      </trkpt>
      <trkpt lat="45.54427" lon="-1.0911">
        <ele>49.051318</ele>
        <time>2022-12-22T16:02:46.591Z</time>
      </trkpt>
      <trkpt lat="45.54422" lon="-1.09125">
        <ele>48.980284</ele>
        <time>2022-12-22T16:02:49.596Z</time>
      </trkpt>
      <trkpt lat="45.54416" lon="-1.09141">
        <ele>48.902615</ele>
        <time>2022-12-22T16:02:52.589Z</time>
      </trkpt>
      <trkpt lat="45.54411" lon="-1.09157">
        <ele>48.824664</ele>
        <time>2022-12-22T16:02:55.592Z</time>
      </trkpt>
      <trkpt lat="45.54405" lon="-1.09172">
        <ele>48.749065</ele>
        <time>2022-12-22T16:02:58.585Z</time>
      </trkpt>
      <trkpt lat="45.54398" lon="-1.09188">
        <ele>48.67137</ele>
        <time>2022-12-22T16:03:01.616Z</time>
      </trkpt>
      <trkpt lat="45.54392" lon="-1.09204">
        <ele>48.59171</ele>
        <time>2022-12-22T16:03:04.596Z</time>
      </trkpt>
      <trkpt lat="45.54385" lon="-1.0922">
        <ele>48.51131</ele>
        <time>2022-12-22T16:03:07.602Z</time>
      </trkpt>
      <trkpt lat="45.5438" lon="-1.09234">
        <ele>48.44505</ele>
        <time>2022-12-22T16:03:10.589Z</time>
      </trkpt>
      <trkpt lat="45.54374" lon="-1.09245">
        <ele>48.385309</ele>
        <time>2022-12-22T16:03:13.589Z</time>
      </trkpt>
      <trkpt lat="45.54368" lon="-1.09258">
        <ele>48.316073</ele>
        <time>2022-12-22T16:03:16.595Z</time>
      </trkpt>
      <trkpt lat="45.54361" lon="-1.09272">
        <ele>48.243687</ele>
        <time>2022-12-22T16:03:19.605Z</time>
      </trkpt>
      <trkpt lat="45.54354" lon="-1.09285">
        <ele>48.377077</ele>
        <time>2022-12-22T16:03:22.592Z</time>
      </trkpt>
      <trkpt lat="45.54348" lon="-1.09298">
        <ele>48.539684</ele>
        <time>2022-12-22T16:03:25.593Z</time>
      </trkpt>
      <trkpt lat="45.54341" lon="-1.0931">
        <ele>48.704493</ele>
        <time>2022-12-22T16:03:28.618Z</time>
      </trkpt>
      <trkpt lat="45.54334" lon="-1.09322">
        <ele>48.880552</ele>
        <time>2022-12-22T16:03:31.605Z</time>
      </trkpt>
      <trkpt lat="45.54327" lon="-1.09336">
        <ele>49.061716</ele>
        <time>2022-12-22T16:03:34.589Z</time>
      </trkpt>
      <trkpt lat="45.5432" lon="-1.0935">
        <ele>49.243673</ele>
        <time>2022-12-22T16:03:37.603Z</time>
      </trkpt>
      <trkpt lat="45.54313" lon="-1.09364">
        <ele>49.436243</ele>
        <time>2022-12-22T16:03:40.606Z</time>
      </trkpt>
      <trkpt lat="45.54307" lon="-1.09375">
        <ele>49.58136</ele>
        <time>2022-12-22T16:03:42.605Z</time>
      </trkpt>
      <trkpt lat="45.54301" lon="-1.09386">
        <ele>49.720286</ele>
        <time>2022-12-22T16:03:44.596Z</time>
      </trkpt>
      <trkpt lat="45.54293" lon="-1.094">
        <ele>49.915848</ele>
        <time>2022-12-22T16:03:47.617Z</time>
      </trkpt>
      <trkpt lat="45.54286" lon="-1.09413">
        <ele>50.095921</ele>
        <time>2022-12-22T16:03:50.605Z</time>
      </trkpt>
      <trkpt lat="45.54277" lon="-1.09426">
        <ele>50.289382</ele>
        <time>2022-12-22T16:03:53.618Z</time>
      </trkpt>
      <trkpt lat="45.54272" lon="-1.09437">
        <ele>50.436219</ele>
        <time>2022-12-22T16:03:55.597Z</time>
      </trkpt>
      <trkpt lat="45.54263" lon="-1.09452">
        <ele>50.642032</ele>
        <time>2022-12-22T16:03:58.621Z</time>
      </trkpt>
      <trkpt lat="45.54255" lon="-1.09466">
        <ele>50.838865</ele>
        <time>2022-12-22T16:04:01.599Z</time>
      </trkpt>
      <trkpt lat="45.54247" lon="-1.0948">
        <ele>50.938654</ele>
        <time>2022-12-22T16:04:04.598Z</time>
      </trkpt>
      <trkpt lat="45.54239" lon="-1.09492">
        <ele>50.753448</ele>
        <time>2022-12-22T16:04:07.602Z</time>
      </trkpt>
      <trkpt lat="45.54231" lon="-1.09505">
        <ele>50.548585</ele>
        <time>2022-12-22T16:04:10.600Z</time>
      </trkpt>
      <trkpt lat="45.54222" lon="-1.09518">
        <ele>50.350365</ele>
        <time>2022-12-22T16:04:13.611Z</time>
      </trkpt>
      <trkpt lat="45.54214" lon="-1.0953">
        <ele>50.154818</ele>
        <time>2022-12-22T16:04:16.592Z</time>
      </trkpt>
      <trkpt lat="45.54205" lon="-1.09543">
        <ele>49.947193</ele>
        <time>2022-12-22T16:04:19.593Z</time>
      </trkpt>
      <trkpt lat="45.54196" lon="-1.09555">
        <ele>49.741889</ele>
        <time>2022-12-22T16:04:22.599Z</time>
      </trkpt>
      <trkpt lat="45.54187" lon="-1.09568">
        <ele>49.538683</ele>
        <time>2022-12-22T16:04:25.610Z</time>
      </trkpt>
      <trkpt lat="45.54179" lon="-1.0958">
        <ele>49.351739</ele>
        <time>2022-12-22T16:04:28.599Z</time>
      </trkpt>
      <trkpt lat="45.5417" lon="-1.09592">
        <ele>49.156191</ele>
        <time>2022-12-22T16:04:31.618Z</time>
      </trkpt>
      <trkpt lat="45.54162" lon="-1.09603">
        <ele>48.974415</ele>
        <time>2022-12-22T16:04:34.611Z</time>
      </trkpt>
      <trkpt lat="45.54155" lon="-1.09613">
        <ele>48.811275</ele>
        <time>2022-12-22T16:04:37.591Z</time>
      </trkpt>
      <trkpt lat="45.54148" lon="-1.09622">
        <ele>48.655712</ele>
        <time>2022-12-22T16:04:40.595Z</time>
      </trkpt>
      <trkpt lat="45.5414" lon="-1.09631">
        <ele>48.492077</ele>
        <time>2022-12-22T16:04:43.595Z</time>
      </trkpt>
      <trkpt lat="45.54131" lon="-1.09642">
        <ele>48.310939</ele>
        <time>2022-12-22T16:04:47.602Z</time>
      </trkpt>
      <trkpt lat="45.54125" lon="-1.09651">
        <ele>48.162548</ele>
        <time>2022-12-22T16:04:52.598Z</time>
      </trkpt>
      <trkpt lat="45.54129" lon="-1.09663">
        <ele>48.000132</ele>
        <time>2022-12-22T16:05:40.616Z</time>
      </trkpt>
      <trkpt lat="45.54121" lon="-1.09668">
        <ele>47.825638</ele>
        <time>2022-12-22T16:07:21.602Z</time>
      </trkpt>
      <trkpt lat="45.54112" lon="-1.0967">
        <ele>47.643597</ele>
        <time>2022-12-22T16:07:27.587Z</time>
      </trkpt>
      <trkpt lat="45.54102" lon="-1.09679">
        <ele>47.41858</ele>
        <time>2022-12-22T16:07:32.601Z</time>
      </trkpt>
      <trkpt lat="45.54095" lon="-1.09689">
        <ele>47.235764</ele>
        <time>2022-12-22T16:07:35.612Z</time>
      </trkpt>
      <trkpt lat="45.54088" lon="-1.09698">
        <ele>47.042265</ele>
        <time>2022-12-22T16:07:38.604Z</time>
      </trkpt>
      <trkpt lat="45.5408" lon="-1.09709">
        <ele>46.833331</ele>
        <time>2022-12-22T16:07:41.602Z</time>
      </trkpt>
      <trkpt lat="45.54072" lon="-1.09719">
        <ele>46.624902</ele>
        <time>2022-12-22T16:07:44.598Z</time>
      </trkpt>
      <trkpt lat="45.54063" lon="-1.09729">
        <ele>46.404788</ele>
        <time>2022-12-22T16:07:47.601Z</time>
      </trkpt>
      <trkpt lat="45.54053" lon="-1.0974">
        <ele>46.165721</ele>
        <time>2022-12-22T16:07:50.594Z</time>
      </trkpt>
      <trkpt lat="45.54042" lon="-1.0975">
        <ele>45.917388</ele>
        <time>2022-12-22T16:07:53.609Z</time>
      </trkpt>
      <trkpt lat="45.54032" lon="-1.09761">
        <ele>45.668183</ele>
        <time>2022-12-22T16:07:56.597Z</time>
      </trkpt>
      <trkpt lat="45.54022" lon="-1.09771">
        <ele>45.434781</ele>
        <time>2022-12-22T16:07:59.620Z</time>
      </trkpt>
      <trkpt lat="45.54012" lon="-1.09779">
        <ele>45.220406</ele>
        <time>2022-12-22T16:08:02.595Z</time>
      </trkpt>
      <trkpt lat="45.54003" lon="-1.09786">
        <ele>45.019846</ele>
        <time>2022-12-22T16:08:05.594Z</time>
      </trkpt>
      <trkpt lat="45.53993" lon="-1.09794">
        <ele>44.792988</ele>
        <time>2022-12-22T16:08:08.618Z</time>
      </trkpt>
      <trkpt lat="45.53981" lon="-1.09802">
        <ele>44.560197</ele>
        <time>2022-12-22T16:08:11.596Z</time>
      </trkpt>
      <trkpt lat="45.53968" lon="-1.09809">
        <ele>44.40128</ele>
        <time>2022-12-22T16:08:14.611Z</time>
      </trkpt>
      <trkpt lat="45.5396" lon="-1.09814">
        <ele>44.293845</ele>
        <time>2022-12-22T16:08:16.612Z</time>
      </trkpt>
      <trkpt lat="45.53951" lon="-1.09819">
        <ele>44.182205</ele>
        <time>2022-12-22T16:08:18.598Z</time>
      </trkpt>
      <trkpt lat="45.53942" lon="-1.09825">
        <ele>44.063001</ele>
        <time>2022-12-22T16:08:20.601Z</time>
      </trkpt>
      <trkpt lat="45.5393" lon="-1.09831">
        <ele>43.910218</ele>
        <time>2022-12-22T16:08:23.608Z</time>
      </trkpt>
      <trkpt lat="45.53918" lon="-1.09837">
        <ele>43.760866</ele>
        <time>2022-12-22T16:08:26.599Z</time>
      </trkpt>
      <trkpt lat="45.53906" lon="-1.09842">
        <ele>43.610381</ele>
        <time>2022-12-22T16:08:29.588Z</time>
      </trkpt>
      <trkpt lat="45.53894" lon="-1.09847">
        <ele>43.468156</ele>
        <time>2022-12-22T16:08:32.602Z</time>
      </trkpt>
      <trkpt lat="45.53883" lon="-1.09852">
        <ele>43.324009</ele>
        <time>2022-12-22T16:08:35.598Z</time>
      </trkpt>
      <trkpt lat="45.5387" lon="-1.09856">
        <ele>43.175484</ele>
        <time>2022-12-22T16:08:38.596Z</time>
      </trkpt>
      <trkpt lat="45.53858" lon="-1.0986">
        <ele>43.024767</ele>
        <time>2022-12-22T16:08:41.599Z</time>
      </trkpt>
      <trkpt lat="45.53845" lon="-1.09862">
        <ele>42.873126</ele>
        <time>2022-12-22T16:08:44.607Z</time>
      </trkpt>
      <trkpt lat="45.53833" lon="-1.09865">
        <ele>42.722409</ele>
        <time>2022-12-22T16:08:47.611Z</time>
      </trkpt>
      <trkpt lat="45.5382" lon="-1.09868">
        <ele>42.573474</ele>
        <time>2022-12-22T16:08:50.608Z</time>
      </trkpt>
      <trkpt lat="45.53807" lon="-1.09871">
        <ele>42.425877</ele>
        <time>2022-12-22T16:08:53.606Z</time>
      </trkpt>
      <trkpt lat="45.53795" lon="-1.09874">
        <ele>42.288029</ele>
        <time>2022-12-22T16:08:56.600Z</time>
      </trkpt>
      <trkpt lat="45.53782" lon="-1.09878">
        <ele>42.155706</ele>
        <time>2022-12-22T16:08:59.621Z</time>
      </trkpt>
      <trkpt lat="45.53771" lon="-1.0988">
        <ele>42.03229</ele>
        <time>2022-12-22T16:09:02.602Z</time>
      </trkpt>
      <trkpt lat="45.53758" lon="-1.09883">
        <ele>41.892223</ele>
        <time>2022-12-22T16:09:05.603Z</time>
      </trkpt>
      <trkpt lat="45.53745" lon="-1.09886">
        <ele>41.755192</ele>
        <time>2022-12-22T16:09:08.614Z</time>
      </trkpt>
      <trkpt lat="45.53732" lon="-1.09888">
        <ele>41.614294</ele>
        <time>2022-12-22T16:09:11.606Z</time>
      </trkpt>
      <trkpt lat="45.53719" lon="-1.09891">
        <ele>41.477139</ele>
        <time>2022-12-22T16:09:14.610Z</time>
      </trkpt>
      <trkpt lat="45.53707" lon="-1.09895">
        <ele>41.342999</ele>
        <time>2022-12-22T16:09:17.606Z</time>
      </trkpt>
      <trkpt lat="45.53695" lon="-1.09897">
        <ele>41.211577</ele>
        <time>2022-12-22T16:09:20.603Z</time>
      </trkpt>
      <trkpt lat="45.53682" lon="-1.099">
        <ele>41.075105</ele>
        <time>2022-12-22T16:09:23.601Z</time>
      </trkpt>
      <trkpt lat="45.5367" lon="-1.09903">
        <ele>40.943566</ele>
        <time>2022-12-22T16:09:26.620Z</time>
      </trkpt>
      <trkpt lat="45.53658" lon="-1.09905">
        <ele>40.809807</ele>
        <time>2022-12-22T16:09:29.620Z</time>
      </trkpt>
      <trkpt lat="45.53645" lon="-1.09908">
        <ele>40.674996</ele>
        <time>2022-12-22T16:09:32.616Z</time>
      </trkpt>
      <trkpt lat="45.53633" lon="-1.09911">
        <ele>40.566218</ele>
        <time>2022-12-22T16:09:35.605Z</time>
      </trkpt>
      <trkpt lat="45.5362" lon="-1.09914">
        <ele>40.668934</ele>
        <time>2022-12-22T16:09:38.594Z</time>
      </trkpt>
      <trkpt lat="45.53608" lon="-1.09917">
        <ele>40.770672</ele>
        <time>2022-12-22T16:09:41.595Z</time>
      </trkpt>
      <trkpt lat="45.53595" lon="-1.09919">
        <ele>40.874506</ele>
        <time>2022-12-22T16:09:44.607Z</time>
      </trkpt>
      <trkpt lat="45.53584" lon="-1.09921">
        <ele>40.967811</ele>
        <time>2022-12-22T16:09:47.620Z</time>
      </trkpt>
      <trkpt lat="45.53572" lon="-1.09924">
        <ele>41.064567</ele>
        <time>2022-12-22T16:09:50.598Z</time>
      </trkpt>
      <trkpt lat="45.53561" lon="-1.09924">
        <ele>41.153832</ele>
        <time>2022-12-22T16:09:53.592Z</time>
      </trkpt>
      <trkpt lat="45.53549" lon="-1.09926">
        <ele>41.247549</ele>
        <time>2022-12-22T16:09:56.591Z</time>
      </trkpt>
      <trkpt lat="45.53537" lon="-1.09927">
        <ele>41.348284</ele>
        <time>2022-12-22T16:09:59.619Z</time>
      </trkpt>
      <trkpt lat="45.53525" lon="-1.09928">
        <ele>41.446485</ele>
        <time>2022-12-22T16:10:02.617Z</time>
      </trkpt>
      <trkpt lat="45.53515" lon="-1.0993">
        <ele>41.528467</ele>
        <time>2022-12-22T16:10:05.600Z</time>
      </trkpt>
      <trkpt lat="45.53508" lon="-1.09943">
        <ele>41.624796</ele>
        <time>2022-12-22T16:10:09.619Z</time>
      </trkpt>
      <trkpt lat="45.53501" lon="-1.09957">
        <ele>41.719267</ele>
        <time>2022-12-22T16:10:12.591Z</time>
      </trkpt>
      <trkpt lat="45.53491" lon="-1.09968">
        <ele>41.819467</ele>
        <time>2022-12-22T16:10:15.606Z</time>
      </trkpt>
      <trkpt lat="45.5348" lon="-1.09978">
        <ele>41.923742</ele>
        <time>2022-12-22T16:10:18.595Z</time>
      </trkpt>
      <trkpt lat="45.53469" lon="-1.09985">
        <ele>42.029478</ele>
        <time>2022-12-22T16:10:21.600Z</time>
      </trkpt>
      <trkpt lat="45.5346" lon="-1.09992">
        <ele>42.194946</ele>
        <time>2022-12-22T16:10:24.596Z</time>
      </trkpt>
      <trkpt lat="45.53452" lon="-1.1">
        <ele>42.338225</ele>
        <time>2022-12-22T16:10:27.608Z</time>
      </trkpt>
      <trkpt lat="45.53442" lon="-1.10009">
        <ele>42.506397</ele>
        <time>2022-12-22T16:10:31.623Z</time>
      </trkpt>
      <trkpt lat="45.53427" lon="-1.10017">
        <ele>42.742794</ele>
        <time>2022-12-22T16:11:25.601Z</time>
      </trkpt>
      <trkpt lat="45.53417" lon="-1.10025">
        <ele>42.912358</ele>
        <time>2022-12-22T16:11:29.594Z</time>
      </trkpt>
      <trkpt lat="45.5341" lon="-1.10032">
        <ele>43.045731</ele>
        <time>2022-12-22T16:11:32.597Z</time>
      </trkpt>
      <trkpt lat="45.53401" lon="-1.10039">
        <ele>43.191976</ele>
        <time>2022-12-22T16:11:35.599Z</time>
      </trkpt>
      <trkpt lat="45.53392" lon="-1.10047">
        <ele>43.348328</ele>
        <time>2022-12-22T16:11:38.598Z</time>
      </trkpt>
      <trkpt lat="45.53383" lon="-1.10054">
        <ele>43.506173</ele>
        <time>2022-12-22T16:11:41.594Z</time>
      </trkpt>
      <trkpt lat="45.53373" lon="-1.10063">
        <ele>43.679004</ele>
        <time>2022-12-22T16:11:44.589Z</time>
      </trkpt>
      <trkpt lat="45.53364" lon="-1.10072">
        <ele>43.843552</ele>
        <time>2022-12-22T16:11:47.593Z</time>
      </trkpt>
      <trkpt lat="45.53355" lon="-1.1008">
        <ele>44.004477</ele>
        <time>2022-12-22T16:11:50.591Z</time>
      </trkpt>
      <trkpt lat="45.53346" lon="-1.10088">
        <ele>44.164728</ele>
        <time>2022-12-22T16:11:53.589Z</time>
      </trkpt>
      <trkpt lat="45.53338" lon="-1.10097">
        <ele>44.31098</ele>
        <time>2022-12-22T16:11:56.599Z</time>
      </trkpt>
      <trkpt lat="45.53329" lon="-1.10105">
        <ele>44.46267</ele>
        <time>2022-12-22T16:11:59.585Z</time>
      </trkpt>
      <trkpt lat="45.53321" lon="-1.10114">
        <ele>44.621074</ele>
        <time>2022-12-22T16:12:02.592Z</time>
      </trkpt>
      <trkpt lat="45.53313" lon="-1.10124">
        <ele>44.844834</ele>
        <time>2022-12-22T16:12:05.601Z</time>
      </trkpt>
      <trkpt lat="45.53304" lon="-1.10133">
        <ele>45.120728</ele>
        <time>2022-12-22T16:12:08.593Z</time>
      </trkpt>
      <trkpt lat="45.53295" lon="-1.10143">
        <ele>45.401231</ele>
        <time>2022-12-22T16:12:11.601Z</time>
      </trkpt>
      <trkpt lat="45.53287" lon="-1.10153">
        <ele>45.682382</ele>
        <time>2022-12-22T16:12:14.602Z</time>
      </trkpt>
      <trkpt lat="45.53279" lon="-1.10163">
        <ele>45.947381</ele>
        <time>2022-12-22T16:12:17.612Z</time>
      </trkpt>
      <trkpt lat="45.53272" lon="-1.10173">
        <ele>46.209795</ele>
        <time>2022-12-22T16:12:20.596Z</time>
      </trkpt>
      <trkpt lat="45.53264" lon="-1.10184">
        <ele>46.473681</ele>
        <time>2022-12-22T16:12:23.600Z</time>
      </trkpt>
      <trkpt lat="45.53257" lon="-1.10195">
        <ele>46.739714</ele>
        <time>2022-12-22T16:12:26.613Z</time>
      </trkpt>
      <trkpt lat="45.53251" lon="-1.10205">
        <ele>46.987608</ele>
        <time>2022-12-22T16:12:29.607Z</time>
      </trkpt>
      <trkpt lat="45.53244" lon="-1.10216">
        <ele>47.237605</ele>
        <time>2022-12-22T16:12:32.592Z</time>
      </trkpt>
      <trkpt lat="45.53237" lon="-1.10226">
        <ele>47.486302</ele>
        <time>2022-12-22T16:12:35.604Z</time>
      </trkpt>
      <trkpt lat="45.5323" lon="-1.10236">
        <ele>47.744416</ele>
        <time>2022-12-22T16:12:38.590Z</time>
      </trkpt>
      <trkpt lat="45.53224" lon="-1.10246">
        <ele>47.986645</ele>
        <time>2022-12-22T16:12:41.609Z</time>
      </trkpt>
      <trkpt lat="45.53217" lon="-1.10256">
        <ele>48.232759</ele>
        <time>2022-12-22T16:12:44.611Z</time>
      </trkpt>
      <trkpt lat="45.5321" lon="-1.10267">
        <ele>48.488401</ele>
        <time>2022-12-22T16:12:47.597Z</time>
      </trkpt>
      <trkpt lat="45.53203" lon="-1.10277">
        <ele>48.741431</ele>
        <time>2022-12-22T16:12:50.603Z</time>
      </trkpt>
      <trkpt lat="45.53196" lon="-1.10288">
        <ele>49.004051</ele>
        <time>2022-12-22T16:12:53.623Z</time>
      </trkpt>
      <trkpt lat="45.53189" lon="-1.10299">
        <ele>49.252595</ele>
        <time>2022-12-22T16:12:56.601Z</time>
      </trkpt>
      <trkpt lat="45.53183" lon="-1.10309">
        <ele>49.271173</ele>
        <time>2022-12-22T16:12:59.620Z</time>
      </trkpt>
      <trkpt lat="45.53176" lon="-1.1032">
        <ele>49.290228</ele>
        <time>2022-12-22T16:13:02.622Z</time>
      </trkpt>
      <trkpt lat="45.53169" lon="-1.1033">
        <ele>49.309316</ele>
        <time>2022-12-22T16:13:05.612Z</time>
      </trkpt>
      <trkpt lat="45.53162" lon="-1.10341">
        <ele>49.329305</ele>
        <time>2022-12-22T16:13:08.588Z</time>
      </trkpt>
      <trkpt lat="45.53154" lon="-1.10354">
        <ele>49.350458</ele>
        <time>2022-12-22T16:13:11.600Z</time>
      </trkpt>
      <trkpt lat="45.53147" lon="-1.10366">
        <ele>49.371734</ele>
        <time>2022-12-22T16:13:14.599Z</time>
      </trkpt>
      <trkpt lat="45.53139" lon="-1.10377">
        <ele>49.392814</ele>
        <time>2022-12-22T16:13:17.589Z</time>
      </trkpt>
      <trkpt lat="45.53131" lon="-1.10389">
        <ele>49.414412</ele>
        <time>2022-12-22T16:13:20.597Z</time>
      </trkpt>
      <trkpt lat="45.53124" lon="-1.10401">
        <ele>49.435618</ele>
        <time>2022-12-22T16:13:23.596Z</time>
      </trkpt>
      <trkpt lat="45.53116" lon="-1.10413">
        <ele>49.456922</ele>
        <time>2022-12-22T16:13:26.620Z</time>
      </trkpt>
      <trkpt lat="45.53108" lon="-1.10426">
        <ele>49.479413</ele>
        <time>2022-12-22T16:13:29.598Z</time>
      </trkpt>
      <trkpt lat="45.531" lon="-1.10439">
        <ele>49.501711</ele>
        <time>2022-12-22T16:13:32.596Z</time>
      </trkpt>
      <trkpt lat="45.53092" lon="-1.10451">
        <ele>49.523589</ele>
        <time>2022-12-22T16:13:35.594Z</time>
      </trkpt>
      <trkpt lat="45.53085" lon="-1.10463">
        <ele>49.544795</ele>
        <time>2022-12-22T16:13:38.592Z</time>
      </trkpt>
      <trkpt lat="45.53077" lon="-1.10474">
        <ele>49.565263</ele>
        <time>2022-12-22T16:13:41.603Z</time>
      </trkpt>
      <trkpt lat="45.5307" lon="-1.10486">
        <ele>49.5857</ele>
        <time>2022-12-22T16:13:44.596Z</time>
      </trkpt>
      <trkpt lat="45.53063" lon="-1.10497">
        <ele>49.402621</ele>
        <time>2022-12-22T16:13:47.603Z</time>
      </trkpt>
      <trkpt lat="45.53055" lon="-1.10508">
        <ele>49.162499</ele>
        <time>2022-12-22T16:13:50.591Z</time>
      </trkpt>
      <trkpt lat="45.53048" lon="-1.1052">
        <ele>48.92942</ele>
        <time>2022-12-22T16:13:53.606Z</time>
      </trkpt>
      <trkpt lat="45.5304" lon="-1.1053">
        <ele>48.694741</ele>
        <time>2022-12-22T16:13:56.593Z</time>
      </trkpt>
      <trkpt lat="45.53033" lon="-1.10542">
        <ele>48.464877</ele>
        <time>2022-12-22T16:13:59.595Z</time>
      </trkpt>
      <trkpt lat="45.53026" lon="-1.10553">
        <ele>48.23726</ele>
        <time>2022-12-22T16:14:02.608Z</time>
      </trkpt>
      <trkpt lat="45.53019" lon="-1.10565">
        <ele>47.996429</ele>
        <time>2022-12-22T16:14:05.610Z</time>
      </trkpt>
      <trkpt lat="45.53011" lon="-1.10577">
        <ele>47.758533</ele>
        <time>2022-12-22T16:14:08.621Z</time>
      </trkpt>
      <trkpt lat="45.53003" lon="-1.10588">
        <ele>47.513858</ele>
        <time>2022-12-22T16:14:11.603Z</time>
      </trkpt>
      <trkpt lat="45.52995" lon="-1.10599">
        <ele>47.265927</ele>
        <time>2022-12-22T16:14:14.606Z</time>
      </trkpt>
      <trkpt lat="45.52986" lon="-1.1061">
        <ele>47.008705</ele>
        <time>2022-12-22T16:14:17.599Z</time>
      </trkpt>
      <trkpt lat="45.52977" lon="-1.10621">
        <ele>46.752796</ele>
        <time>2022-12-22T16:14:20.621Z</time>
      </trkpt>
      <trkpt lat="45.52967" lon="-1.10631">
        <ele>46.491937</ele>
        <time>2022-12-22T16:14:23.622Z</time>
      </trkpt>
      <trkpt lat="45.52957" lon="-1.1064">
        <ele>46.237065</ele>
        <time>2022-12-22T16:14:26.622Z</time>
      </trkpt>
      <trkpt lat="45.52947" lon="-1.10651">
        <ele>45.964856</ele>
        <time>2022-12-22T16:14:29.602Z</time>
      </trkpt>
      <trkpt lat="45.52936" lon="-1.1066">
        <ele>45.674104</ele>
        <time>2022-12-22T16:14:32.601Z</time>
      </trkpt>
      <trkpt lat="45.52927" lon="-1.10667">
        <ele>45.404507</ele>
        <time>2022-12-22T16:14:34.603Z</time>
      </trkpt>
      <trkpt lat="45.52919" lon="-1.10673">
        <ele>45.14778</ele>
        <time>2022-12-22T16:14:36.597Z</time>
      </trkpt>
      <trkpt lat="45.5291" lon="-1.10679">
        <ele>44.866242</ele>
        <time>2022-12-22T16:14:38.624Z</time>
      </trkpt>
      <trkpt lat="45.52902" lon="-1.10683">
        <ele>44.607815</ele>
        <time>2022-12-22T16:14:40.601Z</time>
      </trkpt>
      <trkpt lat="45.5289" lon="-1.10689">
        <ele>44.243129</ele>
        <time>2022-12-22T16:14:43.594Z</time>
      </trkpt>
      <trkpt lat="45.52878" lon="-1.10694">
        <ele>43.886028</ele>
        <time>2022-12-22T16:14:46.621Z</time>
      </trkpt>
      <trkpt lat="45.52869" lon="-1.10698">
        <ele>43.627378</ele>
        <time>2022-12-22T16:14:48.622Z</time>
      </trkpt>
      <trkpt lat="45.5286" lon="-1.10702">
        <ele>43.352935</ele>
        <time>2022-12-22T16:14:50.621Z</time>
      </trkpt>
      <trkpt lat="45.52846" lon="-1.10705">
        <ele>42.966696</ele>
        <time>2022-12-22T16:14:53.600Z</time>
      </trkpt>
      <trkpt lat="45.52837" lon="-1.10707">
        <ele>42.702429</ele>
        <time>2022-12-22T16:14:55.604Z</time>
      </trkpt>
      <trkpt lat="45.52825" lon="-1.1071">
        <ele>42.342407</ele>
        <time>2022-12-22T16:14:58.609Z</time>
      </trkpt>
      <trkpt lat="45.52812" lon="-1.10712">
        <ele>41.968455</ele>
        <time>2022-12-22T16:15:01.610Z</time>
      </trkpt>
      <trkpt lat="45.52798" lon="-1.10713">
        <ele>41.595608</ele>
        <time>2022-12-22T16:15:04.625Z</time>
      </trkpt>
      <trkpt lat="45.52789" lon="-1.10714">
        <ele>41.328014</ele>
        <time>2022-12-22T16:15:06.620Z</time>
      </trkpt>
      <trkpt lat="45.5278" lon="-1.10713">
        <ele>41.060666</ele>
        <time>2022-12-22T16:15:08.587Z</time>
      </trkpt>
      <trkpt lat="45.5277" lon="-1.10713">
        <ele>40.796249</ele>
        <time>2022-12-22T16:15:10.595Z</time>
      </trkpt>
      <trkpt lat="45.52756" lon="-1.10714">
        <ele>40.488314</ele>
        <time>2022-12-22T16:15:13.618Z</time>
      </trkpt>
      <trkpt lat="45.52747" lon="-1.10713">
        <ele>40.347463</ele>
        <time>2022-12-22T16:15:15.596Z</time>
      </trkpt>
      <trkpt lat="45.52738" lon="-1.10713">
        <ele>40.214257</ele>
        <time>2022-12-22T16:15:17.597Z</time>
      </trkpt>
      <trkpt lat="45.52729" lon="-1.10714">
        <ele>40.07642</ele>
        <time>2022-12-22T16:15:19.594Z</time>
      </trkpt>
      <trkpt lat="45.52716" lon="-1.10714">
        <ele>39.883911</ele>
        <time>2022-12-22T16:15:22.612Z</time>
      </trkpt>
      <trkpt lat="45.52706" lon="-1.10714">
        <ele>39.744784</ele>
        <time>2022-12-22T16:15:24.598Z</time>
      </trkpt>
      <trkpt lat="45.52697" lon="-1.10715">
        <ele>39.608583</ele>
        <time>2022-12-22T16:15:26.599Z</time>
      </trkpt>
      <trkpt lat="45.52684" lon="-1.10715">
        <ele>39.416037</ele>
        <time>2022-12-22T16:15:29.592Z</time>
      </trkpt>
      <trkpt lat="45.52675" lon="-1.10716">
        <ele>39.276444</ele>
        <time>2022-12-22T16:15:31.619Z</time>
      </trkpt>
      <trkpt lat="45.52661" lon="-1.10717">
        <ele>39.081064</ele>
        <time>2022-12-22T16:15:34.592Z</time>
      </trkpt>
      <trkpt lat="45.5265" lon="-1.10717">
        <ele>38.91518</ele>
        <time>2022-12-22T16:15:37.591Z</time>
      </trkpt>
      <trkpt lat="45.52639" lon="-1.10718">
        <ele>38.743442</ele>
        <time>2022-12-22T16:15:40.601Z</time>
      </trkpt>
      <trkpt lat="45.52627" lon="-1.10718">
        <ele>38.565726</ele>
        <time>2022-12-22T16:15:43.612Z</time>
      </trkpt>
      <trkpt lat="45.52614" lon="-1.10718">
        <ele>38.380706</ele>
        <time>2022-12-22T16:15:46.620Z</time>
      </trkpt>
      <trkpt lat="45.52602" lon="-1.10719">
        <ele>38.194076</ele>
        <time>2022-12-22T16:15:49.597Z</time>
      </trkpt>
      <trkpt lat="45.52589" lon="-1.1072">
        <ele>38.007239</ele>
        <time>2022-12-22T16:15:52.619Z</time>
      </trkpt>
      <trkpt lat="45.52575" lon="-1.10721">
        <ele>38.049309</ele>
        <time>2022-12-22T16:15:55.590Z</time>
      </trkpt>
      <trkpt lat="45.52562" lon="-1.10721">
        <ele>38.271146</ele>
        <time>2022-12-22T16:15:58.596Z</time>
      </trkpt>
      <trkpt lat="45.52549" lon="-1.1072">
        <ele>38.496485</ele>
        <time>2022-12-22T16:16:01.619Z</time>
      </trkpt>
      <trkpt lat="45.52536" lon="-1.1072">
        <ele>38.714958</ele>
        <time>2022-12-22T16:16:04.595Z</time>
      </trkpt>
      <trkpt lat="45.52527" lon="-1.1072">
        <ele>38.865073</ele>
        <time>2022-12-22T16:16:06.618Z</time>
      </trkpt>
      <trkpt lat="45.52513" lon="-1.1072">
        <ele>39.085218</ele>
        <time>2022-12-22T16:16:09.622Z</time>
      </trkpt>
      <trkpt lat="45.52501" lon="-1.1072">
        <ele>39.287027</ele>
        <time>2022-12-22T16:16:12.605Z</time>
      </trkpt>
      <trkpt lat="45.52489" lon="-1.10719">
        <ele>39.497487</ele>
        <time>2022-12-22T16:16:15.596Z</time>
      </trkpt>
      <trkpt lat="45.52476" lon="-1.10719">
        <ele>39.70929</ele>
        <time>2022-12-22T16:16:18.595Z</time>
      </trkpt>
      <trkpt lat="45.52463" lon="-1.10719">
        <ele>39.92284</ele>
        <time>2022-12-22T16:16:21.598Z</time>
      </trkpt>
      <trkpt lat="45.5245" lon="-1.10719">
        <ele>40.141326</ele>
        <time>2022-12-22T16:16:24.597Z</time>
      </trkpt>
      <trkpt lat="45.52437" lon="-1.10718">
        <ele>40.35816</ele>
        <time>2022-12-22T16:16:27.622Z</time>
      </trkpt>
      <trkpt lat="45.52424" lon="-1.10719">
        <ele>40.573413</ele>
        <time>2022-12-22T16:16:30.620Z</time>
      </trkpt>
      <trkpt lat="45.52411" lon="-1.10719">
        <ele>40.790219</ele>
        <time>2022-12-22T16:16:33.597Z</time>
      </trkpt>
      <trkpt lat="45.52398" lon="-1.1072">
        <ele>40.892057</ele>
        <time>2022-12-22T16:16:36.611Z</time>
      </trkpt>
      <trkpt lat="45.52389" lon="-1.1072">
        <ele>40.845011</ele>
        <time>2022-12-22T16:16:38.598Z</time>
      </trkpt>
      <trkpt lat="45.52376" lon="-1.1072">
        <ele>40.77758</ele>
        <time>2022-12-22T16:16:41.596Z</time>
      </trkpt>
      <trkpt lat="45.52363" lon="-1.1072">
        <ele>40.709625</ele>
        <time>2022-12-22T16:16:44.593Z</time>
      </trkpt>
      <trkpt lat="45.5235" lon="-1.1072">
        <ele>40.640103</ele>
        <time>2022-12-22T16:16:47.601Z</time>
      </trkpt>
      <trkpt lat="45.52337" lon="-1.1072">
        <ele>40.57161</ele>
        <time>2022-12-22T16:16:50.591Z</time>
      </trkpt>
      <trkpt lat="45.52324" lon="-1.1072">
        <ele>40.506792</ele>
        <time>2022-12-22T16:16:53.594Z</time>
      </trkpt>
      <trkpt lat="45.52311" lon="-1.1072">
        <ele>40.440405</ele>
        <time>2022-12-22T16:16:56.612Z</time>
      </trkpt>
      <trkpt lat="45.52299" lon="-1.10721">
        <ele>40.374396</ele>
        <time>2022-12-22T16:16:59.596Z</time>
      </trkpt>
      <trkpt lat="45.52287" lon="-1.10722">
        <ele>40.311631</ele>
        <time>2022-12-22T16:17:02.590Z</time>
      </trkpt>
      <trkpt lat="45.52274" lon="-1.10722">
        <ele>40.245236</ele>
        <time>2022-12-22T16:17:05.625Z</time>
      </trkpt>
      <trkpt lat="45.52262" lon="-1.10723">
        <ele>40.181901</ele>
        <time>2022-12-22T16:17:08.589Z</time>
      </trkpt>
      <trkpt lat="45.52248" lon="-1.10723">
        <ele>40.110788</ele>
        <time>2022-12-22T16:17:11.618Z</time>
      </trkpt>
      <trkpt lat="45.52239" lon="-1.10723">
        <ele>40.062175</ele>
        <time>2022-12-22T16:17:13.618Z</time>
      </trkpt>
      <trkpt lat="45.52227" lon="-1.10724">
        <ele>39.998318</ele>
        <time>2022-12-22T16:17:16.595Z</time>
      </trkpt>
      <trkpt lat="45.52214" lon="-1.10725">
        <ele>40.196598</ele>
        <time>2022-12-22T16:17:19.602Z</time>
      </trkpt>
      <trkpt lat="45.52201" lon="-1.10726">
        <ele>40.48779</ele>
        <time>2022-12-22T16:17:22.604Z</time>
      </trkpt>
      <trkpt lat="45.52188" lon="-1.10727">
        <ele>40.77252</ele>
        <time>2022-12-22T16:17:25.598Z</time>
      </trkpt>
      <trkpt lat="45.52175" lon="-1.10729">
        <ele>41.063076</ele>
        <time>2022-12-22T16:17:28.594Z</time>
      </trkpt>
      <trkpt lat="45.52163" lon="-1.10732">
        <ele>41.352633</ele>
        <time>2022-12-22T16:17:31.593Z</time>
      </trkpt>
      <trkpt lat="45.52151" lon="-1.10735">
        <ele>41.62204</ele>
        <time>2022-12-22T16:17:34.596Z</time>
      </trkpt>
      <trkpt lat="45.5214" lon="-1.10738">
        <ele>41.876775</ele>
        <time>2022-12-22T16:17:37.596Z</time>
      </trkpt>
      <trkpt lat="45.52128" lon="-1.10741">
        <ele>42.145278</ele>
        <time>2022-12-22T16:17:40.609Z</time>
      </trkpt>
      <trkpt lat="45.52116" lon="-1.10745">
        <ele>42.421778</ele>
        <time>2022-12-22T16:17:43.599Z</time>
      </trkpt>
      <trkpt lat="45.52104" lon="-1.1075">
        <ele>42.698278</ele>
        <time>2022-12-22T16:17:46.595Z</time>
      </trkpt>
      <trkpt lat="45.52092" lon="-1.10754">
        <ele>42.972861</ele>
        <time>2022-12-22T16:17:49.587Z</time>
      </trkpt>
      <trkpt lat="45.5208" lon="-1.1076">
        <ele>43.254911</ele>
        <time>2022-12-22T16:17:52.599Z</time>
      </trkpt>
      <trkpt lat="45.52068" lon="-1.10766">
        <ele>43.543147</ele>
        <time>2022-12-22T16:17:55.595Z</time>
      </trkpt>
      <trkpt lat="45.52055" lon="-1.10772">
        <ele>43.83929</ele>
        <time>2022-12-22T16:17:58.595Z</time>
      </trkpt>
      <trkpt lat="45.52043" lon="-1.10779">
        <ele>44.065313</ele>
        <time>2022-12-22T16:18:01.593Z</time>
      </trkpt>
      <trkpt lat="45.52031" lon="-1.10786">
        <ele>44.195332</ele>
        <time>2022-12-22T16:18:04.620Z</time>
      </trkpt>
      <trkpt lat="45.52019" lon="-1.10793">
        <ele>44.322449</ele>
        <time>2022-12-22T16:18:07.604Z</time>
      </trkpt>
      <trkpt lat="45.52008" lon="-1.108">
        <ele>44.446764</ele>
        <time>2022-12-22T16:18:10.594Z</time>
      </trkpt>
      <trkpt lat="45.51997" lon="-1.10807">
        <ele>44.570183</ele>
        <time>2022-12-22T16:18:13.619Z</time>
      </trkpt>
      <trkpt lat="45.51986" lon="-1.10816">
        <ele>44.697361</ele>
        <time>2022-12-22T16:18:16.598Z</time>
      </trkpt>
      <trkpt lat="45.51975" lon="-1.10825">
        <ele>44.827651</ele>
        <time>2022-12-22T16:18:19.590Z</time>
      </trkpt>
      <trkpt lat="45.51964" lon="-1.10836">
        <ele>44.961607</ele>
        <time>2022-12-22T16:18:22.593Z</time>
      </trkpt>
      <trkpt lat="45.51953" lon="-1.10845">
        <ele>45.095086</ele>
        <time>2022-12-22T16:18:25.593Z</time>
      </trkpt>
      <trkpt lat="45.51941" lon="-1.10856">
        <ele>45.232043</ele>
        <time>2022-12-22T16:18:28.594Z</time>
      </trkpt>
      <trkpt lat="45.5193" lon="-1.10866">
        <ele>45.364916</ele>
        <time>2022-12-22T16:18:31.593Z</time>
      </trkpt>
      <trkpt lat="45.51919" lon="-1.10875">
        <ele>45.492101</ele>
        <time>2022-12-22T16:18:34.591Z</time>
      </trkpt>
      <trkpt lat="45.51909" lon="-1.10884">
        <ele>45.612022</ele>
        <time>2022-12-22T16:18:37.602Z</time>
      </trkpt>
      <trkpt lat="45.51898" lon="-1.10894">
        <ele>45.747968</ele>
        <time>2022-12-22T16:18:40.600Z</time>
      </trkpt>
      <trkpt lat="45.5189" lon="-1.10901">
        <ele>45.829633</ele>
        <time>2022-12-22T16:18:42.611Z</time>
      </trkpt>
      <trkpt lat="45.51879" lon="-1.10911">
        <ele>45.861116</ele>
        <time>2022-12-22T16:18:45.588Z</time>
      </trkpt>
      <trkpt lat="45.51868" lon="-1.10922">
        <ele>45.892008</ele>
        <time>2022-12-22T16:18:48.597Z</time>
      </trkpt>
      <trkpt lat="45.51857" lon="-1.10932">
        <ele>45.923906</ele>
        <time>2022-12-22T16:18:51.601Z</time>
      </trkpt>
      <trkpt lat="45.51845" lon="-1.10942">
        <ele>45.956097</ele>
        <time>2022-12-22T16:18:54.619Z</time>
      </trkpt>
      <trkpt lat="45.51834" lon="-1.10951">
        <ele>45.986481</ele>
        <time>2022-12-22T16:18:57.622Z</time>
      </trkpt>
      <trkpt lat="45.51825" lon="-1.10959">
        <ele>46.012266</ele>
        <time>2022-12-22T16:19:00.597Z</time>
      </trkpt>
      <trkpt lat="45.51816" lon="-1.10967">
        <ele>46.036965</ele>
        <time>2022-12-22T16:19:03.620Z</time>
      </trkpt>
      <trkpt lat="45.51807" lon="-1.10974">
        <ele>46.061814</ele>
        <time>2022-12-22T16:19:06.595Z</time>
      </trkpt>
      <trkpt lat="45.51798" lon="-1.10981">
        <ele>46.085657</ele>
        <time>2022-12-22T16:19:09.599Z</time>
      </trkpt>
      <trkpt lat="45.51789" lon="-1.10991">
        <ele>46.113649</ele>
        <time>2022-12-22T16:19:13.618Z</time>
      </trkpt>
      <trkpt lat="45.51779" lon="-1.10999">
        <ele>46.140324</ele>
        <time>2022-12-22T16:19:16.586Z</time>
      </trkpt>
      <trkpt lat="45.5177" lon="-1.11008">
        <ele>46.167725</ele>
        <time>2022-12-22T16:19:19.601Z</time>
      </trkpt>
      <trkpt lat="45.5176" lon="-1.11016">
        <ele>46.1955</ele>
        <time>2022-12-22T16:19:22.590Z</time>
      </trkpt>
      <trkpt lat="45.51751" lon="-1.11024">
        <ele>46.220524</ele>
        <time>2022-12-22T16:19:25.593Z</time>
      </trkpt>
      <trkpt lat="45.51741" lon="-1.11033">
        <ele>46.247268</ele>
        <time>2022-12-22T16:19:28.610Z</time>
      </trkpt>
      <trkpt lat="45.51731" lon="-1.11042">
        <ele>46.28321</ele>
        <time>2022-12-22T16:19:31.593Z</time>
      </trkpt>
      <trkpt lat="45.51722" lon="-1.11051">
        <ele>46.32212</ele>
        <time>2022-12-22T16:19:34.595Z</time>
      </trkpt>
      <trkpt lat="45.51712" lon="-1.11059">
        <ele>46.359596</ele>
        <time>2022-12-22T16:19:37.597Z</time>
      </trkpt>
      <trkpt lat="45.51704" lon="-1.11066">
        <ele>46.391277</ele>
        <time>2022-12-22T16:19:40.624Z</time>
      </trkpt>
      <trkpt lat="45.51696" lon="-1.11074">
        <ele>46.423493</ele>
        <time>2022-12-22T16:19:43.620Z</time>
      </trkpt>
      <trkpt lat="45.51687" lon="-1.11081">
        <ele>46.457826</ele>
        <time>2022-12-22T16:19:46.599Z</time>
      </trkpt>
      <trkpt lat="45.51677" lon="-1.11089">
        <ele>46.495471</ele>
        <time>2022-12-22T16:19:49.602Z</time>
      </trkpt>
      <trkpt lat="45.51668" lon="-1.11097">
        <ele>46.532709</ele>
        <time>2022-12-22T16:19:52.602Z</time>
      </trkpt>
      <trkpt lat="45.51658" lon="-1.11106">
        <ele>46.57247</ele>
        <time>2022-12-22T16:19:55.620Z</time>
      </trkpt>
      <trkpt lat="45.51647" lon="-1.11115">
        <ele>46.613139</ele>
        <time>2022-12-22T16:19:58.622Z</time>
      </trkpt>
      <trkpt lat="45.51637" lon="-1.11124">
        <ele>46.653472</ele>
        <time>2022-12-22T16:20:01.602Z</time>
      </trkpt>
      <trkpt lat="45.51627" lon="-1.11132">
        <ele>46.692572</ele>
        <time>2022-12-22T16:20:04.601Z</time>
      </trkpt>
      <trkpt lat="45.51616" lon="-1.1114">
        <ele>46.732834</ele>
        <time>2022-12-22T16:20:07.622Z</time>
      </trkpt>
      <trkpt lat="45.51606" lon="-1.11149">
        <ele>46.773222</ele>
        <time>2022-12-22T16:20:10.622Z</time>
      </trkpt>
      <trkpt lat="45.51596" lon="-1.11157">
        <ele>46.812738</ele>
        <time>2022-12-22T16:20:13.621Z</time>
      </trkpt>
      <trkpt lat="45.51585" lon="-1.11165">
        <ele>46.85331</ele>
        <time>2022-12-22T16:20:16.622Z</time>
      </trkpt>
      <trkpt lat="45.51575" lon="-1.11173">
        <ele>46.799663</ele>
        <time>2022-12-22T16:20:19.593Z</time>
      </trkpt>
      <trkpt lat="45.51565" lon="-1.11181">
        <ele>46.738733</ele>
        <time>2022-12-22T16:20:22.602Z</time>
      </trkpt>
      <trkpt lat="45.51555" lon="-1.11188">
        <ele>46.679796</ele>
        <time>2022-12-22T16:20:25.620Z</time>
      </trkpt>
      <trkpt lat="45.51545" lon="-1.11195">
        <ele>46.622297</ele>
        <time>2022-12-22T16:20:28.603Z</time>
      </trkpt>
      <trkpt lat="45.51537" lon="-1.11202">
        <ele>46.568552</ele>
        <time>2022-12-22T16:20:31.618Z</time>
      </trkpt>
      <trkpt lat="45.51527" lon="-1.11209">
        <ele>46.511053</ele>
        <time>2022-12-22T16:20:34.600Z</time>
      </trkpt>
      <trkpt lat="45.51518" lon="-1.11216">
        <ele>46.453097</ele>
        <time>2022-12-22T16:20:37.596Z</time>
      </trkpt>
      <trkpt lat="45.51507" lon="-1.11223">
        <ele>46.392064</ele>
        <time>2022-12-22T16:20:40.604Z</time>
      </trkpt>
      <trkpt lat="45.51497" lon="-1.1123">
        <ele>46.328767</ele>
        <time>2022-12-22T16:20:43.602Z</time>
      </trkpt>
      <trkpt lat="45.51486" lon="-1.11238">
        <ele>46.263152</ele>
        <time>2022-12-22T16:20:46.623Z</time>
      </trkpt>
      <trkpt lat="45.51475" lon="-1.11246">
        <ele>46.196294</ele>
        <time>2022-12-22T16:20:49.620Z</time>
      </trkpt>
      <trkpt lat="45.51463" lon="-1.11254">
        <ele>46.128464</ele>
        <time>2022-12-22T16:20:52.622Z</time>
      </trkpt>
      <trkpt lat="45.51452" lon="-1.11262">
        <ele>46.058692</ele>
        <time>2022-12-22T16:20:55.600Z</time>
      </trkpt>
      <trkpt lat="45.5144" lon="-1.1127">
        <ele>45.988086</ele>
        <time>2022-12-22T16:20:58.620Z</time>
      </trkpt>
      <trkpt lat="45.51429" lon="-1.11278">
        <ele>45.920742</ele>
        <time>2022-12-22T16:21:01.601Z</time>
      </trkpt>
      <trkpt lat="45.51418" lon="-1.11286">
        <ele>45.844815</ele>
        <time>2022-12-22T16:21:04.622Z</time>
      </trkpt>
      <trkpt lat="45.51407" lon="-1.11292">
        <ele>45.762502</ele>
        <time>2022-12-22T16:21:07.595Z</time>
      </trkpt>
      <trkpt lat="45.51395" lon="-1.113">
        <ele>45.670763</ele>
        <time>2022-12-22T16:21:10.622Z</time>
      </trkpt>
      <trkpt lat="45.51386" lon="-1.11306">
        <ele>45.60365</ele>
        <time>2022-12-22T16:21:12.620Z</time>
      </trkpt>
      <trkpt lat="45.51378" lon="-1.11312">
        <ele>45.538685</ele>
        <time>2022-12-22T16:21:14.621Z</time>
      </trkpt>
      <trkpt lat="45.5137" lon="-1.11317">
        <ele>45.475176</ele>
        <time>2022-12-22T16:21:16.621Z</time>
      </trkpt>
      <trkpt lat="45.51358" lon="-1.11325">
        <ele>45.380695</ele>
        <time>2022-12-22T16:21:19.600Z</time>
      </trkpt>
      <trkpt lat="45.51345" lon="-1.11332">
        <ele>45.288386</ele>
        <time>2022-12-22T16:21:22.594Z</time>
      </trkpt>
      <trkpt lat="45.51333" lon="-1.11339">
        <ele>45.196975</ele>
        <time>2022-12-22T16:21:25.613Z</time>
      </trkpt>
      <trkpt lat="45.51321" lon="-1.11345">
        <ele>45.104735</ele>
        <time>2022-12-22T16:21:28.620Z</time>
      </trkpt>
      <trkpt lat="45.51309" lon="-1.11352">
        <ele>45.012791</ele>
        <time>2022-12-22T16:21:31.598Z</time>
      </trkpt>
      <trkpt lat="45.513" lon="-1.11356">
        <ele>44.948752</ele>
        <time>2022-12-22T16:21:33.612Z</time>
      </trkpt>
      <trkpt lat="45.51291" lon="-1.11361">
        <ele>44.883092</ele>
        <time>2022-12-22T16:21:35.593Z</time>
      </trkpt>
      <trkpt lat="45.51282" lon="-1.11366">
        <ele>44.816433</ele>
        <time>2022-12-22T16:21:37.610Z</time>
      </trkpt>
      <trkpt lat="45.51273" lon="-1.1137">
        <ele>44.750092</ele>
        <time>2022-12-22T16:21:39.621Z</time>
      </trkpt>
      <trkpt lat="45.51264" lon="-1.11374">
        <ele>44.681099</ele>
        <time>2022-12-22T16:21:41.621Z</time>
      </trkpt>
      <trkpt lat="45.51254" lon="-1.11378">
        <ele>44.627389</ele>
        <time>2022-12-22T16:21:43.620Z</time>
      </trkpt>
      <trkpt lat="45.51245" lon="-1.11381">
        <ele>44.620446</ele>
        <time>2022-12-22T16:21:45.610Z</time>
      </trkpt>
      <trkpt lat="45.51232" lon="-1.11386">
        <ele>44.610744</ele>
        <time>2022-12-22T16:21:48.596Z</time>
      </trkpt>
      <trkpt lat="45.51221" lon="-1.11392">
        <ele>44.601659</ele>
        <time>2022-12-22T16:21:51.597Z</time>
      </trkpt>
      <trkpt lat="45.51208" lon="-1.11396">
        <ele>44.592469</ele>
        <time>2022-12-22T16:21:54.603Z</time>
      </trkpt>
      <trkpt lat="45.51196" lon="-1.114">
        <ele>44.583457</ele>
        <time>2022-12-22T16:21:57.597Z</time>
      </trkpt>
      <trkpt lat="45.51184" lon="-1.11403">
        <ele>44.574291</ele>
        <time>2022-12-22T16:22:00.620Z</time>
      </trkpt>
      <trkpt lat="45.51172" lon="-1.11406">
        <ele>44.565512</ele>
        <time>2022-12-22T16:22:03.620Z</time>
      </trkpt>
      <trkpt lat="45.51161" lon="-1.11409">
        <ele>44.556941</ele>
        <time>2022-12-22T16:22:06.599Z</time>
      </trkpt>
      <trkpt lat="45.51151" lon="-1.11411">
        <ele>44.549583</ele>
        <time>2022-12-22T16:22:09.603Z</time>
      </trkpt>
      <trkpt lat="45.5114" lon="-1.11412">
        <ele>44.541494</ele>
        <time>2022-12-22T16:22:13.608Z</time>
      </trkpt>
      <trkpt lat="45.51128" lon="-1.11413">
        <ele>44.533113</ele>
        <time>2022-12-22T16:22:17.593Z</time>
      </trkpt>
      <trkpt lat="45.51119" lon="-1.11413">
        <ele>44.525999</ele>
        <time>2022-12-22T16:22:20.613Z</time>
      </trkpt>
      <trkpt lat="45.51108" lon="-1.11411">
        <ele>44.518349</ele>
        <time>2022-12-22T16:22:23.600Z</time>
      </trkpt>
      <trkpt lat="45.51097" lon="-1.1141">
        <ele>44.510325</ele>
        <time>2022-12-22T16:22:26.593Z</time>
      </trkpt>
      <trkpt lat="45.51087" lon="-1.11408">
        <ele>44.502498</ele>
        <time>2022-12-22T16:22:29.594Z</time>
      </trkpt>
      <trkpt lat="45.51076" lon="-1.11406">
        <ele>44.49039</ele>
        <time>2022-12-22T16:22:32.613Z</time>
      </trkpt>
      <trkpt lat="45.51066" lon="-1.11404">
        <ele>44.469552</ele>
        <time>2022-12-22T16:22:35.597Z</time>
      </trkpt>
      <trkpt lat="45.51056" lon="-1.11399">
        <ele>44.447807</ele>
        <time>2022-12-22T16:22:38.602Z</time>
      </trkpt>
      <trkpt lat="45.51047" lon="-1.11392">
        <ele>44.427225</ele>
        <time>2022-12-22T16:22:41.620Z</time>
      </trkpt>
      <trkpt lat="45.51037" lon="-1.11386">
        <ele>44.406408</ele>
        <time>2022-12-22T16:22:44.605Z</time>
      </trkpt>
      <trkpt lat="45.51028" lon="-1.11379">
        <ele>44.385227</ele>
        <time>2022-12-22T16:22:47.613Z</time>
      </trkpt>
      <trkpt lat="45.5102" lon="-1.11372">
        <ele>44.366098</ele>
        <time>2022-12-22T16:22:50.592Z</time>
      </trkpt>
      <trkpt lat="45.51009" lon="-1.11364">
        <ele>44.342732</ele>
        <time>2022-12-22T16:22:54.597Z</time>
      </trkpt>
      <trkpt lat="45.51001" lon="-1.11356">
        <ele>44.32212</ele>
        <time>2022-12-22T16:22:57.594Z</time>
      </trkpt>
      <trkpt lat="45.50992" lon="-1.11346">
        <ele>44.299257</ele>
        <time>2022-12-22T16:23:00.600Z</time>
      </trkpt>
      <trkpt lat="45.50982" lon="-1.11336">
        <ele>44.27508</ele>
        <time>2022-12-22T16:23:03.597Z</time>
      </trkpt>
      <trkpt lat="45.50973" lon="-1.11323">
        <ele>44.249384</ele>
        <time>2022-12-22T16:23:06.599Z</time>
      </trkpt>
      <trkpt lat="45.50967" lon="-1.11313">
        <ele>44.230926</ele>
        <time>2022-12-22T16:23:08.597Z</time>
      </trkpt>
      <trkpt lat="45.5096" lon="-1.11303">
        <ele>44.212461</ele>
        <time>2022-12-22T16:23:10.621Z</time>
      </trkpt>
      <trkpt lat="45.50955" lon="-1.11293">
        <ele>44.193609</ele>
        <time>2022-12-22T16:23:12.620Z</time>
      </trkpt>
      <trkpt lat="45.50949" lon="-1.11282">
        <ele>44.174662</ele>
        <time>2022-12-22T16:23:14.606Z</time>
      </trkpt>
      <trkpt lat="45.50941" lon="-1.11267">
        <ele>44.148507</ele>
        <time>2022-12-22T16:23:17.597Z</time>
      </trkpt>
      <trkpt lat="45.50934" lon="-1.11251">
        <ele>44.143488</ele>
        <time>2022-12-22T16:23:20.596Z</time>
      </trkpt>
      <trkpt lat="45.50927" lon="-1.11236">
        <ele>44.152624</ele>
        <time>2022-12-22T16:23:23.592Z</time>
      </trkpt>
      <trkpt lat="45.5092" lon="-1.11221">
        <ele>44.162151</ele>
        <time>2022-12-22T16:23:26.596Z</time>
      </trkpt>
      <trkpt lat="45.50916" lon="-1.11209">
        <ele>44.168838</ele>
        <time>2022-12-22T16:23:28.621Z</time>
      </trkpt>
      <trkpt lat="45.50911" lon="-1.11197">
        <ele>44.175876</ele>
        <time>2022-12-22T16:23:30.595Z</time>
      </trkpt>
      <trkpt lat="45.50907" lon="-1.11185">
        <ele>44.183063</ele>
        <time>2022-12-22T16:23:32.610Z</time>
      </trkpt>
      <trkpt lat="45.50903" lon="-1.11172">
        <ele>44.190079</ele>
        <time>2022-12-22T16:23:34.598Z</time>
      </trkpt>
      <trkpt lat="45.50898" lon="-1.1116">
        <ele>44.197243</ele>
        <time>2022-12-22T16:23:36.619Z</time>
      </trkpt>
      <trkpt lat="45.50894" lon="-1.11147">
        <ele>44.204718</ele>
        <time>2022-12-22T16:23:38.603Z</time>
      </trkpt>
      <trkpt lat="45.5089" lon="-1.11133">
        <ele>44.212352</ele>
        <time>2022-12-22T16:23:40.601Z</time>
      </trkpt>
      <trkpt lat="45.50886" lon="-1.1112">
        <ele>44.219894</ele>
        <time>2022-12-22T16:23:42.622Z</time>
      </trkpt>
      <trkpt lat="45.50881" lon="-1.11106">
        <ele>44.227842</ele>
        <time>2022-12-22T16:23:44.619Z</time>
      </trkpt>
      <trkpt lat="45.50878" lon="-1.11091">
        <ele>44.235964</ele>
        <time>2022-12-22T16:23:46.597Z</time>
      </trkpt>
      <trkpt lat="45.50874" lon="-1.11076">
        <ele>44.24399</ele>
        <time>2022-12-22T16:23:48.594Z</time>
      </trkpt>
      <trkpt lat="45.5087" lon="-1.11062">
        <ele>44.251644</ele>
        <time>2022-12-22T16:23:50.601Z</time>
      </trkpt>
      <trkpt lat="45.50867" lon="-1.11049">
        <ele>44.258838</ele>
        <time>2022-12-22T16:23:52.603Z</time>
      </trkpt>
      <trkpt lat="45.50865" lon="-1.11036">
        <ele>44.265439</ele>
        <time>2022-12-22T16:23:54.592Z</time>
      </trkpt>
      <trkpt lat="45.50863" lon="-1.11023">
        <ele>44.277222</ele>
        <time>2022-12-22T16:23:56.619Z</time>
      </trkpt>
      <trkpt lat="45.5086" lon="-1.11011">
        <ele>44.296399</ele>
        <time>2022-12-22T16:23:58.619Z</time>
      </trkpt>
      <trkpt lat="45.50858" lon="-1.10998">
        <ele>44.316402</ele>
        <time>2022-12-22T16:24:00.623Z</time>
      </trkpt>
      <trkpt lat="45.50854" lon="-1.10984">
        <ele>44.338519</ele>
        <time>2022-12-22T16:24:02.593Z</time>
      </trkpt>
      <trkpt lat="45.50852" lon="-1.10971">
        <ele>44.358865</ele>
        <time>2022-12-22T16:24:04.619Z</time>
      </trkpt>
      <trkpt lat="45.50849" lon="-1.10958">
        <ele>44.378266</ele>
        <time>2022-12-22T16:24:06.613Z</time>
      </trkpt>
      <trkpt lat="45.50847" lon="-1.10946">
        <ele>44.39751</ele>
        <time>2022-12-22T16:24:08.598Z</time>
      </trkpt>
      <trkpt lat="45.50844" lon="-1.10929">
        <ele>44.422919</ele>
        <time>2022-12-22T16:24:11.598Z</time>
      </trkpt>
      <trkpt lat="45.50842" lon="-1.10914">
        <ele>44.446305</ele>
        <time>2022-12-22T16:24:14.592Z</time>
      </trkpt>
      <trkpt lat="45.5084" lon="-1.109">
        <ele>44.467122</ele>
        <time>2022-12-22T16:24:17.597Z</time>
      </trkpt>
      <trkpt lat="45.50835" lon="-1.10886">
        <ele>44.490606</ele>
        <time>2022-12-22T16:24:20.590Z</time>
      </trkpt>
      <trkpt lat="45.50831" lon="-1.1087">
        <ele>44.515743</ele>
        <time>2022-12-22T16:24:23.593Z</time>
      </trkpt>
      <trkpt lat="45.50828" lon="-1.10853">
        <ele>44.541303</ele>
        <time>2022-12-22T16:24:26.636Z</time>
      </trkpt>
      <trkpt lat="45.50824" lon="-1.10838">
        <ele>44.564969</ele>
        <time>2022-12-22T16:24:29.600Z</time>
      </trkpt>
      <trkpt lat="45.50821" lon="-1.10824">
        <ele>44.586632</ele>
        <time>2022-12-22T16:24:32.598Z</time>
      </trkpt>
      <trkpt lat="45.50816" lon="-1.10811">
        <ele>44.609157</ele>
        <time>2022-12-22T16:24:37.602Z</time>
      </trkpt>
      <trkpt lat="45.50815" lon="-1.10797">
        <ele>44.630378</ele>
        <time>2022-12-22T16:29:43.606Z</time>
      </trkpt>
      <trkpt lat="45.50813" lon="-1.10781">
        <ele>44.645256</ele>
        <time>2022-12-22T16:29:49.618Z</time>
      </trkpt>
      <trkpt lat="45.50808" lon="-1.10766">
        <ele>44.565485</ele>
        <time>2022-12-22T16:29:53.599Z</time>
      </trkpt>
      <trkpt lat="45.50806" lon="-1.10752">
        <ele>44.49676</ele>
        <time>2022-12-22T16:29:56.604Z</time>
      </trkpt>
      <trkpt lat="45.50803" lon="-1.10738">
        <ele>44.42332</ele>
        <time>2022-12-22T16:29:59.623Z</time>
      </trkpt>
      <trkpt lat="45.508" lon="-1.10722">
        <ele>44.346832</ele>
        <time>2022-12-22T16:30:02.597Z</time>
      </trkpt>
      <trkpt lat="45.50797" lon="-1.10706">
        <ele>44.26929</ele>
        <time>2022-12-22T16:30:05.613Z</time>
      </trkpt>
      <trkpt lat="45.50794" lon="-1.10691">
        <ele>44.192896</ele>
        <time>2022-12-22T16:30:08.598Z</time>
      </trkpt>
      <trkpt lat="45.50791" lon="-1.10675">
        <ele>44.11316</ele>
        <time>2022-12-22T16:30:11.600Z</time>
      </trkpt>
      <trkpt lat="45.50789" lon="-1.1066">
        <ele>44.040761</ele>
        <time>2022-12-22T16:30:14.606Z</time>
      </trkpt>
      <trkpt lat="45.50785" lon="-1.10646">
        <ele>43.968757</ele>
        <time>2022-12-22T16:30:17.618Z</time>
      </trkpt>
      <trkpt lat="45.50783" lon="-1.1063">
        <ele>43.891514</ele>
        <time>2022-12-22T16:30:20.618Z</time>
      </trkpt>
      <trkpt lat="45.5078" lon="-1.10615">
        <ele>43.813634</ele>
        <time>2022-12-22T16:30:23.604Z</time>
      </trkpt>
      <trkpt lat="45.50777" lon="-1.10599">
        <ele>43.732901</ele>
        <time>2022-12-22T16:30:26.615Z</time>
      </trkpt>
      <trkpt lat="45.50773" lon="-1.10582">
        <ele>43.651325</ele>
        <time>2022-12-22T16:30:29.595Z</time>
      </trkpt>
      <trkpt lat="45.5077" lon="-1.10566">
        <ele>43.56929</ele>
        <time>2022-12-22T16:30:32.616Z</time>
      </trkpt>
      <trkpt lat="45.50767" lon="-1.10549">
        <ele>43.48735</ele>
        <time>2022-12-22T16:30:35.615Z</time>
      </trkpt>
      <trkpt lat="45.50763" lon="-1.10533">
        <ele>43.429549</ele>
        <time>2022-12-22T16:30:38.622Z</time>
      </trkpt>
      <trkpt lat="45.50759" lon="-1.10516">
        <ele>43.474286</ele>
        <time>2022-12-22T16:30:41.618Z</time>
      </trkpt>
      <trkpt lat="45.50756" lon="-1.10498">
        <ele>43.518818</ele>
        <time>2022-12-22T16:30:44.611Z</time>
      </trkpt>
      <trkpt lat="45.50752" lon="-1.10482">
        <ele>43.562973</ele>
        <time>2022-12-22T16:30:47.606Z</time>
      </trkpt>
      <trkpt lat="45.50749" lon="-1.10468">
        <ele>43.598487</ele>
        <time>2022-12-22T16:30:50.597Z</time>
      </trkpt>
      <trkpt lat="45.50746" lon="-1.10453">
        <ele>43.639021</ele>
        <time>2022-12-22T16:30:54.605Z</time>
      </trkpt>
      <trkpt lat="45.50743" lon="-1.10439">
        <ele>43.673975</ele>
        <time>2022-12-22T16:30:58.598Z</time>
      </trkpt>
      <trkpt lat="45.5074" lon="-1.10427">
        <ele>43.706809</ele>
        <time>2022-12-22T16:31:04.593Z</time>
      </trkpt>
      <trkpt lat="45.50738" lon="-1.10412">
        <ele>43.743407</ele>
        <time>2022-12-22T16:31:10.592Z</time>
      </trkpt>
      <trkpt lat="45.50734" lon="-1.10397">
        <ele>43.783042</ele>
        <time>2022-12-22T16:31:14.603Z</time>
      </trkpt>
      <trkpt lat="45.50732" lon="-1.10385">
        <ele>43.816164</ele>
        <time>2022-12-22T16:31:17.623Z</time>
      </trkpt>
      <trkpt lat="45.50729" lon="-1.10371">
        <ele>43.851553</ele>
        <time>2022-12-22T16:31:20.597Z</time>
      </trkpt>
      <trkpt lat="45.50726" lon="-1.10357">
        <ele>43.888628</ele>
        <time>2022-12-22T16:31:23.599Z</time>
      </trkpt>
      <trkpt lat="45.50723" lon="-1.10342">
        <ele>43.926764</ele>
        <time>2022-12-22T16:31:26.590Z</time>
      </trkpt>
      <trkpt lat="45.5072" lon="-1.10328">
        <ele>43.964628</ele>
        <time>2022-12-22T16:31:29.595Z</time>
      </trkpt>
      <trkpt lat="45.50717" lon="-1.10313">
        <ele>44.003622</ele>
        <time>2022-12-22T16:31:32.589Z</time>
      </trkpt>
      <trkpt lat="45.50713" lon="-1.10298">
        <ele>44.043507</ele>
        <time>2022-12-22T16:31:35.596Z</time>
      </trkpt>
      <trkpt lat="45.5071" lon="-1.10284">
        <ele>44.054824</ele>
        <time>2022-12-22T16:31:38.616Z</time>
      </trkpt>
      <trkpt lat="45.50707" lon="-1.10268">
        <ele>44.038421</ele>
        <time>2022-12-22T16:31:41.607Z</time>
      </trkpt>
      <trkpt lat="45.50704" lon="-1.10251">
        <ele>44.020871</ele>
        <time>2022-12-22T16:31:44.605Z</time>
      </trkpt>
      <trkpt lat="45.507" lon="-1.10234">
        <ele>44.002445</ele>
        <time>2022-12-22T16:31:47.599Z</time>
      </trkpt>
      <trkpt lat="45.50696" lon="-1.10216">
        <ele>43.983571</ele>
        <time>2022-12-22T16:31:50.609Z</time>
      </trkpt>
      <trkpt lat="45.50693" lon="-1.10199">
        <ele>43.965769</ele>
        <time>2022-12-22T16:31:53.601Z</time>
      </trkpt>
      <trkpt lat="45.5069" lon="-1.10184">
        <ele>43.950151</ele>
        <time>2022-12-22T16:31:56.597Z</time>
      </trkpt>
      <trkpt lat="45.50687" lon="-1.1017">
        <ele>43.934952</ele>
        <time>2022-12-22T16:31:59.601Z</time>
      </trkpt>
      <trkpt lat="45.50683" lon="-1.10154">
        <ele>43.917831</ele>
        <time>2022-12-22T16:32:03.623Z</time>
      </trkpt>
      <trkpt lat="45.5068" lon="-1.1014">
        <ele>43.903352</ele>
        <time>2022-12-22T16:32:06.602Z</time>
      </trkpt>
      <trkpt lat="45.50677" lon="-1.10126">
        <ele>43.887872</ele>
        <time>2022-12-22T16:32:09.604Z</time>
      </trkpt>
      <trkpt lat="45.50673" lon="-1.10111">
        <ele>43.872243</ele>
        <time>2022-12-22T16:32:12.605Z</time>
      </trkpt>
      <trkpt lat="45.5067" lon="-1.10097">
        <ele>43.857433</ele>
        <time>2022-12-22T16:32:15.606Z</time>
      </trkpt>
      <trkpt lat="45.50666" lon="-1.10084">
        <ele>43.843384</ele>
        <time>2022-12-22T16:32:18.604Z</time>
      </trkpt>
      <trkpt lat="45.50663" lon="-1.10069">
        <ele>43.826675</ele>
        <time>2022-12-22T16:32:22.608Z</time>
      </trkpt>
      <trkpt lat="45.5066" lon="-1.10054">
        <ele>43.811528</ele>
        <time>2022-12-22T16:32:25.594Z</time>
      </trkpt>
      <trkpt lat="45.50656" lon="-1.10036">
        <ele>43.761949</ele>
        <time>2022-12-22T16:32:28.591Z</time>
      </trkpt>
      <trkpt lat="45.50654" lon="-1.10024">
        <ele>43.70736</ele>
        <time>2022-12-22T16:32:30.601Z</time>
      </trkpt>
      <trkpt lat="45.50652" lon="-1.10011">
        <ele>43.651531</ele>
        <time>2022-12-22T16:32:32.601Z</time>
      </trkpt>
      <trkpt lat="45.50648" lon="-1.09995">
        <ele>43.57912</ele>
        <time>2022-12-22T16:32:35.605Z</time>
      </trkpt>
      <trkpt lat="45.50645" lon="-1.09978">
        <ele>43.505677</ele>
        <time>2022-12-22T16:32:38.606Z</time>
      </trkpt>
      <trkpt lat="45.50641" lon="-1.0996">
        <ele>43.427385</ele>
        <time>2022-12-22T16:32:41.597Z</time>
      </trkpt>
      <trkpt lat="45.50638" lon="-1.09947">
        <ele>43.372215</ele>
        <time>2022-12-22T16:32:43.603Z</time>
      </trkpt>
      <trkpt lat="45.50636" lon="-1.09935">
        <ele>43.317656</ele>
        <time>2022-12-22T16:32:45.596Z</time>
      </trkpt>
      <trkpt lat="45.50633" lon="-1.09921">
        <ele>43.257087</ele>
        <time>2022-12-22T16:32:47.602Z</time>
      </trkpt>
      <trkpt lat="45.5063" lon="-1.09908">
        <ele>43.198126</ele>
        <time>2022-12-22T16:32:49.603Z</time>
      </trkpt>
      <trkpt lat="45.50628" lon="-1.09895">
        <ele>43.140885</ele>
        <time>2022-12-22T16:32:51.597Z</time>
      </trkpt>
      <trkpt lat="45.50625" lon="-1.09882">
        <ele>43.085739</ele>
        <time>2022-12-22T16:32:53.596Z</time>
      </trkpt>
      <trkpt lat="45.50621" lon="-1.09864">
        <ele>43.006932</ele>
        <time>2022-12-22T16:32:56.598Z</time>
      </trkpt>
      <trkpt lat="45.50618" lon="-1.09846">
        <ele>42.929682</ele>
        <time>2022-12-22T16:32:59.603Z</time>
      </trkpt>
      <trkpt lat="45.50613" lon="-1.09828">
        <ele>42.849536</ele>
        <time>2022-12-22T16:33:02.592Z</time>
      </trkpt>
      <trkpt lat="45.50611" lon="-1.09816">
        <ele>42.793563</ele>
        <time>2022-12-22T16:33:04.595Z</time>
      </trkpt>
      <trkpt lat="45.50608" lon="-1.09803">
        <ele>42.737591</ele>
        <time>2022-12-22T16:33:06.598Z</time>
      </trkpt>
      <trkpt lat="45.50605" lon="-1.0979">
        <ele>42.721655</ele>
        <time>2022-12-22T16:33:08.604Z</time>
      </trkpt>
      <trkpt lat="45.50602" lon="-1.09776">
        <ele>42.71933</ele>
        <time>2022-12-22T16:33:10.594Z</time>
      </trkpt>
      <trkpt lat="45.50599" lon="-1.09763">
        <ele>42.716972</ele>
        <time>2022-12-22T16:33:12.616Z</time>
      </trkpt>
      <trkpt lat="45.50597" lon="-1.09749">
        <ele>42.714659</ele>
        <time>2022-12-22T16:33:14.594Z</time>
      </trkpt>
      <trkpt lat="45.50594" lon="-1.09736">
        <ele>42.712433</ele>
        <time>2022-12-22T16:33:16.625Z</time>
      </trkpt>
      <trkpt lat="45.50591" lon="-1.09723">
        <ele>42.710239</ele>
        <time>2022-12-22T16:33:18.598Z</time>
      </trkpt>
      <trkpt lat="45.50587" lon="-1.09706">
        <ele>42.707274</ele>
        <time>2022-12-22T16:33:21.622Z</time>
      </trkpt>
      <trkpt lat="45.50583" lon="-1.09689">
        <ele>42.704427</ele>
        <time>2022-12-22T16:33:24.612Z</time>
      </trkpt>
      <trkpt lat="45.5058" lon="-1.09673">
        <ele>42.701728</ele>
        <time>2022-12-22T16:33:27.610Z</time>
      </trkpt>
      <trkpt lat="45.50578" lon="-1.09655">
        <ele>42.698729</ele>
        <time>2022-12-22T16:33:30.597Z</time>
      </trkpt>
      <trkpt lat="45.50577" lon="-1.09637">
        <ele>42.695627</ele>
        <time>2022-12-22T16:33:33.593Z</time>
      </trkpt>
      <trkpt lat="45.50577" lon="-1.09623">
        <ele>42.693416</ele>
        <time>2022-12-22T16:33:35.598Z</time>
      </trkpt>
      <trkpt lat="45.50579" lon="-1.09609">
        <ele>42.691117</ele>
        <time>2022-12-22T16:33:37.595Z</time>
      </trkpt>
      <trkpt lat="45.5058" lon="-1.09595">
        <ele>42.688795</ele>
        <time>2022-12-22T16:33:39.631Z</time>
      </trkpt>
      <trkpt lat="45.50582" lon="-1.09582">
        <ele>42.686578</ele>
        <time>2022-12-22T16:33:41.601Z</time>
      </trkpt>
      <trkpt lat="45.50583" lon="-1.09568">
        <ele>42.684283</ele>
        <time>2022-12-22T16:33:43.614Z</time>
      </trkpt>
      <trkpt lat="45.50584" lon="-1.09555">
        <ele>42.682137</ele>
        <time>2022-12-22T16:33:45.618Z</time>
      </trkpt>
      <trkpt lat="45.50587" lon="-1.09536">
        <ele>42.735108</ele>
        <time>2022-12-22T16:33:48.599Z</time>
      </trkpt>
      <trkpt lat="45.50588" lon="-1.09522">
        <ele>42.784837</ele>
        <time>2022-12-22T16:33:50.600Z</time>
      </trkpt>
      <trkpt lat="45.5059" lon="-1.09509">
        <ele>42.83559</ele>
        <time>2022-12-22T16:33:52.622Z</time>
      </trkpt>
      <trkpt lat="45.50592" lon="-1.09494">
        <ele>42.890164</ele>
        <time>2022-12-22T16:33:54.600Z</time>
      </trkpt>
      <trkpt lat="45.50593" lon="-1.0948">
        <ele>42.942654</ele>
        <time>2022-12-22T16:33:56.621Z</time>
      </trkpt>
      <trkpt lat="45.50595" lon="-1.09467">
        <ele>42.992221</ele>
        <time>2022-12-22T16:33:58.610Z</time>
      </trkpt>
      <trkpt lat="45.50597" lon="-1.09448">
        <ele>43.063255</ele>
        <time>2022-12-22T16:34:01.596Z</time>
      </trkpt>
      <trkpt lat="45.50598" lon="-1.0943">
        <ele>43.129401</ele>
        <time>2022-12-22T16:34:04.591Z</time>
      </trkpt>
      <trkpt lat="45.506" lon="-1.09413">
        <ele>43.193166</ele>
        <time>2022-12-22T16:34:07.599Z</time>
      </trkpt>
      <trkpt lat="45.50601" lon="-1.09397">
        <ele>43.250109</ele>
        <time>2022-12-22T16:34:10.598Z</time>
      </trkpt>
      <trkpt lat="45.50603" lon="-1.09382">
        <ele>43.307572</ele>
        <time>2022-12-22T16:34:13.823Z</time>
      </trkpt>
      <trkpt lat="45.50604" lon="-1.09367">
        <ele>43.361818</ele>
        <time>2022-12-22T16:34:16.595Z</time>
      </trkpt>
      <trkpt lat="45.50606" lon="-1.09353">
        <ele>43.41402</ele>
        <time>2022-12-22T16:34:19.599Z</time>
      </trkpt>
      <trkpt lat="45.50607" lon="-1.0934">
        <ele>43.463957</ele>
        <time>2022-12-22T16:34:22.604Z</time>
      </trkpt>
      <trkpt lat="45.50608" lon="-1.09325">
        <ele>43.520229</ele>
        <time>2022-12-22T16:34:26.598Z</time>
      </trkpt>
      <trkpt lat="45.50608" lon="-1.09309">
        <ele>43.578504</ele>
        <time>2022-12-22T16:34:30.614Z</time>
      </trkpt>
      <trkpt lat="45.50607" lon="-1.09296">
        <ele>43.627473</ele>
        <time>2022-12-22T16:34:33.598Z</time>
      </trkpt>
      <trkpt lat="45.50606" lon="-1.09281">
        <ele>43.640916</ele>
        <time>2022-12-22T16:34:37.605Z</time>
      </trkpt>
      <trkpt lat="45.5061" lon="-1.09262">
        <ele>43.658603</ele>
        <time>2022-12-22T16:35:12.636Z</time>
      </trkpt>
      <trkpt lat="45.50612" lon="-1.09246">
        <ele>43.673661</ele>
        <time>2022-12-22T16:35:16.613Z</time>
      </trkpt>
      <trkpt lat="45.50615" lon="-1.09231">
        <ele>43.687837</ele>
        <time>2022-12-22T16:35:19.606Z</time>
      </trkpt>
      <trkpt lat="45.50619" lon="-1.09215">
        <ele>43.703098</ele>
        <time>2022-12-22T16:35:22.605Z</time>
      </trkpt>
      <trkpt lat="45.50622" lon="-1.09197">
        <ele>43.720192</ele>
        <time>2022-12-22T16:35:25.597Z</time>
      </trkpt>
      <trkpt lat="45.50624" lon="-1.09184">
        <ele>43.732061</ele>
        <time>2022-12-22T16:35:27.611Z</time>
      </trkpt>
      <trkpt lat="45.50625" lon="-1.09171">
        <ele>43.744338</ele>
        <time>2022-12-22T16:35:29.598Z</time>
      </trkpt>
      <trkpt lat="45.50625" lon="-1.09158">
        <ele>43.756489</ele>
        <time>2022-12-22T16:35:31.597Z</time>
      </trkpt>
      <trkpt lat="45.50626" lon="-1.09144">
        <ele>43.768515</ele>
        <time>2022-12-22T16:35:33.600Z</time>
      </trkpt>
      <trkpt lat="45.50625" lon="-1.09126">
        <ele>43.785468</ele>
        <time>2022-12-22T16:35:36.620Z</time>
      </trkpt>
      <trkpt lat="45.50625" lon="-1.09109">
        <ele>43.800773</ele>
        <time>2022-12-22T16:35:39.599Z</time>
      </trkpt>
      <trkpt lat="45.50625" lon="-1.09092">
        <ele>43.816634</ele>
        <time>2022-12-22T16:35:42.622Z</time>
      </trkpt>
      <trkpt lat="45.50624" lon="-1.09074">
        <ele>43.832954</ele>
        <time>2022-12-22T16:35:45.611Z</time>
      </trkpt>
      <trkpt lat="45.50624" lon="-1.09056">
        <ele>43.84928</ele>
        <time>2022-12-22T16:35:48.601Z</time>
      </trkpt>
      <trkpt lat="45.50623" lon="-1.09037">
        <ele>43.836715</ele>
        <time>2022-12-22T16:35:51.597Z</time>
      </trkpt>
      <trkpt lat="45.50622" lon="-1.09024">
        <ele>43.7796</ele>
        <time>2022-12-22T16:35:53.601Z</time>
      </trkpt>
      <trkpt lat="45.50622" lon="-1.09011">
        <ele>43.723004</ele>
        <time>2022-12-22T16:35:55.598Z</time>
      </trkpt>
      <trkpt lat="45.50621" lon="-1.08993">
        <ele>43.642778</ele>
        <time>2022-12-22T16:35:58.592Z</time>
      </trkpt>
      <trkpt lat="45.50622" lon="-1.08974">
        <ele>43.558661</ele>
        <time>2022-12-22T16:36:01.621Z</time>
      </trkpt>
      <trkpt lat="45.50622" lon="-1.08961">
        <ele>43.50171</ele>
        <time>2022-12-22T16:36:03.606Z</time>
      </trkpt>
      <trkpt lat="45.50622" lon="-1.08948">
        <ele>43.443802</ele>
        <time>2022-12-22T16:36:05.621Z</time>
      </trkpt>
      <trkpt lat="45.50623" lon="-1.08934">
        <ele>43.385048</ele>
        <time>2022-12-22T16:36:07.625Z</time>
      </trkpt>
      <trkpt lat="45.50624" lon="-1.0892">
        <ele>43.320787</ele>
        <time>2022-12-22T16:36:09.620Z</time>
      </trkpt>
      <trkpt lat="45.50625" lon="-1.08906">
        <ele>43.26132</ele>
        <time>2022-12-22T16:36:11.620Z</time>
      </trkpt>
      <trkpt lat="45.50625" lon="-1.08892">
        <ele>43.200426</ele>
        <time>2022-12-22T16:36:13.621Z</time>
      </trkpt>
      <trkpt lat="45.50625" lon="-1.08879">
        <ele>43.143355</ele>
        <time>2022-12-22T16:36:15.594Z</time>
      </trkpt>
      <trkpt lat="45.50626" lon="-1.08866">
        <ele>43.084178</ele>
        <time>2022-12-22T16:36:17.605Z</time>
      </trkpt>
      <trkpt lat="45.50628" lon="-1.08852">
        <ele>43.022827</ele>
        <time>2022-12-22T16:36:19.622Z</time>
      </trkpt>
      <trkpt lat="45.50629" lon="-1.08839">
        <ele>42.96336</ele>
        <time>2022-12-22T16:36:21.601Z</time>
      </trkpt>
      <trkpt lat="45.50629" lon="-1.08825">
        <ele>42.903264</ele>
        <time>2022-12-22T16:36:23.612Z</time>
      </trkpt>
      <trkpt lat="45.5063" lon="-1.08811">
        <ele>42.842294</ele>
        <time>2022-12-22T16:36:25.594Z</time>
      </trkpt>
      <trkpt lat="45.5063" lon="-1.08797">
        <ele>42.779062</ele>
        <time>2022-12-22T16:36:27.604Z</time>
      </trkpt>
      <trkpt lat="45.50631" lon="-1.08783">
        <ele>42.746166</ele>
        <time>2022-12-22T16:36:29.604Z</time>
      </trkpt>
      <trkpt lat="45.50631" lon="-1.0877">
        <ele>42.781306</ele>
        <time>2022-12-22T16:36:31.618Z</time>
      </trkpt>
      <trkpt lat="45.5063" lon="-1.0875">
        <ele>42.832068</ele>
        <time>2022-12-22T16:36:34.604Z</time>
      </trkpt>
      <trkpt lat="45.50629" lon="-1.08737">
        <ele>42.867536</ele>
        <time>2022-12-22T16:36:36.620Z</time>
      </trkpt>
      <trkpt lat="45.50627" lon="-1.08723">
        <ele>42.905288</ele>
        <time>2022-12-22T16:36:38.601Z</time>
      </trkpt>
      <trkpt lat="45.50625" lon="-1.08708">
        <ele>42.943062</ele>
        <time>2022-12-22T16:36:40.610Z</time>
      </trkpt>
      <trkpt lat="45.50623" lon="-1.08694">
        <ele>42.981675</ele>
        <time>2022-12-22T16:36:42.621Z</time>
      </trkpt>
      <trkpt lat="45.50619" lon="-1.08679">
        <ele>43.021851</ele>
        <time>2022-12-22T16:36:44.615Z</time>
      </trkpt>
      <trkpt lat="45.50615" lon="-1.08665">
        <ele>43.061444</ele>
        <time>2022-12-22T16:36:46.595Z</time>
      </trkpt>
      <trkpt lat="45.50611" lon="-1.08653">
        <ele>43.096974</ele>
        <time>2022-12-22T16:36:48.600Z</time>
      </trkpt>
      <trkpt lat="45.50607" lon="-1.08641">
        <ele>43.131939</ele>
        <time>2022-12-22T16:36:50.619Z</time>
      </trkpt>
      <trkpt lat="45.506" lon="-1.08624">
        <ele>43.181574</ele>
        <time>2022-12-22T16:36:53.590Z</time>
      </trkpt>
      <trkpt lat="45.50592" lon="-1.08611">
        <ele>43.22827</ele>
        <time>2022-12-22T16:36:56.606Z</time>
      </trkpt>
      <trkpt lat="45.50586" lon="-1.08601">
        <ele>43.262225</ele>
        <time>2022-12-22T16:36:58.598Z</time>
      </trkpt>
      <trkpt lat="45.5058" lon="-1.08591">
        <ele>43.297172</ele>
        <time>2022-12-22T16:37:00.591Z</time>
      </trkpt>
      <trkpt lat="45.50574" lon="-1.08581">
        <ele>43.33096</ele>
        <time>2022-12-22T16:37:02.601Z</time>
      </trkpt>
      <trkpt lat="45.50567" lon="-1.08572">
        <ele>43.366129</ele>
        <time>2022-12-22T16:37:04.622Z</time>
      </trkpt>
      <trkpt lat="45.50559" lon="-1.08564">
        <ele>43.401063</ele>
        <time>2022-12-22T16:37:06.604Z</time>
      </trkpt>
      <trkpt lat="45.50549" lon="-1.08551">
        <ele>43.382501</ele>
        <time>2022-12-22T16:37:09.612Z</time>
      </trkpt>
      <trkpt lat="45.50538" lon="-1.08541">
        <ele>43.359152</ele>
        <time>2022-12-22T16:37:12.605Z</time>
      </trkpt>
      <trkpt lat="45.50526" lon="-1.08532">
        <ele>43.335877</ele>
        <time>2022-12-22T16:37:15.605Z</time>
      </trkpt>
      <trkpt lat="45.50514" lon="-1.08524">
        <ele>43.312722</ele>
        <time>2022-12-22T16:37:18.618Z</time>
      </trkpt>
      <trkpt lat="45.50505" lon="-1.08518">
        <ele>43.295878</ele>
        <time>2022-12-22T16:37:20.620Z</time>
      </trkpt>
      <trkpt lat="45.50497" lon="-1.08512">
        <ele>43.279289</ele>
        <time>2022-12-22T16:37:22.604Z</time>
      </trkpt>
      <trkpt lat="45.50489" lon="-1.08505">
        <ele>43.262831</ele>
        <time>2022-12-22T16:37:24.604Z</time>
      </trkpt>
      <trkpt lat="45.50477" lon="-1.08496">
        <ele>43.23941</ele>
        <time>2022-12-22T16:37:27.603Z</time>
      </trkpt>
      <trkpt lat="45.50465" lon="-1.08487">
        <ele>43.216081</ele>
        <time>2022-12-22T16:37:30.596Z</time>
      </trkpt>
      <trkpt lat="45.50454" lon="-1.08478">
        <ele>43.19344</ele>
        <time>2022-12-22T16:37:33.602Z</time>
      </trkpt>
      <trkpt lat="45.50442" lon="-1.08469">
        <ele>43.170107</ele>
        <time>2022-12-22T16:37:36.595Z</time>
      </trkpt>
      <trkpt lat="45.50434" lon="-1.08463">
        <ele>43.154108</ele>
        <time>2022-12-22T16:37:38.588Z</time>
      </trkpt>
      <trkpt lat="45.50425" lon="-1.08456">
        <ele>43.13689</ele>
        <time>2022-12-22T16:37:40.598Z</time>
      </trkpt>
      <trkpt lat="45.50417" lon="-1.0845">
        <ele>43.120935</ele>
        <time>2022-12-22T16:37:42.591Z</time>
      </trkpt>
      <trkpt lat="45.50409" lon="-1.08444">
        <ele>43.105114</ele>
        <time>2022-12-22T16:37:44.598Z</time>
      </trkpt>
      <trkpt lat="45.50397" lon="-1.08436">
        <ele>43.089349</ele>
        <time>2022-12-22T16:37:47.597Z</time>
      </trkpt>
      <trkpt lat="45.50386" lon="-1.08428">
        <ele>43.086589</ele>
        <time>2022-12-22T16:37:50.601Z</time>
      </trkpt>
      <trkpt lat="45.50375" lon="-1.0842">
        <ele>43.083821</ele>
        <time>2022-12-22T16:37:53.601Z</time>
      </trkpt>
      <trkpt lat="45.50363" lon="-1.08412">
        <ele>43.081021</ele>
        <time>2022-12-22T16:37:56.602Z</time>
      </trkpt>
      <trkpt lat="45.50351" lon="-1.08403">
        <ele>43.078143</ele>
        <time>2022-12-22T16:37:59.603Z</time>
      </trkpt>
      <trkpt lat="45.5034" lon="-1.08394">
        <ele>43.075213</ele>
        <time>2022-12-22T16:38:02.606Z</time>
      </trkpt>
      <trkpt lat="45.50328" lon="-1.08386">
        <ele>43.072354</ele>
        <time>2022-12-22T16:38:05.605Z</time>
      </trkpt>
      <trkpt lat="45.5032" lon="-1.0838">
        <ele>43.070331</ele>
        <time>2022-12-22T16:38:07.612Z</time>
      </trkpt>
      <trkpt lat="45.50311" lon="-1.08373">
        <ele>43.068245</ele>
        <time>2022-12-22T16:38:09.589Z</time>
      </trkpt>
      <trkpt lat="45.50303" lon="-1.08367">
        <ele>43.06619</ele>
        <time>2022-12-22T16:38:11.591Z</time>
      </trkpt>
      <trkpt lat="45.50295" lon="-1.0836">
        <ele>43.064091</ele>
        <time>2022-12-22T16:38:13.604Z</time>
      </trkpt>
      <trkpt lat="45.50286" lon="-1.08354">
        <ele>43.061951</ele>
        <time>2022-12-22T16:38:15.601Z</time>
      </trkpt>
      <trkpt lat="45.50278" lon="-1.08347">
        <ele>43.059918</ele>
        <time>2022-12-22T16:38:17.593Z</time>
      </trkpt>
      <trkpt lat="45.5027" lon="-1.0834">
        <ele>43.057803</ele>
        <time>2022-12-22T16:38:19.595Z</time>
      </trkpt>
      <trkpt lat="45.50262" lon="-1.08331">
        <ele>43.055602</ele>
        <time>2022-12-22T16:38:21.595Z</time>
      </trkpt>
      <trkpt lat="45.50254" lon="-1.08322">
        <ele>43.053468</ele>
        <time>2022-12-22T16:38:23.596Z</time>
      </trkpt>
      <trkpt lat="45.50247" lon="-1.08313">
        <ele>43.051386</ele>
        <time>2022-12-22T16:38:25.603Z</time>
      </trkpt>
      <trkpt lat="45.50241" lon="-1.08304">
        <ele>43.069595</ele>
        <time>2022-12-22T16:38:27.613Z</time>
      </trkpt>
      <trkpt lat="45.50232" lon="-1.0829">
        <ele>43.100978</ele>
        <time>2022-12-22T16:38:30.592Z</time>
      </trkpt>
      <trkpt lat="45.50223" lon="-1.08279">
        <ele>43.130253</ele>
        <time>2022-12-22T16:38:33.606Z</time>
      </trkpt>
      <trkpt lat="45.50214" lon="-1.08266">
        <ele>43.160403</ele>
        <time>2022-12-22T16:38:36.601Z</time>
      </trkpt>
      <trkpt lat="45.50204" lon="-1.08254">
        <ele>43.192483</ele>
        <time>2022-12-22T16:38:39.616Z</time>
      </trkpt>
      <trkpt lat="45.50197" lon="-1.08245">
        <ele>43.214294</ele>
        <time>2022-12-22T16:38:41.604Z</time>
      </trkpt>
      <trkpt lat="45.50191" lon="-1.08236">
        <ele>43.236455</ele>
        <time>2022-12-22T16:38:43.602Z</time>
      </trkpt>
      <trkpt lat="45.50184" lon="-1.08227">
        <ele>43.258498</ele>
        <time>2022-12-22T16:38:45.609Z</time>
      </trkpt>
      <trkpt lat="45.50175" lon="-1.08213">
        <ele>43.291186</ele>
        <time>2022-12-22T16:38:48.613Z</time>
      </trkpt>
      <trkpt lat="45.50168" lon="-1.08204">
        <ele>43.313122</ele>
        <time>2022-12-22T16:38:50.617Z</time>
      </trkpt>
      <trkpt lat="45.50159" lon="-1.08191">
        <ele>43.344731</ele>
        <time>2022-12-22T16:38:53.601Z</time>
      </trkpt>
      <trkpt lat="45.50151" lon="-1.0818">
        <ele>43.371561</ele>
        <time>2022-12-22T16:38:56.621Z</time>
      </trkpt>
      <trkpt lat="45.50142" lon="-1.08168">
        <ele>43.400079</ele>
        <time>2022-12-22T16:38:59.622Z</time>
      </trkpt>
      <trkpt lat="45.50133" lon="-1.08156">
        <ele>43.430115</ele>
        <time>2022-12-22T16:39:02.595Z</time>
      </trkpt>
      <trkpt lat="45.50124" lon="-1.08143">
        <ele>43.461448</ele>
        <time>2022-12-22T16:39:05.589Z</time>
      </trkpt>
      <trkpt lat="45.50115" lon="-1.0813">
        <ele>43.478865</ele>
        <time>2022-12-22T16:39:08.600Z</time>
      </trkpt>
      <trkpt lat="45.50106" lon="-1.08117">
        <ele>43.451436</ele>
        <time>2022-12-22T16:39:11.601Z</time>
      </trkpt>
      <trkpt lat="45.50099" lon="-1.08108">
        <ele>43.432191</ele>
        <time>2022-12-22T16:39:13.624Z</time>
      </trkpt>
      <trkpt lat="45.50089" lon="-1.08095">
        <ele>43.404669</ele>
        <time>2022-12-22T16:39:16.605Z</time>
      </trkpt>
      <trkpt lat="45.50081" lon="-1.08084">
        <ele>43.379682</ele>
        <time>2022-12-22T16:39:19.591Z</time>
      </trkpt>
      <trkpt lat="45.50073" lon="-1.08072">
        <ele>43.356141</ele>
        <time>2022-12-22T16:39:22.618Z</time>
      </trkpt>
      <trkpt lat="45.50064" lon="-1.0806">
        <ele>43.330243</ele>
        <time>2022-12-22T16:39:25.624Z</time>
      </trkpt>
      <trkpt lat="45.50055" lon="-1.08048">
        <ele>43.303585</ele>
        <time>2022-12-22T16:39:28.611Z</time>
      </trkpt>
      <trkpt lat="45.50046" lon="-1.08034">
        <ele>43.276779</ele>
        <time>2022-12-22T16:39:31.598Z</time>
      </trkpt>
      <trkpt lat="45.50039" lon="-1.08025">
        <ele>43.257534</ele>
        <time>2022-12-22T16:39:33.626Z</time>
      </trkpt>
      <trkpt lat="45.50033" lon="-1.08016">
        <ele>43.238225</ele>
        <time>2022-12-22T16:39:35.608Z</time>
      </trkpt>
      <trkpt lat="45.50027" lon="-1.08007">
        <ele>43.218915</ele>
        <time>2022-12-22T16:39:37.608Z</time>
      </trkpt>
      <trkpt lat="45.5002" lon="-1.07998">
        <ele>43.199106</ele>
        <time>2022-12-22T16:39:39.615Z</time>
      </trkpt>
      <trkpt lat="45.50013" lon="-1.07988">
        <ele>43.180007</ele>
        <time>2022-12-22T16:39:41.603Z</time>
      </trkpt>
      <trkpt lat="45.50006" lon="-1.07979">
        <ele>43.159645</ele>
        <time>2022-12-22T16:39:43.608Z</time>
      </trkpt>
      <trkpt lat="45.49995" lon="-1.07966">
        <ele>43.130163</ele>
        <time>2022-12-22T16:39:46.594Z</time>
      </trkpt>
      <trkpt lat="45.49986" lon="-1.07952">
        <ele>43.126148</ele>
        <time>2022-12-22T16:39:49.623Z</time>
      </trkpt>
      <trkpt lat="45.4998" lon="-1.07942">
        <ele>43.194176</ele>
        <time>2022-12-22T16:39:51.622Z</time>
      </trkpt>
      <trkpt lat="45.49973" lon="-1.07933">
        <ele>43.261365</ele>
        <time>2022-12-22T16:39:53.600Z</time>
      </trkpt>
      <trkpt lat="45.49967" lon="-1.07924">
        <ele>43.327298</ele>
        <time>2022-12-22T16:39:55.618Z</time>
      </trkpt>
      <trkpt lat="45.4996" lon="-1.07915">
        <ele>43.394289</ele>
        <time>2022-12-22T16:39:57.622Z</time>
      </trkpt>
      <trkpt lat="45.4995" lon="-1.07903">
        <ele>43.490035</ele>
        <time>2022-12-22T16:40:00.608Z</time>
      </trkpt>
      <trkpt lat="45.49941" lon="-1.07889">
        <ele>43.586843</ele>
        <time>2022-12-22T16:40:03.603Z</time>
      </trkpt>
      <trkpt lat="45.49934" lon="-1.0788">
        <ele>43.654195</ele>
        <time>2022-12-22T16:40:05.622Z</time>
      </trkpt>
      <trkpt lat="45.49928" lon="-1.07871">
        <ele>43.719598</ele>
        <time>2022-12-22T16:40:07.626Z</time>
      </trkpt>
      <trkpt lat="45.49921" lon="-1.07862">
        <ele>43.788528</ele>
        <time>2022-12-22T16:40:09.624Z</time>
      </trkpt>
      <trkpt lat="45.49914" lon="-1.07853">
        <ele>43.8564</ele>
        <time>2022-12-22T16:40:11.594Z</time>
      </trkpt>
      <trkpt lat="45.49908" lon="-1.07843">
        <ele>43.923076</ele>
        <time>2022-12-22T16:40:13.620Z</time>
      </trkpt>
      <trkpt lat="45.49901" lon="-1.07835">
        <ele>43.989948</ele>
        <time>2022-12-22T16:40:15.613Z</time>
      </trkpt>
      <trkpt lat="45.49894" lon="-1.07825">
        <ele>44.060463</ele>
        <time>2022-12-22T16:40:17.614Z</time>
      </trkpt>
      <trkpt lat="45.49887" lon="-1.07817">
        <ele>44.127071</ele>
        <time>2022-12-22T16:40:19.602Z</time>
      </trkpt>
      <trkpt lat="45.49879" lon="-1.07809">
        <ele>44.197486</ele>
        <time>2022-12-22T16:40:21.599Z</time>
      </trkpt>
      <trkpt lat="45.49872" lon="-1.07802">
        <ele>44.263151</ele>
        <time>2022-12-22T16:40:23.593Z</time>
      </trkpt>
      <trkpt lat="45.49864" lon="-1.07794">
        <ele>44.331519</ele>
        <time>2022-12-22T16:40:25.610Z</time>
      </trkpt>
      <trkpt lat="45.49856" lon="-1.07786">
        <ele>44.401345</ele>
        <time>2022-12-22T16:40:27.601Z</time>
      </trkpt>
      <trkpt lat="45.49848" lon="-1.07779">
        <ele>44.411591</ele>
        <time>2022-12-22T16:40:29.597Z</time>
      </trkpt>
      <trkpt lat="45.49837" lon="-1.0777">
        <ele>44.395789</ele>
        <time>2022-12-22T16:40:32.617Z</time>
      </trkpt>
      <trkpt lat="45.49829" lon="-1.07763">
        <ele>44.384486</ele>
        <time>2022-12-22T16:40:34.625Z</time>
      </trkpt>
      <trkpt lat="45.49817" lon="-1.07755">
        <ele>44.368199</ele>
        <time>2022-12-22T16:40:37.601Z</time>
      </trkpt>
      <trkpt lat="45.49806" lon="-1.07746">
        <ele>44.352122</ele>
        <time>2022-12-22T16:40:40.606Z</time>
      </trkpt>
      <trkpt lat="45.49794" lon="-1.07738">
        <ele>44.335835</ele>
        <time>2022-12-22T16:40:43.603Z</time>
      </trkpt>
      <trkpt lat="45.49782" lon="-1.0773">
        <ele>44.319764</ele>
        <time>2022-12-22T16:40:46.615Z</time>
      </trkpt>
      <trkpt lat="45.49774" lon="-1.07724">
        <ele>44.308522</ele>
        <time>2022-12-22T16:40:48.601Z</time>
      </trkpt>
      <trkpt lat="45.49766" lon="-1.07718">
        <ele>44.297084</ele>
        <time>2022-12-22T16:40:50.603Z</time>
      </trkpt>
      <trkpt lat="45.49754" lon="-1.0771">
        <ele>44.280713</ele>
        <time>2022-12-22T16:40:53.607Z</time>
      </trkpt>
      <trkpt lat="45.49741" lon="-1.07703">
        <ele>44.264341</ele>
        <time>2022-12-22T16:40:56.597Z</time>
      </trkpt>
      <trkpt lat="45.4973" lon="-1.07695">
        <ele>44.248238</ele>
        <time>2022-12-22T16:40:59.621Z</time>
      </trkpt>
      <trkpt lat="45.49718" lon="-1.07688">
        <ele>44.232726</ele>
        <time>2022-12-22T16:41:02.595Z</time>
      </trkpt>
      <trkpt lat="45.49706" lon="-1.0768">
        <ele>44.216771</ele>
        <time>2022-12-22T16:41:05.631Z</time>
      </trkpt>
      <trkpt lat="45.49695" lon="-1.07671">
        <ele>44.20066</ele>
        <time>2022-12-22T16:41:08.622Z</time>
      </trkpt>
      <trkpt lat="45.49682" lon="-1.07663">
        <ele>44.174737</ele>
        <time>2022-12-22T16:41:11.605Z</time>
      </trkpt>
      <trkpt lat="45.49671" lon="-1.07656">
        <ele>44.148673</ele>
        <time>2022-12-22T16:41:14.597Z</time>
      </trkpt>
      <trkpt lat="45.49658" lon="-1.07647">
        <ele>44.120973</ele>
        <time>2022-12-22T16:41:17.606Z</time>
      </trkpt>
      <trkpt lat="45.4965" lon="-1.07642">
        <ele>44.102236</ele>
        <time>2022-12-22T16:41:19.610Z</time>
      </trkpt>
      <trkpt lat="45.49638" lon="-1.07633">
        <ele>44.075141</ele>
        <time>2022-12-22T16:41:22.596Z</time>
      </trkpt>
      <trkpt lat="45.49625" lon="-1.07625">
        <ele>44.047683</ele>
        <time>2022-12-22T16:41:25.615Z</time>
      </trkpt>
      <trkpt lat="45.49617" lon="-1.07621">
        <ele>44.029297</ele>
        <time>2022-12-22T16:41:27.603Z</time>
      </trkpt>
      <trkpt lat="45.49605" lon="-1.07613">
        <ele>44.002206</ele>
        <time>2022-12-22T16:41:30.598Z</time>
      </trkpt>
      <trkpt lat="45.49592" lon="-1.07605">
        <ele>43.975289</ele>
        <time>2022-12-22T16:41:33.612Z</time>
      </trkpt>
      <trkpt lat="45.49584" lon="-1.076">
        <ele>43.956629</ele>
        <time>2022-12-22T16:41:35.601Z</time>
      </trkpt>
      <trkpt lat="45.49575" lon="-1.07595">
        <ele>43.937705</ele>
        <time>2022-12-22T16:41:37.606Z</time>
      </trkpt>
      <trkpt lat="45.49567" lon="-1.0759">
        <ele>43.918998</ele>
        <time>2022-12-22T16:41:39.622Z</time>
      </trkpt>
      <trkpt lat="45.49558" lon="-1.07584">
        <ele>43.900533</ele>
        <time>2022-12-22T16:41:41.607Z</time>
      </trkpt>
      <trkpt lat="45.4955" lon="-1.07578">
        <ele>43.881461</ele>
        <time>2022-12-22T16:41:43.598Z</time>
      </trkpt>
      <trkpt lat="45.49542" lon="-1.07573">
        <ele>43.863113</ele>
        <time>2022-12-22T16:41:45.599Z</time>
      </trkpt>
      <trkpt lat="45.49533" lon="-1.07567">
        <ele>43.843913</ele>
        <time>2022-12-22T16:41:47.616Z</time>
      </trkpt>
      <trkpt lat="45.49521" lon="-1.0756">
        <ele>43.827901</ele>
        <time>2022-12-22T16:41:50.625Z</time>
      </trkpt>
      <trkpt lat="45.49508" lon="-1.07552">
        <ele>43.817057</ele>
        <time>2022-12-22T16:41:53.623Z</time>
      </trkpt>
      <trkpt lat="45.495" lon="-1.07546">
        <ele>43.809724</ele>
        <time>2022-12-22T16:41:55.630Z</time>
      </trkpt>
      <trkpt lat="45.49491" lon="-1.0754">
        <ele>43.802078</ele>
        <time>2022-12-22T16:41:57.625Z</time>
      </trkpt>
      <trkpt lat="45.4948" lon="-1.07532">
        <ele>43.791523</ele>
        <time>2022-12-22T16:42:00.611Z</time>
      </trkpt>
      <trkpt lat="45.49469" lon="-1.07524">
        <ele>43.781674</ele>
        <time>2022-12-22T16:42:03.625Z</time>
      </trkpt>
      <trkpt lat="45.49457" lon="-1.07518">
        <ele>43.771805</ele>
        <time>2022-12-22T16:42:06.609Z</time>
      </trkpt>
      <trkpt lat="45.49446" lon="-1.0751">
        <ele>43.761834</ele>
        <time>2022-12-22T16:42:09.623Z</time>
      </trkpt>
      <trkpt lat="45.49435" lon="-1.07502">
        <ele>43.752025</ele>
        <time>2022-12-22T16:42:12.603Z</time>
      </trkpt>
      <trkpt lat="45.49424" lon="-1.07496">
        <ele>43.742315</ele>
        <time>2022-12-22T16:42:15.602Z</time>
      </trkpt>
      <trkpt lat="45.49413" lon="-1.07488">
        <ele>43.732175</ele>
        <time>2022-12-22T16:42:18.605Z</time>
      </trkpt>
      <trkpt lat="45.49401" lon="-1.0748">
        <ele>43.72177</ele>
        <time>2022-12-22T16:42:21.610Z</time>
      </trkpt>
      <trkpt lat="45.49389" lon="-1.07472">
        <ele>43.711193</ele>
        <time>2022-12-22T16:42:24.612Z</time>
      </trkpt>
      <trkpt lat="45.49377" lon="-1.07465">
        <ele>43.700963</ele>
        <time>2022-12-22T16:42:27.601Z</time>
      </trkpt>
      <trkpt lat="45.49366" lon="-1.07459">
        <ele>43.691392</ele>
        <time>2022-12-22T16:42:30.606Z</time>
      </trkpt>
      <trkpt lat="45.49355" lon="-1.07451">
        <ele>43.681174</ele>
        <time>2022-12-22T16:42:33.610Z</time>
      </trkpt>
      <trkpt lat="45.49344" lon="-1.07444">
        <ele>43.671031</ele>
        <time>2022-12-22T16:42:36.601Z</time>
      </trkpt>
      <trkpt lat="45.49333" lon="-1.07437">
        <ele>43.660651</ele>
        <time>2022-12-22T16:42:39.608Z</time>
      </trkpt>
      <trkpt lat="45.49322" lon="-1.0743">
        <ele>43.65045</ele>
        <time>2022-12-22T16:42:42.597Z</time>
      </trkpt>
      <trkpt lat="45.49311" lon="-1.07422">
        <ele>43.64037</ele>
        <time>2022-12-22T16:42:45.613Z</time>
      </trkpt>
      <trkpt lat="45.493" lon="-1.07415">
        <ele>43.630075</ele>
        <time>2022-12-22T16:42:48.600Z</time>
      </trkpt>
      <trkpt lat="45.49289" lon="-1.07409">
        <ele>43.619833</ele>
        <time>2022-12-22T16:42:51.610Z</time>
      </trkpt>
      <trkpt lat="45.49278" lon="-1.07403">
        <ele>43.609934</ele>
        <time>2022-12-22T16:42:54.601Z</time>
      </trkpt>
      <trkpt lat="45.49267" lon="-1.07396">
        <ele>43.599689</ele>
        <time>2022-12-22T16:42:57.623Z</time>
      </trkpt>
      <trkpt lat="45.49256" lon="-1.07388">
        <ele>43.589162</ele>
        <time>2022-12-22T16:43:00.610Z</time>
      </trkpt>
      <trkpt lat="45.49244" lon="-1.07381">
        <ele>43.578735</ele>
        <time>2022-12-22T16:43:03.623Z</time>
      </trkpt>
      <trkpt lat="45.49234" lon="-1.07374">
        <ele>43.568616</ele>
        <time>2022-12-22T16:43:06.619Z</time>
      </trkpt>
      <trkpt lat="45.49223" lon="-1.07368">
        <ele>43.558663</ele>
        <time>2022-12-22T16:43:09.624Z</time>
      </trkpt>
      <trkpt lat="45.49213" lon="-1.07362">
        <ele>43.549447</ele>
        <time>2022-12-22T16:43:12.601Z</time>
      </trkpt>
      <trkpt lat="45.49203" lon="-1.07356">
        <ele>43.540899</ele>
        <time>2022-12-22T16:43:15.597Z</time>
      </trkpt>
      <trkpt lat="45.49194" lon="-1.0735">
        <ele>43.520372</ele>
        <time>2022-12-22T16:43:18.604Z</time>
      </trkpt>
      <trkpt lat="45.49184" lon="-1.07343">
        <ele>43.495989</ele>
        <time>2022-12-22T16:43:21.623Z</time>
      </trkpt>
      <trkpt lat="45.49174" lon="-1.07337">
        <ele>43.469963</ele>
        <time>2022-12-22T16:43:24.619Z</time>
      </trkpt>
      <trkpt lat="45.49163" lon="-1.0733">
        <ele>43.442956</ele>
        <time>2022-12-22T16:43:27.599Z</time>
      </trkpt>
      <trkpt lat="45.49151" lon="-1.07324">
        <ele>43.414839</ele>
        <time>2022-12-22T16:43:30.622Z</time>
      </trkpt>
      <trkpt lat="45.4914" lon="-1.07317">
        <ele>43.386953</ele>
        <time>2022-12-22T16:43:33.597Z</time>
      </trkpt>
      <trkpt lat="45.49129" lon="-1.07312">
        <ele>43.361951</ele>
        <time>2022-12-22T16:43:36.623Z</time>
      </trkpt>
      <trkpt lat="45.49119" lon="-1.07304">
        <ele>43.335792</ele>
        <time>2022-12-22T16:43:39.600Z</time>
      </trkpt>
      <trkpt lat="45.49108" lon="-1.07297">
        <ele>43.308678</ele>
        <time>2022-12-22T16:43:42.595Z</time>
      </trkpt>
      <trkpt lat="45.49097" lon="-1.0729">
        <ele>43.28068</ele>
        <time>2022-12-22T16:43:45.596Z</time>
      </trkpt>
      <trkpt lat="45.49086" lon="-1.07283">
        <ele>43.253695</ele>
        <time>2022-12-22T16:43:48.595Z</time>
      </trkpt>
      <trkpt lat="45.49076" lon="-1.07277">
        <ele>43.228847</ele>
        <time>2022-12-22T16:43:51.595Z</time>
      </trkpt>
      <trkpt lat="45.49065" lon="-1.07271">
        <ele>43.202861</ele>
        <time>2022-12-22T16:43:54.592Z</time>
      </trkpt>
      <trkpt lat="45.49054" lon="-1.07265">
        <ele>43.175104</ele>
        <time>2022-12-22T16:43:57.611Z</time>
      </trkpt>
      <trkpt lat="45.49042" lon="-1.07258">
        <ele>43.146866</ele>
        <time>2022-12-22T16:44:00.596Z</time>
      </trkpt>
      <trkpt lat="45.4903" lon="-1.07251">
        <ele>43.141716</ele>
        <time>2022-12-22T16:44:03.619Z</time>
      </trkpt>
      <trkpt lat="45.49018" lon="-1.07243">
        <ele>43.166377</ele>
        <time>2022-12-22T16:44:06.618Z</time>
      </trkpt>
      <trkpt lat="45.49006" lon="-1.07236">
        <ele>43.191783</ele>
        <time>2022-12-22T16:44:09.620Z</time>
      </trkpt>
      <trkpt lat="45.48998" lon="-1.0723">
        <ele>43.208699</ele>
        <time>2022-12-22T16:44:11.598Z</time>
      </trkpt>
      <trkpt lat="45.48986" lon="-1.07224">
        <ele>43.232322</ele>
        <time>2022-12-22T16:44:14.598Z</time>
      </trkpt>
      <trkpt lat="45.48975" lon="-1.07217">
        <ele>43.254219</ele>
        <time>2022-12-22T16:44:17.615Z</time>
      </trkpt>
      <trkpt lat="45.48965" lon="-1.07211">
        <ele>43.274757</ele>
        <time>2022-12-22T16:44:20.607Z</time>
      </trkpt>
      <trkpt lat="45.48954" lon="-1.07205">
        <ele>43.296286</ele>
        <time>2022-12-22T16:44:23.616Z</time>
      </trkpt>
      <trkpt lat="45.48943" lon="-1.07198">
        <ele>43.318605</ele>
        <time>2022-12-22T16:44:26.612Z</time>
      </trkpt>
      <trkpt lat="45.48932" lon="-1.07191">
        <ele>43.342006</ele>
        <time>2022-12-22T16:44:29.621Z</time>
      </trkpt>
      <trkpt lat="45.4892" lon="-1.07184">
        <ele>43.365547</ele>
        <time>2022-12-22T16:44:32.605Z</time>
      </trkpt>
      <trkpt lat="45.48908" lon="-1.07177">
        <ele>43.389198</ele>
        <time>2022-12-22T16:44:35.601Z</time>
      </trkpt>
      <trkpt lat="45.48897" lon="-1.0717">
        <ele>43.412734</ele>
        <time>2022-12-22T16:44:38.604Z</time>
      </trkpt>
      <trkpt lat="45.48886" lon="-1.07163">
        <ele>43.434144</ele>
        <time>2022-12-22T16:44:41.602Z</time>
      </trkpt>
      <trkpt lat="45.48876" lon="-1.07158">
        <ele>43.454312</ele>
        <time>2022-12-22T16:44:44.602Z</time>
      </trkpt>
      <trkpt lat="45.48866" lon="-1.07151">
        <ele>43.490646</ele>
        <time>2022-12-22T16:44:47.622Z</time>
      </trkpt>
      <trkpt lat="45.48855" lon="-1.07144">
        <ele>43.549048</ele>
        <time>2022-12-22T16:44:50.605Z</time>
      </trkpt>
      <trkpt lat="45.48843" lon="-1.07138">
        <ele>43.611118</ele>
        <time>2022-12-22T16:44:53.604Z</time>
      </trkpt>
      <trkpt lat="45.48831" lon="-1.07131">
        <ele>43.674757</ele>
        <time>2022-12-22T16:44:56.598Z</time>
      </trkpt>
      <trkpt lat="45.48819" lon="-1.07124">
        <ele>43.738075</ele>
        <time>2022-12-22T16:44:59.620Z</time>
      </trkpt>
      <trkpt lat="45.48808" lon="-1.07117">
        <ele>43.80035</ele>
        <time>2022-12-22T16:45:02.606Z</time>
      </trkpt>
      <trkpt lat="45.48795" lon="-1.07112">
        <ele>43.865121</ele>
        <time>2022-12-22T16:45:05.601Z</time>
      </trkpt>
      <trkpt lat="45.48782" lon="-1.07107">
        <ele>43.930368</ele>
        <time>2022-12-22T16:45:08.621Z</time>
      </trkpt>
      <trkpt lat="45.48773" lon="-1.07103">
        <ele>43.976988</ele>
        <time>2022-12-22T16:45:10.601Z</time>
      </trkpt>
      <trkpt lat="45.48761" lon="-1.071">
        <ele>44.039027</ele>
        <time>2022-12-22T16:45:13.624Z</time>
      </trkpt>
      <trkpt lat="45.48749" lon="-1.07096">
        <ele>44.100432</ele>
        <time>2022-12-22T16:45:16.620Z</time>
      </trkpt>
      <trkpt lat="45.48736" lon="-1.07092">
        <ele>44.164663</ele>
        <time>2022-12-22T16:45:19.596Z</time>
      </trkpt>
      <trkpt lat="45.48727" lon="-1.0709">
        <ele>44.210103</ele>
        <time>2022-12-22T16:45:21.623Z</time>
      </trkpt>
      <trkpt lat="45.48715" lon="-1.07087">
        <ele>44.270886</ele>
        <time>2022-12-22T16:45:24.594Z</time>
      </trkpt>
      <trkpt lat="45.48704" lon="-1.07083">
        <ele>44.32582</ele>
        <time>2022-12-22T16:45:27.622Z</time>
      </trkpt>
      <trkpt lat="45.48693" lon="-1.07079">
        <ele>44.344201</ele>
        <time>2022-12-22T16:45:30.622Z</time>
      </trkpt>
      <trkpt lat="45.48682" lon="-1.07075">
        <ele>44.328472</ele>
        <time>2022-12-22T16:45:33.603Z</time>
      </trkpt>
      <trkpt lat="45.48671" lon="-1.0707">
        <ele>44.312449</ele>
        <time>2022-12-22T16:45:36.597Z</time>
      </trkpt>
      <trkpt lat="45.48659" lon="-1.07065">
        <ele>44.296416</ele>
        <time>2022-12-22T16:45:39.599Z</time>
      </trkpt>
      <trkpt lat="45.48648" lon="-1.07061">
        <ele>44.279845</ele>
        <time>2022-12-22T16:45:42.600Z</time>
      </trkpt>
      <trkpt lat="45.48636" lon="-1.07055">
        <ele>44.263148</ele>
        <time>2022-12-22T16:45:45.599Z</time>
      </trkpt>
      <trkpt lat="45.48624" lon="-1.07049">
        <ele>44.246065</ele>
        <time>2022-12-22T16:45:48.599Z</time>
      </trkpt>
      <trkpt lat="45.48612" lon="-1.07043">
        <ele>44.228724</ele>
        <time>2022-12-22T16:45:51.621Z</time>
      </trkpt>
      <trkpt lat="45.486" lon="-1.07036">
        <ele>44.211064</ele>
        <time>2022-12-22T16:45:54.604Z</time>
      </trkpt>
      <trkpt lat="45.48589" lon="-1.07027">
        <ele>44.193501</ele>
        <time>2022-12-22T16:45:57.610Z</time>
      </trkpt>
      <trkpt lat="45.48578" lon="-1.07019">
        <ele>44.175733</ele>
        <time>2022-12-22T16:46:00.596Z</time>
      </trkpt>
      <trkpt lat="45.48566" lon="-1.07011">
        <ele>44.15854</ele>
        <time>2022-12-22T16:46:03.601Z</time>
      </trkpt>
      <trkpt lat="45.48556" lon="-1.07003">
        <ele>44.142366</ele>
        <time>2022-12-22T16:46:06.587Z</time>
      </trkpt>
      <trkpt lat="45.48545" lon="-1.06996">
        <ele>44.125627</ele>
        <time>2022-12-22T16:46:09.602Z</time>
      </trkpt>
      <trkpt lat="45.48534" lon="-1.06987">
        <ele>44.108728</ele>
        <time>2022-12-22T16:46:12.621Z</time>
      </trkpt>
      <trkpt lat="45.48523" lon="-1.06979">
        <ele>44.079764</ele>
        <time>2022-12-22T16:46:15.595Z</time>
      </trkpt>
      <trkpt lat="45.48511" lon="-1.0697">
        <ele>44.047811</ele>
        <time>2022-12-22T16:46:18.591Z</time>
      </trkpt>
      <trkpt lat="45.485" lon="-1.06962">
        <ele>44.015387</ele>
        <time>2022-12-22T16:46:21.597Z</time>
      </trkpt>
      <trkpt lat="45.48488" lon="-1.06953">
        <ele>43.982016</ele>
        <time>2022-12-22T16:46:24.598Z</time>
      </trkpt>
      <trkpt lat="45.48475" lon="-1.06945">
        <ele>43.948539</ele>
        <time>2022-12-22T16:46:27.600Z</time>
      </trkpt>
      <trkpt lat="45.48464" lon="-1.06936">
        <ele>43.915551</ele>
        <time>2022-12-22T16:46:30.601Z</time>
      </trkpt>
      <trkpt lat="45.48453" lon="-1.06927">
        <ele>43.884665</ele>
        <time>2022-12-22T16:46:33.601Z</time>
      </trkpt>
      <trkpt lat="45.48443" lon="-1.0692">
        <ele>43.857897</ele>
        <time>2022-12-22T16:46:36.596Z</time>
      </trkpt>
      <trkpt lat="45.48435" lon="-1.06914">
        <ele>43.834421</ele>
        <time>2022-12-22T16:46:39.602Z</time>
      </trkpt>
      <trkpt lat="45.48424" lon="-1.06906">
        <ele>43.804621</ele>
        <time>2022-12-22T16:46:43.609Z</time>
      </trkpt>
      <trkpt lat="45.48415" lon="-1.06899">
        <ele>43.778427</ele>
        <time>2022-12-22T16:46:46.599Z</time>
      </trkpt>
      <trkpt lat="45.48405" lon="-1.06891">
        <ele>43.75076</ele>
        <time>2022-12-22T16:46:49.600Z</time>
      </trkpt>
      <trkpt lat="45.48395" lon="-1.06883">
        <ele>43.721593</ele>
        <time>2022-12-22T16:46:52.596Z</time>
      </trkpt>
      <trkpt lat="45.48384" lon="-1.06876">
        <ele>43.692945</ele>
        <time>2022-12-22T16:46:55.597Z</time>
      </trkpt>
      <trkpt lat="45.48374" lon="-1.06868">
        <ele>43.664431</ele>
        <time>2022-12-22T16:46:58.601Z</time>
      </trkpt>
      <trkpt lat="45.48364" lon="-1.0686">
        <ele>43.727341</ele>
        <time>2022-12-22T16:47:01.603Z</time>
      </trkpt>
      <trkpt lat="45.48353" lon="-1.06852">
        <ele>43.803934</ele>
        <time>2022-12-22T16:47:04.596Z</time>
      </trkpt>
      <trkpt lat="45.48342" lon="-1.06844">
        <ele>43.88483</ele>
        <time>2022-12-22T16:47:07.599Z</time>
      </trkpt>
      <trkpt lat="45.48331" lon="-1.06837">
        <ele>43.959053</ele>
        <time>2022-12-22T16:47:10.599Z</time>
      </trkpt>
      <trkpt lat="45.4832" lon="-1.06829">
        <ele>44.038614</ele>
        <time>2022-12-22T16:47:13.610Z</time>
      </trkpt>
      <trkpt lat="45.48309" lon="-1.06819">
        <ele>44.123025</ele>
        <time>2022-12-22T16:47:16.618Z</time>
      </trkpt>
      <trkpt lat="45.48301" lon="-1.06812">
        <ele>44.180315</ele>
        <time>2022-12-22T16:47:18.605Z</time>
      </trkpt>
      <trkpt lat="45.48293" lon="-1.06805">
        <ele>44.240638</ele>
        <time>2022-12-22T16:47:20.598Z</time>
      </trkpt>
      <trkpt lat="45.48285" lon="-1.06797">
        <ele>44.300709</ele>
        <time>2022-12-22T16:47:22.617Z</time>
      </trkpt>
      <trkpt lat="45.48278" lon="-1.06788">
        <ele>44.362606</ele>
        <time>2022-12-22T16:47:24.603Z</time>
      </trkpt>
      <trkpt lat="45.4827" lon="-1.06779">
        <ele>44.424089</ele>
        <time>2022-12-22T16:47:26.608Z</time>
      </trkpt>
      <trkpt lat="45.48261" lon="-1.06767">
        <ele>44.505647</ele>
        <time>2022-12-22T16:47:29.602Z</time>
      </trkpt>
      <trkpt lat="45.48252" lon="-1.06755">
        <ele>44.580678</ele>
        <time>2022-12-22T16:47:32.602Z</time>
      </trkpt>
      <trkpt lat="45.48245" lon="-1.06744">
        <ele>44.648888</ele>
        <time>2022-12-22T16:47:35.600Z</time>
      </trkpt>
      <trkpt lat="45.48237" lon="-1.06734">
        <ele>44.719013</ele>
        <time>2022-12-22T16:47:38.613Z</time>
      </trkpt>
      <trkpt lat="45.48229" lon="-1.06722">
        <ele>44.791436</ele>
        <time>2022-12-22T16:47:41.624Z</time>
      </trkpt>
      <trkpt lat="45.4822" lon="-1.0671">
        <ele>44.805665</ele>
        <time>2022-12-22T16:47:44.598Z</time>
      </trkpt>
      <trkpt lat="45.48211" lon="-1.06698">
        <ele>44.808192</ele>
        <time>2022-12-22T16:47:47.601Z</time>
      </trkpt>
      <trkpt lat="45.48201" lon="-1.06685">
        <ele>44.810801</ele>
        <time>2022-12-22T16:47:50.616Z</time>
      </trkpt>
      <trkpt lat="45.48192" lon="-1.06671">
        <ele>44.813479</ele>
        <time>2022-12-22T16:47:53.638Z</time>
      </trkpt>
      <trkpt lat="45.48185" lon="-1.06662">
        <ele>44.815284</ele>
        <time>2022-12-22T16:47:55.607Z</time>
      </trkpt>
      <trkpt lat="45.48178" lon="-1.06654">
        <ele>44.817092</ele>
        <time>2022-12-22T16:47:57.623Z</time>
      </trkpt>
      <trkpt lat="45.48169" lon="-1.06641">
        <ele>44.819596</ele>
        <time>2022-12-22T16:48:00.597Z</time>
      </trkpt>
      <trkpt lat="45.4816" lon="-1.06627">
        <ele>44.822219</ele>
        <time>2022-12-22T16:48:03.603Z</time>
      </trkpt>
      <trkpt lat="45.48151" lon="-1.06614">
        <ele>44.824849</ele>
        <time>2022-12-22T16:48:06.622Z</time>
      </trkpt>
      <trkpt lat="45.48142" lon="-1.06599">
        <ele>44.827494</ele>
        <time>2022-12-22T16:48:09.623Z</time>
      </trkpt>
      <trkpt lat="45.48136" lon="-1.0659">
        <ele>44.829392</ele>
        <time>2022-12-22T16:48:11.607Z</time>
      </trkpt>
      <trkpt lat="45.4813" lon="-1.06579">
        <ele>44.831334</ele>
        <time>2022-12-22T16:48:13.623Z</time>
      </trkpt>
      <trkpt lat="45.48123" lon="-1.0657">
        <ele>44.833202</ele>
        <time>2022-12-22T16:48:15.618Z</time>
      </trkpt>
      <trkpt lat="45.48117" lon="-1.0656">
        <ele>44.83499</ele>
        <time>2022-12-22T16:48:17.606Z</time>
      </trkpt>
      <trkpt lat="45.48111" lon="-1.0655">
        <ele>44.836834</ele>
        <time>2022-12-22T16:48:19.602Z</time>
      </trkpt>
      <trkpt lat="45.48105" lon="-1.06539">
        <ele>44.838702</ele>
        <time>2022-12-22T16:48:21.604Z</time>
      </trkpt>
      <trkpt lat="45.48099" lon="-1.06528">
        <ele>44.822776</ele>
        <time>2022-12-22T16:48:23.623Z</time>
      </trkpt>
      <trkpt lat="45.48091" lon="-1.06514">
        <ele>44.788084</ele>
        <time>2022-12-22T16:48:26.623Z</time>
      </trkpt>
      <trkpt lat="45.48083" lon="-1.065">
        <ele>44.755207</ele>
        <time>2022-12-22T16:48:29.608Z</time>
      </trkpt>
      <trkpt lat="45.48076" lon="-1.06486">
        <ele>44.721842</ele>
        <time>2022-12-22T16:48:32.604Z</time>
      </trkpt>
      <trkpt lat="45.48068" lon="-1.06473">
        <ele>44.688184</ele>
        <time>2022-12-22T16:48:35.612Z</time>
      </trkpt>
      <trkpt lat="45.4806" lon="-1.06459">
        <ele>44.654693</ele>
        <time>2022-12-22T16:48:38.624Z</time>
      </trkpt>
      <trkpt lat="45.48052" lon="-1.06445">
        <ele>44.61944</ele>
        <time>2022-12-22T16:48:41.598Z</time>
      </trkpt>
      <trkpt lat="45.48043" lon="-1.0643">
        <ele>44.583218</ele>
        <time>2022-12-22T16:48:44.620Z</time>
      </trkpt>
      <trkpt lat="45.48035" lon="-1.06415">
        <ele>44.547336</ele>
        <time>2022-12-22T16:48:47.607Z</time>
      </trkpt>
      <trkpt lat="45.48026" lon="-1.06401">
        <ele>44.512152</ele>
        <time>2022-12-22T16:48:50.622Z</time>
      </trkpt>
      <trkpt lat="45.48017" lon="-1.06387">
        <ele>44.477781</ele>
        <time>2022-12-22T16:48:53.608Z</time>
      </trkpt>
      <trkpt lat="45.4801" lon="-1.06374">
        <ele>44.446518</ele>
        <time>2022-12-22T16:48:56.629Z</time>
      </trkpt>
      <trkpt lat="45.48002" lon="-1.06363">
        <ele>44.416636</ele>
        <time>2022-12-22T16:48:59.600Z</time>
      </trkpt>
      <trkpt lat="45.47994" lon="-1.06352">
        <ele>44.385991</ele>
        <time>2022-12-22T16:49:02.607Z</time>
      </trkpt>
      <trkpt lat="45.47985" lon="-1.0634">
        <ele>44.348839</ele>
        <time>2022-12-22T16:49:05.625Z</time>
      </trkpt>
      <trkpt lat="45.47975" lon="-1.06328">
        <ele>44.271963</ele>
        <time>2022-12-22T16:49:08.603Z</time>
      </trkpt>
      <trkpt lat="45.47965" lon="-1.06316">
        <ele>44.193</ele>
        <time>2022-12-22T16:49:11.603Z</time>
      </trkpt>
      <trkpt lat="45.47954" lon="-1.06305">
        <ele>44.113045</ele>
        <time>2022-12-22T16:49:14.621Z</time>
      </trkpt>
      <trkpt lat="45.47945" lon="-1.06293">
        <ele>44.035719</ele>
        <time>2022-12-22T16:49:17.591Z</time>
      </trkpt>
      <trkpt lat="45.47936" lon="-1.06282">
        <ele>43.966213</ele>
        <time>2022-12-22T16:49:20.602Z</time>
      </trkpt>
      <trkpt lat="45.47928" lon="-1.06274">
        <ele>43.907999</ele>
        <time>2022-12-22T16:49:23.598Z</time>
      </trkpt>
      <trkpt lat="45.47919" lon="-1.06263">
        <ele>43.834838</ele>
        <time>2022-12-22T16:49:27.601Z</time>
      </trkpt>
      <trkpt lat="45.47911" lon="-1.06253">
        <ele>43.77191</ele>
        <time>2022-12-22T16:49:30.601Z</time>
      </trkpt>
      <trkpt lat="45.47902" lon="-1.06243">
        <ele>43.703663</ele>
        <time>2022-12-22T16:49:33.597Z</time>
      </trkpt>
      <trkpt lat="45.47892" lon="-1.06233">
        <ele>43.633266</ele>
        <time>2022-12-22T16:49:36.614Z</time>
      </trkpt>
      <trkpt lat="45.47883" lon="-1.06222">
        <ele>43.559955</ele>
        <time>2022-12-22T16:49:39.604Z</time>
      </trkpt>
      <trkpt lat="45.47873" lon="-1.0621">
        <ele>43.483909</ele>
        <time>2022-12-22T16:49:42.614Z</time>
      </trkpt>
      <trkpt lat="45.47864" lon="-1.06198">
        <ele>43.40822</ele>
        <time>2022-12-22T16:49:45.591Z</time>
      </trkpt>
      <trkpt lat="45.47855" lon="-1.06188">
        <ele>43.340907</ele>
        <time>2022-12-22T16:49:48.599Z</time>
      </trkpt>
      <trkpt lat="45.47847" lon="-1.06178">
        <ele>43.279428</ele>
        <time>2022-12-22T16:49:51.619Z</time>
      </trkpt>
      <trkpt lat="45.47839" lon="-1.06168">
        <ele>43.261641</ele>
        <time>2022-12-22T16:49:54.602Z</time>
      </trkpt>
      <trkpt lat="45.4783" lon="-1.06158">
        <ele>43.244884</ele>
        <time>2022-12-22T16:49:57.603Z</time>
      </trkpt>
      <trkpt lat="45.47821" lon="-1.06147">
        <ele>43.227172</ele>
        <time>2022-12-22T16:50:00.623Z</time>
      </trkpt>
      <trkpt lat="45.47811" lon="-1.06138">
        <ele>43.209115</ele>
        <time>2022-12-22T16:50:03.604Z</time>
      </trkpt>
      <trkpt lat="45.47799" lon="-1.06129">
        <ele>43.189872</ele>
        <time>2022-12-22T16:50:06.603Z</time>
      </trkpt>
      <trkpt lat="45.47787" lon="-1.06123">
        <ele>43.171378</ele>
        <time>2022-12-22T16:50:09.601Z</time>
      </trkpt>
      <trkpt lat="45.47775" lon="-1.06119">
        <ele>43.153223</ele>
        <time>2022-12-22T16:50:12.598Z</time>
      </trkpt>
      <trkpt lat="45.47762" lon="-1.06117">
        <ele>43.134979</ele>
        <time>2022-12-22T16:50:15.622Z</time>
      </trkpt>
      <trkpt lat="45.47751" lon="-1.06117">
        <ele>43.117579</ele>
        <time>2022-12-22T16:50:18.597Z</time>
      </trkpt>
      <trkpt lat="45.4774" lon="-1.06118">
        <ele>43.102743</ele>
        <time>2022-12-22T16:50:21.602Z</time>
      </trkpt>
      <trkpt lat="45.4773" lon="-1.06123">
        <ele>43.086631</ele>
        <time>2022-12-22T16:50:25.605Z</time>
      </trkpt>
      <trkpt lat="45.47717" lon="-1.06119">
        <ele>43.06725</ele>
        <time>2022-12-22T16:51:57.645Z</time>
      </trkpt>
      <trkpt lat="45.47706" lon="-1.06114">
        <ele>43.051138</ele>
        <time>2022-12-22T16:52:02.605Z</time>
      </trkpt>
      <trkpt lat="45.47698" lon="-1.06111">
        <ele>43.037885</ele>
        <time>2022-12-22T16:52:05.611Z</time>
      </trkpt>
      <trkpt lat="45.47688" lon="-1.06105">
        <ele>43.022817</ele>
        <time>2022-12-22T16:52:08.598Z</time>
      </trkpt>
      <trkpt lat="45.47679" lon="-1.06098">
        <ele>43.011592</ele>
        <time>2022-12-22T16:52:11.609Z</time>
      </trkpt>
      <trkpt lat="45.4767" lon="-1.06089">
        <ele>43.006288</ele>
        <time>2022-12-22T16:52:14.610Z</time>
      </trkpt>
      <trkpt lat="45.47661" lon="-1.0608">
        <ele>43.000656</ele>
        <time>2022-12-22T16:52:17.604Z</time>
      </trkpt>
      <trkpt lat="45.47652" lon="-1.06069">
        <ele>42.994567</ele>
        <time>2022-12-22T16:52:20.612Z</time>
      </trkpt>
      <trkpt lat="45.47642" lon="-1.06058">
        <ele>42.988517</ele>
        <time>2022-12-22T16:52:23.605Z</time>
      </trkpt>
      <trkpt lat="45.47633" lon="-1.06047">
        <ele>42.982428</ele>
        <time>2022-12-22T16:52:26.623Z</time>
      </trkpt>
      <trkpt lat="45.47623" lon="-1.06036">
        <ele>42.975961</ele>
        <time>2022-12-22T16:52:29.616Z</time>
      </trkpt>
      <trkpt lat="45.47613" lon="-1.06024">
        <ele>42.969421</ele>
        <time>2022-12-22T16:52:32.600Z</time>
      </trkpt>
      <trkpt lat="45.47603" lon="-1.06013">
        <ele>42.963031</ele>
        <time>2022-12-22T16:52:35.600Z</time>
      </trkpt>
      <trkpt lat="45.47593" lon="-1.06003">
        <ele>42.956721</ele>
        <time>2022-12-22T16:52:38.612Z</time>
      </trkpt>
      <trkpt lat="45.47582" lon="-1.05991">
        <ele>42.950264</ele>
        <time>2022-12-22T16:52:41.608Z</time>
      </trkpt>
      <trkpt lat="45.47572" lon="-1.0598">
        <ele>42.943688</ele>
        <time>2022-12-22T16:52:44.618Z</time>
      </trkpt>
      <trkpt lat="45.47562" lon="-1.05968">
        <ele>42.936942</ele>
        <time>2022-12-22T16:52:47.592Z</time>
      </trkpt>
      <trkpt lat="45.47554" lon="-1.0596">
        <ele>42.932148</ele>
        <time>2022-12-22T16:52:49.596Z</time>
      </trkpt>
      <trkpt lat="45.47543" lon="-1.05948">
        <ele>42.925286</ele>
        <time>2022-12-22T16:52:52.603Z</time>
      </trkpt>
      <trkpt lat="45.47536" lon="-1.0594">
        <ele>42.897492</ele>
        <time>2022-12-22T16:52:54.606Z</time>
      </trkpt>
      <trkpt lat="45.47525" lon="-1.05928">
        <ele>42.833239</ele>
        <time>2022-12-22T16:52:57.607Z</time>
      </trkpt>
      <trkpt lat="45.47514" lon="-1.05918">
        <ele>42.769926</ele>
        <time>2022-12-22T16:53:00.622Z</time>
      </trkpt>
      <trkpt lat="45.47503" lon="-1.05907">
        <ele>42.706652</ele>
        <time>2022-12-22T16:53:03.625Z</time>
      </trkpt>
      <trkpt lat="45.47492" lon="-1.05896">
        <ele>42.643551</ele>
        <time>2022-12-22T16:53:06.598Z</time>
      </trkpt>
      <trkpt lat="45.47481" lon="-1.05887">
        <ele>42.581019</ele>
        <time>2022-12-22T16:53:09.591Z</time>
      </trkpt>
      <trkpt lat="45.4747" lon="-1.05877">
        <ele>42.520174</ele>
        <time>2022-12-22T16:53:12.622Z</time>
      </trkpt>
      <trkpt lat="45.47459" lon="-1.05869">
        <ele>42.459427</ele>
        <time>2022-12-22T16:53:15.598Z</time>
      </trkpt>
      <trkpt lat="45.47448" lon="-1.0586">
        <ele>42.399964</ele>
        <time>2022-12-22T16:53:18.617Z</time>
      </trkpt>
      <trkpt lat="45.47437" lon="-1.05851">
        <ele>42.339639</ele>
        <time>2022-12-22T16:53:21.617Z</time>
      </trkpt>
      <trkpt lat="45.47425" lon="-1.05843">
        <ele>42.27689</ele>
        <time>2022-12-22T16:53:24.611Z</time>
      </trkpt>
      <trkpt lat="45.47414" lon="-1.05834">
        <ele>42.214566</ele>
        <time>2022-12-22T16:53:27.607Z</time>
      </trkpt>
      <trkpt lat="45.47403" lon="-1.05827">
        <ele>42.159599</ele>
        <time>2022-12-22T16:53:30.602Z</time>
      </trkpt>
      <trkpt lat="45.47393" lon="-1.05819">
        <ele>42.104939</ele>
        <time>2022-12-22T16:53:33.608Z</time>
      </trkpt>
      <trkpt lat="45.47383" lon="-1.05811">
        <ele>42.142431</ele>
        <time>2022-12-22T16:53:36.605Z</time>
      </trkpt>
      <trkpt lat="45.47372" lon="-1.05802">
        <ele>42.389939</ele>
        <time>2022-12-22T16:53:39.623Z</time>
      </trkpt>
      <trkpt lat="45.47362" lon="-1.05795">
        <ele>42.613399</ele>
        <time>2022-12-22T16:53:42.621Z</time>
      </trkpt>
      <trkpt lat="45.47352" lon="-1.05786">
        <ele>42.860907</ele>
        <time>2022-12-22T16:53:45.593Z</time>
      </trkpt>
      <trkpt lat="45.47341" lon="-1.05777">
        <ele>43.107051</ele>
        <time>2022-12-22T16:53:48.618Z</time>
      </trkpt>
      <trkpt lat="45.4733" lon="-1.05769">
        <ele>43.358497</ele>
        <time>2022-12-22T16:53:51.617Z</time>
      </trkpt>
      <trkpt lat="45.47319" lon="-1.05762">
        <ele>43.599535</ele>
        <time>2022-12-22T16:53:54.595Z</time>
      </trkpt>
      <trkpt lat="45.47309" lon="-1.05754">
        <ele>43.835672</ele>
        <time>2022-12-22T16:53:57.601Z</time>
      </trkpt>
      <trkpt lat="45.47299" lon="-1.05745">
        <ele>44.067343</ele>
        <time>2022-12-22T16:54:00.607Z</time>
      </trkpt>
      <trkpt lat="45.4729" lon="-1.05738">
        <ele>44.281696</ele>
        <time>2022-12-22T16:54:03.604Z</time>
      </trkpt>
      <trkpt lat="45.4728" lon="-1.05732">
        <ele>44.489227</ele>
        <time>2022-12-22T16:54:06.606Z</time>
      </trkpt>
      <trkpt lat="45.47272" lon="-1.05724">
        <ele>44.69024</ele>
        <time>2022-12-22T16:54:09.620Z</time>
      </trkpt>
      <trkpt lat="45.47264" lon="-1.05712">
        <ele>44.916155</ele>
        <time>2022-12-22T16:54:12.600Z</time>
      </trkpt>
      <trkpt lat="45.47256" lon="-1.05702">
        <ele>45.142576</ele>
        <time>2022-12-22T16:54:15.607Z</time>
      </trkpt>
      <trkpt lat="45.47247" lon="-1.05691">
        <ele>45.379154</ele>
        <time>2022-12-22T16:54:18.606Z</time>
      </trkpt>
      <trkpt lat="45.47238" lon="-1.05681">
        <ele>45.609243</ele>
        <time>2022-12-22T16:54:21.606Z</time>
      </trkpt>
      <trkpt lat="45.47228" lon="-1.05672">
        <ele>45.727105</ele>
        <time>2022-12-22T16:54:24.600Z</time>
      </trkpt>
      <trkpt lat="45.47219" lon="-1.05663">
        <ele>45.784221</ele>
        <time>2022-12-22T16:54:27.620Z</time>
      </trkpt>
      <trkpt lat="45.47208" lon="-1.05653">
        <ele>45.846311</ele>
        <time>2022-12-22T16:54:30.592Z</time>
      </trkpt>
      <trkpt lat="45.47197" lon="-1.05644">
        <ele>45.909845</ele>
        <time>2022-12-22T16:54:33.596Z</time>
      </trkpt>
      <trkpt lat="45.47186" lon="-1.05634">
        <ele>45.971229</ele>
        <time>2022-12-22T16:54:36.615Z</time>
      </trkpt>
      <trkpt lat="45.47176" lon="-1.05626">
        <ele>46.030144</ele>
        <time>2022-12-22T16:54:39.605Z</time>
      </trkpt>
      <trkpt lat="45.47165" lon="-1.05616">
        <ele>46.092917</ele>
        <time>2022-12-22T16:54:42.601Z</time>
      </trkpt>
      <trkpt lat="45.47155" lon="-1.05606">
        <ele>46.154841</ele>
        <time>2022-12-22T16:54:45.614Z</time>
      </trkpt>
      <trkpt lat="45.47144" lon="-1.05595">
        <ele>46.218355</ele>
        <time>2022-12-22T16:54:48.596Z</time>
      </trkpt>
      <trkpt lat="45.47134" lon="-1.05584">
        <ele>46.279665</ele>
        <time>2022-12-22T16:54:51.612Z</time>
      </trkpt>
      <trkpt lat="45.47124" lon="-1.05574">
        <ele>46.339973</ele>
        <time>2022-12-22T16:54:54.621Z</time>
      </trkpt>
      <trkpt lat="45.47115" lon="-1.05565">
        <ele>46.394871</ele>
        <time>2022-12-22T16:54:57.621Z</time>
      </trkpt>
      <trkpt lat="45.47107" lon="-1.05558">
        <ele>46.442629</ele>
        <time>2022-12-22T16:55:00.623Z</time>
      </trkpt>
      <trkpt lat="45.47099" lon="-1.05552">
        <ele>46.487872</ele>
        <time>2022-12-22T16:55:03.608Z</time>
      </trkpt>
      <trkpt lat="45.47086" lon="-1.05538">
        <ele>46.565461</ele>
        <time>2022-12-22T16:56:18.636Z</time>
      </trkpt>
      <trkpt lat="45.47079" lon="-1.05529">
        <ele>46.581316</ele>
        <time>2022-12-22T16:56:21.620Z</time>
      </trkpt>
      <trkpt lat="45.47071" lon="-1.05518">
        <ele>46.589154</ele>
        <time>2022-12-22T16:56:24.620Z</time>
      </trkpt>
      <trkpt lat="45.47062" lon="-1.05506">
        <ele>46.597745</ele>
        <time>2022-12-22T16:56:27.621Z</time>
      </trkpt>
      <trkpt lat="45.47053" lon="-1.05494">
        <ele>46.606883</ele>
        <time>2022-12-22T16:56:30.601Z</time>
      </trkpt>
      <trkpt lat="45.47045" lon="-1.05483">
        <ele>46.614843</ele>
        <time>2022-12-22T16:56:33.617Z</time>
      </trkpt>
      <trkpt lat="45.47038" lon="-1.05474">
        <ele>46.622178</ele>
        <time>2022-12-22T16:56:36.601Z</time>
      </trkpt>
      <trkpt lat="45.4703" lon="-1.05463">
        <ele>46.630314</ele>
        <time>2022-12-22T16:56:39.588Z</time>
      </trkpt>
      <trkpt lat="45.47021" lon="-1.05451">
        <ele>46.63887</ele>
        <time>2022-12-22T16:56:42.600Z</time>
      </trkpt>
      <trkpt lat="45.47011" lon="-1.05439">
        <ele>46.648271</ele>
        <time>2022-12-22T16:56:45.603Z</time>
      </trkpt>
      <trkpt lat="45.47003" lon="-1.05431">
        <ele>46.655219</ele>
        <time>2022-12-22T16:56:47.622Z</time>
      </trkpt>
      <trkpt lat="45.46994" lon="-1.0542">
        <ele>46.664319</ele>
        <time>2022-12-22T16:56:50.613Z</time>
      </trkpt>
      <trkpt lat="45.46986" lon="-1.05412">
        <ele>46.671204</ele>
        <time>2022-12-22T16:56:52.630Z</time>
      </trkpt>
      <trkpt lat="45.46978" lon="-1.05405">
        <ele>46.677831</ele>
        <time>2022-12-22T16:56:54.594Z</time>
      </trkpt>
      <trkpt lat="45.46969" lon="-1.05399">
        <ele>46.685459</ele>
        <time>2022-12-22T16:56:56.600Z</time>
      </trkpt>
      <trkpt lat="45.4696" lon="-1.05394">
        <ele>46.692574</ele>
        <time>2022-12-22T16:56:58.622Z</time>
      </trkpt>
      <trkpt lat="45.46951" lon="-1.05389">
        <ele>46.699427</ele>
        <time>2022-12-22T16:57:00.624Z</time>
      </trkpt>
      <trkpt lat="45.46943" lon="-1.05383">
        <ele>46.706005</ele>
        <time>2022-12-22T16:57:02.620Z</time>
      </trkpt>
      <trkpt lat="45.46934" lon="-1.05377">
        <ele>46.781494</ele>
        <time>2022-12-22T16:57:04.601Z</time>
      </trkpt>
      <trkpt lat="45.46922" lon="-1.05369">
        <ele>46.880884</ele>
        <time>2022-12-22T16:57:07.600Z</time>
      </trkpt>
      <trkpt lat="45.46913" lon="-1.05363">
        <ele>46.950796</ele>
        <time>2022-12-22T16:57:09.599Z</time>
      </trkpt>
      <trkpt lat="45.46901" lon="-1.05356">
        <ele>47.049114</ele>
        <time>2022-12-22T16:57:12.621Z</time>
      </trkpt>
      <trkpt lat="45.4689" lon="-1.05348">
        <ele>47.144402</ele>
        <time>2022-12-22T16:57:15.621Z</time>
      </trkpt>
      <trkpt lat="45.46879" lon="-1.0534">
        <ele>47.237657</ele>
        <time>2022-12-22T16:57:18.606Z</time>
      </trkpt>
      <trkpt lat="45.46867" lon="-1.05333">
        <ele>47.332997</ele>
        <time>2022-12-22T16:57:21.601Z</time>
      </trkpt>
      <trkpt lat="45.46855" lon="-1.05326">
        <ele>47.435403</ele>
        <time>2022-12-22T16:57:24.619Z</time>
      </trkpt>
      <trkpt lat="45.46847" lon="-1.05319">
        <ele>47.504791</ele>
        <time>2022-12-22T16:57:26.592Z</time>
      </trkpt>
      <trkpt lat="45.46838" lon="-1.05312">
        <ele>47.582303</ele>
        <time>2022-12-22T16:57:28.613Z</time>
      </trkpt>
      <trkpt lat="45.4683" lon="-1.05305">
        <ele>47.652118</ele>
        <time>2022-12-22T16:57:30.620Z</time>
      </trkpt>
      <trkpt lat="45.46822" lon="-1.05298">
        <ele>47.724141</ele>
        <time>2022-12-22T16:57:32.614Z</time>
      </trkpt>
      <trkpt lat="45.46813" lon="-1.05291">
        <ele>47.798918</ele>
        <time>2022-12-22T16:57:34.607Z</time>
      </trkpt>
      <trkpt lat="45.46805" lon="-1.05285">
        <ele>47.86953</ele>
        <time>2022-12-22T16:57:36.619Z</time>
      </trkpt>
      <trkpt lat="45.46794" lon="-1.05276">
        <ele>47.959345</ele>
        <time>2022-12-22T16:57:39.601Z</time>
      </trkpt>
      <trkpt lat="45.46784" lon="-1.05267">
        <ele>48.051156</ele>
        <time>2022-12-22T16:57:42.617Z</time>
      </trkpt>
      <trkpt lat="45.46773" lon="-1.05258">
        <ele>47.900841</ele>
        <time>2022-12-22T16:57:45.621Z</time>
      </trkpt>
      <trkpt lat="45.46765" lon="-1.05251">
        <ele>47.775574</ele>
        <time>2022-12-22T16:57:47.610Z</time>
      </trkpt>
      <trkpt lat="45.46756" lon="-1.05244">
        <ele>47.63875</ele>
        <time>2022-12-22T16:57:49.609Z</time>
      </trkpt>
      <trkpt lat="45.46748" lon="-1.05237">
        <ele>47.508419</ele>
        <time>2022-12-22T16:57:51.621Z</time>
      </trkpt>
      <trkpt lat="45.4674" lon="-1.05231">
        <ele>47.379064</ele>
        <time>2022-12-22T16:57:53.604Z</time>
      </trkpt>
      <trkpt lat="45.46732" lon="-1.05224">
        <ele>47.249926</ele>
        <time>2022-12-22T16:57:55.622Z</time>
      </trkpt>
      <trkpt lat="45.46724" lon="-1.05217">
        <ele>47.11671</ele>
        <time>2022-12-22T16:57:57.622Z</time>
      </trkpt>
      <trkpt lat="45.46716" lon="-1.05211">
        <ele>46.99095</ele>
        <time>2022-12-22T16:57:59.620Z</time>
      </trkpt>
      <trkpt lat="45.46706" lon="-1.05201">
        <ele>46.816834</ele>
        <time>2022-12-22T16:58:02.609Z</time>
      </trkpt>
      <trkpt lat="45.46698" lon="-1.05193">
        <ele>46.69035</ele>
        <time>2022-12-22T16:58:04.624Z</time>
      </trkpt>
      <trkpt lat="45.46689" lon="-1.05181">
        <ele>46.520453</ele>
        <time>2022-12-22T16:58:07.612Z</time>
      </trkpt>
      <trkpt lat="45.46679" lon="-1.0517">
        <ele>46.341974</ele>
        <time>2022-12-22T16:58:10.622Z</time>
      </trkpt>
      <trkpt lat="45.46672" lon="-1.05162">
        <ele>46.214314</ele>
        <time>2022-12-22T16:58:12.601Z</time>
      </trkpt>
      <trkpt lat="45.46662" lon="-1.05149">
        <ele>46.027122</ele>
        <time>2022-12-22T16:58:15.623Z</time>
      </trkpt>
      <trkpt lat="45.46654" lon="-1.05141">
        <ele>45.896683</ele>
        <time>2022-12-22T16:58:17.621Z</time>
      </trkpt>
      <trkpt lat="45.46648" lon="-1.05132">
        <ele>45.770378</ele>
        <time>2022-12-22T16:58:19.597Z</time>
      </trkpt>
      <trkpt lat="45.46638" lon="-1.05119">
        <ele>45.585576</ele>
        <time>2022-12-22T16:58:22.598Z</time>
      </trkpt>
      <trkpt lat="45.46629" lon="-1.05107">
        <ele>45.564695</ele>
        <time>2022-12-22T16:58:25.622Z</time>
      </trkpt>
      <trkpt lat="45.46619" lon="-1.05095">
        <ele>45.561297</ele>
        <time>2022-12-22T16:58:28.599Z</time>
      </trkpt>
      <trkpt lat="45.46612" lon="-1.05086">
        <ele>45.558801</ele>
        <time>2022-12-22T16:58:30.601Z</time>
      </trkpt>
      <trkpt lat="45.46605" lon="-1.05076">
        <ele>45.556267</ele>
        <time>2022-12-22T16:58:32.604Z</time>
      </trkpt>
      <trkpt lat="45.46598" lon="-1.05068">
        <ele>45.553839</ele>
        <time>2022-12-22T16:58:34.599Z</time>
      </trkpt>
      <trkpt lat="45.46587" lon="-1.05055">
        <ele>45.550215</ele>
        <time>2022-12-22T16:58:37.620Z</time>
      </trkpt>
      <trkpt lat="45.46578" lon="-1.05043">
        <ele>45.547067</ele>
        <time>2022-12-22T16:58:39.623Z</time>
      </trkpt>
      <trkpt lat="45.46571" lon="-1.05033">
        <ele>45.544431</ele>
        <time>2022-12-22T16:58:41.600Z</time>
      </trkpt>
      <trkpt lat="45.46563" lon="-1.05023">
        <ele>45.541732</ele>
        <time>2022-12-22T16:58:43.614Z</time>
      </trkpt>
      <trkpt lat="45.46556" lon="-1.05014">
        <ele>45.539155</ele>
        <time>2022-12-22T16:58:45.618Z</time>
      </trkpt>
      <trkpt lat="45.46548" lon="-1.05005">
        <ele>45.536583</ele>
        <time>2022-12-22T16:58:47.593Z</time>
      </trkpt>
      <trkpt lat="45.46541" lon="-1.04996">
        <ele>45.534014</ele>
        <time>2022-12-22T16:58:49.617Z</time>
      </trkpt>
      <trkpt lat="45.46534" lon="-1.04986">
        <ele>45.531365</ele>
        <time>2022-12-22T16:58:51.620Z</time>
      </trkpt>
      <trkpt lat="45.46525" lon="-1.04974">
        <ele>45.528263</ele>
        <time>2022-12-22T16:58:54.599Z</time>
      </trkpt>
      <trkpt lat="45.46518" lon="-1.04966">
        <ele>45.52591</ele>
        <time>2022-12-22T16:58:56.622Z</time>
      </trkpt>
      <trkpt lat="45.46509" lon="-1.04953">
        <ele>45.522454</ele>
        <time>2022-12-22T16:58:59.621Z</time>
      </trkpt>
      <trkpt lat="45.46502" lon="-1.04944">
        <ele>45.495524</ele>
        <time>2022-12-22T16:59:01.609Z</time>
      </trkpt>
      <trkpt lat="45.46494" lon="-1.04933">
        <ele>45.391109</ele>
        <time>2022-12-22T16:59:03.620Z</time>
      </trkpt>
      <trkpt lat="45.46484" lon="-1.0492">
        <ele>45.259705</ele>
        <time>2022-12-22T16:59:06.621Z</time>
      </trkpt>
      <trkpt lat="45.46477" lon="-1.04909">
        <ele>45.157425</ele>
        <time>2022-12-22T16:59:08.606Z</time>
      </trkpt>
      <trkpt lat="45.46471" lon="-1.049">
        <ele>45.068923</ele>
        <time>2022-12-22T16:59:10.604Z</time>
      </trkpt>
      <trkpt lat="45.46464" lon="-1.04889">
        <ele>44.966708</ele>
        <time>2022-12-22T16:59:12.609Z</time>
      </trkpt>
      <trkpt lat="45.46457" lon="-1.04879">
        <ele>44.872471</ele>
        <time>2022-12-22T16:59:14.618Z</time>
      </trkpt>
      <trkpt lat="45.46447" lon="-1.04867">
        <ele>44.742181</ele>
        <time>2022-12-22T16:59:17.622Z</time>
      </trkpt>
      <trkpt lat="45.46435" lon="-1.04852">
        <ele>44.583163</ele>
        <time>2022-12-22T16:59:19.629Z</time>
      </trkpt>
      <trkpt lat="45.46427" lon="-1.04839">
        <ele>44.469363</ele>
        <time>2022-12-22T16:59:23.623Z</time>
      </trkpt>
      <trkpt lat="45.46418" lon="-1.04829">
        <ele>44.353992</ele>
        <time>2022-12-22T16:59:26.622Z</time>
      </trkpt>
      <trkpt lat="45.4641" lon="-1.04819">
        <ele>44.255706</ele>
        <time>2022-12-22T16:59:28.624Z</time>
      </trkpt>
      <trkpt lat="45.46402" lon="-1.0481">
        <ele>44.152951</ele>
        <time>2022-12-22T16:59:30.625Z</time>
      </trkpt>
      <trkpt lat="45.46395" lon="-1.04801">
        <ele>44.058494</ele>
        <time>2022-12-22T16:59:32.631Z</time>
      </trkpt>
      <trkpt lat="45.46383" lon="-1.04788">
        <ele>43.917274</ele>
        <time>2022-12-22T16:59:35.614Z</time>
      </trkpt>
      <trkpt lat="45.46376" lon="-1.04778">
        <ele>43.818058</ele>
        <time>2022-12-22T16:59:37.617Z</time>
      </trkpt>
      <trkpt lat="45.46365" lon="-1.04765">
        <ele>43.837602</ele>
        <time>2022-12-22T16:59:40.611Z</time>
      </trkpt>
      <trkpt lat="45.46359" lon="-1.04756">
        <ele>43.927646</ele>
        <time>2022-12-22T16:59:42.604Z</time>
      </trkpt>
      <trkpt lat="45.46351" lon="-1.04745">
        <ele>44.037998</ele>
        <time>2022-12-22T16:59:45.624Z</time>
      </trkpt>
      <trkpt lat="45.46342" lon="-1.04734">
        <ele>44.152289</ele>
        <time>2022-12-22T16:59:48.599Z</time>
      </trkpt>
      <trkpt lat="45.46335" lon="-1.04726">
        <ele>44.243157</ele>
        <time>2022-12-22T16:59:50.595Z</time>
      </trkpt>
      <trkpt lat="45.46328" lon="-1.04717">
        <ele>44.335344</ele>
        <time>2022-12-22T16:59:52.622Z</time>
      </trkpt>
      <trkpt lat="45.4632" lon="-1.04709">
        <ele>44.43337</ele>
        <time>2022-12-22T16:59:54.598Z</time>
      </trkpt>
      <trkpt lat="45.46313" lon="-1.047">
        <ele>44.529605</ele>
        <time>2022-12-22T16:59:56.622Z</time>
      </trkpt>
      <trkpt lat="45.46305" lon="-1.04691">
        <ele>44.625524</ele>
        <time>2022-12-22T16:59:58.605Z</time>
      </trkpt>
      <trkpt lat="45.46297" lon="-1.04683">
        <ele>44.724425</ele>
        <time>2022-12-22T17:00:00.620Z</time>
      </trkpt>
      <trkpt lat="45.4629" lon="-1.04673">
        <ele>44.824722</ele>
        <time>2022-12-22T17:00:02.597Z</time>
      </trkpt>
      <trkpt lat="45.46281" lon="-1.04665">
        <ele>44.924368</ele>
        <time>2022-12-22T17:00:04.629Z</time>
      </trkpt>
      <trkpt lat="45.46273" lon="-1.04658">
        <ele>45.025591</ele>
        <time>2022-12-22T17:00:06.621Z</time>
      </trkpt>
      <trkpt lat="45.46264" lon="-1.0465">
        <ele>45.127415</ele>
        <time>2022-12-22T17:00:08.595Z</time>
      </trkpt>
      <trkpt lat="45.46255" lon="-1.04643">
        <ele>45.231063</ele>
        <time>2022-12-22T17:00:10.594Z</time>
      </trkpt>
      <trkpt lat="45.46246" lon="-1.04636">
        <ele>45.3239</ele>
        <time>2022-12-22T17:00:12.617Z</time>
      </trkpt>
      <trkpt lat="45.46236" lon="-1.04629">
        <ele>45.437376</ele>
        <time>2022-12-22T17:00:14.601Z</time>
      </trkpt>
      <trkpt lat="45.46227" lon="-1.04621">
        <ele>45.540832</ele>
        <time>2022-12-22T17:00:16.620Z</time>
      </trkpt>
      <trkpt lat="45.46218" lon="-1.04615">
        <ele>45.547313</ele>
        <time>2022-12-22T17:00:18.602Z</time>
      </trkpt>
      <trkpt lat="45.4621" lon="-1.04609">
        <ele>45.553292</ele>
        <time>2022-12-22T17:00:20.608Z</time>
      </trkpt>
      <trkpt lat="45.462" lon="-1.04602">
        <ele>45.560712</ele>
        <time>2022-12-22T17:00:23.605Z</time>
      </trkpt>
      <trkpt lat="45.46188" lon="-1.04593">
        <ele>45.569263</ele>
        <time>2022-12-22T17:00:26.621Z</time>
      </trkpt>
      <trkpt lat="45.4618" lon="-1.04587">
        <ele>45.575518</ele>
        <time>2022-12-22T17:00:28.594Z</time>
      </trkpt>
      <trkpt lat="45.46171" lon="-1.04581">
        <ele>45.581769</ele>
        <time>2022-12-22T17:00:30.622Z</time>
      </trkpt>
      <trkpt lat="45.46159" lon="-1.04571">
        <ele>45.590995</ele>
        <time>2022-12-22T17:00:33.609Z</time>
      </trkpt>
      <trkpt lat="45.46151" lon="-1.04565">
        <ele>45.597179</ele>
        <time>2022-12-22T17:00:35.610Z</time>
      </trkpt>
      <trkpt lat="45.46138" lon="-1.04556">
        <ele>45.606203</ele>
        <time>2022-12-22T17:00:38.621Z</time>
      </trkpt>
      <trkpt lat="45.4613" lon="-1.04549">
        <ele>45.612778</ele>
        <time>2022-12-22T17:00:40.624Z</time>
      </trkpt>
      <trkpt lat="45.46121" lon="-1.04544">
        <ele>45.618822</ele>
        <time>2022-12-22T17:00:42.621Z</time>
      </trkpt>
      <trkpt lat="45.46112" lon="-1.04538">
        <ele>45.625334</ele>
        <time>2022-12-22T17:00:44.619Z</time>
      </trkpt>
      <trkpt lat="45.46103" lon="-1.04531">
        <ele>45.632005</ele>
        <time>2022-12-22T17:00:46.597Z</time>
      </trkpt>
      <trkpt lat="45.46094" lon="-1.04524">
        <ele>45.638861</ele>
        <time>2022-12-22T17:00:48.599Z</time>
      </trkpt>
      <trkpt lat="45.46085" lon="-1.04518">
        <ele>45.645334</ele>
        <time>2022-12-22T17:00:50.593Z</time>
      </trkpt>
      <trkpt lat="45.46076" lon="-1.04511">
        <ele>45.651859</ele>
        <time>2022-12-22T17:00:52.596Z</time>
      </trkpt>
      <trkpt lat="45.46068" lon="-1.04506">
        <ele>45.657818</ele>
        <time>2022-12-22T17:00:54.623Z</time>
      </trkpt>
      <trkpt lat="45.46059" lon="-1.04501">
        <ele>45.594204</ele>
        <time>2022-12-22T17:00:56.607Z</time>
      </trkpt>
      <trkpt lat="45.46048" lon="-1.04491">
        <ele>45.489523</ele>
        <time>2022-12-22T17:00:59.602Z</time>
      </trkpt>
      <trkpt lat="45.46035" lon="-1.04483">
        <ele>45.384502</ele>
        <time>2022-12-22T17:01:02.600Z</time>
      </trkpt>
      <trkpt lat="45.46027" lon="-1.04476">
        <ele>45.312198</ele>
        <time>2022-12-22T17:01:04.594Z</time>
      </trkpt>
      <trkpt lat="45.46015" lon="-1.04467">
        <ele>45.20664</ele>
        <time>2022-12-22T17:01:07.597Z</time>
      </trkpt>
      <trkpt lat="45.46006" lon="-1.04461">
        <ele>45.127687</ele>
        <time>2022-12-22T17:01:09.617Z</time>
      </trkpt>
      <trkpt lat="45.45998" lon="-1.04455">
        <ele>45.056736</ele>
        <time>2022-12-22T17:01:11.606Z</time>
      </trkpt>
      <trkpt lat="45.45985" lon="-1.04447">
        <ele>44.947751</ele>
        <time>2022-12-22T17:01:14.621Z</time>
      </trkpt>
      <trkpt lat="45.45976" lon="-1.04442">
        <ele>44.874142</ele>
        <time>2022-12-22T17:01:16.622Z</time>
      </trkpt>
      <trkpt lat="45.45967" lon="-1.04436">
        <ele>44.795631</ele>
        <time>2022-12-22T17:01:18.619Z</time>
      </trkpt>
      <trkpt lat="45.45958" lon="-1.04428">
        <ele>44.712942</ele>
        <time>2022-12-22T17:01:20.617Z</time>
      </trkpt>
      <trkpt lat="45.45948" lon="-1.04422">
        <ele>44.635356</ele>
        <time>2022-12-22T17:01:22.620Z</time>
      </trkpt>
      <trkpt lat="45.45939" lon="-1.04416">
        <ele>44.55828</ele>
        <time>2022-12-22T17:01:24.594Z</time>
      </trkpt>
      <trkpt lat="45.4593" lon="-1.04409">
        <ele>44.474633</ele>
        <time>2022-12-22T17:01:26.622Z</time>
      </trkpt>
      <trkpt lat="45.45921" lon="-1.04405">
        <ele>44.399341</ele>
        <time>2022-12-22T17:01:28.619Z</time>
      </trkpt>
      <trkpt lat="45.45911" lon="-1.04402">
        <ele>44.320827</ele>
        <time>2022-12-22T17:01:30.621Z</time>
      </trkpt>
      <trkpt lat="45.45901" lon="-1.04398">
        <ele>44.310709</ele>
        <time>2022-12-22T17:01:32.620Z</time>
      </trkpt>
      <trkpt lat="45.4589" lon="-1.04394">
        <ele>44.451365</ele>
        <time>2022-12-22T17:01:34.595Z</time>
      </trkpt>
      <trkpt lat="45.4588" lon="-1.0439">
        <ele>44.58922</ele>
        <time>2022-12-22T17:01:36.597Z</time>
      </trkpt>
      <trkpt lat="45.45871" lon="-1.04387">
        <ele>44.713149</ele>
        <time>2022-12-22T17:01:38.622Z</time>
      </trkpt>
      <trkpt lat="45.45862" lon="-1.04383">
        <ele>44.838042</ele>
        <time>2022-12-22T17:01:40.598Z</time>
      </trkpt>
      <trkpt lat="45.4585" lon="-1.0438">
        <ele>44.999891</ele>
        <time>2022-12-22T17:01:43.623Z</time>
      </trkpt>
      <trkpt lat="45.4584" lon="-1.04376">
        <ele>45.140786</ele>
        <time>2022-12-22T17:01:46.627Z</time>
      </trkpt>
      <trkpt lat="45.4583" lon="-1.04371">
        <ele>45.274584</ele>
        <time>2022-12-22T17:01:49.614Z</time>
      </trkpt>
      <trkpt lat="45.4582" lon="-1.04367">
        <ele>45.413554</ele>
        <time>2022-12-22T17:01:52.621Z</time>
      </trkpt>
      <trkpt lat="45.45809" lon="-1.04363">
        <ele>45.560597</ele>
        <time>2022-12-22T17:01:55.619Z</time>
      </trkpt>
      <trkpt lat="45.45798" lon="-1.04358">
        <ele>45.71443</ele>
        <time>2022-12-22T17:01:58.606Z</time>
      </trkpt>
      <trkpt lat="45.45786" lon="-1.04354">
        <ele>45.878435</ele>
        <time>2022-12-22T17:02:01.594Z</time>
      </trkpt>
      <trkpt lat="45.45773" lon="-1.04348">
        <ele>46.054098</ele>
        <time>2022-12-22T17:02:04.599Z</time>
      </trkpt>
      <trkpt lat="45.45764" lon="-1.04345">
        <ele>46.182324</ele>
        <time>2022-12-22T17:02:06.599Z</time>
      </trkpt>
      <trkpt lat="45.45755" lon="-1.04343">
        <ele>46.308474</ele>
        <time>2022-12-22T17:02:08.618Z</time>
      </trkpt>
      <trkpt lat="45.45745" lon="-1.04342">
        <ele>46.435748</ele>
        <time>2022-12-22T17:02:10.597Z</time>
      </trkpt>
      <trkpt lat="45.45735" lon="-1.04343">
        <ele>46.56789</ele>
        <time>2022-12-22T17:02:12.595Z</time>
      </trkpt>
      <trkpt lat="45.45724" lon="-1.04343">
        <ele>46.627818</ele>
        <time>2022-12-22T17:02:14.622Z</time>
      </trkpt>
      <trkpt lat="45.45715" lon="-1.04344">
        <ele>46.60217</ele>
        <time>2022-12-22T17:02:16.622Z</time>
      </trkpt>
      <trkpt lat="45.45705" lon="-1.04343">
        <ele>46.575468</ele>
        <time>2022-12-22T17:02:18.588Z</time>
      </trkpt>
      <trkpt lat="45.45696" lon="-1.04346">
        <ele>46.549539</ele>
        <time>2022-12-22T17:02:20.613Z</time>
      </trkpt>
      <trkpt lat="45.45686" lon="-1.04346">
        <ele>46.524152</ele>
        <time>2022-12-22T17:02:22.620Z</time>
      </trkpt>
      <trkpt lat="45.45676" lon="-1.04348">
        <ele>46.497069</ele>
        <time>2022-12-22T17:02:24.617Z</time>
      </trkpt>
      <trkpt lat="45.45666" lon="-1.04349">
        <ele>46.470002</ele>
        <time>2022-12-22T17:02:26.598Z</time>
      </trkpt>
      <trkpt lat="45.45656" lon="-1.0435">
        <ele>46.442988</ele>
        <time>2022-12-22T17:02:28.619Z</time>
      </trkpt>
      <trkpt lat="45.45646" lon="-1.0435">
        <ele>46.416286</ele>
        <time>2022-12-22T17:02:30.620Z</time>
      </trkpt>
      <trkpt lat="45.45636" lon="-1.0435">
        <ele>46.388775</ele>
        <time>2022-12-22T17:02:32.599Z</time>
      </trkpt>
      <trkpt lat="45.45627" lon="-1.0435">
        <ele>46.364225</ele>
        <time>2022-12-22T17:02:34.599Z</time>
      </trkpt>
      <trkpt lat="45.45618" lon="-1.0435">
        <ele>46.339408</ele>
        <time>2022-12-22T17:02:36.623Z</time>
      </trkpt>
      <trkpt lat="45.45608" lon="-1.04349">
        <ele>46.313761</ele>
        <time>2022-12-22T17:02:38.620Z</time>
      </trkpt>
      <trkpt lat="45.45599" lon="-1.0435">
        <ele>46.287565</ele>
        <time>2022-12-22T17:02:40.620Z</time>
      </trkpt>
      <trkpt lat="45.45586" lon="-1.04351">
        <ele>46.254044</ele>
        <time>2022-12-22T17:02:43.620Z</time>
      </trkpt>
      <trkpt lat="45.45574" lon="-1.04352">
        <ele>46.220565</ele>
        <time>2022-12-22T17:02:46.604Z</time>
      </trkpt>
      <trkpt lat="45.45561" lon="-1.04352">
        <ele>46.186573</ele>
        <time>2022-12-22T17:02:49.601Z</time>
      </trkpt>
      <trkpt lat="45.45549" lon="-1.04352">
        <ele>46.161146</ele>
        <time>2022-12-22T17:02:52.619Z</time>
      </trkpt>
      <trkpt lat="45.45536" lon="-1.04353">
        <ele>46.211975</ele>
        <time>2022-12-22T17:02:55.622Z</time>
      </trkpt>
      <trkpt lat="45.45523" lon="-1.04352">
        <ele>46.262411</ele>
        <time>2022-12-22T17:02:58.621Z</time>
      </trkpt>
      <trkpt lat="45.45511" lon="-1.04352">
        <ele>46.30966</ele>
        <time>2022-12-22T17:03:01.598Z</time>
      </trkpt>
      <trkpt lat="45.45498" lon="-1.04353">
        <ele>46.360509</ele>
        <time>2022-12-22T17:03:04.619Z</time>
      </trkpt>
      <trkpt lat="45.45489" lon="-1.04355">
        <ele>46.397342</ele>
        <time>2022-12-22T17:03:06.600Z</time>
      </trkpt>
      <trkpt lat="45.4548" lon="-1.04355">
        <ele>46.434334</ele>
        <time>2022-12-22T17:03:08.619Z</time>
      </trkpt>
      <trkpt lat="45.45471" lon="-1.04356">
        <ele>46.470968</ele>
        <time>2022-12-22T17:03:10.612Z</time>
      </trkpt>
      <trkpt lat="45.45461" lon="-1.04356">
        <ele>46.507497</ele>
        <time>2022-12-22T17:03:12.620Z</time>
      </trkpt>
      <trkpt lat="45.45448" lon="-1.04358">
        <ele>46.559204</ele>
        <time>2022-12-22T17:03:15.607Z</time>
      </trkpt>
      <trkpt lat="45.45439" lon="-1.04357">
        <ele>46.596133</ele>
        <time>2022-12-22T17:03:17.595Z</time>
      </trkpt>
      <trkpt lat="45.4543" lon="-1.04358">
        <ele>46.631936</ele>
        <time>2022-12-22T17:03:19.621Z</time>
      </trkpt>
      <trkpt lat="45.45421" lon="-1.04359">
        <ele>46.668899</ele>
        <time>2022-12-22T17:03:21.615Z</time>
      </trkpt>
      <trkpt lat="45.45412" lon="-1.04359">
        <ele>46.705875</ele>
        <time>2022-12-22T17:03:23.623Z</time>
      </trkpt>
      <trkpt lat="45.45399" lon="-1.0436">
        <ele>46.756709</ele>
        <time>2022-12-22T17:03:26.606Z</time>
      </trkpt>
      <trkpt lat="45.45385" lon="-1.0436">
        <ele>46.810321</ele>
        <time>2022-12-22T17:03:29.619Z</time>
      </trkpt>
      <trkpt lat="45.45376" lon="-1.04361">
        <ele>46.846108</ele>
        <time>2022-12-22T17:03:31.620Z</time>
      </trkpt>
      <trkpt lat="45.45363" lon="-1.04362">
        <ele>46.847258</ele>
        <time>2022-12-22T17:03:34.610Z</time>
      </trkpt>
      <trkpt lat="45.4535" lon="-1.04362">
        <ele>46.806028</ele>
        <time>2022-12-22T17:03:37.619Z</time>
      </trkpt>
      <trkpt lat="45.45341" lon="-1.04362">
        <ele>46.777606</ele>
        <time>2022-12-22T17:03:39.599Z</time>
      </trkpt>
      <trkpt lat="45.45327" lon="-1.04363">
        <ele>46.73566</ele>
        <time>2022-12-22T17:03:42.617Z</time>
      </trkpt>
      <trkpt lat="45.45318" lon="-1.04365">
        <ele>46.707097</ele>
        <time>2022-12-22T17:03:44.618Z</time>
      </trkpt>
      <trkpt lat="45.45309" lon="-1.04364">
        <ele>46.678361</ele>
        <time>2022-12-22T17:03:46.618Z</time>
      </trkpt>
      <trkpt lat="45.45296" lon="-1.04365">
        <ele>46.636818</ele>
        <time>2022-12-22T17:03:49.621Z</time>
      </trkpt>
      <trkpt lat="45.45282" lon="-1.04365">
        <ele>46.595564</ele>
        <time>2022-12-22T17:03:52.617Z</time>
      </trkpt>
      <trkpt lat="45.45269" lon="-1.04366">
        <ele>46.554311</ele>
        <time>2022-12-22T17:03:55.621Z</time>
      </trkpt>
      <trkpt lat="45.45257" lon="-1.04366">
        <ele>46.517145</ele>
        <time>2022-12-22T17:03:58.616Z</time>
      </trkpt>
      <trkpt lat="45.45247" lon="-1.04367">
        <ele>46.483669</ele>
        <time>2022-12-22T17:04:01.605Z</time>
      </trkpt>
      <trkpt lat="45.45235" lon="-1.04368">
        <ele>46.448296</ele>
        <time>2022-12-22T17:04:04.604Z</time>
      </trkpt>
      <trkpt lat="45.45223" lon="-1.04369">
        <ele>46.411349</ele>
        <time>2022-12-22T17:04:07.620Z</time>
      </trkpt>
      <trkpt lat="45.45211" lon="-1.0437">
        <ele>46.373207</ele>
        <time>2022-12-22T17:04:10.605Z</time>
      </trkpt>
      <trkpt lat="45.45198" lon="-1.04371">
        <ele>46.333182</ele>
        <time>2022-12-22T17:04:13.621Z</time>
      </trkpt>
      <trkpt lat="45.45185" lon="-1.04371">
        <ele>46.345943</ele>
        <time>2022-12-22T17:04:16.603Z</time>
      </trkpt>
      <trkpt lat="45.45172" lon="-1.04371">
        <ele>46.438585</ele>
        <time>2022-12-22T17:04:19.591Z</time>
      </trkpt>
      <trkpt lat="45.45159" lon="-1.04371">
        <ele>46.529827</ele>
        <time>2022-12-22T17:04:22.594Z</time>
      </trkpt>
      <trkpt lat="45.4515" lon="-1.04372">
        <ele>46.592556</ele>
        <time>2022-12-22T17:04:24.608Z</time>
      </trkpt>
      <trkpt lat="45.45136" lon="-1.04373">
        <ele>46.68601</ele>
        <time>2022-12-22T17:04:27.598Z</time>
      </trkpt>
      <trkpt lat="45.45127" lon="-1.04374">
        <ele>46.748965</ele>
        <time>2022-12-22T17:04:29.601Z</time>
      </trkpt>
      <trkpt lat="45.45114" lon="-1.04373">
        <ele>46.83957</ele>
        <time>2022-12-22T17:04:32.620Z</time>
      </trkpt>
      <trkpt lat="45.45102" lon="-1.04373">
        <ele>46.927326</ele>
        <time>2022-12-22T17:04:35.622Z</time>
      </trkpt>
      <trkpt lat="45.45089" lon="-1.04374">
        <ele>47.016607</ele>
        <time>2022-12-22T17:04:38.602Z</time>
      </trkpt>
      <trkpt lat="45.45076" lon="-1.04375">
        <ele>47.104367</ele>
        <time>2022-12-22T17:04:41.620Z</time>
      </trkpt>
      <trkpt lat="45.45064" lon="-1.04375">
        <ele>47.192188</ele>
        <time>2022-12-22T17:04:44.617Z</time>
      </trkpt>
      <trkpt lat="45.45051" lon="-1.04376">
        <ele>47.279295</ele>
        <time>2022-12-22T17:04:47.620Z</time>
      </trkpt>
      <trkpt lat="45.4504" lon="-1.04377">
        <ele>47.354615</ele>
        <time>2022-12-22T17:04:50.603Z</time>
      </trkpt>
      <trkpt lat="45.45029" lon="-1.0438">
        <ele>47.434577</ele>
        <time>2022-12-22T17:04:53.622Z</time>
      </trkpt>
      <trkpt lat="45.45017" lon="-1.04384">
        <ele>47.523802</ele>
        <time>2022-12-22T17:04:56.612Z</time>
      </trkpt>
      <trkpt lat="45.45004" lon="-1.04389">
        <ele>47.514314</ele>
        <time>2022-12-22T17:04:59.600Z</time>
      </trkpt>
      <trkpt lat="45.44991" lon="-1.04393">
        <ele>47.433864</ele>
        <time>2022-12-22T17:05:02.600Z</time>
      </trkpt>
      <trkpt lat="45.44978" lon="-1.04397">
        <ele>47.351605</ele>
        <time>2022-12-22T17:05:05.599Z</time>
      </trkpt>
      <trkpt lat="45.44965" lon="-1.04401">
        <ele>47.269617</ele>
        <time>2022-12-22T17:05:08.627Z</time>
      </trkpt>
      <trkpt lat="45.44952" lon="-1.04405">
        <ele>47.187263</ele>
        <time>2022-12-22T17:05:11.600Z</time>
      </trkpt>
      <trkpt lat="45.44944" lon="-1.04408">
        <ele>47.130859</ele>
        <time>2022-12-22T17:05:13.620Z</time>
      </trkpt>
      <trkpt lat="45.44931" lon="-1.04413">
        <ele>47.049102</ele>
        <time>2022-12-22T17:05:16.620Z</time>
      </trkpt>
      <trkpt lat="45.44918" lon="-1.04418">
        <ele>46.964339</ele>
        <time>2022-12-22T17:05:19.620Z</time>
      </trkpt>
      <trkpt lat="45.44905" lon="-1.04422">
        <ele>46.886297</ele>
        <time>2022-12-22T17:05:22.622Z</time>
      </trkpt>
      <trkpt lat="45.44893" lon="-1.04427">
        <ele>46.807509</ele>
        <time>2022-12-22T17:05:25.622Z</time>
      </trkpt>
      <trkpt lat="45.44881" lon="-1.04431">
        <ele>46.73127</ele>
        <time>2022-12-22T17:05:28.594Z</time>
      </trkpt>
      <trkpt lat="45.44869" lon="-1.04435">
        <ele>46.654431</ele>
        <time>2022-12-22T17:05:31.600Z</time>
      </trkpt>
      <trkpt lat="45.44857" lon="-1.04438">
        <ele>46.581515</ele>
        <time>2022-12-22T17:05:34.603Z</time>
      </trkpt>
      <trkpt lat="45.44846" lon="-1.04442">
        <ele>46.511159</ele>
        <time>2022-12-22T17:05:37.601Z</time>
      </trkpt>
      <trkpt lat="45.44835" lon="-1.04446">
        <ele>46.461427</ele>
        <time>2022-12-22T17:05:40.597Z</time>
      </trkpt>
      <trkpt lat="45.44823" lon="-1.0445">
        <ele>46.530762</ele>
        <time>2022-12-22T17:05:43.624Z</time>
      </trkpt>
      <trkpt lat="45.44812" lon="-1.04453">
        <ele>46.592637</ele>
        <time>2022-12-22T17:05:46.621Z</time>
      </trkpt>
      <trkpt lat="45.44801" lon="-1.04458">
        <ele>46.662531</ele>
        <time>2022-12-22T17:05:49.623Z</time>
      </trkpt>
      <trkpt lat="45.44788" lon="-1.04461">
        <ele>46.735044</ele>
        <time>2022-12-22T17:05:52.623Z</time>
      </trkpt>
      <trkpt lat="45.44776" lon="-1.04465">
        <ele>46.807867</ele>
        <time>2022-12-22T17:05:55.620Z</time>
      </trkpt>
      <trkpt lat="45.44764" lon="-1.04469">
        <ele>46.878975</ele>
        <time>2022-12-22T17:05:58.621Z</time>
      </trkpt>
      <trkpt lat="45.44752" lon="-1.04474">
        <ele>46.951152</ele>
        <time>2022-12-22T17:06:01.599Z</time>
      </trkpt>
      <trkpt lat="45.4474" lon="-1.04481">
        <ele>47.024605</ele>
        <time>2022-12-22T17:06:04.608Z</time>
      </trkpt>
      <trkpt lat="45.44728" lon="-1.04487">
        <ele>47.098384</ele>
        <time>2022-12-22T17:06:07.598Z</time>
      </trkpt>
      <trkpt lat="45.44716" lon="-1.04494">
        <ele>47.172549</ele>
        <time>2022-12-22T17:06:10.619Z</time>
      </trkpt>
      <trkpt lat="45.44707" lon="-1.04499">
        <ele>47.225131</ele>
        <time>2022-12-22T17:06:12.601Z</time>
      </trkpt>
      <trkpt lat="45.44695" lon="-1.04506">
        <ele>47.2999</ele>
        <time>2022-12-22T17:06:15.605Z</time>
      </trkpt>
      <trkpt lat="45.44683" lon="-1.04512">
        <ele>47.373919</ele>
        <time>2022-12-22T17:06:18.612Z</time>
      </trkpt>
      <trkpt lat="45.44672" lon="-1.04518">
        <ele>47.442493</ele>
        <time>2022-12-22T17:06:21.621Z</time>
      </trkpt>
      <trkpt lat="45.44661" lon="-1.04524">
        <ele>47.523287</ele>
        <time>2022-12-22T17:06:24.619Z</time>
      </trkpt>
      <trkpt lat="45.4465" lon="-1.04531">
        <ele>47.622784</ele>
        <time>2022-12-22T17:06:27.603Z</time>
      </trkpt>
      <trkpt lat="45.44637" lon="-1.04537">
        <ele>47.729801</ele>
        <time>2022-12-22T17:06:30.621Z</time>
      </trkpt>
      <trkpt lat="45.44625" lon="-1.04545">
        <ele>47.835862</ele>
        <time>2022-12-22T17:06:33.619Z</time>
      </trkpt>
      <trkpt lat="45.44613" lon="-1.04552">
        <ele>47.94029</ele>
        <time>2022-12-22T17:06:36.618Z</time>
      </trkpt>
      <trkpt lat="45.44601" lon="-1.04558">
        <ele>48.044401</ele>
        <time>2022-12-22T17:06:39.613Z</time>
      </trkpt>
      <trkpt lat="45.44589" lon="-1.04564">
        <ele>48.146604</ele>
        <time>2022-12-22T17:06:42.618Z</time>
      </trkpt>
      <trkpt lat="45.44577" lon="-1.0457">
        <ele>48.248996</ele>
        <time>2022-12-22T17:06:45.602Z</time>
      </trkpt>
      <trkpt lat="45.44565" lon="-1.04574">
        <ele>48.34965</ele>
        <time>2022-12-22T17:06:48.623Z</time>
      </trkpt>
      <trkpt lat="45.44554" lon="-1.04576">
        <ele>48.445978</ele>
        <time>2022-12-22T17:06:51.620Z</time>
      </trkpt>
      <trkpt lat="45.44543" lon="-1.04577">
        <ele>48.533602</ele>
        <time>2022-12-22T17:06:54.619Z</time>
      </trkpt>
      <trkpt lat="45.44533" lon="-1.04576">
        <ele>48.613106</ele>
        <time>2022-12-22T17:06:57.620Z</time>
      </trkpt>
      <trkpt lat="45.44524" lon="-1.04575">
        <ele>48.688908</ele>
        <time>2022-12-22T17:07:00.619Z</time>
      </trkpt>
      <trkpt lat="45.44514" lon="-1.04573">
        <ele>48.772862</ele>
        <time>2022-12-22T17:07:03.618Z</time>
      </trkpt>
      <trkpt lat="45.44503" lon="-1.04568">
        <ele>48.862108</ele>
        <time>2022-12-22T17:07:06.615Z</time>
      </trkpt>
      <trkpt lat="45.44492" lon="-1.04564">
        <ele>48.922945</ele>
        <time>2022-12-22T17:07:09.602Z</time>
      </trkpt>
      <trkpt lat="45.44479" lon="-1.0456">
        <ele>48.754381</ele>
        <time>2022-12-22T17:07:12.620Z</time>
      </trkpt>
      <trkpt lat="45.44467" lon="-1.04556">
        <ele>48.58101</ele>
        <time>2022-12-22T17:07:15.620Z</time>
      </trkpt>
      <trkpt lat="45.44454" lon="-1.0455">
        <ele>48.401018</ele>
        <time>2022-12-22T17:07:18.626Z</time>
      </trkpt>
      <trkpt lat="45.44441" lon="-1.04544">
        <ele>48.220341</ele>
        <time>2022-12-22T17:07:21.621Z</time>
      </trkpt>
      <trkpt lat="45.44429" lon="-1.04538">
        <ele>48.040373</ele>
        <time>2022-12-22T17:07:24.619Z</time>
      </trkpt>
      <trkpt lat="45.44416" lon="-1.04531">
        <ele>47.861653</ele>
        <time>2022-12-22T17:07:27.612Z</time>
      </trkpt>
      <trkpt lat="45.44407" lon="-1.04527">
        <ele>47.737669</ele>
        <time>2022-12-22T17:07:29.595Z</time>
      </trkpt>
      <trkpt lat="45.44398" lon="-1.04524">
        <ele>47.611787</ele>
        <time>2022-12-22T17:07:31.620Z</time>
      </trkpt>
      <trkpt lat="45.44389" lon="-1.0452">
        <ele>47.487274</ele>
        <time>2022-12-22T17:07:33.599Z</time>
      </trkpt>
      <trkpt lat="45.4438" lon="-1.04516">
        <ele>47.360375</ele>
        <time>2022-12-22T17:07:35.626Z</time>
      </trkpt>
      <trkpt lat="45.44368" lon="-1.0451">
        <ele>47.185098</ele>
        <time>2022-12-22T17:07:38.620Z</time>
      </trkpt>
      <trkpt lat="45.44357" lon="-1.0451">
        <ele>47.030636</ele>
        <time>2022-12-22T17:07:41.595Z</time>
      </trkpt>
      <trkpt lat="45.44345" lon="-1.04508">
        <ele>46.874671</ele>
        <time>2022-12-22T17:07:44.606Z</time>
      </trkpt>
      <trkpt lat="45.44334" lon="-1.04508">
        <ele>46.724105</ele>
        <time>2022-12-22T17:07:47.612Z</time>
      </trkpt>
      <trkpt lat="45.44322" lon="-1.04509">
        <ele>46.564212</ele>
        <time>2022-12-22T17:07:50.604Z</time>
      </trkpt>
      <trkpt lat="45.4431" lon="-1.0451">
        <ele>46.557714</ele>
        <time>2022-12-22T17:07:53.608Z</time>
      </trkpt>
      <trkpt lat="45.44301" lon="-1.04507">
        <ele>46.586048</ele>
        <time>2022-12-22T17:07:55.600Z</time>
      </trkpt>
      <trkpt lat="45.44288" lon="-1.04505">
        <ele>46.626593</ele>
        <time>2022-12-22T17:07:58.620Z</time>
      </trkpt>
      <trkpt lat="45.44274" lon="-1.04504">
        <ele>46.668547</ele>
        <time>2022-12-22T17:08:01.632Z</time>
      </trkpt>
      <trkpt lat="45.44265" lon="-1.04504">
        <ele>46.696589</ele>
        <time>2022-12-22T17:08:03.595Z</time>
      </trkpt>
      <trkpt lat="45.44256" lon="-1.04503">
        <ele>46.724764</ele>
        <time>2022-12-22T17:08:05.622Z</time>
      </trkpt>
      <trkpt lat="45.44243" lon="-1.04502">
        <ele>46.765445</ele>
        <time>2022-12-22T17:08:08.595Z</time>
      </trkpt>
      <trkpt lat="45.44232" lon="-1.04502">
        <ele>46.797795</ele>
        <time>2022-12-22T17:08:10.622Z</time>
      </trkpt>
      <trkpt lat="45.44223" lon="-1.04504">
        <ele>46.82687</ele>
        <time>2022-12-22T17:08:12.618Z</time>
      </trkpt>
      <trkpt lat="45.44213" lon="-1.04502">
        <ele>46.85752</ele>
        <time>2022-12-22T17:08:14.604Z</time>
      </trkpt>
      <trkpt lat="45.44203" lon="-1.04502">
        <ele>46.888346</ele>
        <time>2022-12-22T17:08:16.591Z</time>
      </trkpt>
      <trkpt lat="45.44193" lon="-1.04501">
        <ele>46.919172</ele>
        <time>2022-12-22T17:08:18.622Z</time>
      </trkpt>
      <trkpt lat="45.44184" lon="-1.04502">
        <ele>46.947889</ele>
        <time>2022-12-22T17:08:20.587Z</time>
      </trkpt>
      <trkpt lat="45.44174" lon="-1.04503">
        <ele>46.977785</ele>
        <time>2022-12-22T17:08:22.620Z</time>
      </trkpt>
      <trkpt lat="45.44164" lon="-1.04503">
        <ele>47.008913</ele>
        <time>2022-12-22T17:08:24.622Z</time>
      </trkpt>
      <trkpt lat="45.4415" lon="-1.04504">
        <ele>47.051164</ele>
        <time>2022-12-22T17:08:27.620Z</time>
      </trkpt>
      <trkpt lat="45.44138" lon="-1.04505">
        <ele>47.084493</ele>
        <time>2022-12-22T17:08:30.596Z</time>
      </trkpt>
      <trkpt lat="45.44125" lon="-1.04506">
        <ele>47.096246</ele>
        <time>2022-12-22T17:08:33.616Z</time>
      </trkpt>
      <trkpt lat="45.44111" lon="-1.04507">
        <ele>47.108433</ele>
        <time>2022-12-22T17:08:36.620Z</time>
      </trkpt>
      <trkpt lat="45.44098" lon="-1.04508">
        <ele>47.12016</ele>
        <time>2022-12-22T17:08:39.607Z</time>
      </trkpt>
      <trkpt lat="45.44089" lon="-1.04509">
        <ele>47.128927</ele>
        <time>2022-12-22T17:08:41.621Z</time>
      </trkpt>
      <trkpt lat="45.44079" lon="-1.04511">
        <ele>47.137617</ele>
        <time>2022-12-22T17:08:43.621Z</time>
      </trkpt>
      <trkpt lat="45.4407" lon="-1.04512">
        <ele>47.146452</ele>
        <time>2022-12-22T17:08:45.595Z</time>
      </trkpt>
      <trkpt lat="45.4406" lon="-1.04513">
        <ele>47.155188</ele>
        <time>2022-12-22T17:08:47.604Z</time>
      </trkpt>
      <trkpt lat="45.4405" lon="-1.04513">
        <ele>47.164469</ele>
        <time>2022-12-22T17:08:49.605Z</time>
      </trkpt>
      <trkpt lat="45.44041" lon="-1.04515">
        <ele>47.172771</ele>
        <time>2022-12-22T17:08:51.620Z</time>
      </trkpt>
      <trkpt lat="45.44031" lon="-1.04516">
        <ele>47.181712</ele>
        <time>2022-12-22T17:08:53.617Z</time>
      </trkpt>
      <trkpt lat="45.44022" lon="-1.04518">
        <ele>47.190132</ele>
        <time>2022-12-22T17:08:55.621Z</time>
      </trkpt>
      <trkpt lat="45.44012" lon="-1.04518">
        <ele>47.199235</ele>
        <time>2022-12-22T17:08:57.620Z</time>
      </trkpt>
      <trkpt lat="45.43999" lon="-1.04521">
        <ele>47.211218</ele>
        <time>2022-12-22T17:09:00.601Z</time>
      </trkpt>
      <trkpt lat="45.43985" lon="-1.04522">
        <ele>47.223264</ele>
        <time>2022-12-22T17:09:03.621Z</time>
      </trkpt>
      <trkpt lat="45.43972" lon="-1.04522">
        <ele>47.235529</ele>
        <time>2022-12-22T17:09:06.598Z</time>
      </trkpt>
      <trkpt lat="45.43963" lon="-1.04521">
        <ele>47.243747</ele>
        <time>2022-12-22T17:09:08.604Z</time>
      </trkpt>
      <trkpt lat="45.43954" lon="-1.04519">
        <ele>47.303688</ele>
        <time>2022-12-22T17:09:10.592Z</time>
      </trkpt>
      <trkpt lat="45.43943" lon="-1.04515">
        <ele>47.402087</ele>
        <time>2022-12-22T17:09:13.607Z</time>
      </trkpt>
      <trkpt lat="45.43931" lon="-1.04508">
        <ele>47.510192</ele>
        <time>2022-12-22T17:09:16.622Z</time>
      </trkpt>
      <trkpt lat="45.43923" lon="-1.04501">
        <ele>47.58835</ele>
        <time>2022-12-22T17:09:18.621Z</time>
      </trkpt>
      <trkpt lat="45.43915" lon="-1.04494">
        <ele>47.666503</ele>
        <time>2022-12-22T17:09:20.601Z</time>
      </trkpt>
      <trkpt lat="45.43905" lon="-1.04483">
        <ele>47.778822</ele>
        <time>2022-12-22T17:09:23.604Z</time>
      </trkpt>
      <trkpt lat="45.43895" lon="-1.04476">
        <ele>47.872601</ele>
        <time>2022-12-22T17:09:26.607Z</time>
      </trkpt>
      <trkpt lat="45.43886" lon="-1.04468">
        <ele>47.960727</ele>
        <time>2022-12-22T17:09:29.622Z</time>
      </trkpt>
      <trkpt lat="45.43877" lon="-1.04458">
        <ele>48.060278</ele>
        <time>2022-12-22T17:09:32.622Z</time>
      </trkpt>
      <trkpt lat="45.43867" lon="-1.04449">
        <ele>48.158792</ele>
        <time>2022-12-22T17:09:35.624Z</time>
      </trkpt>
      <trkpt lat="45.43858" lon="-1.04438">
        <ele>48.260521</ele>
        <time>2022-12-22T17:09:38.598Z</time>
      </trkpt>
      <trkpt lat="45.43848" lon="-1.04429">
        <ele>48.360407</ele>
        <time>2022-12-22T17:09:41.599Z</time>
      </trkpt>
      <trkpt lat="45.43838" lon="-1.04419">
        <ele>48.461367</ele>
        <time>2022-12-22T17:09:44.607Z</time>
      </trkpt>
      <trkpt lat="45.43828" lon="-1.0441">
        <ele>48.56453</ele>
        <time>2022-12-22T17:09:47.602Z</time>
      </trkpt>
      <trkpt lat="45.43817" lon="-1.04401">
        <ele>48.673999</ele>
        <time>2022-12-22T17:09:50.618Z</time>
      </trkpt>
      <trkpt lat="45.43806" lon="-1.0439">
        <ele>48.760223</ele>
        <time>2022-12-22T17:09:53.612Z</time>
      </trkpt>
      <trkpt lat="45.43796" lon="-1.0438">
        <ele>48.648746</ele>
        <time>2022-12-22T17:09:56.591Z</time>
      </trkpt>
      <trkpt lat="45.43786" lon="-1.0437">
        <ele>48.541913</ele>
        <time>2022-12-22T17:09:59.620Z</time>
      </trkpt>
      <trkpt lat="45.43775" lon="-1.04359">
        <ele>48.427906</ele>
        <time>2022-12-22T17:10:02.620Z</time>
      </trkpt>
      <trkpt lat="45.43765" lon="-1.04348">
        <ele>48.31171</ele>
        <time>2022-12-22T17:10:05.620Z</time>
      </trkpt>
      <trkpt lat="45.43758" lon="-1.04339">
        <ele>48.231725</ele>
        <time>2022-12-22T17:10:07.618Z</time>
      </trkpt>
      <trkpt lat="45.43751" lon="-1.04329">
        <ele>48.149588</ele>
        <time>2022-12-22T17:10:09.612Z</time>
      </trkpt>
      <trkpt lat="45.43741" lon="-1.04318">
        <ele>48.038009</ele>
        <time>2022-12-22T17:10:12.621Z</time>
      </trkpt>
      <trkpt lat="45.43733" lon="-1.04309">
        <ele>47.947129</ele>
        <time>2022-12-22T17:10:15.618Z</time>
      </trkpt>
      <trkpt lat="45.43726" lon="-1.04298">
        <ele>47.850277</ele>
        <time>2022-12-22T17:10:18.597Z</time>
      </trkpt>
      <trkpt lat="45.43718" lon="-1.04289">
        <ele>47.766612</ele>
        <time>2022-12-22T17:10:21.619Z</time>
      </trkpt>
      <trkpt lat="45.43711" lon="-1.0428">
        <ele>47.676959</ele>
        <time>2022-12-22T17:10:24.622Z</time>
      </trkpt>
      <trkpt lat="45.43701" lon="-1.04269">
        <ele>47.569209</ele>
        <time>2022-12-22T17:10:27.605Z</time>
      </trkpt>
      <trkpt lat="45.43692" lon="-1.04256">
        <ele>47.457347</ele>
        <time>2022-12-22T17:10:30.624Z</time>
      </trkpt>
      <trkpt lat="45.43683" lon="-1.04242">
        <ele>47.336258</ele>
        <time>2022-12-22T17:10:33.630Z</time>
      </trkpt>
      <trkpt lat="45.43676" lon="-1.04231">
        <ele>47.249769</ele>
        <time>2022-12-22T17:10:35.614Z</time>
      </trkpt>
      <trkpt lat="45.4367" lon="-1.0422">
        <ele>47.185924</ele>
        <time>2022-12-22T17:10:37.623Z</time>
      </trkpt>
      <trkpt lat="45.43664" lon="-1.0421">
        <ele>47.176024</ele>
        <time>2022-12-22T17:10:39.619Z</time>
      </trkpt>
      <trkpt lat="45.43658" lon="-1.04199">
        <ele>47.165766</ele>
        <time>2022-12-22T17:10:41.622Z</time>
      </trkpt>
      <trkpt lat="45.43652" lon="-1.04189">
        <ele>47.156038</ele>
        <time>2022-12-22T17:10:43.622Z</time>
      </trkpt>
      <trkpt lat="45.43645" lon="-1.04179">
        <ele>47.145308</ele>
        <time>2022-12-22T17:10:45.621Z</time>
      </trkpt>
      <trkpt lat="45.43636" lon="-1.04165">
        <ele>47.130791</ele>
        <time>2022-12-22T17:10:48.622Z</time>
      </trkpt>
      <trkpt lat="45.4363" lon="-1.04155">
        <ele>47.120797</ele>
        <time>2022-12-22T17:10:50.622Z</time>
      </trkpt>
      <trkpt lat="45.43624" lon="-1.04145">
        <ele>47.110442</ele>
        <time>2022-12-22T17:10:52.607Z</time>
      </trkpt>
      <trkpt lat="45.43615" lon="-1.04132">
        <ele>47.097189</ele>
        <time>2022-12-22T17:10:55.611Z</time>
      </trkpt>
      <trkpt lat="45.43607" lon="-1.04119">
        <ele>47.084373</ele>
        <time>2022-12-22T17:10:58.596Z</time>
      </trkpt>
      <trkpt lat="45.43599" lon="-1.04106">
        <ele>47.071701</ele>
        <time>2022-12-22T17:11:01.602Z</time>
      </trkpt>
      <trkpt lat="45.43591" lon="-1.04093">
        <ele>47.058665</ele>
        <time>2022-12-22T17:11:04.596Z</time>
      </trkpt>
      <trkpt lat="45.43585" lon="-1.04083">
        <ele>47.048994</ele>
        <time>2022-12-22T17:11:06.599Z</time>
      </trkpt>
      <trkpt lat="45.43576" lon="-1.0407">
        <ele>47.035376</ele>
        <time>2022-12-22T17:11:09.603Z</time>
      </trkpt>
      <trkpt lat="45.43569" lon="-1.04058">
        <ele>47.023116</ele>
        <time>2022-12-22T17:11:12.593Z</time>
      </trkpt>
      <trkpt lat="45.43562" lon="-1.04045">
        <ele>47.010896</ele>
        <time>2022-12-22T17:11:15.590Z</time>
      </trkpt>
      <trkpt lat="45.43554" lon="-1.04032">
        <ele>46.998176</ele>
        <time>2022-12-22T17:11:18.588Z</time>
      </trkpt>
      <trkpt lat="45.43546" lon="-1.04019">
        <ele>47.094405</ele>
        <time>2022-12-22T17:11:21.606Z</time>
      </trkpt>
      <trkpt lat="45.43539" lon="-1.04006">
        <ele>47.200385</ele>
        <time>2022-12-22T17:11:24.619Z</time>
      </trkpt>
      <trkpt lat="45.43531" lon="-1.03995">
        <ele>47.29652</ele>
        <time>2022-12-22T17:11:27.601Z</time>
      </trkpt>
      <trkpt lat="45.43522" lon="-1.03982">
        <ele>47.409563</ele>
        <time>2022-12-22T17:11:30.603Z</time>
      </trkpt>
      <trkpt lat="45.43514" lon="-1.03969">
        <ele>47.514282</ele>
        <time>2022-12-22T17:11:33.599Z</time>
      </trkpt>
      <trkpt lat="45.43507" lon="-1.03957">
        <ele>47.617225</ele>
        <time>2022-12-22T17:11:36.600Z</time>
      </trkpt>
      <trkpt lat="45.43499" lon="-1.03945">
        <ele>47.720744</ele>
        <time>2022-12-22T17:11:39.613Z</time>
      </trkpt>
      <trkpt lat="45.43492" lon="-1.03933">
        <ele>47.816638</ele>
        <time>2022-12-22T17:11:42.595Z</time>
      </trkpt>
      <trkpt lat="45.43485" lon="-1.03919">
        <ele>47.922503</ele>
        <time>2022-12-22T17:11:45.593Z</time>
      </trkpt>
      <trkpt lat="45.43476" lon="-1.03906">
        <ele>48.036152</ele>
        <time>2022-12-22T17:11:48.603Z</time>
      </trkpt>
      <trkpt lat="45.43468" lon="-1.03892">
        <ele>48.14868</ele>
        <time>2022-12-22T17:11:51.606Z</time>
      </trkpt>
      <trkpt lat="45.43459" lon="-1.03878">
        <ele>48.260738</ele>
        <time>2022-12-22T17:11:54.615Z</time>
      </trkpt>
      <trkpt lat="45.43451" lon="-1.03865">
        <ele>48.368706</ele>
        <time>2022-12-22T17:11:57.600Z</time>
      </trkpt>
      <trkpt lat="45.43444" lon="-1.03854">
        <ele>48.46708</ele>
        <time>2022-12-22T17:12:00.600Z</time>
      </trkpt>
      <trkpt lat="45.43437" lon="-1.03844">
        <ele>48.551978</ele>
        <time>2022-12-22T17:12:03.587Z</time>
      </trkpt>
      <trkpt lat="45.43429" lon="-1.03833">
        <ele>48.513967</ele>
        <time>2022-12-22T17:12:06.612Z</time>
      </trkpt>
      <trkpt lat="45.4342" lon="-1.03822">
        <ele>48.383818</ele>
        <time>2022-12-22T17:12:09.629Z</time>
      </trkpt>
      <trkpt lat="45.4341" lon="-1.03814">
        <ele>48.260961</ele>
        <time>2022-12-22T17:12:12.596Z</time>
      </trkpt>
      <trkpt lat="45.43401" lon="-1.03804">
        <ele>48.129882</ele>
        <time>2022-12-22T17:12:15.615Z</time>
      </trkpt>
      <trkpt lat="45.4339" lon="-1.03795">
        <ele>47.991781</ele>
        <time>2022-12-22T17:12:18.611Z</time>
      </trkpt>
      <trkpt lat="45.4338" lon="-1.03786">
        <ele>47.857836</ele>
        <time>2022-12-22T17:12:21.609Z</time>
      </trkpt>
      <trkpt lat="45.4337" lon="-1.03777">
        <ele>47.727133</ele>
        <time>2022-12-22T17:12:24.602Z</time>
      </trkpt>
      <trkpt lat="45.43362" lon="-1.0377">
        <ele>47.627336</ele>
        <time>2022-12-22T17:12:26.604Z</time>
      </trkpt>
      <trkpt lat="45.43354" lon="-1.03763">
        <ele>47.523187</ele>
        <time>2022-12-22T17:12:28.603Z</time>
      </trkpt>
      <trkpt lat="45.43344" lon="-1.03753">
        <ele>47.388462</ele>
        <time>2022-12-22T17:12:31.621Z</time>
      </trkpt>
      <trkpt lat="45.43334" lon="-1.03742">
        <ele>47.251713</ele>
        <time>2022-12-22T17:12:34.619Z</time>
      </trkpt>
      <trkpt lat="45.43326" lon="-1.0373">
        <ele>47.116697</ele>
        <time>2022-12-22T17:12:37.594Z</time>
      </trkpt>
      <trkpt lat="45.43315" lon="-1.03716">
        <ele>46.953623</ele>
        <time>2022-12-22T17:12:40.601Z</time>
      </trkpt>
      <trkpt lat="45.43305" lon="-1.03706">
        <ele>46.820276</ele>
        <time>2022-12-22T17:12:43.619Z</time>
      </trkpt>
      <trkpt lat="45.43297" lon="-1.03691">
        <ele>46.676929</ele>
        <time>2022-12-22T17:12:46.598Z</time>
      </trkpt>
      <trkpt lat="45.43288" lon="-1.03678">
        <ele>46.597102</ele>
        <time>2022-12-22T17:12:49.608Z</time>
      </trkpt>
      <trkpt lat="45.4328" lon="-1.03664">
        <ele>46.588152</ele>
        <time>2022-12-22T17:12:52.608Z</time>
      </trkpt>
      <trkpt lat="45.43273" lon="-1.03654">
        <ele>46.581509</ele>
        <time>2022-12-22T17:12:54.611Z</time>
      </trkpt>
      <trkpt lat="45.43266" lon="-1.03644">
        <ele>46.574646</ele>
        <time>2022-12-22T17:12:56.610Z</time>
      </trkpt>
      <trkpt lat="45.43258" lon="-1.03631">
        <ele>46.566382</ele>
        <time>2022-12-22T17:12:59.596Z</time>
      </trkpt>
      <trkpt lat="45.43249" lon="-1.03618">
        <ele>46.557847</ele>
        <time>2022-12-22T17:13:02.611Z</time>
      </trkpt>
      <trkpt lat="45.4324" lon="-1.03606">
        <ele>46.549458</ele>
        <time>2022-12-22T17:13:05.592Z</time>
      </trkpt>
      <trkpt lat="45.43231" lon="-1.03595">
        <ele>46.541116</ele>
        <time>2022-12-22T17:13:08.588Z</time>
      </trkpt>
      <trkpt lat="45.43222" lon="-1.03584">
        <ele>46.533002</ele>
        <time>2022-12-22T17:13:11.622Z</time>
      </trkpt>
      <trkpt lat="45.43211" lon="-1.03574">
        <ele>46.524451</ele>
        <time>2022-12-22T17:13:14.610Z</time>
      </trkpt>
      <trkpt lat="45.43203" lon="-1.03567">
        <ele>46.517884</ele>
        <time>2022-12-22T17:13:17.621Z</time>
      </trkpt>
      <trkpt lat="45.43194" lon="-1.03559">
        <ele>46.510629</ele>
        <time>2022-12-22T17:13:21.601Z</time>
      </trkpt>
      <trkpt lat="45.43185" lon="-1.03552">
        <ele>46.503504</ele>
        <time>2022-12-22T17:13:25.611Z</time>
      </trkpt>
      <trkpt lat="45.43175" lon="-1.03544">
        <ele>46.495775</ele>
        <time>2022-12-22T17:13:29.600Z</time>
      </trkpt>
      <trkpt lat="45.43166" lon="-1.03538">
        <ele>46.489129</ele>
        <time>2022-12-22T17:13:32.594Z</time>
      </trkpt>
      <trkpt lat="45.43155" lon="-1.03534">
        <ele>46.481215</ele>
        <time>2022-12-22T17:13:36.602Z</time>
      </trkpt>
      <trkpt lat="45.43147" lon="-1.0353">
        <ele>46.461187</ele>
        <time>2022-12-22T17:13:39.616Z</time>
      </trkpt>
      <trkpt lat="45.43137" lon="-1.03526">
        <ele>46.424386</ele>
        <time>2022-12-22T17:13:42.598Z</time>
      </trkpt>
      <trkpt lat="45.43128" lon="-1.03523">
        <ele>46.389329</ele>
        <time>2022-12-22T17:13:45.617Z</time>
      </trkpt>
      <trkpt lat="45.43119" lon="-1.03521">
        <ele>46.356069</ele>
        <time>2022-12-22T17:13:48.593Z</time>
      </trkpt>
      <trkpt lat="45.43109" lon="-1.03518">
        <ele>46.321919</ele>
        <time>2022-12-22T17:13:52.595Z</time>
      </trkpt>
      <trkpt lat="45.43088" lon="-1.03515">
        <ele>46.245219</ele>
        <time>2022-12-22T17:17:35.602Z</time>
      </trkpt>
      <trkpt lat="45.43079" lon="-1.03514">
        <ele>46.210072</ele>
        <time>2022-12-22T17:17:39.615Z</time>
      </trkpt>
      <trkpt lat="45.43069" lon="-1.03514">
        <ele>46.173891</ele>
        <time>2022-12-22T17:17:43.619Z</time>
      </trkpt>
      <trkpt lat="45.43062" lon="-1.03505">
        <ele>46.140004</ele>
        <time>2022-12-22T17:17:48.624Z</time>
      </trkpt>
      <trkpt lat="45.4306" lon="-1.03488">
        <ele>46.096593</ele>
        <time>2022-12-22T17:17:53.617Z</time>
      </trkpt>
      <trkpt lat="45.43058" lon="-1.03474">
        <ele>46.059732</ele>
        <time>2022-12-22T17:17:56.599Z</time>
      </trkpt>
      <trkpt lat="45.43056" lon="-1.03459">
        <ele>46.020233</ele>
        <time>2022-12-22T17:17:59.600Z</time>
      </trkpt>
      <trkpt lat="45.43054" lon="-1.03443">
        <ele>45.98031</ele>
        <time>2022-12-22T17:18:02.591Z</time>
      </trkpt>
      <trkpt lat="45.43051" lon="-1.03428">
        <ele>45.940488</ele>
        <time>2022-12-22T17:18:05.586Z</time>
      </trkpt>
      <trkpt lat="45.43048" lon="-1.03414">
        <ele>45.902345</ele>
        <time>2022-12-22T17:18:08.589Z</time>
      </trkpt>
      <trkpt lat="45.43046" lon="-1.03399">
        <ele>45.862577</ele>
        <time>2022-12-22T17:18:12.598Z</time>
      </trkpt>
      <trkpt lat="45.4305" lon="-1.03376">
        <ele>45.802387</ele>
        <time>2022-12-22T17:18:36.670Z</time>
      </trkpt>
      <trkpt lat="45.43047" lon="-1.03363">
        <ele>45.77004</ele>
        <time>2022-12-22T17:18:39.620Z</time>
      </trkpt>
      <trkpt lat="45.43044" lon="-1.03349">
        <ele>45.734541</ele>
        <time>2022-12-22T17:18:42.596Z</time>
      </trkpt>
      <trkpt lat="45.4304" lon="-1.03335">
        <ele>45.699822</ele>
        <time>2022-12-22T17:18:45.600Z</time>
      </trkpt>
      <trkpt lat="45.43036" lon="-1.03322">
        <ele>45.665897</ele>
        <time>2022-12-22T17:18:48.596Z</time>
      </trkpt>
      <trkpt lat="45.43031" lon="-1.03311">
        <ele>45.634764</ele>
        <time>2022-12-22T17:18:51.594Z</time>
      </trkpt>
      <trkpt lat="45.43029" lon="-1.03297">
        <ele>45.601616</ele>
        <time>2022-12-22T17:18:55.593Z</time>
      </trkpt>
      <trkpt lat="45.43036" lon="-1.03284">
        <ele>45.562235</ele>
        <time>2022-12-22T17:19:00.593Z</time>
      </trkpt>
      <trkpt lat="45.43045" lon="-1.03272">
        <ele>45.521138</ele>
        <time>2022-12-22T17:19:04.599Z</time>
      </trkpt>
      <trkpt lat="45.43053" lon="-1.03263">
        <ele>45.485763</ele>
        <time>2022-12-22T17:19:07.596Z</time>
      </trkpt>
      <trkpt lat="45.43061" lon="-1.03254">
        <ele>45.450393</ele>
        <time>2022-12-22T17:19:10.594Z</time>
      </trkpt>
      <trkpt lat="45.43069" lon="-1.03245">
        <ele>45.41631</ele>
        <time>2022-12-22T17:19:13.599Z</time>
      </trkpt>
      <trkpt lat="45.43078" lon="-1.03233">
        <ele>45.376471</ele>
        <time>2022-12-22T17:19:17.597Z</time>
      </trkpt>
      <trkpt lat="45.43085" lon="-1.03224">
        <ele>45.344398</ele>
        <time>2022-12-22T17:19:20.597Z</time>
      </trkpt>
      <trkpt lat="45.43092" lon="-1.03214">
        <ele>45.309634</ele>
        <time>2022-12-22T17:19:23.605Z</time>
      </trkpt>
      <trkpt lat="45.431" lon="-1.03204">
        <ele>45.273564</ele>
        <time>2022-12-22T17:19:26.592Z</time>
      </trkpt>
      <trkpt lat="45.43108" lon="-1.03193">
        <ele>45.23758</ele>
        <time>2022-12-22T17:19:29.603Z</time>
      </trkpt>
      <trkpt lat="45.43115" lon="-1.03183">
        <ele>45.209333</ele>
        <time>2022-12-22T17:19:32.610Z</time>
      </trkpt>
      <trkpt lat="45.43121" lon="-1.03172">
        <ele>45.201794</ele>
        <time>2022-12-22T17:19:35.596Z</time>
      </trkpt>
      <trkpt lat="45.43127" lon="-1.03162">
        <ele>45.194936</ele>
        <time>2022-12-22T17:19:38.623Z</time>
      </trkpt>
      <trkpt lat="45.43135" lon="-1.03153">
        <ele>45.187374</ele>
        <time>2022-12-22T17:19:41.599Z</time>
      </trkpt>
      <trkpt lat="45.43142" lon="-1.03142">
        <ele>45.179411</ele>
        <time>2022-12-22T17:19:44.600Z</time>
      </trkpt>
      <trkpt lat="45.43149" lon="-1.03131">
        <ele>45.171471</ele>
        <time>2022-12-22T17:19:47.597Z</time>
      </trkpt>
      <trkpt lat="45.43156" lon="-1.03122">
        <ele>45.164358</ele>
        <time>2022-12-22T17:19:50.595Z</time>
      </trkpt>
      <trkpt lat="45.43163" lon="-1.0311">
        <ele>45.156641</ele>
        <time>2022-12-22T17:19:53.604Z</time>
      </trkpt>
      <trkpt lat="45.43169" lon="-1.03097">
        <ele>45.148219</ele>
        <time>2022-12-22T17:19:56.598Z</time>
      </trkpt>
      <trkpt lat="45.43174" lon="-1.03084">
        <ele>45.140181</ele>
        <time>2022-12-22T17:19:59.603Z</time>
      </trkpt>
      <trkpt lat="45.43178" lon="-1.03071">
        <ele>45.132521</ele>
        <time>2022-12-22T17:20:02.605Z</time>
      </trkpt>
      <trkpt lat="45.43181" lon="-1.03058">
        <ele>45.125312</ele>
        <time>2022-12-22T17:20:05.591Z</time>
      </trkpt>
      <trkpt lat="45.43184" lon="-1.03044">
        <ele>45.117497</ele>
        <time>2022-12-22T17:20:08.620Z</time>
      </trkpt>
      <trkpt lat="45.43187" lon="-1.03029">
        <ele>45.109086</ele>
        <time>2022-12-22T17:20:11.613Z</time>
      </trkpt>
      <trkpt lat="45.43191" lon="-1.03015">
        <ele>45.101429</ele>
        <time>2022-12-22T17:20:14.611Z</time>
      </trkpt>
      <trkpt lat="45.43195" lon="-1.03003">
        <ele>45.094463</ele>
        <time>2022-12-22T17:20:17.618Z</time>
      </trkpt>
      <trkpt lat="45.43199" lon="-1.02989">
        <ele>45.086006</ele>
        <time>2022-12-22T17:20:21.598Z</time>
      </trkpt>
      <trkpt lat="45.43201" lon="-1.02974">
        <ele>45.078026</ele>
        <time>2022-12-22T17:20:25.620Z</time>
      </trkpt>
      <trkpt lat="45.43198" lon="-1.02959">
        <ele>45.075379</ele>
        <time>2022-12-22T17:20:29.603Z</time>
      </trkpt>
      <trkpt lat="45.43193" lon="-1.02945">
        <ele>45.075379</ele>
        <time>2022-12-22T17:20:33.607Z</time>
      </trkpt>
      <trkpt lat="45.43188" lon="-1.0293">
        <ele>45.075379</ele>
        <time>2022-12-22T17:20:37.622Z</time>
      </trkpt>
      <trkpt lat="45.43183" lon="-1.02917">
        <ele>45.075379</ele>
        <time>2022-12-22T17:20:40.618Z</time>
      </trkpt>
      <trkpt lat="45.43179" lon="-1.02906">
        <ele>45.075379</ele>
        <time>2022-12-22T17:20:43.604Z</time>
      </trkpt>
      <trkpt lat="45.43172" lon="-1.02896">
        <ele>45.075379</ele>
        <time>2022-12-22T17:20:46.619Z</time>
      </trkpt>
      <trkpt lat="45.43161" lon="-1.02894">
        <ele>45.075379</ele>
        <time>2022-12-22T17:20:50.590Z</time>
      </trkpt>
      <trkpt lat="45.43151" lon="-1.02889">
        <ele>45.075379</ele>
        <time>2022-12-22T17:20:55.603Z</time>
      </trkpt>
      <trkpt lat="45.43149" lon="-1.02875">
        <ele>45.075379</ele>
        <time>2022-12-22T17:21:01.621Z</time>
      </trkpt>
      <trkpt lat="45.43154" lon="-1.02861">
        <ele>45.075379</ele>
        <time>2022-12-22T17:21:06.597Z</time>
      </trkpt>
      <trkpt lat="45.43161" lon="-1.0285">
        <ele>45.075379</ele>
        <time>2022-12-22T17:21:11.595Z</time>
      </trkpt>
      <trkpt lat="45.43167" lon="-1.02841">
        <ele>45.075379</ele>
        <time>2022-12-22T17:21:16.597Z</time>
      </trkpt>
      <trkpt lat="45.43173" lon="-1.02831">
        <ele>45.075379</ele>
        <time>2022-12-22T17:21:21.605Z</time>
      </trkpt>
      <trkpt lat="45.43179" lon="-1.02821">
        <ele>45.075379</ele>
        <time>2022-12-22T17:21:33.593Z</time>
      </trkpt>
      <trkpt lat="45.43188" lon="-1.02816">
        <ele>45.075379</ele>
        <time>2022-12-22T17:21:38.596Z</time>
      </trkpt>
      <trkpt lat="45.43197" lon="-1.02811">
        <ele>45.075379</ele>
        <time>2022-12-22T17:21:42.617Z</time>
      </trkpt>
      <trkpt lat="45.43206" lon="-1.02806">
        <ele>45.075379</ele>
        <time>2022-12-22T17:21:46.596Z</time>
      </trkpt>
      <trkpt lat="45.43215" lon="-1.02801">
        <ele>45.075379</ele>
        <time>2022-12-22T17:21:51.599Z</time>
      </trkpt>
      <trkpt lat="45.43225" lon="-1.02799">
        <ele>45.075379</ele>
        <time>2022-12-22T17:21:56.591Z</time>
      </trkpt>
      <trkpt lat="45.43231" lon="-1.02804">
        <ele>45.075379</ele>
        <time>2022-12-22T17:22:23.466Z</time>
      </trkpt>
    </trkseg>
  </trk>
</gpx>